<?xml version="1.0" encoding="UTF-8" standalone="no" ?>
<gpx xmlns="http://www.topografix.com/GPX/1/1" xmlns:xsi="http://www.w3.org/2001/XMLSchema-instance" xsi:schemaLocation="http://www.topografix.com/GPX/1/1 http://www.topografix.com/GPX/1/1/gpx.xsd" version="1.1" creator="VisuGPX - https://www.visugpx.com">
  <metadata>
    <name>Etape 7 : Prades 66 &gt; Cerberes</name>
  </metadata>
  <trk>
    <name><![CDATA[Etape 7 : Prades 66 > Cerberes]]></name>
    <trkseg>
      <trkpt lat="42.61712" lon="2.42743">
        <ele>360</ele>
        <time>2020-02-04T08:43:31.000Z</time>
      </trkpt>
      <trkpt lat="42.61692" lon="2.42697">
        <ele>361</ele>
        <time>2020-02-04T08:43:31.006Z</time>
      </trkpt>
      <trkpt lat="42.6167" lon="2.42648">
        <ele>362</ele>
        <time>2020-02-04T08:43:31.019Z</time>
      </trkpt>
      <trkpt lat="42.61622" lon="2.42684">
        <ele>361</ele>
        <time>2020-02-04T08:43:31.041Z</time>
      </trkpt>
      <trkpt lat="42.61632" lon="2.42696">
        <ele>361</ele>
        <time>2020-02-04T08:43:31.065Z</time>
      </trkpt>
      <trkpt lat="42.61661" lon="2.42739">
        <ele>359</ele>
        <time>2020-02-04T08:43:31.096Z</time>
      </trkpt>
      <trkpt lat="42.61661" lon="2.42739">
        <ele>359</ele>
        <time>2020-02-04T08:43:31.127Z</time>
      </trkpt>
      <trkpt lat="42.61711" lon="2.42811">
        <ele>359</ele>
        <time>2020-02-04T08:43:31.170Z</time>
      </trkpt>
      <trkpt lat="42.61758" lon="2.42878">
        <ele>359</ele>
        <time>2020-02-04T08:43:31.224Z</time>
      </trkpt>
      <trkpt lat="42.61812" lon="2.42942">
        <ele>358</ele>
        <time>2020-02-04T08:43:31.289Z</time>
      </trkpt>
      <trkpt lat="42.61837" lon="2.42922">
        <ele>357</ele>
        <time>2020-02-04T08:43:31.359Z</time>
      </trkpt>
      <trkpt lat="42.61899" lon="2.43008">
        <ele>353</ele>
        <time>2020-02-04T08:43:31.443Z</time>
      </trkpt>
      <trkpt lat="42.61899" lon="2.43008">
        <ele>353</ele>
        <time>2020-02-04T08:43:31.527Z</time>
      </trkpt>
      <trkpt lat="42.61922" lon="2.4304">
        <ele>351</ele>
        <time>2020-02-04T08:43:31.616Z</time>
      </trkpt>
      <trkpt lat="42.61954" lon="2.43086">
        <ele>350</ele>
        <time>2020-02-04T08:43:31.713Z</time>
      </trkpt>
      <trkpt lat="42.61983" lon="2.43127">
        <ele>349</ele>
        <time>2020-02-04T08:43:31.816Z</time>
      </trkpt>
      <trkpt lat="42.61983" lon="2.43127">
        <ele>349</ele>
        <time>2020-02-04T08:43:31.919Z</time>
      </trkpt>
      <trkpt lat="42.62008" lon="2.43181">
        <ele>349</ele>
        <time>2020-02-04T08:43:32.030Z</time>
      </trkpt>
      <trkpt lat="42.62027" lon="2.43236">
        <ele>348</ele>
        <time>2020-02-04T08:43:32.148Z</time>
      </trkpt>
      <trkpt lat="42.62031" lon="2.43247">
        <ele>348</ele>
        <time>2020-02-04T08:43:32.268Z</time>
      </trkpt>
      <trkpt lat="42.62048" lon="2.43299">
        <ele>347</ele>
        <time>2020-02-04T08:43:32.394Z</time>
      </trkpt>
      <trkpt lat="42.62056" lon="2.43325">
        <ele>347</ele>
        <time>2020-02-04T08:43:32.524Z</time>
      </trkpt>
      <trkpt lat="42.62069" lon="2.43362">
        <ele>347</ele>
        <time>2020-02-04T08:43:32.658Z</time>
      </trkpt>
      <trkpt lat="42.62071" lon="2.43369">
        <ele>347</ele>
        <time>2020-02-04T08:43:32.793Z</time>
      </trkpt>
      <trkpt lat="42.62101" lon="2.43459">
        <ele>346</ele>
        <time>2020-02-04T08:43:32.940Z</time>
      </trkpt>
      <trkpt lat="42.62116" lon="2.43502">
        <ele>345</ele>
        <time>2020-02-04T08:43:33.093Z</time>
      </trkpt>
      <trkpt lat="42.62139" lon="2.43578">
        <ele>344</ele>
        <time>2020-02-04T08:43:33.255Z</time>
      </trkpt>
      <trkpt lat="42.62147" lon="2.436">
        <ele>344</ele>
        <time>2020-02-04T08:43:33.420Z</time>
      </trkpt>
      <trkpt lat="42.62151" lon="2.43613">
        <ele>343</ele>
        <time>2020-02-04T08:43:33.587Z</time>
      </trkpt>
      <trkpt lat="42.62173" lon="2.43668">
        <ele>343</ele>
        <time>2020-02-04T08:43:33.761Z</time>
      </trkpt>
      <trkpt lat="42.62191" lon="2.4372">
        <ele>343</ele>
        <time>2020-02-04T08:43:33.942Z</time>
      </trkpt>
      <trkpt lat="42.62212" lon="2.43781">
        <ele>343</ele>
        <time>2020-02-04T08:43:34.131Z</time>
      </trkpt>
      <trkpt lat="42.62221" lon="2.43806">
        <ele>342</ele>
        <time>2020-02-04T08:43:34.323Z</time>
      </trkpt>
      <trkpt lat="42.62221" lon="2.43806">
        <ele>342</ele>
        <time>2020-02-04T08:43:34.515Z</time>
      </trkpt>
      <trkpt lat="42.62235" lon="2.43847">
        <ele>341</ele>
        <time>2020-02-04T08:43:34.713Z</time>
      </trkpt>
      <trkpt lat="42.62235" lon="2.43847">
        <ele>341</ele>
        <time>2020-02-04T08:43:34.911Z</time>
      </trkpt>
      <trkpt lat="42.62241" lon="2.43866">
        <ele>341</ele>
        <time>2020-02-04T08:43:35.111Z</time>
      </trkpt>
      <trkpt lat="42.62246" lon="2.43888">
        <ele>341</ele>
        <time>2020-02-04T08:43:35.314Z</time>
      </trkpt>
      <trkpt lat="42.62245" lon="2.43898">
        <ele>341</ele>
        <time>2020-02-04T08:43:35.518Z</time>
      </trkpt>
      <trkpt lat="42.62251" lon="2.43913">
        <ele>341</ele>
        <time>2020-02-04T08:43:35.724Z</time>
      </trkpt>
      <trkpt lat="42.62253" lon="2.43915">
        <ele>341</ele>
        <time>2020-02-04T08:43:35.930Z</time>
      </trkpt>
      <trkpt lat="42.62271" lon="2.43954">
        <ele>341</ele>
        <time>2020-02-04T08:43:36.142Z</time>
      </trkpt>
      <trkpt lat="42.62281" lon="2.43986">
        <ele>341</ele>
        <time>2020-02-04T08:43:36.358Z</time>
      </trkpt>
      <trkpt lat="42.62371" lon="2.44246">
        <ele>338</ele>
        <time>2020-02-04T08:43:36.608Z</time>
      </trkpt>
      <trkpt lat="42.62376" lon="2.4426">
        <ele>338</ele>
        <time>2020-02-04T08:43:36.860Z</time>
      </trkpt>
      <trkpt lat="42.6243" lon="2.44422">
        <ele>337</ele>
        <time>2020-02-04T08:43:37.133Z</time>
      </trkpt>
      <trkpt lat="42.62445" lon="2.44464">
        <ele>336</ele>
        <time>2020-02-04T08:43:37.411Z</time>
      </trkpt>
      <trkpt lat="42.6248" lon="2.44579">
        <ele>333</ele>
        <time>2020-02-04T08:43:37.704Z</time>
      </trkpt>
      <trkpt lat="42.62517" lon="2.44681">
        <ele>331</ele>
        <time>2020-02-04T08:43:38.010Z</time>
      </trkpt>
      <trkpt lat="42.6255" lon="2.44784">
        <ele>329</ele>
        <time>2020-02-04T08:43:38.329Z</time>
      </trkpt>
      <trkpt lat="42.62593" lon="2.44878">
        <ele>328</ele>
        <time>2020-02-04T08:43:38.662Z</time>
      </trkpt>
      <trkpt lat="42.627" lon="2.44984">
        <ele>324</ele>
        <time>2020-02-04T08:43:39.016Z</time>
      </trkpt>
      <trkpt lat="42.62745" lon="2.45051">
        <ele>320</ele>
        <time>2020-02-04T08:43:39.380Z</time>
      </trkpt>
      <trkpt lat="42.62745" lon="2.45051">
        <ele>320</ele>
        <time>2020-02-04T08:43:39.744Z</time>
      </trkpt>
      <trkpt lat="42.62833" lon="2.45202">
        <ele>323</ele>
        <time>2020-02-04T08:43:40.131Z</time>
      </trkpt>
      <trkpt lat="42.62837" lon="2.4521">
        <ele>324</ele>
        <time>2020-02-04T08:43:40.519Z</time>
      </trkpt>
      <trkpt lat="42.62865" lon="2.45255">
        <ele>325</ele>
        <time>2020-02-04T08:43:40.914Z</time>
      </trkpt>
      <trkpt lat="42.62865" lon="2.45255">
        <ele>325</ele>
        <time>2020-02-04T08:43:41.309Z</time>
      </trkpt>
      <trkpt lat="42.629" lon="2.45309">
        <ele>325</ele>
        <time>2020-02-04T08:43:41.713Z</time>
      </trkpt>
      <trkpt lat="42.62983" lon="2.45459">
        <ele>321</ele>
        <time>2020-02-04T08:43:42.139Z</time>
      </trkpt>
      <trkpt lat="42.62983" lon="2.45459">
        <ele>321</ele>
        <time>2020-02-04T08:43:42.565Z</time>
      </trkpt>
      <trkpt lat="42.63054" lon="2.45591">
        <ele>317</ele>
        <time>2020-02-04T08:43:43.010Z</time>
      </trkpt>
      <trkpt lat="42.63085" lon="2.45657">
        <ele>315</ele>
        <time>2020-02-04T08:43:43.464Z</time>
      </trkpt>
      <trkpt lat="42.63114" lon="2.45718">
        <ele>315</ele>
        <time>2020-02-04T08:43:43.927Z</time>
      </trkpt>
      <trkpt lat="42.63142" lon="2.45789">
        <ele>316</ele>
        <time>2020-02-04T08:43:44.399Z</time>
      </trkpt>
      <trkpt lat="42.63178" lon="2.45879">
        <ele>315</ele>
        <time>2020-02-04T08:43:44.883Z</time>
      </trkpt>
      <trkpt lat="42.63212" lon="2.45962">
        <ele>313</ele>
        <time>2020-02-04T08:43:45.379Z</time>
      </trkpt>
      <trkpt lat="42.63288" lon="2.46167">
        <ele>309</ele>
        <time>2020-02-04T08:43:45.902Z</time>
      </trkpt>
      <trkpt lat="42.63306" lon="2.46217">
        <ele>307</ele>
        <time>2020-02-04T08:43:46.431Z</time>
      </trkpt>
      <trkpt lat="42.63325" lon="2.46266">
        <ele>307</ele>
        <time>2020-02-04T08:43:46.967Z</time>
      </trkpt>
      <trkpt lat="42.63325" lon="2.46266">
        <ele>307</ele>
        <time>2020-02-04T08:43:47.503Z</time>
      </trkpt>
      <trkpt lat="42.63453" lon="2.46606">
        <ele>301</ele>
        <time>2020-02-04T08:43:48.084Z</time>
      </trkpt>
      <trkpt lat="42.63453" lon="2.46606">
        <ele>301</ele>
        <time>2020-02-04T08:43:48.665Z</time>
      </trkpt>
      <trkpt lat="42.63505" lon="2.46691">
        <ele>297</ele>
        <time>2020-02-04T08:43:49.259Z</time>
      </trkpt>
      <trkpt lat="42.63562" lon="2.46786">
        <ele>292</ele>
        <time>2020-02-04T08:43:49.868Z</time>
      </trkpt>
      <trkpt lat="42.63671" lon="2.46975">
        <ele>290</ele>
        <time>2020-02-04T08:43:50.505Z</time>
      </trkpt>
      <trkpt lat="42.63713" lon="2.4708">
        <ele>287</ele>
        <time>2020-02-04T08:43:51.156Z</time>
      </trkpt>
      <trkpt lat="42.63829" lon="2.4736">
        <ele>273</ele>
        <time>2020-02-04T08:43:51.845Z</time>
      </trkpt>
      <trkpt lat="42.6385" lon="2.47412">
        <ele>273</ele>
        <time>2020-02-04T08:43:52.541Z</time>
      </trkpt>
      <trkpt lat="42.6394" lon="2.47635">
        <ele>269</ele>
        <time>2020-02-04T08:43:53.267Z</time>
      </trkpt>
      <trkpt lat="42.6394" lon="2.47635">
        <ele>269</ele>
        <time>2020-02-04T08:43:53.993Z</time>
      </trkpt>
      <trkpt lat="42.63954" lon="2.47667">
        <ele>269</ele>
        <time>2020-02-04T08:43:54.723Z</time>
      </trkpt>
      <trkpt lat="42.64007" lon="2.47811">
        <ele>271</ele>
        <time>2020-02-04T08:43:55.472Z</time>
      </trkpt>
      <trkpt lat="42.64007" lon="2.47811">
        <ele>271</ele>
        <time>2020-02-04T08:43:56.221Z</time>
      </trkpt>
      <trkpt lat="42.64012" lon="2.47824">
        <ele>271</ele>
        <time>2020-02-04T08:43:56.972Z</time>
      </trkpt>
      <trkpt lat="42.64036" lon="2.47879">
        <ele>271</ele>
        <time>2020-02-04T08:43:57.731Z</time>
      </trkpt>
      <trkpt lat="42.64063" lon="2.47938">
        <ele>270</ele>
        <time>2020-02-04T08:43:58.498Z</time>
      </trkpt>
      <trkpt lat="42.64095" lon="2.48019">
        <ele>270</ele>
        <time>2020-02-04T08:43:59.276Z</time>
      </trkpt>
      <trkpt lat="42.64106" lon="2.48048">
        <ele>271</ele>
        <time>2020-02-04T08:44:00.057Z</time>
      </trkpt>
      <trkpt lat="42.64106" lon="2.48048">
        <ele>271</ele>
        <time>2020-02-04T08:44:00.838Z</time>
      </trkpt>
      <trkpt lat="42.64132" lon="2.48165">
        <ele>271</ele>
        <time>2020-02-04T08:44:01.634Z</time>
      </trkpt>
      <trkpt lat="42.64159" lon="2.48235">
        <ele>271</ele>
        <time>2020-02-04T08:44:02.439Z</time>
      </trkpt>
      <trkpt lat="42.64189" lon="2.48343">
        <ele>270</ele>
        <time>2020-02-04T08:44:03.258Z</time>
      </trkpt>
      <trkpt lat="42.64189" lon="2.48343">
        <ele>270</ele>
        <time>2020-02-04T08:44:04.077Z</time>
      </trkpt>
      <trkpt lat="42.64207" lon="2.4841">
        <ele>272</ele>
        <time>2020-02-04T08:44:04.904Z</time>
      </trkpt>
      <trkpt lat="42.64228" lon="2.48491">
        <ele>271</ele>
        <time>2020-02-04T08:44:05.741Z</time>
      </trkpt>
      <trkpt lat="42.64238" lon="2.48531">
        <ele>270</ele>
        <time>2020-02-04T08:44:06.583Z</time>
      </trkpt>
      <trkpt lat="42.64245" lon="2.48553">
        <ele>270</ele>
        <time>2020-02-04T08:44:07.428Z</time>
      </trkpt>
      <trkpt lat="42.64259" lon="2.48608">
        <ele>269</ele>
        <time>2020-02-04T08:44:08.280Z</time>
      </trkpt>
      <trkpt lat="42.64259" lon="2.48608">
        <ele>269</ele>
        <time>2020-02-04T08:44:09.132Z</time>
      </trkpt>
      <trkpt lat="42.64281" lon="2.48693">
        <ele>267</ele>
        <time>2020-02-04T08:44:09.995Z</time>
      </trkpt>
      <trkpt lat="42.64299" lon="2.48761">
        <ele>265</ele>
        <time>2020-02-04T08:44:10.866Z</time>
      </trkpt>
      <trkpt lat="42.64334" lon="2.4889">
        <ele>266</ele>
        <time>2020-02-04T08:44:11.754Z</time>
      </trkpt>
      <trkpt lat="42.64368" lon="2.49023">
        <ele>264</ele>
        <time>2020-02-04T08:44:12.658Z</time>
      </trkpt>
      <trkpt lat="42.64388" lon="2.49103">
        <ele>263</ele>
        <time>2020-02-04T08:44:13.572Z</time>
      </trkpt>
      <trkpt lat="42.64393" lon="2.49155">
        <ele>262</ele>
        <time>2020-02-04T08:44:14.492Z</time>
      </trkpt>
      <trkpt lat="42.64403" lon="2.49415">
        <ele>262</ele>
        <time>2020-02-04T08:44:15.443Z</time>
      </trkpt>
      <trkpt lat="42.64403" lon="2.49415">
        <ele>262</ele>
        <time>2020-02-04T08:44:16.394Z</time>
      </trkpt>
      <trkpt lat="42.64407" lon="2.49531">
        <ele>259</ele>
        <time>2020-02-04T08:44:17.359Z</time>
      </trkpt>
      <trkpt lat="42.64424" lon="2.49997">
        <ele>253</ele>
        <time>2020-02-04T08:44:18.379Z</time>
      </trkpt>
      <trkpt lat="42.64425" lon="2.50023">
        <ele>253</ele>
        <time>2020-02-04T08:44:19.402Z</time>
      </trkpt>
      <trkpt lat="42.64425" lon="2.50206">
        <ele>254</ele>
        <time>2020-02-04T08:44:20.446Z</time>
      </trkpt>
      <trkpt lat="42.64419" lon="2.50244">
        <ele>254</ele>
        <time>2020-02-04T08:44:21.495Z</time>
      </trkpt>
      <trkpt lat="42.64412" lon="2.50253">
        <ele>254</ele>
        <time>2020-02-04T08:44:22.546Z</time>
      </trkpt>
      <trkpt lat="42.64412" lon="2.50253">
        <ele>254</ele>
        <time>2020-02-04T08:44:23.597Z</time>
      </trkpt>
      <trkpt lat="42.64412" lon="2.50253">
        <ele>254</ele>
        <time>2020-02-04T08:44:24.648Z</time>
      </trkpt>
      <trkpt lat="42.6441" lon="2.50256">
        <ele>254</ele>
        <time>2020-02-04T08:44:25.699Z</time>
      </trkpt>
      <trkpt lat="42.6441" lon="2.50256">
        <ele>254</ele>
        <time>2020-02-04T08:44:26.750Z</time>
      </trkpt>
      <trkpt lat="42.64385" lon="2.50274">
        <ele>255</ele>
        <time>2020-02-04T08:44:27.806Z</time>
      </trkpt>
      <trkpt lat="42.64349" lon="2.50293">
        <ele>256</ele>
        <time>2020-02-04T08:44:28.868Z</time>
      </trkpt>
      <trkpt lat="42.64246" lon="2.50341">
        <ele>260</ele>
        <time>2020-02-04T08:44:29.947Z</time>
      </trkpt>
      <trkpt lat="42.64204" lon="2.50372">
        <ele>263</ele>
        <time>2020-02-04T08:44:31.034Z</time>
      </trkpt>
      <trkpt lat="42.64204" lon="2.50372">
        <ele>263</ele>
        <time>2020-02-04T08:44:32.121Z</time>
      </trkpt>
      <trkpt lat="42.64149" lon="2.5039">
        <ele>266</ele>
        <time>2020-02-04T08:44:33.217Z</time>
      </trkpt>
      <trkpt lat="42.64113" lon="2.50409">
        <ele>265</ele>
        <time>2020-02-04T08:44:34.319Z</time>
      </trkpt>
      <trkpt lat="42.64066" lon="2.50448">
        <ele>265</ele>
        <time>2020-02-04T08:44:35.430Z</time>
      </trkpt>
      <trkpt lat="42.64046" lon="2.50453">
        <ele>265</ele>
        <time>2020-02-04T08:44:36.544Z</time>
      </trkpt>
      <trkpt lat="42.64034" lon="2.50454">
        <ele>265</ele>
        <time>2020-02-04T08:44:37.660Z</time>
      </trkpt>
      <trkpt lat="42.64026" lon="2.50452">
        <ele>265</ele>
        <time>2020-02-04T08:44:38.777Z</time>
      </trkpt>
      <trkpt lat="42.63995" lon="2.50435">
        <ele>266</ele>
        <time>2020-02-04T08:44:39.900Z</time>
      </trkpt>
      <trkpt lat="42.63995" lon="2.50435">
        <ele>266</ele>
        <time>2020-02-04T08:44:41.023Z</time>
      </trkpt>
      <trkpt lat="42.6399" lon="2.50432">
        <ele>266</ele>
        <time>2020-02-04T08:44:42.147Z</time>
      </trkpt>
      <trkpt lat="42.63929" lon="2.50403">
        <ele>267</ele>
        <time>2020-02-04T08:44:43.281Z</time>
      </trkpt>
      <trkpt lat="42.63825" lon="2.5037">
        <ele>270</ele>
        <time>2020-02-04T08:44:44.432Z</time>
      </trkpt>
      <trkpt lat="42.63821" lon="2.50368">
        <ele>270</ele>
        <time>2020-02-04T08:44:45.584Z</time>
      </trkpt>
      <trkpt lat="42.63821" lon="2.50368">
        <ele>270</ele>
        <time>2020-02-04T08:44:46.736Z</time>
      </trkpt>
      <trkpt lat="42.63697" lon="2.50323">
        <ele>271</ele>
        <time>2020-02-04T08:44:47.908Z</time>
      </trkpt>
      <trkpt lat="42.6365" lon="2.50281">
        <ele>272</ele>
        <time>2020-02-04T08:44:49.089Z</time>
      </trkpt>
      <trkpt lat="42.63587" lon="2.50207">
        <ele>275</ele>
        <time>2020-02-04T08:44:50.284Z</time>
      </trkpt>
      <trkpt lat="42.63532" lon="2.50203">
        <ele>276</ele>
        <time>2020-02-04T08:44:51.487Z</time>
      </trkpt>
      <trkpt lat="42.63492" lon="2.50215">
        <ele>273</ele>
        <time>2020-02-04T08:44:52.697Z</time>
      </trkpt>
      <trkpt lat="42.63476" lon="2.50211">
        <ele>273</ele>
        <time>2020-02-04T08:44:53.910Z</time>
      </trkpt>
      <trkpt lat="42.63409" lon="2.50182">
        <ele>273</ele>
        <time>2020-02-04T08:44:55.134Z</time>
      </trkpt>
      <trkpt lat="42.63368" lon="2.50141">
        <ele>275</ele>
        <time>2020-02-04T08:44:56.366Z</time>
      </trkpt>
      <trkpt lat="42.63262" lon="2.50063">
        <ele>276</ele>
        <time>2020-02-04T08:44:57.617Z</time>
      </trkpt>
      <trkpt lat="42.63227" lon="2.50022">
        <ele>278</ele>
        <time>2020-02-04T08:44:58.876Z</time>
      </trkpt>
      <trkpt lat="42.63167" lon="2.50019">
        <ele>275</ele>
        <time>2020-02-04T08:45:00.144Z</time>
      </trkpt>
      <trkpt lat="42.63167" lon="2.50019">
        <ele>275</ele>
        <time>2020-02-04T08:45:01.412Z</time>
      </trkpt>
      <trkpt lat="42.63104" lon="2.50021">
        <ele>273</ele>
        <time>2020-02-04T08:45:02.690Z</time>
      </trkpt>
      <trkpt lat="42.6289" lon="2.49948">
        <ele>271</ele>
        <time>2020-02-04T08:45:04.004Z</time>
      </trkpt>
      <trkpt lat="42.62735" lon="2.49918">
        <ele>275</ele>
        <time>2020-02-04T08:45:05.343Z</time>
      </trkpt>
      <trkpt lat="42.62704" lon="2.49921">
        <ele>276</ele>
        <time>2020-02-04T08:45:06.687Z</time>
      </trkpt>
      <trkpt lat="42.62685" lon="2.49933">
        <ele>276</ele>
        <time>2020-02-04T08:45:08.034Z</time>
      </trkpt>
      <trkpt lat="42.62627" lon="2.4999">
        <ele>279</ele>
        <time>2020-02-04T08:45:09.393Z</time>
      </trkpt>
      <trkpt lat="42.62583" lon="2.50029">
        <ele>278</ele>
        <time>2020-02-04T08:45:10.760Z</time>
      </trkpt>
      <trkpt lat="42.62583" lon="2.50029">
        <ele>278</ele>
        <time>2020-02-04T08:45:12.127Z</time>
      </trkpt>
      <trkpt lat="42.62508" lon="2.50088">
        <ele>281</ele>
        <time>2020-02-04T08:45:13.508Z</time>
      </trkpt>
      <trkpt lat="42.62463" lon="2.50103">
        <ele>284</ele>
        <time>2020-02-04T08:45:14.896Z</time>
      </trkpt>
      <trkpt lat="42.62444" lon="2.50105">
        <ele>286</ele>
        <time>2020-02-04T08:45:16.287Z</time>
      </trkpt>
      <trkpt lat="42.62433" lon="2.5012">
        <ele>285</ele>
        <time>2020-02-04T08:45:17.681Z</time>
      </trkpt>
      <trkpt lat="42.62422" lon="2.50188">
        <ele>282</ele>
        <time>2020-02-04T08:45:19.083Z</time>
      </trkpt>
      <trkpt lat="42.62422" lon="2.50188">
        <ele>282</ele>
        <time>2020-02-04T08:45:20.485Z</time>
      </trkpt>
      <trkpt lat="42.62377" lon="2.50252">
        <ele>285</ele>
        <time>2020-02-04T08:45:21.897Z</time>
      </trkpt>
      <trkpt lat="42.62361" lon="2.50268">
        <ele>286</ele>
        <time>2020-02-04T08:45:23.313Z</time>
      </trkpt>
      <trkpt lat="42.62333" lon="2.50266">
        <ele>287</ele>
        <time>2020-02-04T08:45:24.733Z</time>
      </trkpt>
      <trkpt lat="42.62333" lon="2.50266">
        <ele>287</ele>
        <time>2020-02-04T08:45:26.153Z</time>
      </trkpt>
      <trkpt lat="42.62302" lon="2.50268">
        <ele>292</ele>
        <time>2020-02-04T08:45:27.578Z</time>
      </trkpt>
      <trkpt lat="42.62228" lon="2.50304">
        <ele>295</ele>
        <time>2020-02-04T08:45:29.016Z</time>
      </trkpt>
      <trkpt lat="42.62169" lon="2.5052">
        <ele>296</ele>
        <time>2020-02-04T08:45:30.481Z</time>
      </trkpt>
      <trkpt lat="42.62115" lon="2.5064">
        <ele>296</ele>
        <time>2020-02-04T08:45:31.963Z</time>
      </trkpt>
      <trkpt lat="42.62115" lon="2.5064">
        <ele>296</ele>
        <time>2020-02-04T08:45:33.445Z</time>
      </trkpt>
      <trkpt lat="42.6192" lon="2.50795">
        <ele>302</ele>
        <time>2020-02-04T08:45:34.963Z</time>
      </trkpt>
      <trkpt lat="42.61855" lon="2.50834">
        <ele>302</ele>
        <time>2020-02-04T08:45:36.492Z</time>
      </trkpt>
      <trkpt lat="42.61779" lon="2.50863">
        <ele>308</ele>
        <time>2020-02-04T08:45:38.034Z</time>
      </trkpt>
      <trkpt lat="42.61735" lon="2.50898">
        <ele>304</ele>
        <time>2020-02-04T08:45:39.584Z</time>
      </trkpt>
      <trkpt lat="42.61701" lon="2.50926">
        <ele>304</ele>
        <time>2020-02-04T08:45:41.140Z</time>
      </trkpt>
      <trkpt lat="42.61673" lon="2.50943">
        <ele>304</ele>
        <time>2020-02-04T08:45:42.701Z</time>
      </trkpt>
      <trkpt lat="42.61652" lon="2.50967">
        <ele>305</ele>
        <time>2020-02-04T08:45:44.267Z</time>
      </trkpt>
      <trkpt lat="42.61625" lon="2.5103">
        <ele>306</ele>
        <time>2020-02-04T08:45:45.841Z</time>
      </trkpt>
      <trkpt lat="42.61625" lon="2.5103">
        <ele>306</ele>
        <time>2020-02-04T08:45:47.415Z</time>
      </trkpt>
      <trkpt lat="42.61613" lon="2.51092">
        <ele>309</ele>
        <time>2020-02-04T08:45:48.997Z</time>
      </trkpt>
      <trkpt lat="42.61613" lon="2.51092">
        <ele>309</ele>
        <time>2020-02-04T08:45:50.579Z</time>
      </trkpt>
      <trkpt lat="42.61611" lon="2.511">
        <ele>310</ele>
        <time>2020-02-04T08:45:52.162Z</time>
      </trkpt>
      <trkpt lat="42.61607" lon="2.51103">
        <ele>311</ele>
        <time>2020-02-04T08:45:53.745Z</time>
      </trkpt>
      <trkpt lat="42.61588" lon="2.51103">
        <ele>309</ele>
        <time>2020-02-04T08:45:55.332Z</time>
      </trkpt>
      <trkpt lat="42.61534" lon="2.51103">
        <ele>314</ele>
        <time>2020-02-04T08:45:56.927Z</time>
      </trkpt>
      <trkpt lat="42.61516" lon="2.51116">
        <ele>316</ele>
        <time>2020-02-04T08:45:58.525Z</time>
      </trkpt>
      <trkpt lat="42.61519" lon="2.51125">
        <ele>317</ele>
        <time>2020-02-04T08:46:00.124Z</time>
      </trkpt>
      <trkpt lat="42.61547" lon="2.5116">
        <ele>318</ele>
        <time>2020-02-04T08:46:01.730Z</time>
      </trkpt>
      <trkpt lat="42.61562" lon="2.51182">
        <ele>321</ele>
        <time>2020-02-04T08:46:03.339Z</time>
      </trkpt>
      <trkpt lat="42.61578" lon="2.51187">
        <ele>322</ele>
        <time>2020-02-04T08:46:04.951Z</time>
      </trkpt>
      <trkpt lat="42.61602" lon="2.51202">
        <ele>325</ele>
        <time>2020-02-04T08:46:06.567Z</time>
      </trkpt>
      <trkpt lat="42.61603" lon="2.51203">
        <ele>325</ele>
        <time>2020-02-04T08:46:08.183Z</time>
      </trkpt>
      <trkpt lat="42.61629" lon="2.51206">
        <ele>327</ele>
        <time>2020-02-04T08:46:09.803Z</time>
      </trkpt>
      <trkpt lat="42.61629" lon="2.51206">
        <ele>327</ele>
        <time>2020-02-04T08:46:11.423Z</time>
      </trkpt>
      <trkpt lat="42.61695" lon="2.51191">
        <ele>328</ele>
        <time>2020-02-04T08:46:13.054Z</time>
      </trkpt>
      <trkpt lat="42.61722" lon="2.51165">
        <ele>327</ele>
        <time>2020-02-04T08:46:14.690Z</time>
      </trkpt>
      <trkpt lat="42.61722" lon="2.51165">
        <ele>327</ele>
        <time>2020-02-04T08:46:16.326Z</time>
      </trkpt>
      <trkpt lat="42.61742" lon="2.51152">
        <ele>327</ele>
        <time>2020-02-04T08:46:17.966Z</time>
      </trkpt>
      <trkpt lat="42.61767" lon="2.51158">
        <ele>329</ele>
        <time>2020-02-04T08:46:19.610Z</time>
      </trkpt>
      <trkpt lat="42.61782" lon="2.51187">
        <ele>332</ele>
        <time>2020-02-04T08:46:21.258Z</time>
      </trkpt>
      <trkpt lat="42.61796" lon="2.51243">
        <ele>336</ele>
        <time>2020-02-04T08:46:22.913Z</time>
      </trkpt>
      <trkpt lat="42.61799" lon="2.51254">
        <ele>337</ele>
        <time>2020-02-04T08:46:24.570Z</time>
      </trkpt>
      <trkpt lat="42.61806" lon="2.5127">
        <ele>339</ele>
        <time>2020-02-04T08:46:26.229Z</time>
      </trkpt>
      <trkpt lat="42.6183" lon="2.51294">
        <ele>341</ele>
        <time>2020-02-04T08:46:27.892Z</time>
      </trkpt>
      <trkpt lat="42.61882" lon="2.51315">
        <ele>341</ele>
        <time>2020-02-04T08:46:29.564Z</time>
      </trkpt>
      <trkpt lat="42.61968" lon="2.51369">
        <ele>342</ele>
        <time>2020-02-04T08:46:31.251Z</time>
      </trkpt>
      <trkpt lat="42.61999" lon="2.51372">
        <ele>339</ele>
        <time>2020-02-04T08:46:32.943Z</time>
      </trkpt>
      <trkpt lat="42.62052" lon="2.51357">
        <ele>336</ele>
        <time>2020-02-04T08:46:34.644Z</time>
      </trkpt>
      <trkpt lat="42.62052" lon="2.51357">
        <ele>336</ele>
        <time>2020-02-04T08:46:36.345Z</time>
      </trkpt>
      <trkpt lat="42.62192" lon="2.51395">
        <ele>334</ele>
        <time>2020-02-04T08:46:38.069Z</time>
      </trkpt>
      <trkpt lat="42.62221" lon="2.51414">
        <ele>334</ele>
        <time>2020-02-04T08:46:39.798Z</time>
      </trkpt>
      <trkpt lat="42.62233" lon="2.51454">
        <ele>335</ele>
        <time>2020-02-04T08:46:41.532Z</time>
      </trkpt>
      <trkpt lat="42.62244" lon="2.51586">
        <ele>337</ele>
        <time>2020-02-04T08:46:43.282Z</time>
      </trkpt>
      <trkpt lat="42.62252" lon="2.51779">
        <ele>338</ele>
        <time>2020-02-04T08:46:45.055Z</time>
      </trkpt>
      <trkpt lat="42.62254" lon="2.51839">
        <ele>339</ele>
        <time>2020-02-04T08:46:46.835Z</time>
      </trkpt>
      <trkpt lat="42.62206" lon="2.51855">
        <ele>341</ele>
        <time>2020-02-04T08:46:48.622Z</time>
      </trkpt>
      <trkpt lat="42.62206" lon="2.51855">
        <ele>341</ele>
        <time>2020-02-04T08:46:50.409Z</time>
      </trkpt>
      <trkpt lat="42.62206" lon="2.51855">
        <ele>341</ele>
        <time>2020-02-04T08:46:52.196Z</time>
      </trkpt>
      <trkpt lat="42.62206" lon="2.51855">
        <ele>341</ele>
        <time>2020-02-04T08:46:53.983Z</time>
      </trkpt>
      <trkpt lat="42.62183" lon="2.51863">
        <ele>341</ele>
        <time>2020-02-04T08:46:55.774Z</time>
      </trkpt>
      <trkpt lat="42.62125" lon="2.51881">
        <ele>343</ele>
        <time>2020-02-04T08:46:57.575Z</time>
      </trkpt>
      <trkpt lat="42.62059" lon="2.51884">
        <ele>346</ele>
        <time>2020-02-04T08:46:59.386Z</time>
      </trkpt>
      <trkpt lat="42.62029" lon="2.51884">
        <ele>347</ele>
        <time>2020-02-04T08:47:01.202Z</time>
      </trkpt>
      <trkpt lat="42.62029" lon="2.51884">
        <ele>347</ele>
        <time>2020-02-04T08:47:03.018Z</time>
      </trkpt>
      <trkpt lat="42.61887" lon="2.51887">
        <ele>355</ele>
        <time>2020-02-04T08:47:04.857Z</time>
      </trkpt>
      <trkpt lat="42.61799" lon="2.519">
        <ele>361</ele>
        <time>2020-02-04T08:47:06.710Z</time>
      </trkpt>
      <trkpt lat="42.61744" lon="2.5184">
        <ele>363</ele>
        <time>2020-02-04T08:47:08.574Z</time>
      </trkpt>
      <trkpt lat="42.61742" lon="2.51837">
        <ele>363</ele>
        <time>2020-02-04T08:47:10.439Z</time>
      </trkpt>
      <trkpt lat="42.61681" lon="2.51769">
        <ele>366</ele>
        <time>2020-02-04T08:47:12.316Z</time>
      </trkpt>
      <trkpt lat="42.61652" lon="2.51746">
        <ele>367</ele>
        <time>2020-02-04T08:47:14.199Z</time>
      </trkpt>
      <trkpt lat="42.61598" lon="2.51722">
        <ele>371</ele>
        <time>2020-02-04T08:47:16.091Z</time>
      </trkpt>
      <trkpt lat="42.61574" lon="2.51719">
        <ele>373</ele>
        <time>2020-02-04T08:47:17.987Z</time>
      </trkpt>
      <trkpt lat="42.61504" lon="2.51732">
        <ele>378</ele>
        <time>2020-02-04T08:47:19.894Z</time>
      </trkpt>
      <trkpt lat="42.61348" lon="2.51768">
        <ele>392</ele>
        <time>2020-02-04T08:47:21.826Z</time>
      </trkpt>
      <trkpt lat="42.61333" lon="2.51761">
        <ele>393</ele>
        <time>2020-02-04T08:47:23.761Z</time>
      </trkpt>
      <trkpt lat="42.61298" lon="2.51704">
        <ele>398</ele>
        <time>2020-02-04T08:47:25.705Z</time>
      </trkpt>
      <trkpt lat="42.61266" lon="2.51618">
        <ele>398</ele>
        <time>2020-02-04T08:47:27.660Z</time>
      </trkpt>
      <trkpt lat="42.61244" lon="2.51589">
        <ele>400</ele>
        <time>2020-02-04T08:47:29.620Z</time>
      </trkpt>
      <trkpt lat="42.61244" lon="2.51589">
        <ele>400</ele>
        <time>2020-02-04T08:47:31.580Z</time>
      </trkpt>
      <trkpt lat="42.61172" lon="2.51495">
        <ele>408</ele>
        <time>2020-02-04T08:47:33.556Z</time>
      </trkpt>
      <trkpt lat="42.61163" lon="2.51473">
        <ele>409</ele>
        <time>2020-02-04T08:47:35.535Z</time>
      </trkpt>
      <trkpt lat="42.61154" lon="2.51404">
        <ele>404</ele>
        <time>2020-02-04T08:47:37.522Z</time>
      </trkpt>
      <trkpt lat="42.61098" lon="2.51294">
        <ele>396</ele>
        <time>2020-02-04T08:47:39.525Z</time>
      </trkpt>
      <trkpt lat="42.61048" lon="2.51265">
        <ele>401</ele>
        <time>2020-02-04T08:47:41.537Z</time>
      </trkpt>
      <trkpt lat="42.60988" lon="2.51251">
        <ele>415</ele>
        <time>2020-02-04T08:47:43.558Z</time>
      </trkpt>
      <trkpt lat="42.60927" lon="2.51209">
        <ele>413</ele>
        <time>2020-02-04T08:47:45.590Z</time>
      </trkpt>
      <trkpt lat="42.60861" lon="2.5114">
        <ele>407</ele>
        <time>2020-02-04T08:47:47.636Z</time>
      </trkpt>
      <trkpt lat="42.60808" lon="2.51055">
        <ele>392</ele>
        <time>2020-02-04T08:47:49.695Z</time>
      </trkpt>
      <trkpt lat="42.60798" lon="2.51055">
        <ele>390</ele>
        <time>2020-02-04T08:47:51.755Z</time>
      </trkpt>
      <trkpt lat="42.60785" lon="2.51072">
        <ele>390</ele>
        <time>2020-02-04T08:47:53.818Z</time>
      </trkpt>
      <trkpt lat="42.60786" lon="2.51163">
        <ele>404</ele>
        <time>2020-02-04T08:47:55.892Z</time>
      </trkpt>
      <trkpt lat="42.60753" lon="2.51243">
        <ele>414</ele>
        <time>2020-02-04T08:47:57.977Z</time>
      </trkpt>
      <trkpt lat="42.60707" lon="2.51302">
        <ele>418</ele>
        <time>2020-02-04T08:48:00.072Z</time>
      </trkpt>
      <trkpt lat="42.60655" lon="2.51354">
        <ele>419</ele>
        <time>2020-02-04T08:48:02.177Z</time>
      </trkpt>
      <trkpt lat="42.60596" lon="2.51378">
        <ele>417</ele>
        <time>2020-02-04T08:48:04.292Z</time>
      </trkpt>
      <trkpt lat="42.60572" lon="2.51421">
        <ele>429</ele>
        <time>2020-02-04T08:48:06.414Z</time>
      </trkpt>
      <trkpt lat="42.60556" lon="2.51418">
        <ele>435</ele>
        <time>2020-02-04T08:48:08.538Z</time>
      </trkpt>
      <trkpt lat="42.60547" lon="2.51395">
        <ele>435</ele>
        <time>2020-02-04T08:48:10.665Z</time>
      </trkpt>
      <trkpt lat="42.60534" lon="2.51354">
        <ele>433</ele>
        <time>2020-02-04T08:48:12.797Z</time>
      </trkpt>
      <trkpt lat="42.60529" lon="2.51309">
        <ele>426</ele>
        <time>2020-02-04T08:48:14.935Z</time>
      </trkpt>
      <trkpt lat="42.60477" lon="2.51149">
        <ele>409</ele>
        <time>2020-02-04T08:48:17.093Z</time>
      </trkpt>
      <trkpt lat="42.60451" lon="2.51133">
        <ele>408</ele>
        <time>2020-02-04T08:48:19.256Z</time>
      </trkpt>
      <trkpt lat="42.60396" lon="2.5115">
        <ele>424</ele>
        <time>2020-02-04T08:48:21.428Z</time>
      </trkpt>
      <trkpt lat="42.60354" lon="2.51181">
        <ele>419</ele>
        <time>2020-02-04T08:48:23.608Z</time>
      </trkpt>
      <trkpt lat="42.6032" lon="2.51225">
        <ele>428</ele>
        <time>2020-02-04T08:48:25.795Z</time>
      </trkpt>
      <trkpt lat="42.60277" lon="2.51323">
        <ele>437</ele>
        <time>2020-02-04T08:48:27.996Z</time>
      </trkpt>
      <trkpt lat="42.60181" lon="2.51405">
        <ele>455</ele>
        <time>2020-02-04T08:48:30.215Z</time>
      </trkpt>
      <trkpt lat="42.60156" lon="2.51407">
        <ele>457</ele>
        <time>2020-02-04T08:48:32.438Z</time>
      </trkpt>
      <trkpt lat="42.60128" lon="2.51378">
        <ele>451</ele>
        <time>2020-02-04T08:48:34.666Z</time>
      </trkpt>
      <trkpt lat="42.60071" lon="2.51344">
        <ele>451</ele>
        <time>2020-02-04T08:48:36.904Z</time>
      </trkpt>
      <trkpt lat="42.60058" lon="2.51322">
        <ele>444</ele>
        <time>2020-02-04T08:48:39.146Z</time>
      </trkpt>
      <trkpt lat="42.60046" lon="2.51273">
        <ele>424</ele>
        <time>2020-02-04T08:48:41.394Z</time>
      </trkpt>
      <trkpt lat="42.60033" lon="2.51273">
        <ele>426</ele>
        <time>2020-02-04T08:48:43.644Z</time>
      </trkpt>
      <trkpt lat="42.6" lon="2.51321">
        <ele>455</ele>
        <time>2020-02-04T08:48:45.902Z</time>
      </trkpt>
      <trkpt lat="42.6" lon="2.51321">
        <ele>455</ele>
        <time>2020-02-04T08:48:48.160Z</time>
      </trkpt>
      <trkpt lat="42.5996" lon="2.51339">
        <ele>462</ele>
        <time>2020-02-04T08:48:50.424Z</time>
      </trkpt>
      <trkpt lat="42.59934" lon="2.51359">
        <ele>471</ele>
        <time>2020-02-04T08:48:52.693Z</time>
      </trkpt>
      <trkpt lat="42.59906" lon="2.51331">
        <ele>457</ele>
        <time>2020-02-04T08:48:54.968Z</time>
      </trkpt>
      <trkpt lat="42.59852" lon="2.51314">
        <ele>455</ele>
        <time>2020-02-04T08:48:57.252Z</time>
      </trkpt>
      <trkpt lat="42.59841" lon="2.5132">
        <ele>458</ele>
        <time>2020-02-04T08:48:59.538Z</time>
      </trkpt>
      <trkpt lat="42.59831" lon="2.51342">
        <ele>468</ele>
        <time>2020-02-04T08:49:01.827Z</time>
      </trkpt>
      <trkpt lat="42.59817" lon="2.51349">
        <ele>474</ele>
        <time>2020-02-04T08:49:04.118Z</time>
      </trkpt>
      <trkpt lat="42.5979" lon="2.51311">
        <ele>463</ele>
        <time>2020-02-04T08:49:06.415Z</time>
      </trkpt>
      <trkpt lat="42.59729" lon="2.51293">
        <ele>469</ele>
        <time>2020-02-04T08:49:08.722Z</time>
      </trkpt>
      <trkpt lat="42.59717" lon="2.51302">
        <ele>475</ele>
        <time>2020-02-04T08:49:11.031Z</time>
      </trkpt>
      <trkpt lat="42.59713" lon="2.51334">
        <ele>483</ele>
        <time>2020-02-04T08:49:13.344Z</time>
      </trkpt>
      <trkpt lat="42.59701" lon="2.51362">
        <ele>496</ele>
        <time>2020-02-04T08:49:15.661Z</time>
      </trkpt>
      <trkpt lat="42.59686" lon="2.51366">
        <ele>496</ele>
        <time>2020-02-04T08:49:17.980Z</time>
      </trkpt>
      <trkpt lat="42.59682" lon="2.51362">
        <ele>495</ele>
        <time>2020-02-04T08:49:20.300Z</time>
      </trkpt>
      <trkpt lat="42.5968" lon="2.51325">
        <ele>485</ele>
        <time>2020-02-04T08:49:22.625Z</time>
      </trkpt>
      <trkpt lat="42.59658" lon="2.51242">
        <ele>470</ele>
        <time>2020-02-04T08:49:24.960Z</time>
      </trkpt>
      <trkpt lat="42.59596" lon="2.51193">
        <ele>470</ele>
        <time>2020-02-04T08:49:27.307Z</time>
      </trkpt>
      <trkpt lat="42.59565" lon="2.51189">
        <ele>471</ele>
        <time>2020-02-04T08:49:29.659Z</time>
      </trkpt>
      <trkpt lat="42.59497" lon="2.51245">
        <ele>488</ele>
        <time>2020-02-04T08:49:32.023Z</time>
      </trkpt>
      <trkpt lat="42.59441" lon="2.51257">
        <ele>494</ele>
        <time>2020-02-04T08:49:34.396Z</time>
      </trkpt>
      <trkpt lat="42.5938" lon="2.51259">
        <ele>510</ele>
        <time>2020-02-04T08:49:36.779Z</time>
      </trkpt>
      <trkpt lat="42.5937" lon="2.51248">
        <ele>508</ele>
        <time>2020-02-04T08:49:39.164Z</time>
      </trkpt>
      <trkpt lat="42.59366" lon="2.5121">
        <ele>489</ele>
        <time>2020-02-04T08:49:41.554Z</time>
      </trkpt>
      <trkpt lat="42.59351" lon="2.51172">
        <ele>474</ele>
        <time>2020-02-04T08:49:43.949Z</time>
      </trkpt>
      <trkpt lat="42.59338" lon="2.51165">
        <ele>475</ele>
        <time>2020-02-04T08:49:46.346Z</time>
      </trkpt>
      <trkpt lat="42.59307" lon="2.51171">
        <ele>486</ele>
        <time>2020-02-04T08:49:48.748Z</time>
      </trkpt>
      <trkpt lat="42.5926" lon="2.51151">
        <ele>489</ele>
        <time>2020-02-04T08:49:51.158Z</time>
      </trkpt>
      <trkpt lat="42.59228" lon="2.51159">
        <ele>495</ele>
        <time>2020-02-04T08:49:53.573Z</time>
      </trkpt>
      <trkpt lat="42.59204" lon="2.51206">
        <ele>517</ele>
        <time>2020-02-04T08:49:55.995Z</time>
      </trkpt>
      <trkpt lat="42.59166" lon="2.51197">
        <ele>509</ele>
        <time>2020-02-04T08:49:58.423Z</time>
      </trkpt>
      <trkpt lat="42.59093" lon="2.51248">
        <ele>532</ele>
        <time>2020-02-04T08:50:00.864Z</time>
      </trkpt>
      <trkpt lat="42.59079" lon="2.51248">
        <ele>535</ele>
        <time>2020-02-04T08:50:03.307Z</time>
      </trkpt>
      <trkpt lat="42.59073" lon="2.5123">
        <ele>534</ele>
        <time>2020-02-04T08:50:05.753Z</time>
      </trkpt>
      <trkpt lat="42.59076" lon="2.51182">
        <ele>521</ele>
        <time>2020-02-04T08:50:08.204Z</time>
      </trkpt>
      <trkpt lat="42.59058" lon="2.51128">
        <ele>519</ele>
        <time>2020-02-04T08:50:10.662Z</time>
      </trkpt>
      <trkpt lat="42.59056" lon="2.51079">
        <ele>511</ele>
        <time>2020-02-04T08:50:13.126Z</time>
      </trkpt>
      <trkpt lat="42.59039" lon="2.51019">
        <ele>498</ele>
        <time>2020-02-04T08:50:15.598Z</time>
      </trkpt>
      <trkpt lat="42.58985" lon="2.51047">
        <ele>520</ele>
        <time>2020-02-04T08:50:18.079Z</time>
      </trkpt>
      <trkpt lat="42.58938" lon="2.51054">
        <ele>520</ele>
        <time>2020-02-04T08:50:20.568Z</time>
      </trkpt>
      <trkpt lat="42.58915" lon="2.51046">
        <ele>515</ele>
        <time>2020-02-04T08:50:23.060Z</time>
      </trkpt>
      <trkpt lat="42.58898" lon="2.51055">
        <ele>515</ele>
        <time>2020-02-04T08:50:25.555Z</time>
      </trkpt>
      <trkpt lat="42.58857" lon="2.51158">
        <ele>530</ele>
        <time>2020-02-04T08:50:28.064Z</time>
      </trkpt>
      <trkpt lat="42.58809" lon="2.51207">
        <ele>536</ele>
        <time>2020-02-04T08:50:30.583Z</time>
      </trkpt>
      <trkpt lat="42.58773" lon="2.51255">
        <ele>550</ele>
        <time>2020-02-04T08:50:33.110Z</time>
      </trkpt>
      <trkpt lat="42.58734" lon="2.51238">
        <ele>542</ele>
        <time>2020-02-04T08:50:35.643Z</time>
      </trkpt>
      <trkpt lat="42.58704" lon="2.51248">
        <ele>555</ele>
        <time>2020-02-04T08:50:38.181Z</time>
      </trkpt>
      <trkpt lat="42.58686" lon="2.51211">
        <ele>542</ele>
        <time>2020-02-04T08:50:40.725Z</time>
      </trkpt>
      <trkpt lat="42.58663" lon="2.5118">
        <ele>532</ele>
        <time>2020-02-04T08:50:43.274Z</time>
      </trkpt>
      <trkpt lat="42.5865" lon="2.51168">
        <ele>527</ele>
        <time>2020-02-04T08:50:45.825Z</time>
      </trkpt>
      <trkpt lat="42.58639" lon="2.51168">
        <ele>528</ele>
        <time>2020-02-04T08:50:48.378Z</time>
      </trkpt>
      <trkpt lat="42.58616" lon="2.51182">
        <ele>536</ele>
        <time>2020-02-04T08:50:50.935Z</time>
      </trkpt>
      <trkpt lat="42.58581" lon="2.51183">
        <ele>540</ele>
        <time>2020-02-04T08:50:53.498Z</time>
      </trkpt>
      <trkpt lat="42.58559" lon="2.51205">
        <ele>554</ele>
        <time>2020-02-04T08:50:56.065Z</time>
      </trkpt>
      <trkpt lat="42.585" lon="2.51218">
        <ele>556</ele>
        <time>2020-02-04T08:50:58.642Z</time>
      </trkpt>
      <trkpt lat="42.58463" lon="2.5124">
        <ele>577</ele>
        <time>2020-02-04T08:51:01.225Z</time>
      </trkpt>
      <trkpt lat="42.58451" lon="2.51229">
        <ele>578</ele>
        <time>2020-02-04T08:51:03.811Z</time>
      </trkpt>
      <trkpt lat="42.5844" lon="2.51175">
        <ele>565</ele>
        <time>2020-02-04T08:51:06.403Z</time>
      </trkpt>
      <trkpt lat="42.58423" lon="2.51135">
        <ele>558</ele>
        <time>2020-02-04T08:51:09.001Z</time>
      </trkpt>
      <trkpt lat="42.58374" lon="2.51099">
        <ele>548</ele>
        <time>2020-02-04T08:51:11.608Z</time>
      </trkpt>
      <trkpt lat="42.58306" lon="2.51112">
        <ele>553</ele>
        <time>2020-02-04T08:51:14.226Z</time>
      </trkpt>
      <trkpt lat="42.58251" lon="2.51148">
        <ele>559</ele>
        <time>2020-02-04T08:51:16.853Z</time>
      </trkpt>
      <trkpt lat="42.58238" lon="2.51175">
        <ele>561</ele>
        <time>2020-02-04T08:51:19.484Z</time>
      </trkpt>
      <trkpt lat="42.58201" lon="2.51483">
        <ele>595</ele>
        <time>2020-02-04T08:51:22.152Z</time>
      </trkpt>
      <trkpt lat="42.58195" lon="2.51498">
        <ele>596</ele>
        <time>2020-02-04T08:51:24.822Z</time>
      </trkpt>
      <trkpt lat="42.58163" lon="2.51495">
        <ele>585</ele>
        <time>2020-02-04T08:51:27.497Z</time>
      </trkpt>
      <trkpt lat="42.58147" lon="2.5148">
        <ele>584</ele>
        <time>2020-02-04T08:51:30.175Z</time>
      </trkpt>
      <trkpt lat="42.58129" lon="2.51452">
        <ele>579</ele>
        <time>2020-02-04T08:51:32.858Z</time>
      </trkpt>
      <trkpt lat="42.58114" lon="2.51393">
        <ele>564</ele>
        <time>2020-02-04T08:51:35.548Z</time>
      </trkpt>
      <trkpt lat="42.58091" lon="2.51389">
        <ele>564</ele>
        <time>2020-02-04T08:51:38.242Z</time>
      </trkpt>
      <trkpt lat="42.58058" lon="2.51421">
        <ele>572</ele>
        <time>2020-02-04T08:51:40.942Z</time>
      </trkpt>
      <trkpt lat="42.58043" lon="2.51455">
        <ele>580</ele>
        <time>2020-02-04T08:51:43.647Z</time>
      </trkpt>
      <trkpt lat="42.58018" lon="2.51473">
        <ele>584</ele>
        <time>2020-02-04T08:51:46.357Z</time>
      </trkpt>
      <trkpt lat="42.57937" lon="2.51477">
        <ele>580</ele>
        <time>2020-02-04T08:51:49.080Z</time>
      </trkpt>
      <trkpt lat="42.57895" lon="2.51469">
        <ele>569</ele>
        <time>2020-02-04T08:51:51.809Z</time>
      </trkpt>
      <trkpt lat="42.57821" lon="2.51524">
        <ele>573</ele>
        <time>2020-02-04T08:51:54.552Z</time>
      </trkpt>
      <trkpt lat="42.57821" lon="2.51524">
        <ele>573</ele>
        <time>2020-02-04T08:51:57.295Z</time>
      </trkpt>
      <trkpt lat="42.57772" lon="2.51582">
        <ele>578</ele>
        <time>2020-02-04T08:52:00.048Z</time>
      </trkpt>
      <trkpt lat="42.57708" lon="2.5163">
        <ele>574</ele>
        <time>2020-02-04T08:52:02.813Z</time>
      </trkpt>
      <trkpt lat="42.5769" lon="2.51665">
        <ele>579</ele>
        <time>2020-02-04T08:52:05.583Z</time>
      </trkpt>
      <trkpt lat="42.57683" lon="2.51721">
        <ele>587</ele>
        <time>2020-02-04T08:52:08.360Z</time>
      </trkpt>
      <trkpt lat="42.57624" lon="2.51733">
        <ele>572</ele>
        <time>2020-02-04T08:52:11.146Z</time>
      </trkpt>
      <trkpt lat="42.576" lon="2.51756">
        <ele>568</ele>
        <time>2020-02-04T08:52:13.937Z</time>
      </trkpt>
      <trkpt lat="42.57589" lon="2.51773">
        <ele>566</ele>
        <time>2020-02-04T08:52:16.730Z</time>
      </trkpt>
      <trkpt lat="42.57589" lon="2.51796">
        <ele>567</ele>
        <time>2020-02-04T08:52:19.526Z</time>
      </trkpt>
      <trkpt lat="42.57594" lon="2.51804">
        <ele>569</ele>
        <time>2020-02-04T08:52:22.323Z</time>
      </trkpt>
      <trkpt lat="42.57617" lon="2.5181">
        <ele>578</ele>
        <time>2020-02-04T08:52:25.124Z</time>
      </trkpt>
      <trkpt lat="42.57623" lon="2.51823">
        <ele>581</ele>
        <time>2020-02-04T08:52:27.927Z</time>
      </trkpt>
      <trkpt lat="42.57592" lon="2.51881">
        <ele>582</ele>
        <time>2020-02-04T08:52:30.738Z</time>
      </trkpt>
      <trkpt lat="42.57582" lon="2.5192">
        <ele>591</ele>
        <time>2020-02-04T08:52:33.554Z</time>
      </trkpt>
      <trkpt lat="42.57565" lon="2.51921">
        <ele>594</ele>
        <time>2020-02-04T08:52:36.373Z</time>
      </trkpt>
      <trkpt lat="42.57554" lon="2.51894">
        <ele>583</ele>
        <time>2020-02-04T08:52:39.196Z</time>
      </trkpt>
      <trkpt lat="42.57526" lon="2.51878">
        <ele>579</ele>
        <time>2020-02-04T08:52:42.023Z</time>
      </trkpt>
      <trkpt lat="42.57436" lon="2.51879">
        <ele>584</ele>
        <time>2020-02-04T08:52:44.865Z</time>
      </trkpt>
      <trkpt lat="42.5743" lon="2.51883">
        <ele>585</ele>
        <time>2020-02-04T08:52:47.708Z</time>
      </trkpt>
      <trkpt lat="42.57464" lon="2.51895">
        <ele>591</ele>
        <time>2020-02-04T08:52:50.557Z</time>
      </trkpt>
      <trkpt lat="42.57513" lon="2.51891">
        <ele>587</ele>
        <time>2020-02-04T08:52:53.413Z</time>
      </trkpt>
      <trkpt lat="42.57543" lon="2.51896">
        <ele>586</ele>
        <time>2020-02-04T08:52:56.274Z</time>
      </trkpt>
      <trkpt lat="42.57574" lon="2.51946">
        <ele>604</ele>
        <time>2020-02-04T08:52:59.143Z</time>
      </trkpt>
      <trkpt lat="42.57593" lon="2.51954">
        <ele>607</ele>
        <time>2020-02-04T08:53:02.015Z</time>
      </trkpt>
      <trkpt lat="42.57596" lon="2.51917">
        <ele>593</ele>
        <time>2020-02-04T08:53:04.891Z</time>
      </trkpt>
      <trkpt lat="42.57614" lon="2.51871">
        <ele>586</ele>
        <time>2020-02-04T08:53:07.774Z</time>
      </trkpt>
      <trkpt lat="42.57631" lon="2.51858">
        <ele>589</ele>
        <time>2020-02-04T08:53:10.660Z</time>
      </trkpt>
      <trkpt lat="42.57636" lon="2.51858">
        <ele>591</ele>
        <time>2020-02-04T08:53:13.546Z</time>
      </trkpt>
      <trkpt lat="42.57636" lon="2.51858">
        <ele>591</ele>
        <time>2020-02-04T08:53:16.432Z</time>
      </trkpt>
      <trkpt lat="42.57636" lon="2.51858">
        <ele>591</ele>
        <time>2020-02-04T08:53:19.318Z</time>
      </trkpt>
      <trkpt lat="42.57636" lon="2.51858">
        <ele>591</ele>
        <time>2020-02-04T08:53:22.204Z</time>
      </trkpt>
      <trkpt lat="42.57631" lon="2.51858">
        <ele>589</ele>
        <time>2020-02-04T08:53:25.091Z</time>
      </trkpt>
      <trkpt lat="42.57614" lon="2.51871">
        <ele>586</ele>
        <time>2020-02-04T08:53:27.981Z</time>
      </trkpt>
      <trkpt lat="42.57596" lon="2.51917">
        <ele>593</ele>
        <time>2020-02-04T08:53:30.877Z</time>
      </trkpt>
      <trkpt lat="42.57593" lon="2.51954">
        <ele>607</ele>
        <time>2020-02-04T08:53:33.778Z</time>
      </trkpt>
      <trkpt lat="42.57574" lon="2.51946">
        <ele>604</ele>
        <time>2020-02-04T08:53:36.682Z</time>
      </trkpt>
      <trkpt lat="42.57543" lon="2.51896">
        <ele>586</ele>
        <time>2020-02-04T08:53:39.594Z</time>
      </trkpt>
      <trkpt lat="42.57513" lon="2.51891">
        <ele>587</ele>
        <time>2020-02-04T08:53:42.510Z</time>
      </trkpt>
      <trkpt lat="42.57464" lon="2.51895">
        <ele>591</ele>
        <time>2020-02-04T08:53:45.434Z</time>
      </trkpt>
      <trkpt lat="42.5743" lon="2.51883">
        <ele>585</ele>
        <time>2020-02-04T08:53:48.364Z</time>
      </trkpt>
      <trkpt lat="42.57436" lon="2.51879">
        <ele>584</ele>
        <time>2020-02-04T08:53:51.295Z</time>
      </trkpt>
      <trkpt lat="42.57391" lon="2.51864">
        <ele>577</ele>
        <time>2020-02-04T08:53:54.233Z</time>
      </trkpt>
      <trkpt lat="42.57346" lon="2.51837">
        <ele>566</ele>
        <time>2020-02-04T08:53:57.179Z</time>
      </trkpt>
      <trkpt lat="42.57346" lon="2.51837">
        <ele>566</ele>
        <time>2020-02-04T08:54:00.125Z</time>
      </trkpt>
      <trkpt lat="42.57333" lon="2.51844">
        <ele>569</ele>
        <time>2020-02-04T08:54:03.074Z</time>
      </trkpt>
      <trkpt lat="42.57311" lon="2.51889">
        <ele>581</ele>
        <time>2020-02-04T08:54:06.029Z</time>
      </trkpt>
      <trkpt lat="42.57274" lon="2.5194">
        <ele>581</ele>
        <time>2020-02-04T08:54:08.992Z</time>
      </trkpt>
      <trkpt lat="42.57263" lon="2.51982">
        <ele>582</ele>
        <time>2020-02-04T08:54:11.961Z</time>
      </trkpt>
      <trkpt lat="42.57221" lon="2.52085">
        <ele>595</ele>
        <time>2020-02-04T08:54:14.943Z</time>
      </trkpt>
      <trkpt lat="42.57151" lon="2.52153">
        <ele>589</ele>
        <time>2020-02-04T08:54:17.939Z</time>
      </trkpt>
      <trkpt lat="42.57093" lon="2.52209">
        <ele>583</ele>
        <time>2020-02-04T08:54:20.947Z</time>
      </trkpt>
      <trkpt lat="42.57082" lon="2.52233">
        <ele>586</ele>
        <time>2020-02-04T08:54:23.958Z</time>
      </trkpt>
      <trkpt lat="42.57079" lon="2.52266">
        <ele>595</ele>
        <time>2020-02-04T08:54:26.973Z</time>
      </trkpt>
      <trkpt lat="42.57061" lon="2.52275">
        <ele>596</ele>
        <time>2020-02-04T08:54:29.991Z</time>
      </trkpt>
      <trkpt lat="42.57049" lon="2.52254">
        <ele>589</ele>
        <time>2020-02-04T08:54:33.012Z</time>
      </trkpt>
      <trkpt lat="42.57038" lon="2.52249">
        <ele>587</ele>
        <time>2020-02-04T08:54:36.035Z</time>
      </trkpt>
      <trkpt lat="42.56948" lon="2.52271">
        <ele>583</ele>
        <time>2020-02-04T08:54:39.073Z</time>
      </trkpt>
      <trkpt lat="42.56895" lon="2.5235">
        <ele>593</ele>
        <time>2020-02-04T08:54:42.123Z</time>
      </trkpt>
      <trkpt lat="42.56841" lon="2.52385">
        <ele>592</ele>
        <time>2020-02-04T08:54:45.183Z</time>
      </trkpt>
      <trkpt lat="42.56801" lon="2.52397">
        <ele>591</ele>
        <time>2020-02-04T08:54:48.249Z</time>
      </trkpt>
      <trkpt lat="42.56781" lon="2.52416">
        <ele>588</ele>
        <time>2020-02-04T08:54:51.319Z</time>
      </trkpt>
      <trkpt lat="42.56762" lon="2.52453">
        <ele>595</ele>
        <time>2020-02-04T08:54:54.395Z</time>
      </trkpt>
      <trkpt lat="42.56723" lon="2.52483">
        <ele>596</ele>
        <time>2020-02-04T08:54:57.478Z</time>
      </trkpt>
      <trkpt lat="42.56686" lon="2.52534">
        <ele>595</ele>
        <time>2020-02-04T08:55:00.569Z</time>
      </trkpt>
      <trkpt lat="42.56625" lon="2.52638">
        <ele>605</ele>
        <time>2020-02-04T08:55:03.676Z</time>
      </trkpt>
      <trkpt lat="42.56584" lon="2.52647">
        <ele>594</ele>
        <time>2020-02-04T08:55:06.790Z</time>
      </trkpt>
      <trkpt lat="42.56533" lon="2.52637">
        <ele>592</ele>
        <time>2020-02-04T08:55:09.912Z</time>
      </trkpt>
      <trkpt lat="42.56483" lon="2.52614">
        <ele>589</ele>
        <time>2020-02-04T08:55:13.042Z</time>
      </trkpt>
      <trkpt lat="42.56456" lon="2.52615">
        <ele>591</ele>
        <time>2020-02-04T08:55:16.177Z</time>
      </trkpt>
      <trkpt lat="42.56442" lon="2.52624">
        <ele>591</ele>
        <time>2020-02-04T08:55:19.314Z</time>
      </trkpt>
      <trkpt lat="42.56397" lon="2.52686">
        <ele>595</ele>
        <time>2020-02-04T08:55:22.461Z</time>
      </trkpt>
      <trkpt lat="42.56397" lon="2.52686">
        <ele>595</ele>
        <time>2020-02-04T08:55:25.608Z</time>
      </trkpt>
      <trkpt lat="42.56384" lon="2.52686">
        <ele>596</ele>
        <time>2020-02-04T08:55:28.757Z</time>
      </trkpt>
      <trkpt lat="42.56384" lon="2.52686">
        <ele>596</ele>
        <time>2020-02-04T08:55:31.906Z</time>
      </trkpt>
      <trkpt lat="42.5636" lon="2.52677">
        <ele>593</ele>
        <time>2020-02-04T08:55:35.059Z</time>
      </trkpt>
      <trkpt lat="42.5636" lon="2.52677">
        <ele>593</ele>
        <time>2020-02-04T08:55:38.212Z</time>
      </trkpt>
      <trkpt lat="42.56337" lon="2.52668">
        <ele>591</ele>
        <time>2020-02-04T08:55:41.369Z</time>
      </trkpt>
      <trkpt lat="42.56316" lon="2.5267">
        <ele>595</ele>
        <time>2020-02-04T08:55:44.530Z</time>
      </trkpt>
      <trkpt lat="42.5624" lon="2.52762">
        <ele>603</ele>
        <time>2020-02-04T08:55:47.707Z</time>
      </trkpt>
      <trkpt lat="42.56179" lon="2.5288">
        <ele>608</ele>
        <time>2020-02-04T08:55:50.901Z</time>
      </trkpt>
      <trkpt lat="42.56115" lon="2.52965">
        <ele>611</ele>
        <time>2020-02-04T08:55:54.109Z</time>
      </trkpt>
      <trkpt lat="42.56115" lon="2.52965">
        <ele>611</ele>
        <time>2020-02-04T08:55:57.317Z</time>
      </trkpt>
      <trkpt lat="42.56068" lon="2.53071">
        <ele>618</ele>
        <time>2020-02-04T08:56:00.540Z</time>
      </trkpt>
      <trkpt lat="42.56058" lon="2.53084">
        <ele>617</ele>
        <time>2020-02-04T08:56:03.765Z</time>
      </trkpt>
      <trkpt lat="42.56025" lon="2.53099">
        <ele>625</ele>
        <time>2020-02-04T08:56:06.996Z</time>
      </trkpt>
      <trkpt lat="42.56014" lon="2.53138">
        <ele>625</ele>
        <time>2020-02-04T08:56:10.232Z</time>
      </trkpt>
      <trkpt lat="42.56007" lon="2.5316">
        <ele>624</ele>
        <time>2020-02-04T08:56:13.470Z</time>
      </trkpt>
      <trkpt lat="42.55983" lon="2.53196">
        <ele>629</ele>
        <time>2020-02-04T08:56:16.714Z</time>
      </trkpt>
      <trkpt lat="42.5593" lon="2.53302">
        <ele>632</ele>
        <time>2020-02-04T08:56:19.973Z</time>
      </trkpt>
      <trkpt lat="42.55921" lon="2.53308">
        <ele>631</ele>
        <time>2020-02-04T08:56:23.234Z</time>
      </trkpt>
      <trkpt lat="42.55863" lon="2.53302">
        <ele>647</ele>
        <time>2020-02-04T08:56:26.504Z</time>
      </trkpt>
      <trkpt lat="42.55822" lon="2.53322">
        <ele>646</ele>
        <time>2020-02-04T08:56:29.781Z</time>
      </trkpt>
      <trkpt lat="42.55747" lon="2.53356">
        <ele>647</ele>
        <time>2020-02-04T08:56:33.071Z</time>
      </trkpt>
      <trkpt lat="42.55727" lon="2.53345">
        <ele>647</ele>
        <time>2020-02-04T08:56:36.364Z</time>
      </trkpt>
      <trkpt lat="42.55716" lon="2.53329">
        <ele>649</ele>
        <time>2020-02-04T08:56:39.660Z</time>
      </trkpt>
      <trkpt lat="42.55692" lon="2.53269">
        <ele>664</ele>
        <time>2020-02-04T08:56:42.964Z</time>
      </trkpt>
      <trkpt lat="42.55642" lon="2.53228">
        <ele>676</ele>
        <time>2020-02-04T08:56:46.277Z</time>
      </trkpt>
      <trkpt lat="42.55619" lon="2.5322">
        <ele>679</ele>
        <time>2020-02-04T08:56:49.594Z</time>
      </trkpt>
      <trkpt lat="42.55594" lon="2.53224">
        <ele>677</ele>
        <time>2020-02-04T08:56:52.915Z</time>
      </trkpt>
      <trkpt lat="42.55547" lon="2.53256">
        <ele>681</ele>
        <time>2020-02-04T08:56:56.244Z</time>
      </trkpt>
      <trkpt lat="42.55517" lon="2.53311">
        <ele>680</ele>
        <time>2020-02-04T08:56:59.581Z</time>
      </trkpt>
      <trkpt lat="42.55493" lon="2.53336">
        <ele>683</ele>
        <time>2020-02-04T08:57:02.923Z</time>
      </trkpt>
      <trkpt lat="42.55483" lon="2.53375">
        <ele>682</ele>
        <time>2020-02-04T08:57:06.270Z</time>
      </trkpt>
      <trkpt lat="42.55438" lon="2.53471">
        <ele>691</ele>
        <time>2020-02-04T08:57:09.631Z</time>
      </trkpt>
      <trkpt lat="42.55435" lon="2.53513">
        <ele>687</ele>
        <time>2020-02-04T08:57:12.997Z</time>
      </trkpt>
      <trkpt lat="42.55439" lon="2.53533">
        <ele>685</ele>
        <time>2020-02-04T08:57:16.365Z</time>
      </trkpt>
      <trkpt lat="42.55433" lon="2.53561">
        <ele>684</ele>
        <time>2020-02-04T08:57:19.737Z</time>
      </trkpt>
      <trkpt lat="42.55396" lon="2.53603">
        <ele>694</ele>
        <time>2020-02-04T08:57:23.116Z</time>
      </trkpt>
      <trkpt lat="42.55361" lon="2.53625">
        <ele>707</ele>
        <time>2020-02-04T08:57:26.501Z</time>
      </trkpt>
      <trkpt lat="42.55361" lon="2.5365">
        <ele>703</ele>
        <time>2020-02-04T08:57:29.889Z</time>
      </trkpt>
      <trkpt lat="42.55383" lon="2.53655">
        <ele>694</ele>
        <time>2020-02-04T08:57:33.281Z</time>
      </trkpt>
      <trkpt lat="42.55394" lon="2.53669">
        <ele>688</ele>
        <time>2020-02-04T08:57:36.675Z</time>
      </trkpt>
      <trkpt lat="42.55392" lon="2.537">
        <ele>687</ele>
        <time>2020-02-04T08:57:40.073Z</time>
      </trkpt>
      <trkpt lat="42.55398" lon="2.53751">
        <ele>687</ele>
        <time>2020-02-04T08:57:43.477Z</time>
      </trkpt>
      <trkpt lat="42.55391" lon="2.53807">
        <ele>688</ele>
        <time>2020-02-04T08:57:46.888Z</time>
      </trkpt>
      <trkpt lat="42.55371" lon="2.53844">
        <ele>700</ele>
        <time>2020-02-04T08:57:50.304Z</time>
      </trkpt>
      <trkpt lat="42.55361" lon="2.53889">
        <ele>696</ele>
        <time>2020-02-04T08:57:53.726Z</time>
      </trkpt>
      <trkpt lat="42.55335" lon="2.53908">
        <ele>695</ele>
        <time>2020-02-04T08:57:57.153Z</time>
      </trkpt>
      <trkpt lat="42.55263" lon="2.53888">
        <ele>725</ele>
        <time>2020-02-04T08:58:00.591Z</time>
      </trkpt>
      <trkpt lat="42.5521" lon="2.53908">
        <ele>728</ele>
        <time>2020-02-04T08:58:04.038Z</time>
      </trkpt>
      <trkpt lat="42.55185" lon="2.53943">
        <ele>720</ele>
        <time>2020-02-04T08:58:07.491Z</time>
      </trkpt>
      <trkpt lat="42.5514" lon="2.53977">
        <ele>723</ele>
        <time>2020-02-04T08:58:10.952Z</time>
      </trkpt>
      <trkpt lat="42.55114" lon="2.54007">
        <ele>731</ele>
        <time>2020-02-04T08:58:14.419Z</time>
      </trkpt>
      <trkpt lat="42.55101" lon="2.54047">
        <ele>735</ele>
        <time>2020-02-04T08:58:17.891Z</time>
      </trkpt>
      <trkpt lat="42.55098" lon="2.54113">
        <ele>730</ele>
        <time>2020-02-04T08:58:21.371Z</time>
      </trkpt>
      <trkpt lat="42.55093" lon="2.54124">
        <ele>728</ele>
        <time>2020-02-04T08:58:24.852Z</time>
      </trkpt>
      <trkpt lat="42.55042" lon="2.54136">
        <ele>746</ele>
        <time>2020-02-04T08:58:28.341Z</time>
      </trkpt>
      <trkpt lat="42.54996" lon="2.54163">
        <ele>750</ele>
        <time>2020-02-04T08:58:31.839Z</time>
      </trkpt>
      <trkpt lat="42.54982" lon="2.54177">
        <ele>749</ele>
        <time>2020-02-04T08:58:35.339Z</time>
      </trkpt>
      <trkpt lat="42.54976" lon="2.54224">
        <ele>738</ele>
        <time>2020-02-04T08:58:38.845Z</time>
      </trkpt>
      <trkpt lat="42.54964" lon="2.54225">
        <ele>741</ele>
        <time>2020-02-04T08:58:42.353Z</time>
      </trkpt>
      <trkpt lat="42.54951" lon="2.54205">
        <ele>749</ele>
        <time>2020-02-04T08:58:45.864Z</time>
      </trkpt>
      <trkpt lat="42.54936" lon="2.54198">
        <ele>755</ele>
        <time>2020-02-04T08:58:49.377Z</time>
      </trkpt>
      <trkpt lat="42.54929" lon="2.542">
        <ele>757</ele>
        <time>2020-02-04T08:58:52.892Z</time>
      </trkpt>
      <trkpt lat="42.54895" lon="2.54274">
        <ele>748</ele>
        <time>2020-02-04T08:58:56.417Z</time>
      </trkpt>
      <trkpt lat="42.54876" lon="2.54281">
        <ele>750</ele>
        <time>2020-02-04T08:58:59.945Z</time>
      </trkpt>
      <trkpt lat="42.54799" lon="2.54279">
        <ele>767</ele>
        <time>2020-02-04T08:59:03.485Z</time>
      </trkpt>
      <trkpt lat="42.5478" lon="2.5429">
        <ele>771</ele>
        <time>2020-02-04T08:59:07.029Z</time>
      </trkpt>
      <trkpt lat="42.54765" lon="2.54318">
        <ele>769</ele>
        <time>2020-02-04T08:59:10.577Z</time>
      </trkpt>
      <trkpt lat="42.54758" lon="2.54357">
        <ele>762</ele>
        <time>2020-02-04T08:59:14.130Z</time>
      </trkpt>
      <trkpt lat="42.54737" lon="2.5439">
        <ele>761</ele>
        <time>2020-02-04T08:59:17.688Z</time>
      </trkpt>
      <trkpt lat="42.54693" lon="2.5443">
        <ele>771</ele>
        <time>2020-02-04T08:59:21.254Z</time>
      </trkpt>
      <trkpt lat="42.54655" lon="2.54428">
        <ele>784</ele>
        <time>2020-02-04T08:59:24.826Z</time>
      </trkpt>
      <trkpt lat="42.54635" lon="2.54452">
        <ele>781</ele>
        <time>2020-02-04T08:59:28.403Z</time>
      </trkpt>
      <trkpt lat="42.54615" lon="2.54456">
        <ele>786</ele>
        <time>2020-02-04T08:59:31.983Z</time>
      </trkpt>
      <trkpt lat="42.54583" lon="2.54482">
        <ele>784</ele>
        <time>2020-02-04T08:59:35.569Z</time>
      </trkpt>
      <trkpt lat="42.54569" lon="2.5451">
        <ele>779</ele>
        <time>2020-02-04T08:59:39.159Z</time>
      </trkpt>
      <trkpt lat="42.54549" lon="2.54598">
        <ele>766</ele>
        <time>2020-02-04T08:59:42.760Z</time>
      </trkpt>
      <trkpt lat="42.54497" lon="2.54607">
        <ele>780</ele>
        <time>2020-02-04T08:59:46.369Z</time>
      </trkpt>
      <trkpt lat="42.54443" lon="2.54618">
        <ele>771</ele>
        <time>2020-02-04T08:59:49.987Z</time>
      </trkpt>
      <trkpt lat="42.54404" lon="2.54582">
        <ele>779</ele>
        <time>2020-02-04T08:59:53.612Z</time>
      </trkpt>
      <trkpt lat="42.54408" lon="2.54499">
        <ele>802</ele>
        <time>2020-02-04T08:59:57.247Z</time>
      </trkpt>
      <trkpt lat="42.54403" lon="2.54474">
        <ele>807</ele>
        <time>2020-02-04T09:00:00.885Z</time>
      </trkpt>
      <trkpt lat="42.54355" lon="2.54414">
        <ele>805</ele>
        <time>2020-02-04T09:00:04.534Z</time>
      </trkpt>
      <trkpt lat="42.54309" lon="2.54396">
        <ele>795</ele>
        <time>2020-02-04T09:00:08.190Z</time>
      </trkpt>
      <trkpt lat="42.5424" lon="2.54347">
        <ele>799</ele>
        <time>2020-02-04T09:00:11.859Z</time>
      </trkpt>
      <trkpt lat="42.5423" lon="2.54333">
        <ele>801</ele>
        <time>2020-02-04T09:00:15.530Z</time>
      </trkpt>
      <trkpt lat="42.54186" lon="2.54197">
        <ele>816</ele>
        <time>2020-02-04T09:00:19.219Z</time>
      </trkpt>
      <trkpt lat="42.54132" lon="2.54117">
        <ele>819</ele>
        <time>2020-02-04T09:00:22.921Z</time>
      </trkpt>
      <trkpt lat="42.54096" lon="2.54015">
        <ele>826</ele>
        <time>2020-02-04T09:00:26.636Z</time>
      </trkpt>
      <trkpt lat="42.54097" lon="2.53985">
        <ele>830</ele>
        <time>2020-02-04T09:00:30.355Z</time>
      </trkpt>
      <trkpt lat="42.54126" lon="2.53926">
        <ele>844</ele>
        <time>2020-02-04T09:00:34.082Z</time>
      </trkpt>
      <trkpt lat="42.54134" lon="2.53864">
        <ele>853</ele>
        <time>2020-02-04T09:00:37.816Z</time>
      </trkpt>
      <trkpt lat="42.54121" lon="2.53835">
        <ele>848</ele>
        <time>2020-02-04T09:00:41.554Z</time>
      </trkpt>
      <trkpt lat="42.54085" lon="2.53794">
        <ele>841</ele>
        <time>2020-02-04T09:00:45.300Z</time>
      </trkpt>
      <trkpt lat="42.54006" lon="2.53682">
        <ele>844</ele>
        <time>2020-02-04T09:00:49.064Z</time>
      </trkpt>
      <trkpt lat="42.53974" lon="2.53603">
        <ele>853</ele>
        <time>2020-02-04T09:00:52.839Z</time>
      </trkpt>
      <trkpt lat="42.53863" lon="2.53545">
        <ele>854</ele>
        <time>2020-02-04T09:00:56.633Z</time>
      </trkpt>
      <trkpt lat="42.53854" lon="2.53532">
        <ele>855</ele>
        <time>2020-02-04T09:01:00.429Z</time>
      </trkpt>
      <trkpt lat="42.53854" lon="2.53517">
        <ele>855</ele>
        <time>2020-02-04T09:01:04.227Z</time>
      </trkpt>
      <trkpt lat="42.53864" lon="2.53503">
        <ele>859</ele>
        <time>2020-02-04T09:01:08.027Z</time>
      </trkpt>
      <trkpt lat="42.53895" lon="2.53514">
        <ele>860</ele>
        <time>2020-02-04T09:01:11.832Z</time>
      </trkpt>
      <trkpt lat="42.53901" lon="2.53507">
        <ele>861</ele>
        <time>2020-02-04T09:01:15.639Z</time>
      </trkpt>
      <trkpt lat="42.539" lon="2.53488">
        <ele>866</ele>
        <time>2020-02-04T09:01:19.448Z</time>
      </trkpt>
      <trkpt lat="42.53824" lon="2.53463">
        <ele>866</ele>
        <time>2020-02-04T09:01:23.269Z</time>
      </trkpt>
      <trkpt lat="42.53789" lon="2.5344">
        <ele>870</ele>
        <time>2020-02-04T09:01:27.096Z</time>
      </trkpt>
      <trkpt lat="42.53764" lon="2.53408">
        <ele>876</ele>
        <time>2020-02-04T09:01:30.929Z</time>
      </trkpt>
      <trkpt lat="42.53724" lon="2.53306">
        <ele>891</ele>
        <time>2020-02-04T09:01:34.776Z</time>
      </trkpt>
      <trkpt lat="42.53726" lon="2.53291">
        <ele>894</ele>
        <time>2020-02-04T09:01:38.624Z</time>
      </trkpt>
      <trkpt lat="42.53728" lon="2.53267">
        <ele>899</ele>
        <time>2020-02-04T09:01:42.475Z</time>
      </trkpt>
      <trkpt lat="42.53703" lon="2.53249">
        <ele>901</ele>
        <time>2020-02-04T09:01:46.331Z</time>
      </trkpt>
      <trkpt lat="42.53692" lon="2.53253">
        <ele>900</ele>
        <time>2020-02-04T09:01:50.189Z</time>
      </trkpt>
      <trkpt lat="42.5367" lon="2.53304">
        <ele>889</ele>
        <time>2020-02-04T09:01:54.054Z</time>
      </trkpt>
      <trkpt lat="42.53643" lon="2.53327">
        <ele>888</ele>
        <time>2020-02-04T09:01:57.924Z</time>
      </trkpt>
      <trkpt lat="42.5364" lon="2.53352">
        <ele>888</ele>
        <time>2020-02-04T09:02:01.797Z</time>
      </trkpt>
      <trkpt lat="42.53655" lon="2.53397">
        <ele>885</ele>
        <time>2020-02-04T09:02:05.675Z</time>
      </trkpt>
      <trkpt lat="42.53648" lon="2.53446">
        <ele>893</ele>
        <time>2020-02-04T09:02:09.559Z</time>
      </trkpt>
      <trkpt lat="42.53667" lon="2.53532">
        <ele>898</ele>
        <time>2020-02-04T09:02:13.454Z</time>
      </trkpt>
      <trkpt lat="42.53677" lon="2.53555">
        <ele>901</ele>
        <time>2020-02-04T09:02:17.352Z</time>
      </trkpt>
      <trkpt lat="42.53803" lon="2.53665">
        <ele>887</ele>
        <time>2020-02-04T09:02:21.274Z</time>
      </trkpt>
      <trkpt lat="42.5387" lon="2.53823">
        <ele>909</ele>
        <time>2020-02-04T09:02:25.218Z</time>
      </trkpt>
      <trkpt lat="42.53899" lon="2.53906">
        <ele>910</ele>
        <time>2020-02-04T09:02:29.172Z</time>
      </trkpt>
      <trkpt lat="42.53901" lon="2.53929">
        <ele>910</ele>
        <time>2020-02-04T09:02:33.129Z</time>
      </trkpt>
      <trkpt lat="42.53894" lon="2.54001">
        <ele>915</ele>
        <time>2020-02-04T09:02:37.095Z</time>
      </trkpt>
      <trkpt lat="42.53915" lon="2.54121">
        <ele>898</ele>
        <time>2020-02-04T09:02:41.075Z</time>
      </trkpt>
      <trkpt lat="42.5391" lon="2.54145">
        <ele>900</ele>
        <time>2020-02-04T09:02:45.058Z</time>
      </trkpt>
      <trkpt lat="42.5389" lon="2.5418">
        <ele>908</ele>
        <time>2020-02-04T09:02:49.046Z</time>
      </trkpt>
      <trkpt lat="42.53886" lon="2.5421">
        <ele>913</ele>
        <time>2020-02-04T09:02:53.038Z</time>
      </trkpt>
      <trkpt lat="42.53889" lon="2.54221">
        <ele>912</ele>
        <time>2020-02-04T09:02:57.032Z</time>
      </trkpt>
      <trkpt lat="42.5396" lon="2.54309">
        <ele>887</ele>
        <time>2020-02-04T09:03:01.041Z</time>
      </trkpt>
      <trkpt lat="42.53987" lon="2.54367">
        <ele>882</ele>
        <time>2020-02-04T09:03:05.058Z</time>
      </trkpt>
      <trkpt lat="42.5403" lon="2.5442">
        <ele>863</ele>
        <time>2020-02-04T09:03:09.084Z</time>
      </trkpt>
      <trkpt lat="42.54033" lon="2.54441">
        <ele>863</ele>
        <time>2020-02-04T09:03:13.113Z</time>
      </trkpt>
      <trkpt lat="42.54009" lon="2.54496">
        <ele>872</ele>
        <time>2020-02-04T09:03:17.149Z</time>
      </trkpt>
      <trkpt lat="42.53997" lon="2.54507">
        <ele>872</ele>
        <time>2020-02-04T09:03:21.188Z</time>
      </trkpt>
      <trkpt lat="42.53929" lon="2.54513">
        <ele>875</ele>
        <time>2020-02-04T09:03:25.238Z</time>
      </trkpt>
      <trkpt lat="42.53853" lon="2.54483">
        <ele>876</ele>
        <time>2020-02-04T09:03:29.300Z</time>
      </trkpt>
      <trkpt lat="42.53772" lon="2.54485">
        <ele>872</ele>
        <time>2020-02-04T09:03:33.375Z</time>
      </trkpt>
      <trkpt lat="42.53726" lon="2.5451">
        <ele>868</ele>
        <time>2020-02-04T09:03:37.458Z</time>
      </trkpt>
      <trkpt lat="42.53713" lon="2.54524">
        <ele>867</ele>
        <time>2020-02-04T09:03:41.544Z</time>
      </trkpt>
      <trkpt lat="42.53693" lon="2.54577">
        <ele>855</ele>
        <time>2020-02-04T09:03:45.637Z</time>
      </trkpt>
      <trkpt lat="42.53679" lon="2.54597">
        <ele>856</ele>
        <time>2020-02-04T09:03:49.733Z</time>
      </trkpt>
      <trkpt lat="42.53652" lon="2.54606">
        <ele>859</ele>
        <time>2020-02-04T09:03:53.834Z</time>
      </trkpt>
      <trkpt lat="42.53613" lon="2.54594">
        <ele>863</ele>
        <time>2020-02-04T09:03:57.941Z</time>
      </trkpt>
      <trkpt lat="42.53605" lon="2.54611">
        <ele>866</ele>
        <time>2020-02-04T09:04:02.050Z</time>
      </trkpt>
      <trkpt lat="42.53606" lon="2.54622">
        <ele>869</ele>
        <time>2020-02-04T09:04:06.161Z</time>
      </trkpt>
      <trkpt lat="42.53635" lon="2.54657">
        <ele>867</ele>
        <time>2020-02-04T09:04:10.278Z</time>
      </trkpt>
      <trkpt lat="42.53684" lon="2.54692">
        <ele>873</ele>
        <time>2020-02-04T09:04:14.404Z</time>
      </trkpt>
      <trkpt lat="42.53717" lon="2.54676">
        <ele>862</ele>
        <time>2020-02-04T09:04:18.535Z</time>
      </trkpt>
      <trkpt lat="42.53792" lon="2.54661">
        <ele>853</ele>
        <time>2020-02-04T09:04:22.679Z</time>
      </trkpt>
      <trkpt lat="42.53844" lon="2.54723">
        <ele>870</ele>
        <time>2020-02-04T09:04:26.834Z</time>
      </trkpt>
      <trkpt lat="42.5387" lon="2.5474">
        <ele>873</ele>
        <time>2020-02-04T09:04:30.993Z</time>
      </trkpt>
      <trkpt lat="42.54085" lon="2.54793">
        <ele>882</ele>
        <time>2020-02-04T09:04:35.187Z</time>
      </trkpt>
      <trkpt lat="42.54178" lon="2.54782">
        <ele>882</ele>
        <time>2020-02-04T09:04:39.396Z</time>
      </trkpt>
      <trkpt lat="42.54234" lon="2.54794">
        <ele>879</ele>
        <time>2020-02-04T09:04:43.614Z</time>
      </trkpt>
      <trkpt lat="42.54252" lon="2.54817">
        <ele>885</ele>
        <time>2020-02-04T09:04:47.836Z</time>
      </trkpt>
      <trkpt lat="42.54257" lon="2.54852">
        <ele>888</ele>
        <time>2020-02-04T09:04:52.062Z</time>
      </trkpt>
      <trkpt lat="42.54257" lon="2.54852">
        <ele>888</ele>
        <time>2020-02-04T09:04:56.288Z</time>
      </trkpt>
      <trkpt lat="42.54213" lon="2.54956">
        <ele>896</ele>
        <time>2020-02-04T09:05:00.529Z</time>
      </trkpt>
      <trkpt lat="42.54187" lon="2.54988">
        <ele>901</ele>
        <time>2020-02-04T09:05:04.775Z</time>
      </trkpt>
      <trkpt lat="42.54104" lon="2.55047">
        <ele>916</ele>
        <time>2020-02-04T09:05:09.036Z</time>
      </trkpt>
      <trkpt lat="42.54016" lon="2.55088">
        <ele>927</ele>
        <time>2020-02-04T09:05:13.312Z</time>
      </trkpt>
      <trkpt lat="42.53924" lon="2.55177">
        <ele>937</ele>
        <time>2020-02-04T09:05:17.606Z</time>
      </trkpt>
      <trkpt lat="42.53903" lon="2.55218">
        <ele>940</ele>
        <time>2020-02-04T09:05:21.906Z</time>
      </trkpt>
      <trkpt lat="42.53878" lon="2.55322">
        <ele>932</ele>
        <time>2020-02-04T09:05:26.219Z</time>
      </trkpt>
      <trkpt lat="42.53866" lon="2.55337">
        <ele>933</ele>
        <time>2020-02-04T09:05:30.535Z</time>
      </trkpt>
      <trkpt lat="42.53724" lon="2.5541">
        <ele>957</ele>
        <time>2020-02-04T09:05:34.875Z</time>
      </trkpt>
      <trkpt lat="42.53681" lon="2.55405">
        <ele>971</ele>
        <time>2020-02-04T09:05:39.222Z</time>
      </trkpt>
      <trkpt lat="42.53671" lon="2.55422">
        <ele>971</ele>
        <time>2020-02-04T09:05:43.571Z</time>
      </trkpt>
      <trkpt lat="42.53673" lon="2.55432">
        <ele>972</ele>
        <time>2020-02-04T09:05:47.922Z</time>
      </trkpt>
      <trkpt lat="42.53701" lon="2.5546">
        <ele>963</ele>
        <time>2020-02-04T09:05:52.278Z</time>
      </trkpt>
      <trkpt lat="42.53736" lon="2.55514">
        <ele>954</ele>
        <time>2020-02-04T09:05:56.643Z</time>
      </trkpt>
      <trkpt lat="42.5374" lon="2.55543">
        <ele>953</ele>
        <time>2020-02-04T09:06:01.011Z</time>
      </trkpt>
      <trkpt lat="42.537" lon="2.55641">
        <ele>964</ele>
        <time>2020-02-04T09:06:05.392Z</time>
      </trkpt>
      <trkpt lat="42.53629" lon="2.55732">
        <ele>979</ele>
        <time>2020-02-04T09:06:09.789Z</time>
      </trkpt>
      <trkpt lat="42.53579" lon="2.55869">
        <ele>985</ele>
        <time>2020-02-04T09:06:14.204Z</time>
      </trkpt>
      <trkpt lat="42.53544" lon="2.55914">
        <ele>988</ele>
        <time>2020-02-04T09:06:18.627Z</time>
      </trkpt>
      <trkpt lat="42.53505" lon="2.55926">
        <ele>1003</ele>
        <time>2020-02-04T09:06:23.056Z</time>
      </trkpt>
      <trkpt lat="42.53496" lon="2.55936">
        <ele>1003</ele>
        <time>2020-02-04T09:06:27.487Z</time>
      </trkpt>
      <trkpt lat="42.53479" lon="2.55979">
        <ele>991</ele>
        <time>2020-02-04T09:06:31.924Z</time>
      </trkpt>
      <trkpt lat="42.53463" lon="2.56002">
        <ele>989</ele>
        <time>2020-02-04T09:06:36.365Z</time>
      </trkpt>
      <trkpt lat="42.53441" lon="2.56021">
        <ele>994</ele>
        <time>2020-02-04T09:06:40.810Z</time>
      </trkpt>
      <trkpt lat="42.53412" lon="2.56027">
        <ele>1003</ele>
        <time>2020-02-04T09:06:45.260Z</time>
      </trkpt>
      <trkpt lat="42.53359" lon="2.5602">
        <ele>1018</ele>
        <time>2020-02-04T09:06:49.718Z</time>
      </trkpt>
      <trkpt lat="42.53348" lon="2.56027">
        <ele>1021</ele>
        <time>2020-02-04T09:06:54.178Z</time>
      </trkpt>
      <trkpt lat="42.53348" lon="2.56053">
        <ele>1016</ele>
        <time>2020-02-04T09:06:58.641Z</time>
      </trkpt>
      <trkpt lat="42.53387" lon="2.56198">
        <ele>997</ele>
        <time>2020-02-04T09:07:03.122Z</time>
      </trkpt>
      <trkpt lat="42.53389" lon="2.56232">
        <ele>996</ele>
        <time>2020-02-04T09:07:07.607Z</time>
      </trkpt>
      <trkpt lat="42.53376" lon="2.56279">
        <ele>1000</ele>
        <time>2020-02-04T09:07:12.098Z</time>
      </trkpt>
      <trkpt lat="42.53367" lon="2.56292">
        <ele>1002</ele>
        <time>2020-02-04T09:07:16.591Z</time>
      </trkpt>
      <trkpt lat="42.53304" lon="2.56316">
        <ele>1018</ele>
        <time>2020-02-04T09:07:21.095Z</time>
      </trkpt>
      <trkpt lat="42.53242" lon="2.56371">
        <ele>1021</ele>
        <time>2020-02-04T09:07:25.611Z</time>
      </trkpt>
      <trkpt lat="42.53215" lon="2.56385">
        <ele>1025</ele>
        <time>2020-02-04T09:07:30.131Z</time>
      </trkpt>
      <trkpt lat="42.53149" lon="2.56404">
        <ele>1030</ele>
        <time>2020-02-04T09:07:34.662Z</time>
      </trkpt>
      <trkpt lat="42.5309" lon="2.56386">
        <ele>1043</ele>
        <time>2020-02-04T09:07:39.203Z</time>
      </trkpt>
      <trkpt lat="42.53082" lon="2.56408">
        <ele>1040</ele>
        <time>2020-02-04T09:07:43.747Z</time>
      </trkpt>
      <trkpt lat="42.53089" lon="2.5643">
        <ele>1040</ele>
        <time>2020-02-04T09:07:48.294Z</time>
      </trkpt>
      <trkpt lat="42.53125" lon="2.56478">
        <ele>1041</ele>
        <time>2020-02-04T09:07:52.849Z</time>
      </trkpt>
      <trkpt lat="42.53136" lon="2.56485">
        <ele>1039</ele>
        <time>2020-02-04T09:07:57.406Z</time>
      </trkpt>
      <trkpt lat="42.5326" lon="2.56518">
        <ele>1033</ele>
        <time>2020-02-04T09:08:01.983Z</time>
      </trkpt>
      <trkpt lat="42.53342" lon="2.56512">
        <ele>1027</ele>
        <time>2020-02-04T09:08:06.573Z</time>
      </trkpt>
      <trkpt lat="42.53516" lon="2.56562">
        <ele>1029</ele>
        <time>2020-02-04T09:08:11.191Z</time>
      </trkpt>
      <trkpt lat="42.53516" lon="2.56562">
        <ele>1029</ele>
        <time>2020-02-04T09:08:15.809Z</time>
      </trkpt>
      <trkpt lat="42.53531" lon="2.56566">
        <ele>1031</ele>
        <time>2020-02-04T09:08:20.430Z</time>
      </trkpt>
      <trkpt lat="42.53544" lon="2.5657">
        <ele>1032</ele>
        <time>2020-02-04T09:08:25.053Z</time>
      </trkpt>
      <trkpt lat="42.53581" lon="2.5658">
        <ele>1035</ele>
        <time>2020-02-04T09:08:29.682Z</time>
      </trkpt>
      <trkpt lat="42.53585" lon="2.56582">
        <ele>1036</ele>
        <time>2020-02-04T09:08:34.312Z</time>
      </trkpt>
      <trkpt lat="42.5365" lon="2.56622">
        <ele>1038</ele>
        <time>2020-02-04T09:08:38.953Z</time>
      </trkpt>
      <trkpt lat="42.53678" lon="2.56653">
        <ele>1035</ele>
        <time>2020-02-04T09:08:43.600Z</time>
      </trkpt>
      <trkpt lat="42.5371" lon="2.56742">
        <ele>1024</ele>
        <time>2020-02-04T09:08:48.259Z</time>
      </trkpt>
      <trkpt lat="42.53747" lon="2.56776">
        <ele>1028</ele>
        <time>2020-02-04T09:08:52.925Z</time>
      </trkpt>
      <trkpt lat="42.5377" lon="2.56808">
        <ele>1026</ele>
        <time>2020-02-04T09:08:57.596Z</time>
      </trkpt>
      <trkpt lat="42.5381" lon="2.56835">
        <ele>1027</ele>
        <time>2020-02-04T09:09:02.274Z</time>
      </trkpt>
      <trkpt lat="42.53853" lon="2.56895">
        <ele>1020</ele>
        <time>2020-02-04T09:09:06.962Z</time>
      </trkpt>
      <trkpt lat="42.53874" lon="2.56905">
        <ele>1021</ele>
        <time>2020-02-04T09:09:11.654Z</time>
      </trkpt>
      <trkpt lat="42.53929" lon="2.5691">
        <ele>1029</ele>
        <time>2020-02-04T09:09:16.354Z</time>
      </trkpt>
      <trkpt lat="42.5394" lon="2.56934">
        <ele>1026</ele>
        <time>2020-02-04T09:09:21.058Z</time>
      </trkpt>
      <trkpt lat="42.53942" lon="2.56965">
        <ele>1019</ele>
        <time>2020-02-04T09:09:25.765Z</time>
      </trkpt>
      <trkpt lat="42.53959" lon="2.57002">
        <ele>1015</ele>
        <time>2020-02-04T09:09:30.478Z</time>
      </trkpt>
      <trkpt lat="42.54022" lon="2.57047">
        <ele>1017</ele>
        <time>2020-02-04T09:09:35.202Z</time>
      </trkpt>
      <trkpt lat="42.54088" lon="2.57198">
        <ele>1005</ele>
        <time>2020-02-04T09:09:39.947Z</time>
      </trkpt>
      <trkpt lat="42.54096" lon="2.57229">
        <ele>1004</ele>
        <time>2020-02-04T09:09:44.696Z</time>
      </trkpt>
      <trkpt lat="42.54092" lon="2.57371">
        <ele>990</ele>
        <time>2020-02-04T09:09:49.461Z</time>
      </trkpt>
      <trkpt lat="42.54099" lon="2.57471">
        <ele>988</ele>
        <time>2020-02-04T09:09:54.238Z</time>
      </trkpt>
      <trkpt lat="42.54094" lon="2.57516">
        <ele>985</ele>
        <time>2020-02-04T09:09:59.021Z</time>
      </trkpt>
      <trkpt lat="42.54068" lon="2.57563">
        <ele>978</ele>
        <time>2020-02-04T09:10:03.811Z</time>
      </trkpt>
      <trkpt lat="42.54068" lon="2.57563">
        <ele>978</ele>
        <time>2020-02-04T09:10:08.601Z</time>
      </trkpt>
      <trkpt lat="42.54047" lon="2.57604">
        <ele>971</ele>
        <time>2020-02-04T09:10:13.397Z</time>
      </trkpt>
      <trkpt lat="42.54034" lon="2.57657">
        <ele>972</ele>
        <time>2020-02-04T09:10:18.199Z</time>
      </trkpt>
      <trkpt lat="42.54036" lon="2.57672">
        <ele>974</ele>
        <time>2020-02-04T09:10:23.003Z</time>
      </trkpt>
      <trkpt lat="42.54074" lon="2.57728">
        <ele>974</ele>
        <time>2020-02-04T09:10:27.816Z</time>
      </trkpt>
      <trkpt lat="42.54095" lon="2.57781">
        <ele>969</ele>
        <time>2020-02-04T09:10:32.636Z</time>
      </trkpt>
      <trkpt lat="42.54178" lon="2.57844">
        <ele>962</ele>
        <time>2020-02-04T09:10:37.471Z</time>
      </trkpt>
      <trkpt lat="42.54193" lon="2.57849">
        <ele>960</ele>
        <time>2020-02-04T09:10:42.309Z</time>
      </trkpt>
      <trkpt lat="42.54224" lon="2.57835">
        <ele>959</ele>
        <time>2020-02-04T09:10:47.152Z</time>
      </trkpt>
      <trkpt lat="42.54232" lon="2.57844">
        <ele>957</ele>
        <time>2020-02-04T09:10:51.997Z</time>
      </trkpt>
      <trkpt lat="42.5423" lon="2.57867">
        <ele>955</ele>
        <time>2020-02-04T09:10:56.844Z</time>
      </trkpt>
      <trkpt lat="42.54205" lon="2.57877">
        <ele>955</ele>
        <time>2020-02-04T09:11:01.696Z</time>
      </trkpt>
      <trkpt lat="42.54111" lon="2.57853">
        <ele>957</ele>
        <time>2020-02-04T09:11:06.563Z</time>
      </trkpt>
      <trkpt lat="42.5405" lon="2.57822">
        <ele>956</ele>
        <time>2020-02-04T09:11:11.440Z</time>
      </trkpt>
      <trkpt lat="42.53997" lon="2.57825">
        <ele>947</ele>
        <time>2020-02-04T09:11:16.326Z</time>
      </trkpt>
      <trkpt lat="42.53975" lon="2.57816">
        <ele>943</ele>
        <time>2020-02-04T09:11:21.215Z</time>
      </trkpt>
      <trkpt lat="42.53955" lon="2.57791">
        <ele>942</ele>
        <time>2020-02-04T09:11:26.109Z</time>
      </trkpt>
      <trkpt lat="42.53918" lon="2.57724">
        <ele>938</ele>
        <time>2020-02-04T09:11:31.013Z</time>
      </trkpt>
      <trkpt lat="42.53901" lon="2.57731">
        <ele>931</ele>
        <time>2020-02-04T09:11:35.919Z</time>
      </trkpt>
      <trkpt lat="42.53899" lon="2.57743">
        <ele>932</ele>
        <time>2020-02-04T09:11:40.827Z</time>
      </trkpt>
      <trkpt lat="42.53937" lon="2.57805">
        <ele>937</ele>
        <time>2020-02-04T09:11:45.745Z</time>
      </trkpt>
      <trkpt lat="42.53965" lon="2.57865">
        <ele>932</ele>
        <time>2020-02-04T09:11:50.671Z</time>
      </trkpt>
      <trkpt lat="42.54061" lon="2.57916">
        <ele>935</ele>
        <time>2020-02-04T09:11:55.613Z</time>
      </trkpt>
      <trkpt lat="42.54081" lon="2.5795">
        <ele>929</ele>
        <time>2020-02-04T09:12:00.561Z</time>
      </trkpt>
      <trkpt lat="42.54098" lon="2.58019">
        <ele>915</ele>
        <time>2020-02-04T09:12:05.517Z</time>
      </trkpt>
      <trkpt lat="42.54182" lon="2.58082">
        <ele>910</ele>
        <time>2020-02-04T09:12:10.488Z</time>
      </trkpt>
      <trkpt lat="42.54275" lon="2.58144">
        <ele>902</ele>
        <time>2020-02-04T09:12:15.476Z</time>
      </trkpt>
      <trkpt lat="42.54316" lon="2.58163">
        <ele>900</ele>
        <time>2020-02-04T09:12:20.471Z</time>
      </trkpt>
      <trkpt lat="42.5434" lon="2.58165">
        <ele>900</ele>
        <time>2020-02-04T09:12:25.470Z</time>
      </trkpt>
      <trkpt lat="42.54362" lon="2.58162">
        <ele>898</ele>
        <time>2020-02-04T09:12:30.472Z</time>
      </trkpt>
      <trkpt lat="42.54545" lon="2.58085">
        <ele>885</ele>
        <time>2020-02-04T09:12:35.505Z</time>
      </trkpt>
      <trkpt lat="42.54545" lon="2.58085">
        <ele>885</ele>
        <time>2020-02-04T09:12:40.538Z</time>
      </trkpt>
      <trkpt lat="42.54673" lon="2.5808">
        <ele>872</ele>
        <time>2020-02-04T09:12:45.591Z</time>
      </trkpt>
      <trkpt lat="42.54695" lon="2.58043">
        <ele>870</ele>
        <time>2020-02-04T09:12:50.650Z</time>
      </trkpt>
      <trkpt lat="42.54706" lon="2.57969">
        <ele>871</ele>
        <time>2020-02-04T09:12:55.718Z</time>
      </trkpt>
      <trkpt lat="42.54692" lon="2.57899">
        <ele>874</ele>
        <time>2020-02-04T09:13:00.795Z</time>
      </trkpt>
      <trkpt lat="42.54713" lon="2.57806">
        <ele>868</ele>
        <time>2020-02-04T09:13:05.883Z</time>
      </trkpt>
      <trkpt lat="42.54706" lon="2.57699">
        <ele>871</ele>
        <time>2020-02-04T09:13:10.984Z</time>
      </trkpt>
      <trkpt lat="42.54721" lon="2.57664">
        <ele>870</ele>
        <time>2020-02-04T09:13:16.090Z</time>
      </trkpt>
      <trkpt lat="42.54731" lon="2.57658">
        <ele>869</ele>
        <time>2020-02-04T09:13:21.197Z</time>
      </trkpt>
      <trkpt lat="42.54741" lon="2.57659">
        <ele>866</ele>
        <time>2020-02-04T09:13:26.306Z</time>
      </trkpt>
      <trkpt lat="42.54748" lon="2.57684">
        <ele>862</ele>
        <time>2020-02-04T09:13:31.418Z</time>
      </trkpt>
      <trkpt lat="42.54717" lon="2.57717">
        <ele>867</ele>
        <time>2020-02-04T09:13:36.536Z</time>
      </trkpt>
      <trkpt lat="42.54724" lon="2.57772">
        <ele>865</ele>
        <time>2020-02-04T09:13:41.661Z</time>
      </trkpt>
      <trkpt lat="42.54817" lon="2.57955">
        <ele>839</ele>
        <time>2020-02-04T09:13:46.812Z</time>
      </trkpt>
      <trkpt lat="42.54829" lon="2.58006">
        <ele>836</ele>
        <time>2020-02-04T09:13:51.970Z</time>
      </trkpt>
      <trkpt lat="42.54832" lon="2.58032">
        <ele>834</ele>
        <time>2020-02-04T09:13:57.131Z</time>
      </trkpt>
      <trkpt lat="42.54825" lon="2.58101">
        <ele>833</ele>
        <time>2020-02-04T09:14:02.300Z</time>
      </trkpt>
      <trkpt lat="42.54844" lon="2.58155">
        <ele>823</ele>
        <time>2020-02-04T09:14:07.476Z</time>
      </trkpt>
      <trkpt lat="42.54819" lon="2.58252">
        <ele>822</ele>
        <time>2020-02-04T09:14:12.664Z</time>
      </trkpt>
      <trkpt lat="42.54812" lon="2.58307">
        <ele>820</ele>
        <time>2020-02-04T09:14:17.859Z</time>
      </trkpt>
      <trkpt lat="42.54819" lon="2.58388">
        <ele>815</ele>
        <time>2020-02-04T09:14:23.064Z</time>
      </trkpt>
      <trkpt lat="42.54821" lon="2.58429">
        <ele>812</ele>
        <time>2020-02-04T09:14:28.274Z</time>
      </trkpt>
      <trkpt lat="42.54798" lon="2.58507">
        <ele>807</ele>
        <time>2020-02-04T09:14:33.493Z</time>
      </trkpt>
      <trkpt lat="42.54783" lon="2.58589">
        <ele>802</ele>
        <time>2020-02-04T09:14:38.722Z</time>
      </trkpt>
      <trkpt lat="42.5474" lon="2.58716">
        <ele>795</ele>
        <time>2020-02-04T09:14:43.968Z</time>
      </trkpt>
      <trkpt lat="42.5473" lon="2.58736">
        <ele>794</ele>
        <time>2020-02-04T09:14:49.217Z</time>
      </trkpt>
      <trkpt lat="42.54693" lon="2.58737">
        <ele>793</ele>
        <time>2020-02-04T09:14:54.472Z</time>
      </trkpt>
      <trkpt lat="42.54662" lon="2.58734">
        <ele>793</ele>
        <time>2020-02-04T09:14:59.732Z</time>
      </trkpt>
      <trkpt lat="42.54599" lon="2.58732">
        <ele>787</ele>
        <time>2020-02-04T09:15:05.002Z</time>
      </trkpt>
      <trkpt lat="42.54579" lon="2.587">
        <ele>793</ele>
        <time>2020-02-04T09:15:10.277Z</time>
      </trkpt>
      <trkpt lat="42.54561" lon="2.58685">
        <ele>797</ele>
        <time>2020-02-04T09:15:15.555Z</time>
      </trkpt>
      <trkpt lat="42.54538" lon="2.58712">
        <ele>789</ele>
        <time>2020-02-04T09:15:20.838Z</time>
      </trkpt>
      <trkpt lat="42.54473" lon="2.58733">
        <ele>785</ele>
        <time>2020-02-04T09:15:26.132Z</time>
      </trkpt>
      <trkpt lat="42.54415" lon="2.58789">
        <ele>773</ele>
        <time>2020-02-04T09:15:31.437Z</time>
      </trkpt>
      <trkpt lat="42.54334" lon="2.58796">
        <ele>771</ele>
        <time>2020-02-04T09:15:36.755Z</time>
      </trkpt>
      <trkpt lat="42.54334" lon="2.58796">
        <ele>771</ele>
        <time>2020-02-04T09:15:42.073Z</time>
      </trkpt>
      <trkpt lat="42.5431" lon="2.58791">
        <ele>768</ele>
        <time>2020-02-04T09:15:47.395Z</time>
      </trkpt>
      <trkpt lat="42.54268" lon="2.58761">
        <ele>769</ele>
        <time>2020-02-04T09:15:52.725Z</time>
      </trkpt>
      <trkpt lat="42.54238" lon="2.58709">
        <ele>776</ele>
        <time>2020-02-04T09:15:58.062Z</time>
      </trkpt>
      <trkpt lat="42.54224" lon="2.58696">
        <ele>776</ele>
        <time>2020-02-04T09:16:03.402Z</time>
      </trkpt>
      <trkpt lat="42.54129" lon="2.58705">
        <ele>753</ele>
        <time>2020-02-04T09:16:08.757Z</time>
      </trkpt>
      <trkpt lat="42.54118" lon="2.58691">
        <ele>755</ele>
        <time>2020-02-04T09:16:14.115Z</time>
      </trkpt>
      <trkpt lat="42.54118" lon="2.58691">
        <ele>755</ele>
        <time>2020-02-04T09:16:19.473Z</time>
      </trkpt>
      <trkpt lat="42.54118" lon="2.58691">
        <ele>755</ele>
        <time>2020-02-04T09:16:24.831Z</time>
      </trkpt>
      <trkpt lat="42.54118" lon="2.58691">
        <ele>755</ele>
        <time>2020-02-04T09:16:30.189Z</time>
      </trkpt>
      <trkpt lat="42.54114" lon="2.58687">
        <ele>755</ele>
        <time>2020-02-04T09:16:35.548Z</time>
      </trkpt>
      <trkpt lat="42.54114" lon="2.58687">
        <ele>755</ele>
        <time>2020-02-04T09:16:40.907Z</time>
      </trkpt>
      <trkpt lat="42.54088" lon="2.58629">
        <ele>761</ele>
        <time>2020-02-04T09:16:46.274Z</time>
      </trkpt>
      <trkpt lat="42.54045" lon="2.58628">
        <ele>755</ele>
        <time>2020-02-04T09:16:51.648Z</time>
      </trkpt>
      <trkpt lat="42.53995" lon="2.58559">
        <ele>763</ele>
        <time>2020-02-04T09:16:57.033Z</time>
      </trkpt>
      <trkpt lat="42.5397" lon="2.5857">
        <ele>762</ele>
        <time>2020-02-04T09:17:02.422Z</time>
      </trkpt>
      <trkpt lat="42.53939" lon="2.58613">
        <ele>751</ele>
        <time>2020-02-04T09:17:07.818Z</time>
      </trkpt>
      <trkpt lat="42.5391" lon="2.58629">
        <ele>744</ele>
        <time>2020-02-04T09:17:13.219Z</time>
      </trkpt>
      <trkpt lat="42.53853" lon="2.58636">
        <ele>742</ele>
        <time>2020-02-04T09:17:18.630Z</time>
      </trkpt>
      <trkpt lat="42.5381" lon="2.58627">
        <ele>743</ele>
        <time>2020-02-04T09:17:24.047Z</time>
      </trkpt>
      <trkpt lat="42.53763" lon="2.58648">
        <ele>738</ele>
        <time>2020-02-04T09:17:29.472Z</time>
      </trkpt>
      <trkpt lat="42.53709" lon="2.5865">
        <ele>729</ele>
        <time>2020-02-04T09:17:34.906Z</time>
      </trkpt>
      <trkpt lat="42.53689" lon="2.58635">
        <ele>728</ele>
        <time>2020-02-04T09:17:40.344Z</time>
      </trkpt>
      <trkpt lat="42.53661" lon="2.5855">
        <ele>742</ele>
        <time>2020-02-04T09:17:45.793Z</time>
      </trkpt>
      <trkpt lat="42.53619" lon="2.58515">
        <ele>736</ele>
        <time>2020-02-04T09:17:51.250Z</time>
      </trkpt>
      <trkpt lat="42.53603" lon="2.58476">
        <ele>739</ele>
        <time>2020-02-04T09:17:56.712Z</time>
      </trkpt>
      <trkpt lat="42.53581" lon="2.58447">
        <ele>736</ele>
        <time>2020-02-04T09:18:02.179Z</time>
      </trkpt>
      <trkpt lat="42.53541" lon="2.5843">
        <ele>724</ele>
        <time>2020-02-04T09:18:07.652Z</time>
      </trkpt>
      <trkpt lat="42.53538" lon="2.58418">
        <ele>725</ele>
        <time>2020-02-04T09:18:13.127Z</time>
      </trkpt>
      <trkpt lat="42.53559" lon="2.58343">
        <ele>737</ele>
        <time>2020-02-04T09:18:18.611Z</time>
      </trkpt>
      <trkpt lat="42.53566" lon="2.5824">
        <ele>741</ele>
        <time>2020-02-04T09:18:24.108Z</time>
      </trkpt>
      <trkpt lat="42.53563" lon="2.58224">
        <ele>743</ele>
        <time>2020-02-04T09:18:29.607Z</time>
      </trkpt>
      <trkpt lat="42.53553" lon="2.58211">
        <ele>742</ele>
        <time>2020-02-04T09:18:35.108Z</time>
      </trkpt>
      <trkpt lat="42.53509" lon="2.58175">
        <ele>735</ele>
        <time>2020-02-04T09:18:40.617Z</time>
      </trkpt>
      <trkpt lat="42.53496" lon="2.58175">
        <ele>734</ele>
        <time>2020-02-04T09:18:46.128Z</time>
      </trkpt>
      <trkpt lat="42.5349" lon="2.58196">
        <ele>733</ele>
        <time>2020-02-04T09:18:51.642Z</time>
      </trkpt>
      <trkpt lat="42.53511" lon="2.58223">
        <ele>731</ele>
        <time>2020-02-04T09:18:57.160Z</time>
      </trkpt>
      <trkpt lat="42.53518" lon="2.5825">
        <ele>730</ele>
        <time>2020-02-04T09:19:02.682Z</time>
      </trkpt>
      <trkpt lat="42.53509" lon="2.5829">
        <ele>727</ele>
        <time>2020-02-04T09:19:08.209Z</time>
      </trkpt>
      <trkpt lat="42.53507" lon="2.58332">
        <ele>725</ele>
        <time>2020-02-04T09:19:13.741Z</time>
      </trkpt>
      <trkpt lat="42.53497" lon="2.58355">
        <ele>721</ele>
        <time>2020-02-04T09:19:19.276Z</time>
      </trkpt>
      <trkpt lat="42.53447" lon="2.58409">
        <ele>727</ele>
        <time>2020-02-04T09:19:24.821Z</time>
      </trkpt>
      <trkpt lat="42.53448" lon="2.58437">
        <ele>723</ele>
        <time>2020-02-04T09:19:30.369Z</time>
      </trkpt>
      <trkpt lat="42.53461" lon="2.58486">
        <ele>717</ele>
        <time>2020-02-04T09:19:35.924Z</time>
      </trkpt>
      <trkpt lat="42.53506" lon="2.58574">
        <ele>705</ele>
        <time>2020-02-04T09:19:41.491Z</time>
      </trkpt>
      <trkpt lat="42.53506" lon="2.58594">
        <ele>704</ele>
        <time>2020-02-04T09:19:47.061Z</time>
      </trkpt>
      <trkpt lat="42.53484" lon="2.58667">
        <ele>699</ele>
        <time>2020-02-04T09:19:52.640Z</time>
      </trkpt>
      <trkpt lat="42.53469" lon="2.58781">
        <ele>684</ele>
        <time>2020-02-04T09:19:58.233Z</time>
      </trkpt>
      <trkpt lat="42.53438" lon="2.58821">
        <ele>685</ele>
        <time>2020-02-04T09:20:03.832Z</time>
      </trkpt>
      <trkpt lat="42.53418" lon="2.58833">
        <ele>688</ele>
        <time>2020-02-04T09:20:09.435Z</time>
      </trkpt>
      <trkpt lat="42.53369" lon="2.58837">
        <ele>688</ele>
        <time>2020-02-04T09:20:15.046Z</time>
      </trkpt>
      <trkpt lat="42.53331" lon="2.58827">
        <ele>692</ele>
        <time>2020-02-04T09:20:20.663Z</time>
      </trkpt>
      <trkpt lat="42.53286" lon="2.58841">
        <ele>693</ele>
        <time>2020-02-04T09:20:26.287Z</time>
      </trkpt>
      <trkpt lat="42.53205" lon="2.58913">
        <ele>680</ele>
        <time>2020-02-04T09:20:31.927Z</time>
      </trkpt>
      <trkpt lat="42.53158" lon="2.5891">
        <ele>688</ele>
        <time>2020-02-04T09:20:37.574Z</time>
      </trkpt>
      <trkpt lat="42.53123" lon="2.58931">
        <ele>682</ele>
        <time>2020-02-04T09:20:43.227Z</time>
      </trkpt>
      <trkpt lat="42.53104" lon="2.58995">
        <ele>670</ele>
        <time>2020-02-04T09:20:48.889Z</time>
      </trkpt>
      <trkpt lat="42.53063" lon="2.59027">
        <ele>676</ele>
        <time>2020-02-04T09:20:54.558Z</time>
      </trkpt>
      <trkpt lat="42.5306" lon="2.59045">
        <ele>679</ele>
        <time>2020-02-04T09:21:00.229Z</time>
      </trkpt>
      <trkpt lat="42.53065" lon="2.59063">
        <ele>681</ele>
        <time>2020-02-04T09:21:05.903Z</time>
      </trkpt>
      <trkpt lat="42.53076" lon="2.59072">
        <ele>682</ele>
        <time>2020-02-04T09:21:11.579Z</time>
      </trkpt>
      <trkpt lat="42.53107" lon="2.59069">
        <ele>681</ele>
        <time>2020-02-04T09:21:17.260Z</time>
      </trkpt>
      <trkpt lat="42.53145" lon="2.59082">
        <ele>683</ele>
        <time>2020-02-04T09:21:22.947Z</time>
      </trkpt>
      <trkpt lat="42.5319" lon="2.5907">
        <ele>680</ele>
        <time>2020-02-04T09:21:28.641Z</time>
      </trkpt>
      <trkpt lat="42.53249" lon="2.59077">
        <ele>684</ele>
        <time>2020-02-04T09:21:34.345Z</time>
      </trkpt>
      <trkpt lat="42.5327" lon="2.59073">
        <ele>685</ele>
        <time>2020-02-04T09:21:40.052Z</time>
      </trkpt>
      <trkpt lat="42.53338" lon="2.59021">
        <ele>674</ele>
        <time>2020-02-04T09:21:45.772Z</time>
      </trkpt>
      <trkpt lat="42.53372" lon="2.59011">
        <ele>671</ele>
        <time>2020-02-04T09:21:51.497Z</time>
      </trkpt>
      <trkpt lat="42.53471" lon="2.59019">
        <ele>669</ele>
        <time>2020-02-04T09:21:57.238Z</time>
      </trkpt>
      <trkpt lat="42.53518" lon="2.59055">
        <ele>673</ele>
        <time>2020-02-04T09:22:02.988Z</time>
      </trkpt>
      <trkpt lat="42.53544" lon="2.59096">
        <ele>677</ele>
        <time>2020-02-04T09:22:08.744Z</time>
      </trkpt>
      <trkpt lat="42.53582" lon="2.59122">
        <ele>671</ele>
        <time>2020-02-04T09:22:14.507Z</time>
      </trkpt>
      <trkpt lat="42.53592" lon="2.59136">
        <ele>671</ele>
        <time>2020-02-04T09:22:20.272Z</time>
      </trkpt>
      <trkpt lat="42.53594" lon="2.59155">
        <ele>674</ele>
        <time>2020-02-04T09:22:26.040Z</time>
      </trkpt>
      <trkpt lat="42.53575" lon="2.59194">
        <ele>686</ele>
        <time>2020-02-04T09:22:31.813Z</time>
      </trkpt>
      <trkpt lat="42.53574" lon="2.59216">
        <ele>690</ele>
        <time>2020-02-04T09:22:37.589Z</time>
      </trkpt>
      <trkpt lat="42.53588" lon="2.59239">
        <ele>691</ele>
        <time>2020-02-04T09:22:43.368Z</time>
      </trkpt>
      <trkpt lat="42.53604" lon="2.59246">
        <ele>689</ele>
        <time>2020-02-04T09:22:49.150Z</time>
      </trkpt>
      <trkpt lat="42.53657" lon="2.59245">
        <ele>682</ele>
        <time>2020-02-04T09:22:54.940Z</time>
      </trkpt>
      <trkpt lat="42.53717" lon="2.59262">
        <ele>684</ele>
        <time>2020-02-04T09:23:00.740Z</time>
      </trkpt>
      <trkpt lat="42.53854" lon="2.59281">
        <ele>682</ele>
        <time>2020-02-04T09:23:06.562Z</time>
      </trkpt>
      <trkpt lat="42.53882" lon="2.59301">
        <ele>682</ele>
        <time>2020-02-04T09:23:12.389Z</time>
      </trkpt>
      <trkpt lat="42.53896" lon="2.59333">
        <ele>686</ele>
        <time>2020-02-04T09:23:18.221Z</time>
      </trkpt>
      <trkpt lat="42.53907" lon="2.59343">
        <ele>687</ele>
        <time>2020-02-04T09:23:24.055Z</time>
      </trkpt>
      <trkpt lat="42.53985" lon="2.5936">
        <ele>681</ele>
        <time>2020-02-04T09:23:29.902Z</time>
      </trkpt>
      <trkpt lat="42.54008" lon="2.59378">
        <ele>681</ele>
        <time>2020-02-04T09:23:35.753Z</time>
      </trkpt>
      <trkpt lat="42.54051" lon="2.59467">
        <ele>684</ele>
        <time>2020-02-04T09:23:41.616Z</time>
      </trkpt>
      <trkpt lat="42.54053" lon="2.59489">
        <ele>686</ele>
        <time>2020-02-04T09:23:47.482Z</time>
      </trkpt>
      <trkpt lat="42.54035" lon="2.59562">
        <ele>695</ele>
        <time>2020-02-04T09:23:53.357Z</time>
      </trkpt>
      <trkpt lat="42.54038" lon="2.59593">
        <ele>697</ele>
        <time>2020-02-04T09:23:59.236Z</time>
      </trkpt>
      <trkpt lat="42.54062" lon="2.59658">
        <ele>695</ele>
        <time>2020-02-04T09:24:05.123Z</time>
      </trkpt>
      <trkpt lat="42.54075" lon="2.59747">
        <ele>695</ele>
        <time>2020-02-04T09:24:11.021Z</time>
      </trkpt>
      <trkpt lat="42.54075" lon="2.59747">
        <ele>695</ele>
        <time>2020-02-04T09:24:16.919Z</time>
      </trkpt>
      <trkpt lat="42.54092" lon="2.59797">
        <ele>690</ele>
        <time>2020-02-04T09:24:22.824Z</time>
      </trkpt>
      <trkpt lat="42.54088" lon="2.59826">
        <ele>693</ele>
        <time>2020-02-04T09:24:28.732Z</time>
      </trkpt>
      <trkpt lat="42.54006" lon="2.59988">
        <ele>714</ele>
        <time>2020-02-04T09:24:34.663Z</time>
      </trkpt>
      <trkpt lat="42.54007" lon="2.60004">
        <ele>714</ele>
        <time>2020-02-04T09:24:40.596Z</time>
      </trkpt>
      <trkpt lat="42.54019" lon="2.60009">
        <ele>714</ele>
        <time>2020-02-04T09:24:46.531Z</time>
      </trkpt>
      <trkpt lat="42.54045" lon="2.59996">
        <ele>708</ele>
        <time>2020-02-04T09:24:52.471Z</time>
      </trkpt>
      <trkpt lat="42.54086" lon="2.59995">
        <ele>700</ele>
        <time>2020-02-04T09:24:58.417Z</time>
      </trkpt>
      <trkpt lat="42.54147" lon="2.6003">
        <ele>698</ele>
        <time>2020-02-04T09:25:04.374Z</time>
      </trkpt>
      <trkpt lat="42.54158" lon="2.60042">
        <ele>699</ele>
        <time>2020-02-04T09:25:10.333Z</time>
      </trkpt>
      <trkpt lat="42.54166" lon="2.60067">
        <ele>702</ele>
        <time>2020-02-04T09:25:16.295Z</time>
      </trkpt>
      <trkpt lat="42.54173" lon="2.60164">
        <ele>718</ele>
        <time>2020-02-04T09:25:22.269Z</time>
      </trkpt>
      <trkpt lat="42.54194" lon="2.60161">
        <ele>717</ele>
        <time>2020-02-04T09:25:28.246Z</time>
      </trkpt>
      <trkpt lat="42.54213" lon="2.60124">
        <ele>710</ele>
        <time>2020-02-04T09:25:34.229Z</time>
      </trkpt>
      <trkpt lat="42.54225" lon="2.60114">
        <ele>706</ele>
        <time>2020-02-04T09:25:40.214Z</time>
      </trkpt>
      <trkpt lat="42.54242" lon="2.60116">
        <ele>705</ele>
        <time>2020-02-04T09:25:46.202Z</time>
      </trkpt>
      <trkpt lat="42.54316" lon="2.60191">
        <ele>714</ele>
        <time>2020-02-04T09:25:52.204Z</time>
      </trkpt>
      <trkpt lat="42.54333" lon="2.60199">
        <ele>714</ele>
        <time>2020-02-04T09:25:58.209Z</time>
      </trkpt>
      <trkpt lat="42.54333" lon="2.60199">
        <ele>714</ele>
        <time>2020-02-04T09:26:04.214Z</time>
      </trkpt>
      <trkpt lat="42.54381" lon="2.60203">
        <ele>709</ele>
        <time>2020-02-04T09:26:10.227Z</time>
      </trkpt>
      <trkpt lat="42.54381" lon="2.60203">
        <ele>709</ele>
        <time>2020-02-04T09:26:16.240Z</time>
      </trkpt>
      <trkpt lat="42.54398" lon="2.60212">
        <ele>709</ele>
        <time>2020-02-04T09:26:22.256Z</time>
      </trkpt>
      <trkpt lat="42.54444" lon="2.60273">
        <ele>715</ele>
        <time>2020-02-04T09:26:28.282Z</time>
      </trkpt>
      <trkpt lat="42.54552" lon="2.60355">
        <ele>714</ele>
        <time>2020-02-04T09:26:34.328Z</time>
      </trkpt>
      <trkpt lat="42.5456" lon="2.60393">
        <ele>720</ele>
        <time>2020-02-04T09:26:40.379Z</time>
      </trkpt>
      <trkpt lat="42.54556" lon="2.60423">
        <ele>727</ele>
        <time>2020-02-04T09:26:46.433Z</time>
      </trkpt>
      <trkpt lat="42.54561" lon="2.60436">
        <ele>729</ele>
        <time>2020-02-04T09:26:52.489Z</time>
      </trkpt>
      <trkpt lat="42.54573" lon="2.60441">
        <ele>728</ele>
        <time>2020-02-04T09:26:58.547Z</time>
      </trkpt>
      <trkpt lat="42.54613" lon="2.60407">
        <ele>718</ele>
        <time>2020-02-04T09:27:04.613Z</time>
      </trkpt>
      <trkpt lat="42.54627" lon="2.60404">
        <ele>717</ele>
        <time>2020-02-04T09:27:10.681Z</time>
      </trkpt>
      <trkpt lat="42.54727" lon="2.60428">
        <ele>722</ele>
        <time>2020-02-04T09:27:16.765Z</time>
      </trkpt>
      <trkpt lat="42.54826" lon="2.60462">
        <ele>730</ele>
        <time>2020-02-04T09:27:22.865Z</time>
      </trkpt>
      <trkpt lat="42.54887" lon="2.60455">
        <ele>720</ele>
        <time>2020-02-04T09:27:28.975Z</time>
      </trkpt>
      <trkpt lat="42.54913" lon="2.60466">
        <ele>720</ele>
        <time>2020-02-04T09:27:35.090Z</time>
      </trkpt>
      <trkpt lat="42.54961" lon="2.60587">
        <ele>727</ele>
        <time>2020-02-04T09:27:41.221Z</time>
      </trkpt>
      <trkpt lat="42.54973" lon="2.60667">
        <ele>731</ele>
        <time>2020-02-04T09:27:47.361Z</time>
      </trkpt>
      <trkpt lat="42.55012" lon="2.60729">
        <ele>729</ele>
        <time>2020-02-04T09:27:53.511Z</time>
      </trkpt>
      <trkpt lat="42.55015" lon="2.60779">
        <ele>737</ele>
        <time>2020-02-04T09:27:59.667Z</time>
      </trkpt>
      <trkpt lat="42.55024" lon="2.60795">
        <ele>737</ele>
        <time>2020-02-04T09:28:05.825Z</time>
      </trkpt>
      <trkpt lat="42.55058" lon="2.60815">
        <ele>730</ele>
        <time>2020-02-04T09:28:11.989Z</time>
      </trkpt>
      <trkpt lat="42.55063" lon="2.60824">
        <ele>730</ele>
        <time>2020-02-04T09:28:18.155Z</time>
      </trkpt>
      <trkpt lat="42.55063" lon="2.60824">
        <ele>730</ele>
        <time>2020-02-04T09:28:24.321Z</time>
      </trkpt>
      <trkpt lat="42.55086" lon="2.60883">
        <ele>729</ele>
        <time>2020-02-04T09:28:30.495Z</time>
      </trkpt>
      <trkpt lat="42.55088" lon="2.60924">
        <ele>733</ele>
        <time>2020-02-04T09:28:36.674Z</time>
      </trkpt>
      <trkpt lat="42.55064" lon="2.61052">
        <ele>747</ele>
        <time>2020-02-04T09:28:42.868Z</time>
      </trkpt>
      <trkpt lat="42.55065" lon="2.61079">
        <ele>748</ele>
        <time>2020-02-04T09:28:49.065Z</time>
      </trkpt>
      <trkpt lat="42.55127" lon="2.61106">
        <ele>738</ele>
        <time>2020-02-04T09:28:55.273Z</time>
      </trkpt>
      <trkpt lat="42.55144" lon="2.61123">
        <ele>738</ele>
        <time>2020-02-04T09:29:01.484Z</time>
      </trkpt>
      <trkpt lat="42.55145" lon="2.61147">
        <ele>741</ele>
        <time>2020-02-04T09:29:07.698Z</time>
      </trkpt>
      <trkpt lat="42.55138" lon="2.6118">
        <ele>749</ele>
        <time>2020-02-04T09:29:13.916Z</time>
      </trkpt>
      <trkpt lat="42.55145" lon="2.61206">
        <ele>751</ele>
        <time>2020-02-04T09:29:20.137Z</time>
      </trkpt>
      <trkpt lat="42.55271" lon="2.61235">
        <ele>743</ele>
        <time>2020-02-04T09:29:26.379Z</time>
      </trkpt>
      <trkpt lat="42.55325" lon="2.61259">
        <ele>742</ele>
        <time>2020-02-04T09:29:32.630Z</time>
      </trkpt>
      <trkpt lat="42.55345" lon="2.61284">
        <ele>742</ele>
        <time>2020-02-04T09:29:38.885Z</time>
      </trkpt>
      <trkpt lat="42.55355" lon="2.61446">
        <ele>756</ele>
        <time>2020-02-04T09:29:45.159Z</time>
      </trkpt>
      <trkpt lat="42.55352" lon="2.61459">
        <ele>756</ele>
        <time>2020-02-04T09:29:51.435Z</time>
      </trkpt>
      <trkpt lat="42.55352" lon="2.61459">
        <ele>756</ele>
        <time>2020-02-04T09:29:57.711Z</time>
      </trkpt>
      <trkpt lat="42.55352" lon="2.61459">
        <ele>756</ele>
        <time>2020-02-04T09:30:03.987Z</time>
      </trkpt>
      <trkpt lat="42.55352" lon="2.61459">
        <ele>756</ele>
        <time>2020-02-04T09:30:10.263Z</time>
      </trkpt>
      <trkpt lat="42.55352" lon="2.61459">
        <ele>756</ele>
        <time>2020-02-04T09:30:16.539Z</time>
      </trkpt>
      <trkpt lat="42.55342" lon="2.61496">
        <ele>757</ele>
        <time>2020-02-04T09:30:22.820Z</time>
      </trkpt>
      <trkpt lat="42.55316" lon="2.61525">
        <ele>758</ele>
        <time>2020-02-04T09:30:29.106Z</time>
      </trkpt>
      <trkpt lat="42.55315" lon="2.61527">
        <ele>758</ele>
        <time>2020-02-04T09:30:35.392Z</time>
      </trkpt>
      <trkpt lat="42.55332" lon="2.61596">
        <ele>753</ele>
        <time>2020-02-04T09:30:41.687Z</time>
      </trkpt>
      <trkpt lat="42.55326" lon="2.61629">
        <ele>751</ele>
        <time>2020-02-04T09:30:47.986Z</time>
      </trkpt>
      <trkpt lat="42.55331" lon="2.61666">
        <ele>750</ele>
        <time>2020-02-04T09:30:54.289Z</time>
      </trkpt>
      <trkpt lat="42.55373" lon="2.61728">
        <ele>752</ele>
        <time>2020-02-04T09:31:00.602Z</time>
      </trkpt>
      <trkpt lat="42.5538" lon="2.61768">
        <ele>747</ele>
        <time>2020-02-04T09:31:06.920Z</time>
      </trkpt>
      <trkpt lat="42.55398" lon="2.61807">
        <ele>744</ele>
        <time>2020-02-04T09:31:13.244Z</time>
      </trkpt>
      <trkpt lat="42.55398" lon="2.61807">
        <ele>744</ele>
        <time>2020-02-04T09:31:19.568Z</time>
      </trkpt>
      <trkpt lat="42.55434" lon="2.6184">
        <ele>748</ele>
        <time>2020-02-04T09:31:25.899Z</time>
      </trkpt>
      <trkpt lat="42.5545" lon="2.61868">
        <ele>748</ele>
        <time>2020-02-04T09:31:32.234Z</time>
      </trkpt>
      <trkpt lat="42.55449" lon="2.61923">
        <ele>737</ele>
        <time>2020-02-04T09:31:38.575Z</time>
      </trkpt>
      <trkpt lat="42.55462" lon="2.61985">
        <ele>736</ele>
        <time>2020-02-04T09:31:44.924Z</time>
      </trkpt>
      <trkpt lat="42.55519" lon="2.62081">
        <ele>735</ele>
        <time>2020-02-04T09:31:51.288Z</time>
      </trkpt>
      <trkpt lat="42.55545" lon="2.62094">
        <ele>733</ele>
        <time>2020-02-04T09:31:57.656Z</time>
      </trkpt>
      <trkpt lat="42.55565" lon="2.62094">
        <ele>734</ele>
        <time>2020-02-04T09:32:04.027Z</time>
      </trkpt>
      <trkpt lat="42.55659" lon="2.62012">
        <ele>734</ele>
        <time>2020-02-04T09:32:10.416Z</time>
      </trkpt>
      <trkpt lat="42.55695" lon="2.62001">
        <ele>734</ele>
        <time>2020-02-04T09:32:16.811Z</time>
      </trkpt>
      <trkpt lat="42.55906" lon="2.61991">
        <ele>719</ele>
        <time>2020-02-04T09:32:23.240Z</time>
      </trkpt>
      <trkpt lat="42.55947" lon="2.61997">
        <ele>720</ele>
        <time>2020-02-04T09:32:29.675Z</time>
      </trkpt>
      <trkpt lat="42.5598" lon="2.62076">
        <ele>708</ele>
        <time>2020-02-04T09:32:36.121Z</time>
      </trkpt>
      <trkpt lat="42.56035" lon="2.62149">
        <ele>709</ele>
        <time>2020-02-04T09:32:42.579Z</time>
      </trkpt>
      <trkpt lat="42.56042" lon="2.62199">
        <ele>707</ele>
        <time>2020-02-04T09:32:49.043Z</time>
      </trkpt>
      <trkpt lat="42.56042" lon="2.62222">
        <ele>705</ele>
        <time>2020-02-04T09:32:55.510Z</time>
      </trkpt>
      <trkpt lat="42.56026" lon="2.62314">
        <ele>694</ele>
        <time>2020-02-04T09:33:01.988Z</time>
      </trkpt>
      <trkpt lat="42.5602" lon="2.62333">
        <ele>693</ele>
        <time>2020-02-04T09:33:08.469Z</time>
      </trkpt>
      <trkpt lat="42.55968" lon="2.62394">
        <ele>682</ele>
        <time>2020-02-04T09:33:14.961Z</time>
      </trkpt>
      <trkpt lat="42.55947" lon="2.62478">
        <ele>678</ele>
        <time>2020-02-04T09:33:21.463Z</time>
      </trkpt>
      <trkpt lat="42.5595" lon="2.62503">
        <ele>680</ele>
        <time>2020-02-04T09:33:27.968Z</time>
      </trkpt>
      <trkpt lat="42.55977" lon="2.62528">
        <ele>682</ele>
        <time>2020-02-04T09:33:34.478Z</time>
      </trkpt>
      <trkpt lat="42.56076" lon="2.62561">
        <ele>683</ele>
        <time>2020-02-04T09:33:41.005Z</time>
      </trkpt>
      <trkpt lat="42.56101" lon="2.62558">
        <ele>683</ele>
        <time>2020-02-04T09:33:47.536Z</time>
      </trkpt>
      <trkpt lat="42.56176" lon="2.62535">
        <ele>686</ele>
        <time>2020-02-04T09:33:54.079Z</time>
      </trkpt>
      <trkpt lat="42.56188" lon="2.62537">
        <ele>685</ele>
        <time>2020-02-04T09:34:00.624Z</time>
      </trkpt>
      <trkpt lat="42.56247" lon="2.62588">
        <ele>672</ele>
        <time>2020-02-04T09:34:07.180Z</time>
      </trkpt>
      <trkpt lat="42.56259" lon="2.62585">
        <ele>672</ele>
        <time>2020-02-04T09:34:13.738Z</time>
      </trkpt>
      <trkpt lat="42.56283" lon="2.62557">
        <ele>676</ele>
        <time>2020-02-04T09:34:20.301Z</time>
      </trkpt>
      <trkpt lat="42.56321" lon="2.62521">
        <ele>681</ele>
        <time>2020-02-04T09:34:26.872Z</time>
      </trkpt>
      <trkpt lat="42.56342" lon="2.62513">
        <ele>682</ele>
        <time>2020-02-04T09:34:33.446Z</time>
      </trkpt>
      <trkpt lat="42.56426" lon="2.62556">
        <ele>671</ele>
        <time>2020-02-04T09:34:40.034Z</time>
      </trkpt>
      <trkpt lat="42.56446" lon="2.62575">
        <ele>669</ele>
        <time>2020-02-04T09:34:46.626Z</time>
      </trkpt>
      <trkpt lat="42.56452" lon="2.62586">
        <ele>668</ele>
        <time>2020-02-04T09:34:53.220Z</time>
      </trkpt>
      <trkpt lat="42.56443" lon="2.62649">
        <ele>666</ele>
        <time>2020-02-04T09:34:59.821Z</time>
      </trkpt>
      <trkpt lat="42.56454" lon="2.62722">
        <ele>668</ele>
        <time>2020-02-04T09:35:06.431Z</time>
      </trkpt>
      <trkpt lat="42.56448" lon="2.62752">
        <ele>668</ele>
        <time>2020-02-04T09:35:13.045Z</time>
      </trkpt>
      <trkpt lat="42.56404" lon="2.62837">
        <ele>665</ele>
        <time>2020-02-04T09:35:19.671Z</time>
      </trkpt>
      <trkpt lat="42.56405" lon="2.62887">
        <ele>665</ele>
        <time>2020-02-04T09:35:26.303Z</time>
      </trkpt>
      <trkpt lat="42.56413" lon="2.62914">
        <ele>667</ele>
        <time>2020-02-04T09:35:32.939Z</time>
      </trkpt>
      <trkpt lat="42.56414" lon="2.62964">
        <ele>669</ele>
        <time>2020-02-04T09:35:39.580Z</time>
      </trkpt>
      <trkpt lat="42.56409" lon="2.62987">
        <ele>667</ele>
        <time>2020-02-04T09:35:46.224Z</time>
      </trkpt>
      <trkpt lat="42.5636" lon="2.6306">
        <ele>660</ele>
        <time>2020-02-04T09:35:52.880Z</time>
      </trkpt>
      <trkpt lat="42.56344" lon="2.63097">
        <ele>662</ele>
        <time>2020-02-04T09:35:59.541Z</time>
      </trkpt>
      <trkpt lat="42.5633" lon="2.63207">
        <ele>670</ele>
        <time>2020-02-04T09:36:06.215Z</time>
      </trkpt>
      <trkpt lat="42.56267" lon="2.63307">
        <ele>666</ele>
        <time>2020-02-04T09:36:12.905Z</time>
      </trkpt>
      <trkpt lat="42.56231" lon="2.63397">
        <ele>668</ele>
        <time>2020-02-04T09:36:19.607Z</time>
      </trkpt>
      <trkpt lat="42.56198" lon="2.63421">
        <ele>666</ele>
        <time>2020-02-04T09:36:26.315Z</time>
      </trkpt>
      <trkpt lat="42.56157" lon="2.63467">
        <ele>663</ele>
        <time>2020-02-04T09:36:33.031Z</time>
      </trkpt>
      <trkpt lat="42.56157" lon="2.63507">
        <ele>668</ele>
        <time>2020-02-04T09:36:39.752Z</time>
      </trkpt>
      <trkpt lat="42.5616" lon="2.63523">
        <ele>668</ele>
        <time>2020-02-04T09:36:46.475Z</time>
      </trkpt>
      <trkpt lat="42.56183" lon="2.63544">
        <ele>668</ele>
        <time>2020-02-04T09:36:53.203Z</time>
      </trkpt>
      <trkpt lat="42.56223" lon="2.63547">
        <ele>670</ele>
        <time>2020-02-04T09:36:59.937Z</time>
      </trkpt>
      <trkpt lat="42.56284" lon="2.63537">
        <ele>671</ele>
        <time>2020-02-04T09:37:06.681Z</time>
      </trkpt>
      <trkpt lat="42.56311" lon="2.6352">
        <ele>672</ele>
        <time>2020-02-04T09:37:13.429Z</time>
      </trkpt>
      <trkpt lat="42.56341" lon="2.63515">
        <ele>672</ele>
        <time>2020-02-04T09:37:20.182Z</time>
      </trkpt>
      <trkpt lat="42.56482" lon="2.63506">
        <ele>670</ele>
        <time>2020-02-04T09:37:26.958Z</time>
      </trkpt>
      <trkpt lat="42.56503" lon="2.63509">
        <ele>669</ele>
        <time>2020-02-04T09:37:33.737Z</time>
      </trkpt>
      <trkpt lat="42.56547" lon="2.63547">
        <ele>665</ele>
        <time>2020-02-04T09:37:40.525Z</time>
      </trkpt>
      <trkpt lat="42.56547" lon="2.63547">
        <ele>665</ele>
        <time>2020-02-04T09:37:47.313Z</time>
      </trkpt>
      <trkpt lat="42.56578" lon="2.63581">
        <ele>661</ele>
        <time>2020-02-04T09:37:54.107Z</time>
      </trkpt>
      <trkpt lat="42.56592" lon="2.63611">
        <ele>658</ele>
        <time>2020-02-04T09:38:00.905Z</time>
      </trkpt>
      <trkpt lat="42.56599" lon="2.63636">
        <ele>655</ele>
        <time>2020-02-04T09:38:07.706Z</time>
      </trkpt>
      <trkpt lat="42.56604" lon="2.63695">
        <ele>652</ele>
        <time>2020-02-04T09:38:14.514Z</time>
      </trkpt>
      <trkpt lat="42.56568" lon="2.63781">
        <ele>650</ele>
        <time>2020-02-04T09:38:21.334Z</time>
      </trkpt>
      <trkpt lat="42.56564" lon="2.63825">
        <ele>653</ele>
        <time>2020-02-04T09:38:28.159Z</time>
      </trkpt>
      <trkpt lat="42.56548" lon="2.63852">
        <ele>652</ele>
        <time>2020-02-04T09:38:34.989Z</time>
      </trkpt>
      <trkpt lat="42.56517" lon="2.63873">
        <ele>648</ele>
        <time>2020-02-04T09:38:41.824Z</time>
      </trkpt>
      <trkpt lat="42.56505" lon="2.6391">
        <ele>650</ele>
        <time>2020-02-04T09:38:48.664Z</time>
      </trkpt>
      <trkpt lat="42.56529" lon="2.63974">
        <ele>655</ele>
        <time>2020-02-04T09:38:55.512Z</time>
      </trkpt>
      <trkpt lat="42.565" lon="2.64094">
        <ele>651</ele>
        <time>2020-02-04T09:39:02.375Z</time>
      </trkpt>
      <trkpt lat="42.56513" lon="2.64219">
        <ele>657</ele>
        <time>2020-02-04T09:39:09.253Z</time>
      </trkpt>
      <trkpt lat="42.56503" lon="2.64257">
        <ele>657</ele>
        <time>2020-02-04T09:39:16.136Z</time>
      </trkpt>
      <trkpt lat="42.56463" lon="2.64312">
        <ele>661</ele>
        <time>2020-02-04T09:39:23.028Z</time>
      </trkpt>
      <trkpt lat="42.56418" lon="2.64339">
        <ele>660</ele>
        <time>2020-02-04T09:39:29.928Z</time>
      </trkpt>
      <trkpt lat="42.56418" lon="2.64339">
        <ele>660</ele>
        <time>2020-02-04T09:39:36.828Z</time>
      </trkpt>
      <trkpt lat="42.56407" lon="2.64351">
        <ele>659</ele>
        <time>2020-02-04T09:39:43.730Z</time>
      </trkpt>
      <trkpt lat="42.56403" lon="2.64371">
        <ele>657</ele>
        <time>2020-02-04T09:39:50.635Z</time>
      </trkpt>
      <trkpt lat="42.56407" lon="2.64414">
        <ele>654</ele>
        <time>2020-02-04T09:39:57.545Z</time>
      </trkpt>
      <trkpt lat="42.56418" lon="2.6443">
        <ele>654</ele>
        <time>2020-02-04T09:40:04.457Z</time>
      </trkpt>
      <trkpt lat="42.56449" lon="2.64448">
        <ele>654</ele>
        <time>2020-02-04T09:40:11.375Z</time>
      </trkpt>
      <trkpt lat="42.56472" lon="2.64478">
        <ele>652</ele>
        <time>2020-02-04T09:40:18.298Z</time>
      </trkpt>
      <trkpt lat="42.56475" lon="2.64506">
        <ele>649</ele>
        <time>2020-02-04T09:40:25.224Z</time>
      </trkpt>
      <trkpt lat="42.56463" lon="2.64556">
        <ele>646</ele>
        <time>2020-02-04T09:40:32.157Z</time>
      </trkpt>
      <trkpt lat="42.56469" lon="2.64581">
        <ele>646</ele>
        <time>2020-02-04T09:40:39.093Z</time>
      </trkpt>
      <trkpt lat="42.56491" lon="2.64612">
        <ele>648</ele>
        <time>2020-02-04T09:40:46.034Z</time>
      </trkpt>
      <trkpt lat="42.56485" lon="2.64624">
        <ele>648</ele>
        <time>2020-02-04T09:40:52.976Z</time>
      </trkpt>
      <trkpt lat="42.56467" lon="2.64607">
        <ele>647</ele>
        <time>2020-02-04T09:40:59.922Z</time>
      </trkpt>
      <trkpt lat="42.56467" lon="2.64607">
        <ele>647</ele>
        <time>2020-02-04T09:41:06.868Z</time>
      </trkpt>
      <trkpt lat="42.56467" lon="2.64607">
        <ele>647</ele>
        <time>2020-02-04T09:41:13.814Z</time>
      </trkpt>
      <trkpt lat="42.56467" lon="2.64607">
        <ele>647</ele>
        <time>2020-02-04T09:41:20.760Z</time>
      </trkpt>
      <trkpt lat="42.56467" lon="2.64607">
        <ele>647</ele>
        <time>2020-02-04T09:41:27.706Z</time>
      </trkpt>
      <trkpt lat="42.56485" lon="2.64624">
        <ele>648</ele>
        <time>2020-02-04T09:41:34.656Z</time>
      </trkpt>
      <trkpt lat="42.56456" lon="2.64647">
        <ele>648</ele>
        <time>2020-02-04T09:41:41.611Z</time>
      </trkpt>
      <trkpt lat="42.56424" lon="2.64658">
        <ele>648</ele>
        <time>2020-02-04T09:41:48.571Z</time>
      </trkpt>
      <trkpt lat="42.56381" lon="2.64693">
        <ele>646</ele>
        <time>2020-02-04T09:41:55.539Z</time>
      </trkpt>
      <trkpt lat="42.56345" lon="2.6475">
        <ele>642</ele>
        <time>2020-02-04T09:42:02.516Z</time>
      </trkpt>
      <trkpt lat="42.56332" lon="2.64798">
        <ele>638</ele>
        <time>2020-02-04T09:42:09.499Z</time>
      </trkpt>
      <trkpt lat="42.5636" lon="2.64848">
        <ele>646</ele>
        <time>2020-02-04T09:42:16.490Z</time>
      </trkpt>
      <trkpt lat="42.56356" lon="2.64883">
        <ele>649</ele>
        <time>2020-02-04T09:42:23.485Z</time>
      </trkpt>
      <trkpt lat="42.56341" lon="2.64894">
        <ele>648</ele>
        <time>2020-02-04T09:42:30.483Z</time>
      </trkpt>
      <trkpt lat="42.56217" lon="2.64935">
        <ele>634</ele>
        <time>2020-02-04T09:42:37.501Z</time>
      </trkpt>
      <trkpt lat="42.56189" lon="2.64961">
        <ele>634</ele>
        <time>2020-02-04T09:42:44.524Z</time>
      </trkpt>
      <trkpt lat="42.56153" lon="2.65018">
        <ele>633</ele>
        <time>2020-02-04T09:42:51.556Z</time>
      </trkpt>
      <trkpt lat="42.56124" lon="2.65083">
        <ele>630</ele>
        <time>2020-02-04T09:42:58.597Z</time>
      </trkpt>
      <trkpt lat="42.56125" lon="2.65185">
        <ele>639</ele>
        <time>2020-02-04T09:43:05.650Z</time>
      </trkpt>
      <trkpt lat="42.56119" lon="2.65211">
        <ele>641</ele>
        <time>2020-02-04T09:43:12.707Z</time>
      </trkpt>
      <trkpt lat="42.56105" lon="2.6522">
        <ele>640</ele>
        <time>2020-02-04T09:43:19.766Z</time>
      </trkpt>
      <trkpt lat="42.56049" lon="2.65213">
        <ele>625</ele>
        <time>2020-02-04T09:43:26.834Z</time>
      </trkpt>
      <trkpt lat="42.56012" lon="2.65229">
        <ele>622</ele>
        <time>2020-02-04T09:43:33.908Z</time>
      </trkpt>
      <trkpt lat="42.55939" lon="2.65339">
        <ele>628</ele>
        <time>2020-02-04T09:43:41.000Z</time>
      </trkpt>
      <trkpt lat="42.55937" lon="2.65371">
        <ele>631</ele>
        <time>2020-02-04T09:43:48.095Z</time>
      </trkpt>
      <trkpt lat="42.55937" lon="2.65371">
        <ele>631</ele>
        <time>2020-02-04T09:43:55.190Z</time>
      </trkpt>
      <trkpt lat="42.55946" lon="2.65398">
        <ele>636</ele>
        <time>2020-02-04T09:44:02.289Z</time>
      </trkpt>
      <trkpt lat="42.55942" lon="2.6542">
        <ele>636</ele>
        <time>2020-02-04T09:44:09.391Z</time>
      </trkpt>
      <trkpt lat="42.55854" lon="2.65489">
        <ele>620</ele>
        <time>2020-02-04T09:44:16.509Z</time>
      </trkpt>
      <trkpt lat="42.55842" lon="2.65507">
        <ele>620</ele>
        <time>2020-02-04T09:44:23.630Z</time>
      </trkpt>
      <trkpt lat="42.55834" lon="2.6555">
        <ele>628</ele>
        <time>2020-02-04T09:44:30.756Z</time>
      </trkpt>
      <trkpt lat="42.55783" lon="2.65566">
        <ele>619</ele>
        <time>2020-02-04T09:44:37.890Z</time>
      </trkpt>
      <trkpt lat="42.55756" lon="2.65609">
        <ele>628</ele>
        <time>2020-02-04T09:44:45.031Z</time>
      </trkpt>
      <trkpt lat="42.55742" lon="2.65607">
        <ele>627</ele>
        <time>2020-02-04T09:44:52.174Z</time>
      </trkpt>
      <trkpt lat="42.55707" lon="2.65578">
        <ele>617</ele>
        <time>2020-02-04T09:44:59.324Z</time>
      </trkpt>
      <trkpt lat="42.55665" lon="2.65563">
        <ele>611</ele>
        <time>2020-02-04T09:45:06.481Z</time>
      </trkpt>
      <trkpt lat="42.55534" lon="2.65581">
        <ele>610</ele>
        <time>2020-02-04T09:45:13.659Z</time>
      </trkpt>
      <trkpt lat="42.55413" lon="2.65724">
        <ele>605</ele>
        <time>2020-02-04T09:45:20.863Z</time>
      </trkpt>
      <trkpt lat="42.55381" lon="2.65739">
        <ele>600</ele>
        <time>2020-02-04T09:45:28.072Z</time>
      </trkpt>
      <trkpt lat="42.55369" lon="2.6577">
        <ele>597</ele>
        <time>2020-02-04T09:45:35.285Z</time>
      </trkpt>
      <trkpt lat="42.55371" lon="2.65784">
        <ele>595</ele>
        <time>2020-02-04T09:45:42.500Z</time>
      </trkpt>
      <trkpt lat="42.55398" lon="2.65792">
        <ele>598</ele>
        <time>2020-02-04T09:45:49.719Z</time>
      </trkpt>
      <trkpt lat="42.55443" lon="2.65784">
        <ele>605</ele>
        <time>2020-02-04T09:45:56.945Z</time>
      </trkpt>
      <trkpt lat="42.55472" lon="2.65776">
        <ele>608</ele>
        <time>2020-02-04T09:46:04.176Z</time>
      </trkpt>
      <trkpt lat="42.55497" lon="2.65779">
        <ele>610</ele>
        <time>2020-02-04T09:46:11.411Z</time>
      </trkpt>
      <trkpt lat="42.55506" lon="2.65791">
        <ele>610</ele>
        <time>2020-02-04T09:46:18.648Z</time>
      </trkpt>
      <trkpt lat="42.55509" lon="2.65806">
        <ele>609</ele>
        <time>2020-02-04T09:46:25.887Z</time>
      </trkpt>
      <trkpt lat="42.55449" lon="2.65914">
        <ele>596</ele>
        <time>2020-02-04T09:46:33.142Z</time>
      </trkpt>
      <trkpt lat="42.55429" lon="2.65968">
        <ele>592</ele>
        <time>2020-02-04T09:46:40.404Z</time>
      </trkpt>
      <trkpt lat="42.5542" lon="2.65999">
        <ele>591</ele>
        <time>2020-02-04T09:46:47.670Z</time>
      </trkpt>
      <trkpt lat="42.55407" lon="2.66115">
        <ele>582</ele>
        <time>2020-02-04T09:46:54.950Z</time>
      </trkpt>
      <trkpt lat="42.55417" lon="2.66146">
        <ele>583</ele>
        <time>2020-02-04T09:47:02.234Z</time>
      </trkpt>
      <trkpt lat="42.55472" lon="2.6623">
        <ele>581</ele>
        <time>2020-02-04T09:47:09.531Z</time>
      </trkpt>
      <trkpt lat="42.55513" lon="2.66254">
        <ele>584</ele>
        <time>2020-02-04T09:47:16.836Z</time>
      </trkpt>
      <trkpt lat="42.55542" lon="2.66289">
        <ele>583</ele>
        <time>2020-02-04T09:47:24.147Z</time>
      </trkpt>
      <trkpt lat="42.55557" lon="2.66348">
        <ele>580</ele>
        <time>2020-02-04T09:47:31.465Z</time>
      </trkpt>
      <trkpt lat="42.55549" lon="2.6638">
        <ele>576</ele>
        <time>2020-02-04T09:47:38.787Z</time>
      </trkpt>
      <trkpt lat="42.55549" lon="2.6638">
        <ele>576</ele>
        <time>2020-02-04T09:47:46.109Z</time>
      </trkpt>
      <trkpt lat="42.5553" lon="2.6641">
        <ele>575</ele>
        <time>2020-02-04T09:47:53.436Z</time>
      </trkpt>
      <trkpt lat="42.55497" lon="2.66452">
        <ele>570</ele>
        <time>2020-02-04T09:48:00.770Z</time>
      </trkpt>
      <trkpt lat="42.55466" lon="2.66472">
        <ele>568</ele>
        <time>2020-02-04T09:48:08.109Z</time>
      </trkpt>
      <trkpt lat="42.55429" lon="2.66469">
        <ele>572</ele>
        <time>2020-02-04T09:48:15.454Z</time>
      </trkpt>
      <trkpt lat="42.55393" lon="2.66498">
        <ele>571</ele>
        <time>2020-02-04T09:48:22.806Z</time>
      </trkpt>
      <trkpt lat="42.55378" lon="2.66547">
        <ele>564</ele>
        <time>2020-02-04T09:48:30.164Z</time>
      </trkpt>
      <trkpt lat="42.55357" lon="2.66584">
        <ele>564</ele>
        <time>2020-02-04T09:48:37.528Z</time>
      </trkpt>
      <trkpt lat="42.55354" lon="2.66645">
        <ele>553</ele>
        <time>2020-02-04T09:48:44.899Z</time>
      </trkpt>
      <trkpt lat="42.55337" lon="2.66679">
        <ele>552</ele>
        <time>2020-02-04T09:48:52.275Z</time>
      </trkpt>
      <trkpt lat="42.55298" lon="2.6673">
        <ele>551</ele>
        <time>2020-02-04T09:48:59.660Z</time>
      </trkpt>
      <trkpt lat="42.55277" lon="2.66789">
        <ele>544</ele>
        <time>2020-02-04T09:49:07.052Z</time>
      </trkpt>
      <trkpt lat="42.55175" lon="2.66889">
        <ele>532</ele>
        <time>2020-02-04T09:49:14.464Z</time>
      </trkpt>
      <trkpt lat="42.55149" lon="2.66894">
        <ele>530</ele>
        <time>2020-02-04T09:49:21.881Z</time>
      </trkpt>
      <trkpt lat="42.55118" lon="2.66886">
        <ele>528</ele>
        <time>2020-02-04T09:49:29.303Z</time>
      </trkpt>
      <trkpt lat="42.55101" lon="2.66867">
        <ele>529</ele>
        <time>2020-02-04T09:49:36.728Z</time>
      </trkpt>
      <trkpt lat="42.55079" lon="2.66821">
        <ele>535</ele>
        <time>2020-02-04T09:49:44.160Z</time>
      </trkpt>
      <trkpt lat="42.55045" lon="2.66792">
        <ele>539</ele>
        <time>2020-02-04T09:49:51.598Z</time>
      </trkpt>
      <trkpt lat="42.55025" lon="2.66796">
        <ele>540</ele>
        <time>2020-02-04T09:49:59.039Z</time>
      </trkpt>
      <trkpt lat="42.55017" lon="2.66812">
        <ele>538</ele>
        <time>2020-02-04T09:50:06.483Z</time>
      </trkpt>
      <trkpt lat="42.55009" lon="2.66862">
        <ele>532</ele>
        <time>2020-02-04T09:50:13.933Z</time>
      </trkpt>
      <trkpt lat="42.55004" lon="2.66932">
        <ele>524</ele>
        <time>2020-02-04T09:50:21.391Z</time>
      </trkpt>
      <trkpt lat="42.55004" lon="2.66932">
        <ele>524</ele>
        <time>2020-02-04T09:50:28.849Z</time>
      </trkpt>
      <trkpt lat="42.55001" lon="2.67027">
        <ele>517</ele>
        <time>2020-02-04T09:50:36.318Z</time>
      </trkpt>
      <trkpt lat="42.55041" lon="2.67189">
        <ele>501</ele>
        <time>2020-02-04T09:50:43.808Z</time>
      </trkpt>
      <trkpt lat="42.5504" lon="2.67242">
        <ele>501</ele>
        <time>2020-02-04T09:50:51.304Z</time>
      </trkpt>
      <trkpt lat="42.5504" lon="2.67242">
        <ele>501</ele>
        <time>2020-02-04T09:50:58.800Z</time>
      </trkpt>
      <trkpt lat="42.55025" lon="2.67312">
        <ele>501</ele>
        <time>2020-02-04T09:51:06.304Z</time>
      </trkpt>
      <trkpt lat="42.55029" lon="2.6737">
        <ele>499</ele>
        <time>2020-02-04T09:51:13.815Z</time>
      </trkpt>
      <trkpt lat="42.55092" lon="2.67494">
        <ele>490</ele>
        <time>2020-02-04T09:51:21.344Z</time>
      </trkpt>
      <trkpt lat="42.55092" lon="2.67494">
        <ele>490</ele>
        <time>2020-02-04T09:51:28.873Z</time>
      </trkpt>
      <trkpt lat="42.55098" lon="2.67522">
        <ele>488</ele>
        <time>2020-02-04T09:51:36.406Z</time>
      </trkpt>
      <trkpt lat="42.55098" lon="2.67522">
        <ele>488</ele>
        <time>2020-02-04T09:51:43.939Z</time>
      </trkpt>
      <trkpt lat="42.5509" lon="2.67541">
        <ele>488</ele>
        <time>2020-02-04T09:51:51.474Z</time>
      </trkpt>
      <trkpt lat="42.55044" lon="2.67588">
        <ele>496</ele>
        <time>2020-02-04T09:51:59.018Z</time>
      </trkpt>
      <trkpt lat="42.55003" lon="2.67669">
        <ele>499</ele>
        <time>2020-02-04T09:52:06.574Z</time>
      </trkpt>
      <trkpt lat="42.54945" lon="2.67762">
        <ele>507</ele>
        <time>2020-02-04T09:52:14.144Z</time>
      </trkpt>
      <trkpt lat="42.54945" lon="2.67762">
        <ele>507</ele>
        <time>2020-02-04T09:52:21.714Z</time>
      </trkpt>
      <trkpt lat="42.54916" lon="2.67807">
        <ele>510</ele>
        <time>2020-02-04T09:52:29.291Z</time>
      </trkpt>
      <trkpt lat="42.54885" lon="2.67833">
        <ele>513</ele>
        <time>2020-02-04T09:52:36.874Z</time>
      </trkpt>
      <trkpt lat="42.54844" lon="2.67906">
        <ele>517</ele>
        <time>2020-02-04T09:52:44.468Z</time>
      </trkpt>
      <trkpt lat="42.54843" lon="2.67908">
        <ele>517</ele>
        <time>2020-02-04T09:52:52.062Z</time>
      </trkpt>
      <trkpt lat="42.54841" lon="2.67911">
        <ele>518</ele>
        <time>2020-02-04T09:52:59.657Z</time>
      </trkpt>
      <trkpt lat="42.54828" lon="2.67932">
        <ele>522</ele>
        <time>2020-02-04T09:53:07.255Z</time>
      </trkpt>
      <trkpt lat="42.54821" lon="2.67955">
        <ele>525</ele>
        <time>2020-02-04T09:53:14.856Z</time>
      </trkpt>
      <trkpt lat="42.54831" lon="2.68003">
        <ele>522</ele>
        <time>2020-02-04T09:53:22.463Z</time>
      </trkpt>
      <trkpt lat="42.5483" lon="2.68035">
        <ele>521</ele>
        <time>2020-02-04T09:53:30.074Z</time>
      </trkpt>
      <trkpt lat="42.54826" lon="2.68062">
        <ele>521</ele>
        <time>2020-02-04T09:53:37.688Z</time>
      </trkpt>
      <trkpt lat="42.54805" lon="2.68098">
        <ele>527</ele>
        <time>2020-02-04T09:53:45.307Z</time>
      </trkpt>
      <trkpt lat="42.5467" lon="2.68151">
        <ele>546</ele>
        <time>2020-02-04T09:53:52.949Z</time>
      </trkpt>
      <trkpt lat="42.5463" lon="2.68193">
        <ele>551</ele>
        <time>2020-02-04T09:54:00.599Z</time>
      </trkpt>
      <trkpt lat="42.5463" lon="2.68215">
        <ele>554</ele>
        <time>2020-02-04T09:54:08.252Z</time>
      </trkpt>
      <trkpt lat="42.54638" lon="2.68228">
        <ele>553</ele>
        <time>2020-02-04T09:54:15.907Z</time>
      </trkpt>
      <trkpt lat="42.54669" lon="2.68238">
        <ele>548</ele>
        <time>2020-02-04T09:54:23.567Z</time>
      </trkpt>
      <trkpt lat="42.54698" lon="2.68224">
        <ele>546</ele>
        <time>2020-02-04T09:54:31.232Z</time>
      </trkpt>
      <trkpt lat="42.54795" lon="2.68246">
        <ele>546</ele>
        <time>2020-02-04T09:54:38.912Z</time>
      </trkpt>
      <trkpt lat="42.54856" lon="2.68234">
        <ele>541</ele>
        <time>2020-02-04T09:54:46.602Z</time>
      </trkpt>
      <trkpt lat="42.549" lon="2.68277">
        <ele>548</ele>
        <time>2020-02-04T09:54:54.301Z</time>
      </trkpt>
      <trkpt lat="42.54906" lon="2.6829">
        <ele>548</ele>
        <time>2020-02-04T09:55:02.002Z</time>
      </trkpt>
      <trkpt lat="42.54907" lon="2.68293">
        <ele>548</ele>
        <time>2020-02-04T09:55:09.703Z</time>
      </trkpt>
      <trkpt lat="42.54902" lon="2.68319">
        <ele>549</ele>
        <time>2020-02-04T09:55:17.407Z</time>
      </trkpt>
      <trkpt lat="42.5484" lon="2.68405">
        <ele>551</ele>
        <time>2020-02-04T09:55:25.126Z</time>
      </trkpt>
      <trkpt lat="42.54813" lon="2.68427">
        <ele>551</ele>
        <time>2020-02-04T09:55:32.850Z</time>
      </trkpt>
      <trkpt lat="42.54674" lon="2.68471">
        <ele>552</ele>
        <time>2020-02-04T09:55:40.597Z</time>
      </trkpt>
      <trkpt lat="42.54613" lon="2.68469">
        <ele>554</ele>
        <time>2020-02-04T09:55:48.353Z</time>
      </trkpt>
      <trkpt lat="42.54552" lon="2.68464">
        <ele>554</ele>
        <time>2020-02-04T09:55:56.119Z</time>
      </trkpt>
      <trkpt lat="42.54459" lon="2.6844">
        <ele>561</ele>
        <time>2020-02-04T09:56:03.900Z</time>
      </trkpt>
      <trkpt lat="42.5443" lon="2.68468">
        <ele>551</ele>
        <time>2020-02-04T09:56:11.687Z</time>
      </trkpt>
      <trkpt lat="42.54411" lon="2.68476">
        <ele>548</ele>
        <time>2020-02-04T09:56:19.477Z</time>
      </trkpt>
      <trkpt lat="42.54411" lon="2.68476">
        <ele>548</ele>
        <time>2020-02-04T09:56:27.267Z</time>
      </trkpt>
      <trkpt lat="42.54385" lon="2.68476">
        <ele>547</ele>
        <time>2020-02-04T09:56:35.061Z</time>
      </trkpt>
      <trkpt lat="42.54336" lon="2.68459">
        <ele>555</ele>
        <time>2020-02-04T09:56:42.863Z</time>
      </trkpt>
      <trkpt lat="42.54237" lon="2.68461">
        <ele>549</ele>
        <time>2020-02-04T09:56:50.681Z</time>
      </trkpt>
      <trkpt lat="42.54188" lon="2.68436">
        <ele>552</ele>
        <time>2020-02-04T09:56:58.508Z</time>
      </trkpt>
      <trkpt lat="42.54147" lon="2.6846">
        <ele>546</ele>
        <time>2020-02-04T09:57:06.342Z</time>
      </trkpt>
      <trkpt lat="42.54106" lon="2.68439">
        <ele>553</ele>
        <time>2020-02-04T09:57:14.183Z</time>
      </trkpt>
      <trkpt lat="42.54091" lon="2.68444">
        <ele>554</ele>
        <time>2020-02-04T09:57:22.026Z</time>
      </trkpt>
      <trkpt lat="42.54039" lon="2.68491">
        <ele>549</ele>
        <time>2020-02-04T09:57:29.879Z</time>
      </trkpt>
      <trkpt lat="42.53994" lon="2.6855">
        <ele>547</ele>
        <time>2020-02-04T09:57:37.742Z</time>
      </trkpt>
      <trkpt lat="42.53982" lon="2.68582">
        <ele>544</ele>
        <time>2020-02-04T09:57:45.610Z</time>
      </trkpt>
      <trkpt lat="42.53971" lon="2.6861">
        <ele>542</ele>
        <time>2020-02-04T09:57:53.481Z</time>
      </trkpt>
      <trkpt lat="42.53954" lon="2.68626">
        <ele>542</ele>
        <time>2020-02-04T09:58:01.356Z</time>
      </trkpt>
      <trkpt lat="42.53911" lon="2.68661">
        <ele>542</ele>
        <time>2020-02-04T09:58:09.239Z</time>
      </trkpt>
      <trkpt lat="42.53911" lon="2.68661">
        <ele>542</ele>
        <time>2020-02-04T09:58:17.122Z</time>
      </trkpt>
      <trkpt lat="42.53911" lon="2.68661">
        <ele>542</ele>
        <time>2020-02-04T09:58:25.005Z</time>
      </trkpt>
      <trkpt lat="42.53911" lon="2.68661">
        <ele>542</ele>
        <time>2020-02-04T09:58:32.888Z</time>
      </trkpt>
      <trkpt lat="42.53911" lon="2.68661">
        <ele>542</ele>
        <time>2020-02-04T09:58:40.771Z</time>
      </trkpt>
      <trkpt lat="42.53888" lon="2.6868">
        <ele>543</ele>
        <time>2020-02-04T09:58:48.658Z</time>
      </trkpt>
      <trkpt lat="42.53844" lon="2.68753">
        <ele>542</ele>
        <time>2020-02-04T09:58:56.556Z</time>
      </trkpt>
      <trkpt lat="42.53828" lon="2.68795">
        <ele>541</ele>
        <time>2020-02-04T09:59:04.460Z</time>
      </trkpt>
      <trkpt lat="42.53828" lon="2.6881">
        <ele>541</ele>
        <time>2020-02-04T09:59:12.365Z</time>
      </trkpt>
      <trkpt lat="42.53828" lon="2.6881">
        <ele>541</ele>
        <time>2020-02-04T09:59:20.270Z</time>
      </trkpt>
      <trkpt lat="42.53835" lon="2.68869">
        <ele>539</ele>
        <time>2020-02-04T09:59:28.183Z</time>
      </trkpt>
      <trkpt lat="42.53812" lon="2.6894">
        <ele>536</ele>
        <time>2020-02-04T09:59:36.105Z</time>
      </trkpt>
      <trkpt lat="42.53825" lon="2.68991">
        <ele>535</ele>
        <time>2020-02-04T09:59:44.033Z</time>
      </trkpt>
      <trkpt lat="42.53824" lon="2.69044">
        <ele>537</ele>
        <time>2020-02-04T09:59:51.967Z</time>
      </trkpt>
      <trkpt lat="42.53876" lon="2.69082">
        <ele>532</ele>
        <time>2020-02-04T09:59:59.911Z</time>
      </trkpt>
      <trkpt lat="42.53916" lon="2.69125">
        <ele>528</ele>
        <time>2020-02-04T10:00:07.863Z</time>
      </trkpt>
      <trkpt lat="42.53945" lon="2.6921">
        <ele>528</ele>
        <time>2020-02-04T10:00:15.826Z</time>
      </trkpt>
      <trkpt lat="42.53982" lon="2.69241">
        <ele>523</ele>
        <time>2020-02-04T10:00:23.796Z</time>
      </trkpt>
      <trkpt lat="42.54046" lon="2.69238">
        <ele>518</ele>
        <time>2020-02-04T10:00:31.776Z</time>
      </trkpt>
      <trkpt lat="42.54082" lon="2.69263">
        <ele>519</ele>
        <time>2020-02-04T10:00:39.763Z</time>
      </trkpt>
      <trkpt lat="42.54137" lon="2.69285">
        <ele>512</ele>
        <time>2020-02-04T10:00:47.759Z</time>
      </trkpt>
      <trkpt lat="42.54148" lon="2.69349">
        <ele>513</ele>
        <time>2020-02-04T10:00:55.763Z</time>
      </trkpt>
      <trkpt lat="42.54156" lon="2.69361">
        <ele>513</ele>
        <time>2020-02-04T10:01:03.768Z</time>
      </trkpt>
      <trkpt lat="42.54156" lon="2.69361">
        <ele>513</ele>
        <time>2020-02-04T10:01:11.773Z</time>
      </trkpt>
      <trkpt lat="42.54192" lon="2.69377">
        <ele>507</ele>
        <time>2020-02-04T10:01:19.785Z</time>
      </trkpt>
      <trkpt lat="42.54198" lon="2.69391">
        <ele>507</ele>
        <time>2020-02-04T10:01:27.798Z</time>
      </trkpt>
      <trkpt lat="42.54204" lon="2.69445">
        <ele>509</ele>
        <time>2020-02-04T10:01:35.818Z</time>
      </trkpt>
      <trkpt lat="42.54249" lon="2.69486">
        <ele>503</ele>
        <time>2020-02-04T10:01:43.847Z</time>
      </trkpt>
      <trkpt lat="42.54233" lon="2.69613">
        <ele>505</ele>
        <time>2020-02-04T10:01:51.891Z</time>
      </trkpt>
      <trkpt lat="42.5424" lon="2.69659">
        <ele>504</ele>
        <time>2020-02-04T10:01:59.940Z</time>
      </trkpt>
      <trkpt lat="42.5425" lon="2.69669">
        <ele>502</ele>
        <time>2020-02-04T10:02:07.991Z</time>
      </trkpt>
      <trkpt lat="42.54304" lon="2.69686">
        <ele>501</ele>
        <time>2020-02-04T10:02:16.051Z</time>
      </trkpt>
      <trkpt lat="42.54304" lon="2.69686">
        <ele>501</ele>
        <time>2020-02-04T10:02:24.111Z</time>
      </trkpt>
      <trkpt lat="42.54328" lon="2.69697">
        <ele>501</ele>
        <time>2020-02-04T10:02:32.175Z</time>
      </trkpt>
      <trkpt lat="42.54342" lon="2.69703">
        <ele>500</ele>
        <time>2020-02-04T10:02:40.242Z</time>
      </trkpt>
      <trkpt lat="42.54365" lon="2.69707">
        <ele>497</ele>
        <time>2020-02-04T10:02:48.312Z</time>
      </trkpt>
      <trkpt lat="42.54369" lon="2.69706">
        <ele>496</ele>
        <time>2020-02-04T10:02:56.383Z</time>
      </trkpt>
      <trkpt lat="42.54384" lon="2.69708">
        <ele>495</ele>
        <time>2020-02-04T10:03:04.456Z</time>
      </trkpt>
      <trkpt lat="42.54431" lon="2.69781">
        <ele>490</ele>
        <time>2020-02-04T10:03:12.541Z</time>
      </trkpt>
      <trkpt lat="42.54437" lon="2.69804">
        <ele>490</ele>
        <time>2020-02-04T10:03:20.629Z</time>
      </trkpt>
      <trkpt lat="42.54411" lon="2.69874">
        <ele>490</ele>
        <time>2020-02-04T10:03:28.726Z</time>
      </trkpt>
      <trkpt lat="42.54394" lon="2.69974">
        <ele>487</ele>
        <time>2020-02-04T10:03:36.835Z</time>
      </trkpt>
      <trkpt lat="42.54387" lon="2.7003">
        <ele>484</ele>
        <time>2020-02-04T10:03:44.951Z</time>
      </trkpt>
      <trkpt lat="42.54391" lon="2.70065">
        <ele>483</ele>
        <time>2020-02-04T10:03:53.071Z</time>
      </trkpt>
      <trkpt lat="42.54434" lon="2.70133">
        <ele>478</ele>
        <time>2020-02-04T10:04:01.201Z</time>
      </trkpt>
      <trkpt lat="42.54443" lon="2.70185">
        <ele>476</ele>
        <time>2020-02-04T10:04:09.338Z</time>
      </trkpt>
      <trkpt lat="42.54438" lon="2.7022">
        <ele>474</ele>
        <time>2020-02-04T10:04:17.479Z</time>
      </trkpt>
      <trkpt lat="42.54418" lon="2.70335">
        <ele>474</ele>
        <time>2020-02-04T10:04:25.634Z</time>
      </trkpt>
      <trkpt lat="42.54396" lon="2.70411">
        <ele>472</ele>
        <time>2020-02-04T10:04:33.799Z</time>
      </trkpt>
      <trkpt lat="42.54404" lon="2.70458">
        <ele>473</ele>
        <time>2020-02-04T10:04:41.969Z</time>
      </trkpt>
      <trkpt lat="42.54433" lon="2.70508">
        <ele>480</ele>
        <time>2020-02-04T10:04:50.147Z</time>
      </trkpt>
      <trkpt lat="42.54434" lon="2.7053">
        <ele>481</ele>
        <time>2020-02-04T10:04:58.327Z</time>
      </trkpt>
      <trkpt lat="42.54398" lon="2.70623">
        <ele>478</ele>
        <time>2020-02-04T10:05:06.520Z</time>
      </trkpt>
      <trkpt lat="42.54371" lon="2.70765">
        <ele>476</ele>
        <time>2020-02-04T10:05:14.730Z</time>
      </trkpt>
      <trkpt lat="42.54313" lon="2.70861">
        <ele>473</ele>
        <time>2020-02-04T10:05:22.955Z</time>
      </trkpt>
      <trkpt lat="42.54306" lon="2.709">
        <ele>473</ele>
        <time>2020-02-04T10:05:31.185Z</time>
      </trkpt>
      <trkpt lat="42.54323" lon="2.70929">
        <ele>476</ele>
        <time>2020-02-04T10:05:39.419Z</time>
      </trkpt>
      <trkpt lat="42.54379" lon="2.70934">
        <ele>482</ele>
        <time>2020-02-04T10:05:47.662Z</time>
      </trkpt>
      <trkpt lat="42.54432" lon="2.70966">
        <ele>482</ele>
        <time>2020-02-04T10:05:55.914Z</time>
      </trkpt>
      <trkpt lat="42.54485" lon="2.70964">
        <ele>486</ele>
        <time>2020-02-04T10:06:04.175Z</time>
      </trkpt>
      <trkpt lat="42.54485" lon="2.70964">
        <ele>486</ele>
        <time>2020-02-04T10:06:12.436Z</time>
      </trkpt>
      <trkpt lat="42.54497" lon="2.70977">
        <ele>485</ele>
        <time>2020-02-04T10:06:20.699Z</time>
      </trkpt>
      <trkpt lat="42.54514" lon="2.71029">
        <ele>480</ele>
        <time>2020-02-04T10:06:28.969Z</time>
      </trkpt>
      <trkpt lat="42.54535" lon="2.71061">
        <ele>479</ele>
        <time>2020-02-04T10:06:37.244Z</time>
      </trkpt>
      <trkpt lat="42.54535" lon="2.71061">
        <ele>479</ele>
        <time>2020-02-04T10:06:45.519Z</time>
      </trkpt>
      <trkpt lat="42.5454" lon="2.71107">
        <ele>479</ele>
        <time>2020-02-04T10:06:53.800Z</time>
      </trkpt>
      <trkpt lat="42.54439" lon="2.71332">
        <ele>487</ele>
        <time>2020-02-04T10:07:02.112Z</time>
      </trkpt>
      <trkpt lat="42.54422" lon="2.71352">
        <ele>486</ele>
        <time>2020-02-04T10:07:10.427Z</time>
      </trkpt>
      <trkpt lat="42.54345" lon="2.714">
        <ele>486</ele>
        <time>2020-02-04T10:07:18.756Z</time>
      </trkpt>
      <trkpt lat="42.54327" lon="2.71423">
        <ele>487</ele>
        <time>2020-02-04T10:07:27.089Z</time>
      </trkpt>
      <trkpt lat="42.54269" lon="2.71557">
        <ele>482</ele>
        <time>2020-02-04T10:07:35.440Z</time>
      </trkpt>
      <trkpt lat="42.54266" lon="2.71629">
        <ele>477</ele>
        <time>2020-02-04T10:07:43.800Z</time>
      </trkpt>
      <trkpt lat="42.5426" lon="2.71676">
        <ele>476</ele>
        <time>2020-02-04T10:07:52.165Z</time>
      </trkpt>
      <trkpt lat="42.54225" lon="2.71725">
        <ele>477</ele>
        <time>2020-02-04T10:08:00.539Z</time>
      </trkpt>
      <trkpt lat="42.54225" lon="2.71801">
        <ele>476</ele>
        <time>2020-02-04T10:08:08.921Z</time>
      </trkpt>
      <trkpt lat="42.54231" lon="2.71817">
        <ele>474</ele>
        <time>2020-02-04T10:08:17.306Z</time>
      </trkpt>
      <trkpt lat="42.54279" lon="2.71879">
        <ele>467</ele>
        <time>2020-02-04T10:08:25.701Z</time>
      </trkpt>
      <trkpt lat="42.54296" lon="2.71934">
        <ele>467</ele>
        <time>2020-02-04T10:08:34.103Z</time>
      </trkpt>
      <trkpt lat="42.54353" lon="2.71995">
        <ele>461</ele>
        <time>2020-02-04T10:08:42.517Z</time>
      </trkpt>
      <trkpt lat="42.5435" lon="2.72055">
        <ele>465</ele>
        <time>2020-02-04T10:08:50.938Z</time>
      </trkpt>
      <trkpt lat="42.54363" lon="2.7213">
        <ele>465</ele>
        <time>2020-02-04T10:08:59.368Z</time>
      </trkpt>
      <trkpt lat="42.54416" lon="2.72266">
        <ele>457</ele>
        <time>2020-02-04T10:09:07.816Z</time>
      </trkpt>
      <trkpt lat="42.54421" lon="2.72309">
        <ele>456</ele>
        <time>2020-02-04T10:09:16.269Z</time>
      </trkpt>
      <trkpt lat="42.54456" lon="2.72463">
        <ele>450</ele>
        <time>2020-02-04T10:09:24.742Z</time>
      </trkpt>
      <trkpt lat="42.54455" lon="2.72509">
        <ele>449</ele>
        <time>2020-02-04T10:09:33.220Z</time>
      </trkpt>
      <trkpt lat="42.54441" lon="2.72608">
        <ele>448</ele>
        <time>2020-02-04T10:09:41.710Z</time>
      </trkpt>
      <trkpt lat="42.54427" lon="2.72665">
        <ele>443</ele>
        <time>2020-02-04T10:09:50.207Z</time>
      </trkpt>
      <trkpt lat="42.544" lon="2.72699">
        <ele>443</ele>
        <time>2020-02-04T10:09:58.710Z</time>
      </trkpt>
      <trkpt lat="42.544" lon="2.72699">
        <ele>443</ele>
        <time>2020-02-04T10:10:07.213Z</time>
      </trkpt>
      <trkpt lat="42.54286" lon="2.72779">
        <ele>430</ele>
        <time>2020-02-04T10:10:15.736Z</time>
      </trkpt>
      <trkpt lat="42.54243" lon="2.72877">
        <ele>420</ele>
        <time>2020-02-04T10:10:24.273Z</time>
      </trkpt>
      <trkpt lat="42.54221" lon="2.72907">
        <ele>414</ele>
        <time>2020-02-04T10:10:32.815Z</time>
      </trkpt>
      <trkpt lat="42.542" lon="2.7291">
        <ele>414</ele>
        <time>2020-02-04T10:10:41.360Z</time>
      </trkpt>
      <trkpt lat="42.54193" lon="2.729">
        <ele>415</ele>
        <time>2020-02-04T10:10:49.907Z</time>
      </trkpt>
      <trkpt lat="42.54193" lon="2.72852">
        <ele>418</ele>
        <time>2020-02-04T10:10:58.460Z</time>
      </trkpt>
      <trkpt lat="42.54208" lon="2.72761">
        <ele>428</ele>
        <time>2020-02-04T10:11:07.024Z</time>
      </trkpt>
      <trkpt lat="42.54195" lon="2.72754">
        <ele>428</ele>
        <time>2020-02-04T10:11:15.590Z</time>
      </trkpt>
      <trkpt lat="42.54186" lon="2.72763">
        <ele>427</ele>
        <time>2020-02-04T10:11:24.158Z</time>
      </trkpt>
      <trkpt lat="42.54177" lon="2.72792">
        <ele>424</ele>
        <time>2020-02-04T10:11:32.729Z</time>
      </trkpt>
      <trkpt lat="42.54157" lon="2.72825">
        <ele>422</ele>
        <time>2020-02-04T10:11:41.306Z</time>
      </trkpt>
      <trkpt lat="42.54146" lon="2.72866">
        <ele>420</ele>
        <time>2020-02-04T10:11:49.888Z</time>
      </trkpt>
      <trkpt lat="42.54104" lon="2.72904">
        <ele>419</ele>
        <time>2020-02-04T10:11:58.478Z</time>
      </trkpt>
      <trkpt lat="42.54086" lon="2.72989">
        <ele>408</ele>
        <time>2020-02-04T10:12:07.078Z</time>
      </trkpt>
      <trkpt lat="42.54088" lon="2.73035">
        <ele>403</ele>
        <time>2020-02-04T10:12:15.684Z</time>
      </trkpt>
      <trkpt lat="42.54109" lon="2.73149">
        <ele>390</ele>
        <time>2020-02-04T10:12:24.304Z</time>
      </trkpt>
      <trkpt lat="42.54109" lon="2.73149">
        <ele>390</ele>
        <time>2020-02-04T10:12:32.924Z</time>
      </trkpt>
      <trkpt lat="42.54073" lon="2.73279">
        <ele>383</ele>
        <time>2020-02-04T10:12:41.560Z</time>
      </trkpt>
      <trkpt lat="42.54073" lon="2.73279">
        <ele>383</ele>
        <time>2020-02-04T10:12:50.196Z</time>
      </trkpt>
      <trkpt lat="42.54073" lon="2.73279">
        <ele>383</ele>
        <time>2020-02-04T10:12:58.832Z</time>
      </trkpt>
      <trkpt lat="42.54073" lon="2.73279">
        <ele>383</ele>
        <time>2020-02-04T10:13:07.468Z</time>
      </trkpt>
      <trkpt lat="42.54067" lon="2.73302">
        <ele>382</ele>
        <time>2020-02-04T10:13:16.107Z</time>
      </trkpt>
      <trkpt lat="42.54019" lon="2.7341">
        <ele>380</ele>
        <time>2020-02-04T10:13:24.761Z</time>
      </trkpt>
      <trkpt lat="42.54017" lon="2.73415">
        <ele>380</ele>
        <time>2020-02-04T10:13:33.415Z</time>
      </trkpt>
      <trkpt lat="42.54017" lon="2.73415">
        <ele>380</ele>
        <time>2020-02-04T10:13:42.069Z</time>
      </trkpt>
      <trkpt lat="42.53995" lon="2.7339">
        <ele>381</ele>
        <time>2020-02-04T10:13:50.728Z</time>
      </trkpt>
      <trkpt lat="42.53973" lon="2.73328">
        <ele>385</ele>
        <time>2020-02-04T10:13:59.395Z</time>
      </trkpt>
      <trkpt lat="42.53962" lon="2.73315">
        <ele>387</ele>
        <time>2020-02-04T10:14:08.064Z</time>
      </trkpt>
      <trkpt lat="42.53879" lon="2.73315">
        <ele>381</ele>
        <time>2020-02-04T10:14:16.747Z</time>
      </trkpt>
      <trkpt lat="42.53839" lon="2.73291">
        <ele>381</ele>
        <time>2020-02-04T10:14:25.437Z</time>
      </trkpt>
      <trkpt lat="42.53806" lon="2.7323">
        <ele>389</ele>
        <time>2020-02-04T10:14:34.136Z</time>
      </trkpt>
      <trkpt lat="42.53795" lon="2.73184">
        <ele>396</ele>
        <time>2020-02-04T10:14:42.840Z</time>
      </trkpt>
      <trkpt lat="42.53778" lon="2.73164">
        <ele>399</ele>
        <time>2020-02-04T10:14:51.548Z</time>
      </trkpt>
      <trkpt lat="42.53755" lon="2.73173">
        <ele>396</ele>
        <time>2020-02-04T10:15:00.260Z</time>
      </trkpt>
      <trkpt lat="42.53718" lon="2.73254">
        <ele>386</ele>
        <time>2020-02-04T10:15:08.983Z</time>
      </trkpt>
      <trkpt lat="42.53679" lon="2.73289">
        <ele>386</ele>
        <time>2020-02-04T10:15:17.714Z</time>
      </trkpt>
      <trkpt lat="42.53648" lon="2.73306">
        <ele>385</ele>
        <time>2020-02-04T10:15:26.450Z</time>
      </trkpt>
      <trkpt lat="42.53566" lon="2.73332">
        <ele>384</ele>
        <time>2020-02-04T10:15:35.199Z</time>
      </trkpt>
      <trkpt lat="42.53547" lon="2.73331">
        <ele>382</ele>
        <time>2020-02-04T10:15:43.951Z</time>
      </trkpt>
      <trkpt lat="42.53515" lon="2.73312">
        <ele>380</ele>
        <time>2020-02-04T10:15:52.709Z</time>
      </trkpt>
      <trkpt lat="42.53506" lon="2.73298">
        <ele>379</ele>
        <time>2020-02-04T10:16:01.469Z</time>
      </trkpt>
      <trkpt lat="42.53494" lon="2.73246">
        <ele>379</ele>
        <time>2020-02-04T10:16:10.236Z</time>
      </trkpt>
      <trkpt lat="42.53502" lon="2.73169">
        <ele>376</ele>
        <time>2020-02-04T10:16:19.012Z</time>
      </trkpt>
      <trkpt lat="42.53576" lon="2.72947">
        <ele>371</ele>
        <time>2020-02-04T10:16:27.817Z</time>
      </trkpt>
      <trkpt lat="42.53584" lon="2.72932">
        <ele>371</ele>
        <time>2020-02-04T10:16:36.624Z</time>
      </trkpt>
      <trkpt lat="42.53618" lon="2.72906">
        <ele>378</ele>
        <time>2020-02-04T10:16:45.437Z</time>
      </trkpt>
      <trkpt lat="42.53617" lon="2.72881">
        <ele>379</ele>
        <time>2020-02-04T10:16:54.253Z</time>
      </trkpt>
      <trkpt lat="42.53617" lon="2.72881">
        <ele>379</ele>
        <time>2020-02-04T10:17:03.069Z</time>
      </trkpt>
      <trkpt lat="42.53603" lon="2.72872">
        <ele>377</ele>
        <time>2020-02-04T10:17:11.887Z</time>
      </trkpt>
      <trkpt lat="42.53541" lon="2.72869">
        <ele>365</ele>
        <time>2020-02-04T10:17:20.715Z</time>
      </trkpt>
      <trkpt lat="42.53519" lon="2.72849">
        <ele>363</ele>
        <time>2020-02-04T10:17:29.547Z</time>
      </trkpt>
      <trkpt lat="42.53499" lon="2.72847">
        <ele>359</ele>
        <time>2020-02-04T10:17:38.383Z</time>
      </trkpt>
      <trkpt lat="42.53499" lon="2.72847">
        <ele>359</ele>
        <time>2020-02-04T10:17:47.219Z</time>
      </trkpt>
      <trkpt lat="42.53482" lon="2.7285">
        <ele>355</ele>
        <time>2020-02-04T10:17:56.057Z</time>
      </trkpt>
      <trkpt lat="42.53469" lon="2.7284">
        <ele>354</ele>
        <time>2020-02-04T10:18:04.898Z</time>
      </trkpt>
      <trkpt lat="42.53466" lon="2.7282">
        <ele>357</ele>
        <time>2020-02-04T10:18:13.741Z</time>
      </trkpt>
      <trkpt lat="42.53474" lon="2.72773">
        <ele>365</ele>
        <time>2020-02-04T10:18:22.590Z</time>
      </trkpt>
      <trkpt lat="42.5346" lon="2.72754">
        <ele>366</ele>
        <time>2020-02-04T10:18:31.442Z</time>
      </trkpt>
      <trkpt lat="42.53438" lon="2.72753">
        <ele>364</ele>
        <time>2020-02-04T10:18:40.298Z</time>
      </trkpt>
      <trkpt lat="42.53407" lon="2.72765">
        <ele>360</ele>
        <time>2020-02-04T10:18:49.159Z</time>
      </trkpt>
      <trkpt lat="42.53325" lon="2.7283">
        <ele>345</ele>
        <time>2020-02-04T10:18:58.035Z</time>
      </trkpt>
      <trkpt lat="42.53305" lon="2.72831">
        <ele>344</ele>
        <time>2020-02-04T10:19:06.914Z</time>
      </trkpt>
      <trkpt lat="42.53284" lon="2.7282">
        <ele>343</ele>
        <time>2020-02-04T10:19:15.797Z</time>
      </trkpt>
      <trkpt lat="42.53248" lon="2.72772">
        <ele>346</ele>
        <time>2020-02-04T10:19:24.688Z</time>
      </trkpt>
      <trkpt lat="42.53228" lon="2.72757">
        <ele>347</ele>
        <time>2020-02-04T10:19:33.583Z</time>
      </trkpt>
      <trkpt lat="42.53206" lon="2.7276">
        <ele>346</ele>
        <time>2020-02-04T10:19:42.481Z</time>
      </trkpt>
      <trkpt lat="42.53193" lon="2.72778">
        <ele>344</ele>
        <time>2020-02-04T10:19:51.382Z</time>
      </trkpt>
      <trkpt lat="42.53193" lon="2.72778">
        <ele>344</ele>
        <time>2020-02-04T10:20:00.283Z</time>
      </trkpt>
      <trkpt lat="42.5316" lon="2.72863">
        <ele>340</ele>
        <time>2020-02-04T10:20:09.196Z</time>
      </trkpt>
      <trkpt lat="42.53098" lon="2.72927">
        <ele>338</ele>
        <time>2020-02-04T10:20:18.121Z</time>
      </trkpt>
      <trkpt lat="42.53066" lon="2.72927">
        <ele>340</ele>
        <time>2020-02-04T10:20:27.051Z</time>
      </trkpt>
      <trkpt lat="42.52988" lon="2.72888">
        <ele>342</ele>
        <time>2020-02-04T10:20:35.994Z</time>
      </trkpt>
      <trkpt lat="42.52968" lon="2.7288">
        <ele>343</ele>
        <time>2020-02-04T10:20:44.941Z</time>
      </trkpt>
      <trkpt lat="42.52952" lon="2.72884">
        <ele>344</ele>
        <time>2020-02-04T10:20:53.890Z</time>
      </trkpt>
      <trkpt lat="42.52896" lon="2.72947">
        <ele>346</ele>
        <time>2020-02-04T10:21:02.851Z</time>
      </trkpt>
      <trkpt lat="42.52873" lon="2.73027">
        <ele>343</ele>
        <time>2020-02-04T10:21:11.822Z</time>
      </trkpt>
      <trkpt lat="42.52837" lon="2.73083">
        <ele>347</ele>
        <time>2020-02-04T10:21:20.802Z</time>
      </trkpt>
      <trkpt lat="42.52839" lon="2.73118">
        <ele>344</ele>
        <time>2020-02-04T10:21:29.786Z</time>
      </trkpt>
      <trkpt lat="42.52824" lon="2.73202">
        <ele>339</ele>
        <time>2020-02-04T10:21:38.780Z</time>
      </trkpt>
      <trkpt lat="42.52805" lon="2.73226">
        <ele>338</ele>
        <time>2020-02-04T10:21:47.779Z</time>
      </trkpt>
      <trkpt lat="42.52758" lon="2.73238">
        <ele>336</ele>
        <time>2020-02-04T10:21:56.785Z</time>
      </trkpt>
      <trkpt lat="42.52728" lon="2.73229">
        <ele>339</ele>
        <time>2020-02-04T10:22:05.796Z</time>
      </trkpt>
      <trkpt lat="42.52709" lon="2.73213">
        <ele>342</ele>
        <time>2020-02-04T10:22:14.811Z</time>
      </trkpt>
      <trkpt lat="42.52684" lon="2.73229">
        <ele>342</ele>
        <time>2020-02-04T10:22:23.830Z</time>
      </trkpt>
      <trkpt lat="42.52658" lon="2.73322">
        <ele>329</ele>
        <time>2020-02-04T10:22:32.861Z</time>
      </trkpt>
      <trkpt lat="42.52647" lon="2.73354">
        <ele>323</ele>
        <time>2020-02-04T10:22:41.896Z</time>
      </trkpt>
      <trkpt lat="42.52631" lon="2.73375">
        <ele>320</ele>
        <time>2020-02-04T10:22:50.935Z</time>
      </trkpt>
      <trkpt lat="42.52615" lon="2.73382">
        <ele>319</ele>
        <time>2020-02-04T10:22:59.976Z</time>
      </trkpt>
      <trkpt lat="42.52593" lon="2.73355">
        <ele>324</ele>
        <time>2020-02-04T10:23:09.022Z</time>
      </trkpt>
      <trkpt lat="42.52572" lon="2.7335">
        <ele>327</ele>
        <time>2020-02-04T10:23:18.072Z</time>
      </trkpt>
      <trkpt lat="42.52485" lon="2.73412">
        <ele>322</ele>
        <time>2020-02-04T10:23:27.137Z</time>
      </trkpt>
      <trkpt lat="42.52445" lon="2.73481">
        <ele>316</ele>
        <time>2020-02-04T10:23:36.213Z</time>
      </trkpt>
      <trkpt lat="42.52392" lon="2.73532">
        <ele>308</ele>
        <time>2020-02-04T10:23:45.299Z</time>
      </trkpt>
      <trkpt lat="42.52383" lon="2.73555">
        <ele>303</ele>
        <time>2020-02-04T10:23:54.388Z</time>
      </trkpt>
      <trkpt lat="42.52336" lon="2.7357">
        <ele>301</ele>
        <time>2020-02-04T10:24:03.485Z</time>
      </trkpt>
      <trkpt lat="42.52318" lon="2.73561">
        <ele>300</ele>
        <time>2020-02-04T10:24:12.585Z</time>
      </trkpt>
      <trkpt lat="42.52311" lon="2.73475">
        <ele>311</ele>
        <time>2020-02-04T10:24:21.695Z</time>
      </trkpt>
      <trkpt lat="42.52311" lon="2.73475">
        <ele>311</ele>
        <time>2020-02-04T10:24:30.805Z</time>
      </trkpt>
      <trkpt lat="42.52301" lon="2.73444">
        <ele>315</ele>
        <time>2020-02-04T10:24:39.919Z</time>
      </trkpt>
      <trkpt lat="42.52266" lon="2.7344">
        <ele>312</ele>
        <time>2020-02-04T10:24:49.039Z</time>
      </trkpt>
      <trkpt lat="42.52253" lon="2.73446">
        <ele>309</ele>
        <time>2020-02-04T10:24:58.161Z</time>
      </trkpt>
      <trkpt lat="42.52226" lon="2.73489">
        <ele>303</ele>
        <time>2020-02-04T10:25:07.290Z</time>
      </trkpt>
      <trkpt lat="42.52196" lon="2.73517">
        <ele>303</ele>
        <time>2020-02-04T10:25:16.425Z</time>
      </trkpt>
      <trkpt lat="42.52196" lon="2.73517">
        <ele>303</ele>
        <time>2020-02-04T10:25:25.560Z</time>
      </trkpt>
      <trkpt lat="42.52138" lon="2.73572">
        <ele>299</ele>
        <time>2020-02-04T10:25:34.706Z</time>
      </trkpt>
      <trkpt lat="42.52109" lon="2.7364">
        <ele>292</ele>
        <time>2020-02-04T10:25:43.861Z</time>
      </trkpt>
      <trkpt lat="42.52089" lon="2.73638">
        <ele>295</ele>
        <time>2020-02-04T10:25:53.019Z</time>
      </trkpt>
      <trkpt lat="42.52085" lon="2.73636">
        <ele>296</ele>
        <time>2020-02-04T10:26:02.178Z</time>
      </trkpt>
      <trkpt lat="42.52058" lon="2.7363">
        <ele>298</ele>
        <time>2020-02-04T10:26:11.341Z</time>
      </trkpt>
      <trkpt lat="42.51956" lon="2.73678">
        <ele>284</ele>
        <time>2020-02-04T10:26:20.522Z</time>
      </trkpt>
      <trkpt lat="42.51943" lon="2.73655">
        <ele>284</ele>
        <time>2020-02-04T10:26:29.706Z</time>
      </trkpt>
      <trkpt lat="42.51932" lon="2.73616">
        <ele>286</ele>
        <time>2020-02-04T10:26:38.895Z</time>
      </trkpt>
      <trkpt lat="42.51907" lon="2.73597">
        <ele>283</ele>
        <time>2020-02-04T10:26:48.088Z</time>
      </trkpt>
      <trkpt lat="42.51899" lon="2.73581">
        <ele>283</ele>
        <time>2020-02-04T10:26:57.284Z</time>
      </trkpt>
      <trkpt lat="42.51917" lon="2.73469">
        <ele>288</ele>
        <time>2020-02-04T10:27:06.493Z</time>
      </trkpt>
      <trkpt lat="42.51911" lon="2.73449">
        <ele>287</ele>
        <time>2020-02-04T10:27:15.705Z</time>
      </trkpt>
      <trkpt lat="42.51885" lon="2.7342">
        <ele>283</ele>
        <time>2020-02-04T10:27:24.922Z</time>
      </trkpt>
      <trkpt lat="42.51886" lon="2.73384">
        <ele>287</ele>
        <time>2020-02-04T10:27:34.143Z</time>
      </trkpt>
      <trkpt lat="42.51877" lon="2.73361">
        <ele>287</ele>
        <time>2020-02-04T10:27:43.368Z</time>
      </trkpt>
      <trkpt lat="42.51862" lon="2.73352">
        <ele>286</ele>
        <time>2020-02-04T10:27:52.595Z</time>
      </trkpt>
      <trkpt lat="42.51805" lon="2.73347">
        <ele>279</ele>
        <time>2020-02-04T10:28:01.831Z</time>
      </trkpt>
      <trkpt lat="42.51794" lon="2.73334">
        <ele>279</ele>
        <time>2020-02-04T10:28:11.070Z</time>
      </trkpt>
      <trkpt lat="42.5178" lon="2.73287">
        <ele>278</ele>
        <time>2020-02-04T10:28:20.315Z</time>
      </trkpt>
      <trkpt lat="42.51755" lon="2.73269">
        <ele>275</ele>
        <time>2020-02-04T10:28:29.564Z</time>
      </trkpt>
      <trkpt lat="42.51736" lon="2.73271">
        <ele>274</ele>
        <time>2020-02-04T10:28:38.816Z</time>
      </trkpt>
      <trkpt lat="42.5166" lon="2.73314">
        <ele>271</ele>
        <time>2020-02-04T10:28:48.081Z</time>
      </trkpt>
      <trkpt lat="42.51544" lon="2.73332">
        <ele>271</ele>
        <time>2020-02-04T10:28:57.365Z</time>
      </trkpt>
      <trkpt lat="42.5146" lon="2.73387">
        <ele>266</ele>
        <time>2020-02-04T10:29:06.664Z</time>
      </trkpt>
      <trkpt lat="42.51432" lon="2.73388">
        <ele>267</ele>
        <time>2020-02-04T10:29:15.967Z</time>
      </trkpt>
      <trkpt lat="42.5139" lon="2.73374">
        <ele>271</ele>
        <time>2020-02-04T10:29:25.277Z</time>
      </trkpt>
      <trkpt lat="42.5137" lon="2.73354">
        <ele>272</ele>
        <time>2020-02-04T10:29:34.591Z</time>
      </trkpt>
      <trkpt lat="42.5137" lon="2.73289">
        <ele>271</ele>
        <time>2020-02-04T10:29:43.913Z</time>
      </trkpt>
      <trkpt lat="42.5138" lon="2.73241">
        <ele>262</ele>
        <time>2020-02-04T10:29:53.241Z</time>
      </trkpt>
      <trkpt lat="42.51372" lon="2.73219">
        <ele>258</ele>
        <time>2020-02-04T10:30:02.572Z</time>
      </trkpt>
      <trkpt lat="42.51357" lon="2.73203">
        <ele>257</ele>
        <time>2020-02-04T10:30:11.906Z</time>
      </trkpt>
      <trkpt lat="42.5131" lon="2.73198">
        <ele>259</ele>
        <time>2020-02-04T10:30:21.247Z</time>
      </trkpt>
      <trkpt lat="42.51208" lon="2.73259">
        <ele>266</ele>
        <time>2020-02-04T10:30:30.606Z</time>
      </trkpt>
      <trkpt lat="42.51128" lon="2.73253">
        <ele>261</ele>
        <time>2020-02-04T10:30:39.978Z</time>
      </trkpt>
      <trkpt lat="42.51087" lon="2.73274">
        <ele>264</ele>
        <time>2020-02-04T10:30:49.357Z</time>
      </trkpt>
      <trkpt lat="42.51069" lon="2.73272">
        <ele>266</ele>
        <time>2020-02-04T10:30:58.739Z</time>
      </trkpt>
      <trkpt lat="42.5103" lon="2.73204">
        <ele>256</ele>
        <time>2020-02-04T10:31:08.131Z</time>
      </trkpt>
      <trkpt lat="42.51004" lon="2.7319">
        <ele>257</ele>
        <time>2020-02-04T10:31:17.528Z</time>
      </trkpt>
      <trkpt lat="42.5089" lon="2.73203">
        <ele>260</ele>
        <time>2020-02-04T10:31:26.943Z</time>
      </trkpt>
      <trkpt lat="42.50835" lon="2.7323">
        <ele>253</ele>
        <time>2020-02-04T10:31:36.367Z</time>
      </trkpt>
      <trkpt lat="42.5083" lon="2.73256">
        <ele>252</ele>
        <time>2020-02-04T10:31:45.795Z</time>
      </trkpt>
      <trkpt lat="42.50843" lon="2.73329">
        <ele>254</ele>
        <time>2020-02-04T10:31:55.231Z</time>
      </trkpt>
      <trkpt lat="42.50835" lon="2.73414">
        <ele>250</ele>
        <time>2020-02-04T10:32:04.677Z</time>
      </trkpt>
      <trkpt lat="42.50828" lon="2.73438">
        <ele>248</ele>
        <time>2020-02-04T10:32:14.127Z</time>
      </trkpt>
      <trkpt lat="42.50769" lon="2.73493">
        <ele>239</ele>
        <time>2020-02-04T10:32:23.588Z</time>
      </trkpt>
      <trkpt lat="42.50762" lon="2.7351">
        <ele>239</ele>
        <time>2020-02-04T10:32:33.051Z</time>
      </trkpt>
      <trkpt lat="42.50762" lon="2.7352">
        <ele>239</ele>
        <time>2020-02-04T10:32:42.516Z</time>
      </trkpt>
      <trkpt lat="42.50772" lon="2.73534">
        <ele>239</ele>
        <time>2020-02-04T10:32:51.983Z</time>
      </trkpt>
      <trkpt lat="42.50824" lon="2.73566">
        <ele>245</ele>
        <time>2020-02-04T10:33:01.459Z</time>
      </trkpt>
      <trkpt lat="42.50831" lon="2.7359">
        <ele>245</ele>
        <time>2020-02-04T10:33:10.938Z</time>
      </trkpt>
      <trkpt lat="42.50822" lon="2.73624">
        <ele>244</ele>
        <time>2020-02-04T10:33:20.421Z</time>
      </trkpt>
      <trkpt lat="42.50798" lon="2.73652">
        <ele>239</ele>
        <time>2020-02-04T10:33:29.909Z</time>
      </trkpt>
      <trkpt lat="42.50741" lon="2.73747">
        <ele>228</ele>
        <time>2020-02-04T10:33:39.412Z</time>
      </trkpt>
      <trkpt lat="42.50632" lon="2.73837">
        <ele>214</ele>
        <time>2020-02-04T10:33:48.935Z</time>
      </trkpt>
      <trkpt lat="42.50559" lon="2.73962">
        <ele>209</ele>
        <time>2020-02-04T10:33:58.477Z</time>
      </trkpt>
      <trkpt lat="42.50483" lon="2.74065">
        <ele>201</ele>
        <time>2020-02-04T10:34:08.036Z</time>
      </trkpt>
      <trkpt lat="42.50376" lon="2.74168">
        <ele>192</ele>
        <time>2020-02-04T10:34:17.616Z</time>
      </trkpt>
      <trkpt lat="42.5034" lon="2.7418">
        <ele>188</ele>
        <time>2020-02-04T10:34:27.202Z</time>
      </trkpt>
      <trkpt lat="42.5034" lon="2.7418">
        <ele>188</ele>
        <time>2020-02-04T10:34:36.788Z</time>
      </trkpt>
      <trkpt lat="42.50269" lon="2.74181">
        <ele>181</ele>
        <time>2020-02-04T10:34:46.386Z</time>
      </trkpt>
      <trkpt lat="42.50189" lon="2.74203">
        <ele>178</ele>
        <time>2020-02-04T10:34:55.997Z</time>
      </trkpt>
      <trkpt lat="42.50129" lon="2.74195">
        <ele>172</ele>
        <time>2020-02-04T10:35:05.617Z</time>
      </trkpt>
      <trkpt lat="42.50067" lon="2.74204">
        <ele>167</ele>
        <time>2020-02-04T10:35:15.247Z</time>
      </trkpt>
      <trkpt lat="42.50012" lon="2.74243">
        <ele>167</ele>
        <time>2020-02-04T10:35:24.887Z</time>
      </trkpt>
      <trkpt lat="42.49902" lon="2.74264">
        <ele>159</ele>
        <time>2020-02-04T10:35:34.545Z</time>
      </trkpt>
      <trkpt lat="42.49786" lon="2.74292">
        <ele>151</ele>
        <time>2020-02-04T10:35:44.222Z</time>
      </trkpt>
      <trkpt lat="42.49774" lon="2.74301">
        <ele>150</ele>
        <time>2020-02-04T10:35:53.901Z</time>
      </trkpt>
      <trkpt lat="42.49774" lon="2.74301">
        <ele>150</ele>
        <time>2020-02-04T10:36:03.580Z</time>
      </trkpt>
      <trkpt lat="42.49739" lon="2.74335">
        <ele>146</ele>
        <time>2020-02-04T10:36:13.266Z</time>
      </trkpt>
      <trkpt lat="42.49686" lon="2.74369">
        <ele>143</ele>
        <time>2020-02-04T10:36:22.961Z</time>
      </trkpt>
      <trkpt lat="42.49679" lon="2.74373">
        <ele>143</ele>
        <time>2020-02-04T10:36:32.657Z</time>
      </trkpt>
      <trkpt lat="42.49648" lon="2.74418">
        <ele>141</ele>
        <time>2020-02-04T10:36:42.361Z</time>
      </trkpt>
      <trkpt lat="42.49648" lon="2.74418">
        <ele>141</ele>
        <time>2020-02-04T10:36:52.065Z</time>
      </trkpt>
      <trkpt lat="42.49648" lon="2.74418">
        <ele>141</ele>
        <time>2020-02-04T10:37:01.769Z</time>
      </trkpt>
      <trkpt lat="42.49647" lon="2.74418">
        <ele>141</ele>
        <time>2020-02-04T10:37:11.473Z</time>
      </trkpt>
      <trkpt lat="42.49648" lon="2.74418">
        <ele>141</ele>
        <time>2020-02-04T10:37:21.177Z</time>
      </trkpt>
      <trkpt lat="42.49627" lon="2.74447">
        <ele>137</ele>
        <time>2020-02-04T10:37:30.886Z</time>
      </trkpt>
      <trkpt lat="42.49591" lon="2.74453">
        <ele>133</ele>
        <time>2020-02-04T10:37:40.600Z</time>
      </trkpt>
      <trkpt lat="42.4958" lon="2.74433">
        <ele>131</ele>
        <time>2020-02-04T10:37:50.317Z</time>
      </trkpt>
      <trkpt lat="42.49575" lon="2.74424">
        <ele>130</ele>
        <time>2020-02-04T10:38:00.036Z</time>
      </trkpt>
      <trkpt lat="42.49517" lon="2.74325">
        <ele>143</ele>
        <time>2020-02-04T10:38:09.770Z</time>
      </trkpt>
      <trkpt lat="42.49517" lon="2.74325">
        <ele>143</ele>
        <time>2020-02-04T10:38:19.504Z</time>
      </trkpt>
      <trkpt lat="42.49495" lon="2.74283">
        <ele>146</ele>
        <time>2020-02-04T10:38:29.244Z</time>
      </trkpt>
      <trkpt lat="42.49476" lon="2.74256">
        <ele>147</ele>
        <time>2020-02-04T10:38:38.988Z</time>
      </trkpt>
      <trkpt lat="42.49453" lon="2.74217">
        <ele>148</ele>
        <time>2020-02-04T10:38:48.738Z</time>
      </trkpt>
      <trkpt lat="42.49452" lon="2.74207">
        <ele>148</ele>
        <time>2020-02-04T10:38:58.489Z</time>
      </trkpt>
      <trkpt lat="42.49445" lon="2.74201">
        <ele>148</ele>
        <time>2020-02-04T10:39:08.242Z</time>
      </trkpt>
      <trkpt lat="42.49435" lon="2.74204">
        <ele>148</ele>
        <time>2020-02-04T10:39:17.996Z</time>
      </trkpt>
      <trkpt lat="42.49431" lon="2.74211">
        <ele>148</ele>
        <time>2020-02-04T10:39:27.751Z</time>
      </trkpt>
      <trkpt lat="42.49406" lon="2.74209">
        <ele>149</ele>
        <time>2020-02-04T10:39:37.510Z</time>
      </trkpt>
      <trkpt lat="42.49326" lon="2.74247">
        <ele>152</ele>
        <time>2020-02-04T10:39:47.283Z</time>
      </trkpt>
      <trkpt lat="42.49313" lon="2.74241">
        <ele>153</ele>
        <time>2020-02-04T10:39:57.058Z</time>
      </trkpt>
      <trkpt lat="42.49309" lon="2.74231">
        <ele>153</ele>
        <time>2020-02-04T10:40:06.834Z</time>
      </trkpt>
      <trkpt lat="42.49307" lon="2.7423">
        <ele>153</ele>
        <time>2020-02-04T10:40:16.611Z</time>
      </trkpt>
      <trkpt lat="42.49294" lon="2.74237">
        <ele>153</ele>
        <time>2020-02-04T10:40:26.390Z</time>
      </trkpt>
      <trkpt lat="42.49297" lon="2.74253">
        <ele>153</ele>
        <time>2020-02-04T10:40:36.171Z</time>
      </trkpt>
      <trkpt lat="42.49247" lon="2.74325">
        <ele>153</ele>
        <time>2020-02-04T10:40:45.964Z</time>
      </trkpt>
      <trkpt lat="42.49155" lon="2.74353">
        <ele>156</ele>
        <time>2020-02-04T10:40:55.772Z</time>
      </trkpt>
      <trkpt lat="42.49095" lon="2.74385">
        <ele>156</ele>
        <time>2020-02-04T10:41:05.590Z</time>
      </trkpt>
      <trkpt lat="42.49073" lon="2.74413">
        <ele>156</ele>
        <time>2020-02-04T10:41:15.413Z</time>
      </trkpt>
      <trkpt lat="42.49048" lon="2.74462">
        <ele>155</ele>
        <time>2020-02-04T10:41:25.243Z</time>
      </trkpt>
      <trkpt lat="42.49026" lon="2.74503">
        <ele>157</ele>
        <time>2020-02-04T10:41:35.079Z</time>
      </trkpt>
      <trkpt lat="42.49025" lon="2.74504">
        <ele>158</ele>
        <time>2020-02-04T10:41:44.915Z</time>
      </trkpt>
      <trkpt lat="42.49025" lon="2.74504">
        <ele>158</ele>
        <time>2020-02-04T10:41:54.751Z</time>
      </trkpt>
      <trkpt lat="42.48976" lon="2.7461">
        <ele>158</ele>
        <time>2020-02-04T10:42:04.602Z</time>
      </trkpt>
      <trkpt lat="42.48966" lon="2.74634">
        <ele>157</ele>
        <time>2020-02-04T10:42:14.456Z</time>
      </trkpt>
      <trkpt lat="42.48963" lon="2.74646">
        <ele>157</ele>
        <time>2020-02-04T10:42:24.312Z</time>
      </trkpt>
      <trkpt lat="42.48963" lon="2.74683">
        <ele>156</ele>
        <time>2020-02-04T10:42:34.172Z</time>
      </trkpt>
      <trkpt lat="42.48963" lon="2.74698">
        <ele>155</ele>
        <time>2020-02-04T10:42:44.034Z</time>
      </trkpt>
      <trkpt lat="42.4897" lon="2.74708">
        <ele>155</ele>
        <time>2020-02-04T10:42:53.897Z</time>
      </trkpt>
      <trkpt lat="42.48982" lon="2.74726">
        <ele>154</ele>
        <time>2020-02-04T10:43:03.763Z</time>
      </trkpt>
      <trkpt lat="42.49001" lon="2.74811">
        <ele>152</ele>
        <time>2020-02-04T10:43:13.640Z</time>
      </trkpt>
      <trkpt lat="42.49029" lon="2.74865">
        <ele>151</ele>
        <time>2020-02-04T10:43:23.525Z</time>
      </trkpt>
      <trkpt lat="42.49032" lon="2.74884">
        <ele>152</ele>
        <time>2020-02-04T10:43:33.412Z</time>
      </trkpt>
      <trkpt lat="42.49014" lon="2.75014">
        <ele>156</ele>
        <time>2020-02-04T10:43:43.315Z</time>
      </trkpt>
      <trkpt lat="42.49014" lon="2.75014">
        <ele>156</ele>
        <time>2020-02-04T10:43:53.218Z</time>
      </trkpt>
      <trkpt lat="42.4901" lon="2.75041">
        <ele>155</ele>
        <time>2020-02-04T10:44:03.124Z</time>
      </trkpt>
      <trkpt lat="42.49009" lon="2.75053">
        <ele>155</ele>
        <time>2020-02-04T10:44:13.031Z</time>
      </trkpt>
      <trkpt lat="42.49004" lon="2.75095">
        <ele>155</ele>
        <time>2020-02-04T10:44:22.943Z</time>
      </trkpt>
      <trkpt lat="42.48995" lon="2.75199">
        <ele>154</ele>
        <time>2020-02-04T10:44:32.868Z</time>
      </trkpt>
      <trkpt lat="42.48948" lon="2.75253">
        <ele>155</ele>
        <time>2020-02-04T10:44:42.802Z</time>
      </trkpt>
      <trkpt lat="42.48927" lon="2.75257">
        <ele>156</ele>
        <time>2020-02-04T10:44:52.740Z</time>
      </trkpt>
      <trkpt lat="42.48907" lon="2.75245">
        <ele>156</ele>
        <time>2020-02-04T10:45:02.682Z</time>
      </trkpt>
      <trkpt lat="42.48901" lon="2.75214">
        <ele>157</ele>
        <time>2020-02-04T10:45:12.627Z</time>
      </trkpt>
      <trkpt lat="42.48893" lon="2.75201">
        <ele>157</ele>
        <time>2020-02-04T10:45:22.574Z</time>
      </trkpt>
      <trkpt lat="42.48878" lon="2.75201">
        <ele>158</ele>
        <time>2020-02-04T10:45:32.524Z</time>
      </trkpt>
      <trkpt lat="42.48865" lon="2.75207">
        <ele>158</ele>
        <time>2020-02-04T10:45:42.476Z</time>
      </trkpt>
      <trkpt lat="42.48867" lon="2.75235">
        <ele>158</ele>
        <time>2020-02-04T10:45:52.431Z</time>
      </trkpt>
      <trkpt lat="42.48878" lon="2.7529">
        <ele>158</ele>
        <time>2020-02-04T10:46:02.393Z</time>
      </trkpt>
      <trkpt lat="42.48766" lon="2.7533">
        <ele>159</ele>
        <time>2020-02-04T10:46:12.373Z</time>
      </trkpt>
      <trkpt lat="42.48702" lon="2.75355">
        <ele>160</ele>
        <time>2020-02-04T10:46:22.364Z</time>
      </trkpt>
      <trkpt lat="42.48688" lon="2.75361">
        <ele>160</ele>
        <time>2020-02-04T10:46:32.357Z</time>
      </trkpt>
      <trkpt lat="42.48531" lon="2.75445">
        <ele>166</ele>
        <time>2020-02-04T10:46:42.377Z</time>
      </trkpt>
      <trkpt lat="42.48519" lon="2.75451">
        <ele>167</ele>
        <time>2020-02-04T10:46:52.399Z</time>
      </trkpt>
      <trkpt lat="42.48519" lon="2.75451">
        <ele>167</ele>
        <time>2020-02-04T10:47:02.421Z</time>
      </trkpt>
      <trkpt lat="42.48511" lon="2.75456">
        <ele>167</ele>
        <time>2020-02-04T10:47:12.445Z</time>
      </trkpt>
      <trkpt lat="42.48447" lon="2.75495">
        <ele>170</ele>
        <time>2020-02-04T10:47:22.480Z</time>
      </trkpt>
      <trkpt lat="42.48447" lon="2.75495">
        <ele>170</ele>
        <time>2020-02-04T10:47:32.515Z</time>
      </trkpt>
      <trkpt lat="42.48443" lon="2.75488">
        <ele>170</ele>
        <time>2020-02-04T10:47:42.551Z</time>
      </trkpt>
      <trkpt lat="42.48443" lon="2.75488">
        <ele>170</ele>
        <time>2020-02-04T10:47:52.587Z</time>
      </trkpt>
      <trkpt lat="42.48439" lon="2.75486">
        <ele>170</ele>
        <time>2020-02-04T10:48:02.624Z</time>
      </trkpt>
      <trkpt lat="42.48439" lon="2.75486">
        <ele>170</ele>
        <time>2020-02-04T10:48:12.661Z</time>
      </trkpt>
      <trkpt lat="42.48432" lon="2.75488">
        <ele>170</ele>
        <time>2020-02-04T10:48:22.699Z</time>
      </trkpt>
      <trkpt lat="42.48429" lon="2.75506">
        <ele>170</ele>
        <time>2020-02-04T10:48:32.739Z</time>
      </trkpt>
      <trkpt lat="42.48418" lon="2.75574">
        <ele>170</ele>
        <time>2020-02-04T10:48:42.787Z</time>
      </trkpt>
      <trkpt lat="42.48419" lon="2.75606">
        <ele>169</ele>
        <time>2020-02-04T10:48:52.839Z</time>
      </trkpt>
      <trkpt lat="42.48422" lon="2.75681">
        <ele>166</ele>
        <time>2020-02-04T10:49:02.900Z</time>
      </trkpt>
      <trkpt lat="42.48422" lon="2.75681">
        <ele>166</ele>
        <time>2020-02-04T10:49:12.961Z</time>
      </trkpt>
      <trkpt lat="42.48433" lon="2.75868">
        <ele>170</ele>
        <time>2020-02-04T10:49:23.044Z</time>
      </trkpt>
      <trkpt lat="42.48442" lon="2.7608">
        <ele>170</ele>
        <time>2020-02-04T10:49:33.152Z</time>
      </trkpt>
      <trkpt lat="42.48433" lon="2.76086">
        <ele>170</ele>
        <time>2020-02-04T10:49:43.262Z</time>
      </trkpt>
      <trkpt lat="42.48432" lon="2.76106">
        <ele>169</ele>
        <time>2020-02-04T10:49:53.374Z</time>
      </trkpt>
      <trkpt lat="42.48443" lon="2.76113">
        <ele>169</ele>
        <time>2020-02-04T10:50:03.488Z</time>
      </trkpt>
      <trkpt lat="42.48453" lon="2.76268">
        <ele>167</ele>
        <time>2020-02-04T10:50:13.620Z</time>
      </trkpt>
      <trkpt lat="42.48453" lon="2.76268">
        <ele>167</ele>
        <time>2020-02-04T10:50:23.752Z</time>
      </trkpt>
      <trkpt lat="42.48454" lon="2.76302">
        <ele>166</ele>
        <time>2020-02-04T10:50:33.888Z</time>
      </trkpt>
      <trkpt lat="42.48455" lon="2.76312">
        <ele>166</ele>
        <time>2020-02-04T10:50:44.026Z</time>
      </trkpt>
      <trkpt lat="42.48455" lon="2.76312">
        <ele>166</ele>
        <time>2020-02-04T10:50:54.164Z</time>
      </trkpt>
      <trkpt lat="42.48456" lon="2.76328">
        <ele>167</ele>
        <time>2020-02-04T10:51:04.304Z</time>
      </trkpt>
      <trkpt lat="42.48457" lon="2.76338">
        <ele>167</ele>
        <time>2020-02-04T10:51:14.445Z</time>
      </trkpt>
      <trkpt lat="42.48461" lon="2.76432">
        <ele>166</ele>
        <time>2020-02-04T10:51:24.597Z</time>
      </trkpt>
      <trkpt lat="42.48462" lon="2.76441">
        <ele>166</ele>
        <time>2020-02-04T10:51:34.750Z</time>
      </trkpt>
      <trkpt lat="42.48462" lon="2.76441">
        <ele>166</ele>
        <time>2020-02-04T10:51:44.903Z</time>
      </trkpt>
      <trkpt lat="42.48465" lon="2.76498">
        <ele>165</ele>
        <time>2020-02-04T10:51:55.063Z</time>
      </trkpt>
      <trkpt lat="42.48469" lon="2.76588">
        <ele>165</ele>
        <time>2020-02-04T10:52:05.233Z</time>
      </trkpt>
      <trkpt lat="42.48469" lon="2.76588">
        <ele>165</ele>
        <time>2020-02-04T10:52:15.403Z</time>
      </trkpt>
      <trkpt lat="42.48495" lon="2.76992">
        <ele>156</ele>
        <time>2020-02-04T10:52:25.621Z</time>
      </trkpt>
      <trkpt lat="42.48518" lon="2.77049">
        <ele>154</ele>
        <time>2020-02-04T10:52:35.847Z</time>
      </trkpt>
      <trkpt lat="42.48518" lon="2.77049">
        <ele>154</ele>
        <time>2020-02-04T10:52:46.073Z</time>
      </trkpt>
      <trkpt lat="42.48518" lon="2.7705">
        <ele>154</ele>
        <time>2020-02-04T10:52:56.299Z</time>
      </trkpt>
      <trkpt lat="42.48518" lon="2.7705">
        <ele>154</ele>
        <time>2020-02-04T10:53:06.525Z</time>
      </trkpt>
      <trkpt lat="42.48518" lon="2.7705">
        <ele>154</ele>
        <time>2020-02-04T10:53:16.751Z</time>
      </trkpt>
      <trkpt lat="42.48521" lon="2.77056">
        <ele>154</ele>
        <time>2020-02-04T10:53:26.978Z</time>
      </trkpt>
      <trkpt lat="42.48619" lon="2.77219">
        <ele>155</ele>
        <time>2020-02-04T10:53:37.230Z</time>
      </trkpt>
      <trkpt lat="42.48619" lon="2.77219">
        <ele>155</ele>
        <time>2020-02-04T10:53:47.482Z</time>
      </trkpt>
      <trkpt lat="42.48636" lon="2.77247">
        <ele>155</ele>
        <time>2020-02-04T10:53:57.738Z</time>
      </trkpt>
      <trkpt lat="42.48687" lon="2.77339">
        <ele>157</ele>
        <time>2020-02-04T10:54:08.008Z</time>
      </trkpt>
      <trkpt lat="42.48725" lon="2.77381">
        <ele>156</ele>
        <time>2020-02-04T10:54:18.286Z</time>
      </trkpt>
      <trkpt lat="42.48843" lon="2.77458">
        <ele>152</ele>
        <time>2020-02-04T10:54:28.585Z</time>
      </trkpt>
      <trkpt lat="42.48939" lon="2.7757">
        <ele>147</ele>
        <time>2020-02-04T10:54:38.904Z</time>
      </trkpt>
      <trkpt lat="42.49031" lon="2.77725">
        <ele>145</ele>
        <time>2020-02-04T10:54:49.246Z</time>
      </trkpt>
      <trkpt lat="42.49159" lon="2.77946">
        <ele>140</ele>
        <time>2020-02-04T10:54:59.622Z</time>
      </trkpt>
      <trkpt lat="42.49175" lon="2.77986">
        <ele>139</ele>
        <time>2020-02-04T10:55:10.003Z</time>
      </trkpt>
      <trkpt lat="42.4919" lon="2.78057">
        <ele>139</ele>
        <time>2020-02-04T10:55:20.393Z</time>
      </trkpt>
      <trkpt lat="42.4921" lon="2.78141">
        <ele>137</ele>
        <time>2020-02-04T10:55:30.793Z</time>
      </trkpt>
      <trkpt lat="42.49286" lon="2.78301">
        <ele>134</ele>
        <time>2020-02-04T10:55:41.216Z</time>
      </trkpt>
      <trkpt lat="42.49345" lon="2.7873">
        <ele>132</ele>
        <time>2020-02-04T10:55:51.691Z</time>
      </trkpt>
      <trkpt lat="42.49327" lon="2.79089">
        <ele>127</ele>
        <time>2020-02-04T10:56:02.208Z</time>
      </trkpt>
      <trkpt lat="42.49316" lon="2.79269">
        <ele>133</ele>
        <time>2020-02-04T10:56:12.747Z</time>
      </trkpt>
      <trkpt lat="42.49316" lon="2.79269">
        <ele>133</ele>
        <time>2020-02-04T10:56:23.286Z</time>
      </trkpt>
      <trkpt lat="42.49303" lon="2.79398">
        <ele>136</ele>
        <time>2020-02-04T10:56:33.840Z</time>
      </trkpt>
      <trkpt lat="42.49283" lon="2.7945">
        <ele>136</ele>
        <time>2020-02-04T10:56:44.401Z</time>
      </trkpt>
      <trkpt lat="42.49215" lon="2.7959">
        <ele>135</ele>
        <time>2020-02-04T10:56:54.982Z</time>
      </trkpt>
      <trkpt lat="42.49174" lon="2.79659">
        <ele>133</ele>
        <time>2020-02-04T10:57:05.573Z</time>
      </trkpt>
      <trkpt lat="42.4915" lon="2.79812">
        <ele>135</ele>
        <time>2020-02-04T10:57:16.183Z</time>
      </trkpt>
      <trkpt lat="42.49128" lon="2.79915">
        <ele>133</ele>
        <time>2020-02-04T10:57:26.805Z</time>
      </trkpt>
      <trkpt lat="42.49113" lon="2.79923">
        <ele>133</ele>
        <time>2020-02-04T10:57:37.430Z</time>
      </trkpt>
      <trkpt lat="42.49112" lon="2.79938">
        <ele>133</ele>
        <time>2020-02-04T10:57:48.057Z</time>
      </trkpt>
      <trkpt lat="42.49119" lon="2.79949">
        <ele>133</ele>
        <time>2020-02-04T10:57:58.685Z</time>
      </trkpt>
      <trkpt lat="42.49107" lon="2.8">
        <ele>134</ele>
        <time>2020-02-04T10:58:09.320Z</time>
      </trkpt>
      <trkpt lat="42.49107" lon="2.8">
        <ele>134</ele>
        <time>2020-02-04T10:58:19.955Z</time>
      </trkpt>
      <trkpt lat="42.49063" lon="2.80179">
        <ele>134</ele>
        <time>2020-02-04T10:58:30.612Z</time>
      </trkpt>
      <trkpt lat="42.49029" lon="2.80272">
        <ele>127</ele>
        <time>2020-02-04T10:58:41.281Z</time>
      </trkpt>
      <trkpt lat="42.49018" lon="2.80271">
        <ele>127</ele>
        <time>2020-02-04T10:58:51.952Z</time>
      </trkpt>
      <trkpt lat="42.49012" lon="2.80279">
        <ele>126</ele>
        <time>2020-02-04T10:59:02.625Z</time>
      </trkpt>
      <trkpt lat="42.49017" lon="2.803">
        <ele>124</ele>
        <time>2020-02-04T10:59:13.300Z</time>
      </trkpt>
      <trkpt lat="42.4896" lon="2.80488">
        <ele>115</ele>
        <time>2020-02-04T10:59:23.999Z</time>
      </trkpt>
      <trkpt lat="42.4896" lon="2.80488">
        <ele>115</ele>
        <time>2020-02-04T10:59:34.698Z</time>
      </trkpt>
      <trkpt lat="42.48952" lon="2.80513">
        <ele>115</ele>
        <time>2020-02-04T10:59:45.400Z</time>
      </trkpt>
      <trkpt lat="42.48952" lon="2.80513">
        <ele>115</ele>
        <time>2020-02-04T10:59:56.102Z</time>
      </trkpt>
      <trkpt lat="42.48948" lon="2.80527">
        <ele>116</ele>
        <time>2020-02-04T11:00:06.806Z</time>
      </trkpt>
      <trkpt lat="42.48942" lon="2.8056">
        <ele>118</ele>
        <time>2020-02-04T11:00:17.514Z</time>
      </trkpt>
      <trkpt lat="42.48939" lon="2.80566">
        <ele>118</ele>
        <time>2020-02-04T11:00:28.223Z</time>
      </trkpt>
      <trkpt lat="42.48939" lon="2.80574">
        <ele>118</ele>
        <time>2020-02-04T11:00:38.933Z</time>
      </trkpt>
      <trkpt lat="42.4894" lon="2.80577">
        <ele>119</ele>
        <time>2020-02-04T11:00:49.643Z</time>
      </trkpt>
      <trkpt lat="42.48948" lon="2.80585">
        <ele>119</ele>
        <time>2020-02-04T11:01:00.355Z</time>
      </trkpt>
      <trkpt lat="42.48955" lon="2.80583">
        <ele>120</ele>
        <time>2020-02-04T11:01:11.068Z</time>
      </trkpt>
      <trkpt lat="42.4896" lon="2.80569">
        <ele>119</ele>
        <time>2020-02-04T11:01:21.783Z</time>
      </trkpt>
      <trkpt lat="42.48989" lon="2.80562">
        <ele>120</ele>
        <time>2020-02-04T11:01:32.503Z</time>
      </trkpt>
      <trkpt lat="42.49009" lon="2.80573">
        <ele>120</ele>
        <time>2020-02-04T11:01:43.226Z</time>
      </trkpt>
      <trkpt lat="42.49044" lon="2.80599">
        <ele>122</ele>
        <time>2020-02-04T11:01:53.956Z</time>
      </trkpt>
      <trkpt lat="42.49057" lon="2.80608">
        <ele>123</ele>
        <time>2020-02-04T11:02:04.688Z</time>
      </trkpt>
      <trkpt lat="42.49077" lon="2.80666">
        <ele>129</ele>
        <time>2020-02-04T11:02:15.427Z</time>
      </trkpt>
      <trkpt lat="42.49083" lon="2.80699">
        <ele>130</ele>
        <time>2020-02-04T11:02:26.171Z</time>
      </trkpt>
      <trkpt lat="42.49084" lon="2.80706">
        <ele>130</ele>
        <time>2020-02-04T11:02:36.915Z</time>
      </trkpt>
      <trkpt lat="42.49091" lon="2.80739">
        <ele>130</ele>
        <time>2020-02-04T11:02:47.663Z</time>
      </trkpt>
      <trkpt lat="42.49102" lon="2.80769">
        <ele>129</ele>
        <time>2020-02-04T11:02:58.415Z</time>
      </trkpt>
      <trkpt lat="42.49114" lon="2.80827">
        <ele>129</ele>
        <time>2020-02-04T11:03:09.175Z</time>
      </trkpt>
      <trkpt lat="42.49123" lon="2.8088">
        <ele>128</ele>
        <time>2020-02-04T11:03:19.941Z</time>
      </trkpt>
      <trkpt lat="42.49125" lon="2.80893">
        <ele>128</ele>
        <time>2020-02-04T11:03:30.709Z</time>
      </trkpt>
      <trkpt lat="42.49125" lon="2.80893">
        <ele>128</ele>
        <time>2020-02-04T11:03:41.477Z</time>
      </trkpt>
      <trkpt lat="42.49134" lon="2.8094">
        <ele>128</ele>
        <time>2020-02-04T11:03:52.250Z</time>
      </trkpt>
      <trkpt lat="42.49138" lon="2.80959">
        <ele>128</ele>
        <time>2020-02-04T11:04:03.026Z</time>
      </trkpt>
      <trkpt lat="42.49147" lon="2.81015">
        <ele>129</ele>
        <time>2020-02-04T11:04:13.808Z</time>
      </trkpt>
      <trkpt lat="42.49254" lon="2.81038">
        <ele>127</ele>
        <time>2020-02-04T11:04:24.608Z</time>
      </trkpt>
      <trkpt lat="42.49303" lon="2.81048">
        <ele>127</ele>
        <time>2020-02-04T11:04:35.415Z</time>
      </trkpt>
      <trkpt lat="42.49303" lon="2.81048">
        <ele>127</ele>
        <time>2020-02-04T11:04:46.222Z</time>
      </trkpt>
      <trkpt lat="42.49485" lon="2.81137">
        <ele>125</ele>
        <time>2020-02-04T11:04:57.061Z</time>
      </trkpt>
      <trkpt lat="42.49522" lon="2.81173">
        <ele>124</ele>
        <time>2020-02-04T11:05:07.907Z</time>
      </trkpt>
      <trkpt lat="42.49616" lon="2.81296">
        <ele>116</ele>
        <time>2020-02-04T11:05:18.774Z</time>
      </trkpt>
      <trkpt lat="42.49752" lon="2.81379">
        <ele>108</ele>
        <time>2020-02-04T11:05:29.665Z</time>
      </trkpt>
      <trkpt lat="42.49826" lon="2.81458">
        <ele>106</ele>
        <time>2020-02-04T11:05:40.571Z</time>
      </trkpt>
      <trkpt lat="42.49826" lon="2.81458">
        <ele>106</ele>
        <time>2020-02-04T11:05:51.477Z</time>
      </trkpt>
      <trkpt lat="42.49862" lon="2.81498">
        <ele>105</ele>
        <time>2020-02-04T11:06:02.390Z</time>
      </trkpt>
      <trkpt lat="42.499" lon="2.8154">
        <ele>103</ele>
        <time>2020-02-04T11:06:13.311Z</time>
      </trkpt>
      <trkpt lat="42.4993" lon="2.81571">
        <ele>102</ele>
        <time>2020-02-04T11:06:24.238Z</time>
      </trkpt>
      <trkpt lat="42.49958" lon="2.81601">
        <ele>102</ele>
        <time>2020-02-04T11:06:35.171Z</time>
      </trkpt>
      <trkpt lat="42.50059" lon="2.81689">
        <ele>99</ele>
        <time>2020-02-04T11:06:46.123Z</time>
      </trkpt>
      <trkpt lat="42.50074" lon="2.8174">
        <ele>97</ele>
        <time>2020-02-04T11:06:57.082Z</time>
      </trkpt>
      <trkpt lat="42.50085" lon="2.81849">
        <ele>99</ele>
        <time>2020-02-04T11:07:08.054Z</time>
      </trkpt>
      <trkpt lat="42.50087" lon="2.81881">
        <ele>100</ele>
        <time>2020-02-04T11:07:19.029Z</time>
      </trkpt>
      <trkpt lat="42.50104" lon="2.82058">
        <ele>99</ele>
        <time>2020-02-04T11:07:30.025Z</time>
      </trkpt>
      <trkpt lat="42.50098" lon="2.821">
        <ele>101</ele>
        <time>2020-02-04T11:07:41.027Z</time>
      </trkpt>
      <trkpt lat="42.50095" lon="2.82114">
        <ele>102</ele>
        <time>2020-02-04T11:07:52.030Z</time>
      </trkpt>
      <trkpt lat="42.50095" lon="2.8212">
        <ele>102</ele>
        <time>2020-02-04T11:08:03.034Z</time>
      </trkpt>
      <trkpt lat="42.50098" lon="2.82127">
        <ele>102</ele>
        <time>2020-02-04T11:08:14.039Z</time>
      </trkpt>
      <trkpt lat="42.50098" lon="2.82127">
        <ele>102</ele>
        <time>2020-02-04T11:08:25.044Z</time>
      </trkpt>
      <trkpt lat="42.50121" lon="2.82152">
        <ele>100</ele>
        <time>2020-02-04T11:08:36.054Z</time>
      </trkpt>
      <trkpt lat="42.50169" lon="2.82231">
        <ele>99</ele>
        <time>2020-02-04T11:08:47.076Z</time>
      </trkpt>
      <trkpt lat="42.50204" lon="2.82296">
        <ele>97</ele>
        <time>2020-02-04T11:08:58.107Z</time>
      </trkpt>
      <trkpt lat="42.50213" lon="2.82308">
        <ele>97</ele>
        <time>2020-02-04T11:09:09.140Z</time>
      </trkpt>
      <trkpt lat="42.50234" lon="2.82331">
        <ele>95</ele>
        <time>2020-02-04T11:09:20.178Z</time>
      </trkpt>
      <trkpt lat="42.50339" lon="2.82412">
        <ele>101</ele>
        <time>2020-02-04T11:09:31.235Z</time>
      </trkpt>
      <trkpt lat="42.50386" lon="2.82428">
        <ele>101</ele>
        <time>2020-02-04T11:09:42.300Z</time>
      </trkpt>
      <trkpt lat="42.50439" lon="2.82425">
        <ele>100</ele>
        <time>2020-02-04T11:09:53.373Z</time>
      </trkpt>
      <trkpt lat="42.50507" lon="2.82377">
        <ele>96</ele>
        <time>2020-02-04T11:10:04.458Z</time>
      </trkpt>
      <trkpt lat="42.5055" lon="2.82355">
        <ele>91</ele>
        <time>2020-02-04T11:10:15.551Z</time>
      </trkpt>
      <trkpt lat="42.50582" lon="2.82352">
        <ele>89</ele>
        <time>2020-02-04T11:10:26.649Z</time>
      </trkpt>
      <trkpt lat="42.50644" lon="2.82368">
        <ele>91</ele>
        <time>2020-02-04T11:10:37.757Z</time>
      </trkpt>
      <trkpt lat="42.50672" lon="2.8238">
        <ele>91</ele>
        <time>2020-02-04T11:10:48.870Z</time>
      </trkpt>
      <trkpt lat="42.50718" lon="2.82418">
        <ele>90</ele>
        <time>2020-02-04T11:10:59.991Z</time>
      </trkpt>
      <trkpt lat="42.50768" lon="2.82499">
        <ele>98</ele>
        <time>2020-02-04T11:11:11.125Z</time>
      </trkpt>
      <trkpt lat="42.50831" lon="2.82536">
        <ele>97</ele>
        <time>2020-02-04T11:11:22.270Z</time>
      </trkpt>
      <trkpt lat="42.50831" lon="2.82536">
        <ele>97</ele>
        <time>2020-02-04T11:11:33.415Z</time>
      </trkpt>
      <trkpt lat="42.50864" lon="2.8257">
        <ele>97</ele>
        <time>2020-02-04T11:11:44.566Z</time>
      </trkpt>
      <trkpt lat="42.50943" lon="2.82693">
        <ele>92</ele>
        <time>2020-02-04T11:11:55.737Z</time>
      </trkpt>
      <trkpt lat="42.50949" lon="2.82698">
        <ele>92</ele>
        <time>2020-02-04T11:12:06.909Z</time>
      </trkpt>
      <trkpt lat="42.50949" lon="2.82698">
        <ele>92</ele>
        <time>2020-02-04T11:12:18.081Z</time>
      </trkpt>
      <trkpt lat="42.50985" lon="2.8273">
        <ele>91</ele>
        <time>2020-02-04T11:12:29.260Z</time>
      </trkpt>
      <trkpt lat="42.5099" lon="2.82734">
        <ele>91</ele>
        <time>2020-02-04T11:12:40.440Z</time>
      </trkpt>
      <trkpt lat="42.5099" lon="2.82734">
        <ele>91</ele>
        <time>2020-02-04T11:12:51.620Z</time>
      </trkpt>
      <trkpt lat="42.51026" lon="2.82767">
        <ele>91</ele>
        <time>2020-02-04T11:13:02.807Z</time>
      </trkpt>
      <trkpt lat="42.51148" lon="2.82881">
        <ele>93</ele>
        <time>2020-02-04T11:13:14.017Z</time>
      </trkpt>
      <trkpt lat="42.51323" lon="2.82976">
        <ele>90</ele>
        <time>2020-02-04T11:13:25.258Z</time>
      </trkpt>
      <trkpt lat="42.51384" lon="2.83011">
        <ele>89</ele>
        <time>2020-02-04T11:13:36.509Z</time>
      </trkpt>
      <trkpt lat="42.51388" lon="2.83029">
        <ele>90</ele>
        <time>2020-02-04T11:13:47.762Z</time>
      </trkpt>
      <trkpt lat="42.51398" lon="2.83035">
        <ele>89</ele>
        <time>2020-02-04T11:13:59.017Z</time>
      </trkpt>
      <trkpt lat="42.51409" lon="2.83225">
        <ele>94</ele>
        <time>2020-02-04T11:14:10.295Z</time>
      </trkpt>
      <trkpt lat="42.51464" lon="2.83393">
        <ele>92</ele>
        <time>2020-02-04T11:14:21.594Z</time>
      </trkpt>
      <trkpt lat="42.51464" lon="2.83407">
        <ele>92</ele>
        <time>2020-02-04T11:14:32.895Z</time>
      </trkpt>
      <trkpt lat="42.51473" lon="2.8341">
        <ele>92</ele>
        <time>2020-02-04T11:14:44.198Z</time>
      </trkpt>
      <trkpt lat="42.51544" lon="2.83562">
        <ele>90</ele>
        <time>2020-02-04T11:14:55.522Z</time>
      </trkpt>
      <trkpt lat="42.51544" lon="2.83562">
        <ele>90</ele>
        <time>2020-02-04T11:15:06.846Z</time>
      </trkpt>
      <trkpt lat="42.51567" lon="2.83605">
        <ele>90</ele>
        <time>2020-02-04T11:15:18.176Z</time>
      </trkpt>
      <trkpt lat="42.51619" lon="2.83712">
        <ele>89</ele>
        <time>2020-02-04T11:15:29.521Z</time>
      </trkpt>
      <trkpt lat="42.51699" lon="2.83873">
        <ele>86</ele>
        <time>2020-02-04T11:15:40.889Z</time>
      </trkpt>
      <trkpt lat="42.51814" lon="2.84025">
        <ele>86</ele>
        <time>2020-02-04T11:15:52.283Z</time>
      </trkpt>
      <trkpt lat="42.51814" lon="2.84025">
        <ele>86</ele>
        <time>2020-02-04T11:16:03.677Z</time>
      </trkpt>
      <trkpt lat="42.5188" lon="2.84112">
        <ele>84</ele>
        <time>2020-02-04T11:16:15.086Z</time>
      </trkpt>
      <trkpt lat="42.51926" lon="2.84195">
        <ele>85</ele>
        <time>2020-02-04T11:16:26.507Z</time>
      </trkpt>
      <trkpt lat="42.51976" lon="2.84271">
        <ele>84</ele>
        <time>2020-02-04T11:16:37.940Z</time>
      </trkpt>
      <trkpt lat="42.51976" lon="2.84271">
        <ele>84</ele>
        <time>2020-02-04T11:16:49.373Z</time>
      </trkpt>
      <trkpt lat="42.52052" lon="2.84387">
        <ele>81</ele>
        <time>2020-02-04T11:17:00.825Z</time>
      </trkpt>
      <trkpt lat="42.52083" lon="2.84435">
        <ele>81</ele>
        <time>2020-02-04T11:17:12.284Z</time>
      </trkpt>
      <trkpt lat="42.52104" lon="2.84466">
        <ele>81</ele>
        <time>2020-02-04T11:17:23.748Z</time>
      </trkpt>
      <trkpt lat="42.52104" lon="2.84466">
        <ele>81</ele>
        <time>2020-02-04T11:17:35.212Z</time>
      </trkpt>
      <trkpt lat="42.52183" lon="2.84655">
        <ele>81</ele>
        <time>2020-02-04T11:17:46.702Z</time>
      </trkpt>
      <trkpt lat="42.52192" lon="2.84668">
        <ele>81</ele>
        <time>2020-02-04T11:17:58.194Z</time>
      </trkpt>
      <trkpt lat="42.52205" lon="2.84672">
        <ele>81</ele>
        <time>2020-02-04T11:18:09.688Z</time>
      </trkpt>
      <trkpt lat="42.5221" lon="2.8469">
        <ele>81</ele>
        <time>2020-02-04T11:18:21.184Z</time>
      </trkpt>
      <trkpt lat="42.52223" lon="2.84692">
        <ele>81</ele>
        <time>2020-02-04T11:18:32.682Z</time>
      </trkpt>
      <trkpt lat="42.5223" lon="2.84719">
        <ele>82</ele>
        <time>2020-02-04T11:18:44.183Z</time>
      </trkpt>
      <trkpt lat="42.52252" lon="2.84736">
        <ele>81</ele>
        <time>2020-02-04T11:18:55.689Z</time>
      </trkpt>
      <trkpt lat="42.52313" lon="2.84808">
        <ele>80</ele>
        <time>2020-02-04T11:19:07.208Z</time>
      </trkpt>
      <trkpt lat="42.52364" lon="2.84878">
        <ele>80</ele>
        <time>2020-02-04T11:19:18.738Z</time>
      </trkpt>
      <trkpt lat="42.52364" lon="2.84878">
        <ele>80</ele>
        <time>2020-02-04T11:19:30.268Z</time>
      </trkpt>
      <trkpt lat="42.52364" lon="2.84878">
        <ele>80</ele>
        <time>2020-02-04T11:19:41.798Z</time>
      </trkpt>
      <trkpt lat="42.52364" lon="2.84879">
        <ele>80</ele>
        <time>2020-02-04T11:19:53.328Z</time>
      </trkpt>
      <trkpt lat="42.52364" lon="2.84879">
        <ele>80</ele>
        <time>2020-02-04T11:20:04.858Z</time>
      </trkpt>
      <trkpt lat="42.52313" lon="2.84808">
        <ele>80</ele>
        <time>2020-02-04T11:20:16.400Z</time>
      </trkpt>
      <trkpt lat="42.52252" lon="2.84736">
        <ele>81</ele>
        <time>2020-02-04T11:20:27.955Z</time>
      </trkpt>
      <trkpt lat="42.5223" lon="2.84719">
        <ele>82</ele>
        <time>2020-02-04T11:20:39.514Z</time>
      </trkpt>
      <trkpt lat="42.52223" lon="2.84692">
        <ele>81</ele>
        <time>2020-02-04T11:20:51.076Z</time>
      </trkpt>
      <trkpt lat="42.52228" lon="2.84689">
        <ele>81</ele>
        <time>2020-02-04T11:21:02.639Z</time>
      </trkpt>
      <trkpt lat="42.52235" lon="2.84661">
        <ele>80</ele>
        <time>2020-02-04T11:21:14.206Z</time>
      </trkpt>
      <trkpt lat="42.52252" lon="2.84641">
        <ele>80</ele>
        <time>2020-02-04T11:21:25.776Z</time>
      </trkpt>
      <trkpt lat="42.52265" lon="2.84638">
        <ele>80</ele>
        <time>2020-02-04T11:21:37.348Z</time>
      </trkpt>
      <trkpt lat="42.52278" lon="2.84631">
        <ele>80</ele>
        <time>2020-02-04T11:21:48.923Z</time>
      </trkpt>
      <trkpt lat="42.52277" lon="2.84603">
        <ele>80</ele>
        <time>2020-02-04T11:22:00.501Z</time>
      </trkpt>
      <trkpt lat="42.52289" lon="2.8459">
        <ele>79</ele>
        <time>2020-02-04T11:22:12.081Z</time>
      </trkpt>
      <trkpt lat="42.52295" lon="2.84697">
        <ele>80</ele>
        <time>2020-02-04T11:22:23.674Z</time>
      </trkpt>
      <trkpt lat="42.52503" lon="2.85029">
        <ele>76</ele>
        <time>2020-02-04T11:22:35.319Z</time>
      </trkpt>
      <trkpt lat="42.52533" lon="2.85077">
        <ele>75</ele>
        <time>2020-02-04T11:22:46.971Z</time>
      </trkpt>
      <trkpt lat="42.52578" lon="2.85145">
        <ele>77</ele>
        <time>2020-02-04T11:22:58.634Z</time>
      </trkpt>
      <trkpt lat="42.52593" lon="2.85169">
        <ele>77</ele>
        <time>2020-02-04T11:23:10.300Z</time>
      </trkpt>
      <trkpt lat="42.52614" lon="2.85146">
        <ele>77</ele>
        <time>2020-02-04T11:23:21.971Z</time>
      </trkpt>
      <trkpt lat="42.52639" lon="2.85164">
        <ele>77</ele>
        <time>2020-02-04T11:23:33.646Z</time>
      </trkpt>
      <trkpt lat="42.5269" lon="2.85177">
        <ele>77</ele>
        <time>2020-02-04T11:23:45.330Z</time>
      </trkpt>
      <trkpt lat="42.52693" lon="2.85201">
        <ele>77</ele>
        <time>2020-02-04T11:23:57.017Z</time>
      </trkpt>
      <trkpt lat="42.52719" lon="2.85213">
        <ele>77</ele>
        <time>2020-02-04T11:24:08.708Z</time>
      </trkpt>
      <trkpt lat="42.52717" lon="2.85234">
        <ele>77</ele>
        <time>2020-02-04T11:24:20.401Z</time>
      </trkpt>
      <trkpt lat="42.52737" lon="2.85243">
        <ele>77</ele>
        <time>2020-02-04T11:24:32.098Z</time>
      </trkpt>
      <trkpt lat="42.52822" lon="2.85322">
        <ele>76</ele>
        <time>2020-02-04T11:24:43.811Z</time>
      </trkpt>
      <trkpt lat="42.52825" lon="2.85346">
        <ele>76</ele>
        <time>2020-02-04T11:24:55.527Z</time>
      </trkpt>
      <trkpt lat="42.52798" lon="2.85378">
        <ele>75</ele>
        <time>2020-02-04T11:25:07.249Z</time>
      </trkpt>
      <trkpt lat="42.52794" lon="2.85418">
        <ele>75</ele>
        <time>2020-02-04T11:25:18.976Z</time>
      </trkpt>
      <trkpt lat="42.52783" lon="2.85419">
        <ele>76</ele>
        <time>2020-02-04T11:25:30.704Z</time>
      </trkpt>
      <trkpt lat="42.52775" lon="2.85434">
        <ele>77</ele>
        <time>2020-02-04T11:25:42.434Z</time>
      </trkpt>
      <trkpt lat="42.52776" lon="2.85444">
        <ele>77</ele>
        <time>2020-02-04T11:25:54.166Z</time>
      </trkpt>
      <trkpt lat="42.52772" lon="2.85459">
        <ele>77</ele>
        <time>2020-02-04T11:26:05.900Z</time>
      </trkpt>
      <trkpt lat="42.52744" lon="2.85498">
        <ele>80</ele>
        <time>2020-02-04T11:26:17.640Z</time>
      </trkpt>
      <trkpt lat="42.52785" lon="2.85535">
        <ele>77</ele>
        <time>2020-02-04T11:26:29.388Z</time>
      </trkpt>
      <trkpt lat="42.52943" lon="2.85726">
        <ele>72</ele>
        <time>2020-02-04T11:26:41.170Z</time>
      </trkpt>
      <trkpt lat="42.52975" lon="2.85771">
        <ele>71</ele>
        <time>2020-02-04T11:26:52.959Z</time>
      </trkpt>
      <trkpt lat="42.5304" lon="2.85891">
        <ele>69</ele>
        <time>2020-02-04T11:27:04.766Z</time>
      </trkpt>
      <trkpt lat="42.53078" lon="2.85931">
        <ele>68</ele>
        <time>2020-02-04T11:27:16.580Z</time>
      </trkpt>
      <trkpt lat="42.5312" lon="2.85992">
        <ele>69</ele>
        <time>2020-02-04T11:27:28.404Z</time>
      </trkpt>
      <trkpt lat="42.5312" lon="2.85992">
        <ele>69</ele>
        <time>2020-02-04T11:27:40.228Z</time>
      </trkpt>
      <trkpt lat="42.53172" lon="2.86073">
        <ele>71</ele>
        <time>2020-02-04T11:27:52.065Z</time>
      </trkpt>
      <trkpt lat="42.53184" lon="2.86272">
        <ele>73</ele>
        <time>2020-02-04T11:28:03.926Z</time>
      </trkpt>
      <trkpt lat="42.53234" lon="2.86592">
        <ele>71</ele>
        <time>2020-02-04T11:28:15.825Z</time>
      </trkpt>
      <trkpt lat="42.53235" lon="2.86705">
        <ele>72</ele>
        <time>2020-02-04T11:28:27.738Z</time>
      </trkpt>
      <trkpt lat="42.53219" lon="2.86756">
        <ele>74</ele>
        <time>2020-02-04T11:28:39.657Z</time>
      </trkpt>
      <trkpt lat="42.53226" lon="2.86809">
        <ele>74</ele>
        <time>2020-02-04T11:28:51.583Z</time>
      </trkpt>
      <trkpt lat="42.53238" lon="2.86979">
        <ele>75</ele>
        <time>2020-02-04T11:29:03.529Z</time>
      </trkpt>
      <trkpt lat="42.53235" lon="2.86981">
        <ele>76</ele>
        <time>2020-02-04T11:29:15.475Z</time>
      </trkpt>
      <trkpt lat="42.53232" lon="2.86982">
        <ele>76</ele>
        <time>2020-02-04T11:29:27.422Z</time>
      </trkpt>
      <trkpt lat="42.53129" lon="2.87029">
        <ele>79</ele>
        <time>2020-02-04T11:29:39.386Z</time>
      </trkpt>
      <trkpt lat="42.53097" lon="2.87111">
        <ele>82</ele>
        <time>2020-02-04T11:29:51.361Z</time>
      </trkpt>
      <trkpt lat="42.53076" lon="2.87132">
        <ele>85</ele>
        <time>2020-02-04T11:30:03.340Z</time>
      </trkpt>
      <trkpt lat="42.52937" lon="2.87199">
        <ele>91</ele>
        <time>2020-02-04T11:30:15.343Z</time>
      </trkpt>
      <trkpt lat="42.52893" lon="2.87265">
        <ele>93</ele>
        <time>2020-02-04T11:30:27.356Z</time>
      </trkpt>
      <trkpt lat="42.52822" lon="2.87329">
        <ele>95</ele>
        <time>2020-02-04T11:30:39.383Z</time>
      </trkpt>
      <trkpt lat="42.52764" lon="2.87365">
        <ele>96</ele>
        <time>2020-02-04T11:30:51.420Z</time>
      </trkpt>
      <trkpt lat="42.52746" lon="2.87383">
        <ele>99</ele>
        <time>2020-02-04T11:31:03.461Z</time>
      </trkpt>
      <trkpt lat="42.52595" lon="2.87591">
        <ele>113</ele>
        <time>2020-02-04T11:31:15.536Z</time>
      </trkpt>
      <trkpt lat="42.52523" lon="2.87643">
        <ele>118</ele>
        <time>2020-02-04T11:31:27.624Z</time>
      </trkpt>
      <trkpt lat="42.52387" lon="2.87723">
        <ele>124</ele>
        <time>2020-02-04T11:31:39.736Z</time>
      </trkpt>
      <trkpt lat="42.52226" lon="2.87789">
        <ele>132</ele>
        <time>2020-02-04T11:31:51.875Z</time>
      </trkpt>
      <trkpt lat="42.52215" lon="2.87796">
        <ele>133</ele>
        <time>2020-02-04T11:32:04.016Z</time>
      </trkpt>
      <trkpt lat="42.52201" lon="2.87825">
        <ele>135</ele>
        <time>2020-02-04T11:32:16.161Z</time>
      </trkpt>
      <trkpt lat="42.5219" lon="2.87831">
        <ele>135</ele>
        <time>2020-02-04T11:32:28.308Z</time>
      </trkpt>
      <trkpt lat="42.5219" lon="2.87844">
        <ele>135</ele>
        <time>2020-02-04T11:32:40.456Z</time>
      </trkpt>
      <trkpt lat="42.5215" lon="2.87864">
        <ele>136</ele>
        <time>2020-02-04T11:32:52.611Z</time>
      </trkpt>
      <trkpt lat="42.5215" lon="2.87864">
        <ele>136</ele>
        <time>2020-02-04T11:33:04.766Z</time>
      </trkpt>
      <trkpt lat="42.52118" lon="2.87879">
        <ele>137</ele>
        <time>2020-02-04T11:33:16.927Z</time>
      </trkpt>
      <trkpt lat="42.52106" lon="2.87886">
        <ele>138</ele>
        <time>2020-02-04T11:33:29.090Z</time>
      </trkpt>
      <trkpt lat="42.52059" lon="2.87916">
        <ele>142</ele>
        <time>2020-02-04T11:33:41.261Z</time>
      </trkpt>
      <trkpt lat="42.52049" lon="2.87919">
        <ele>143</ele>
        <time>2020-02-04T11:33:53.434Z</time>
      </trkpt>
      <trkpt lat="42.51983" lon="2.87958">
        <ele>148</ele>
        <time>2020-02-04T11:34:05.618Z</time>
      </trkpt>
      <trkpt lat="42.51941" lon="2.87978">
        <ele>152</ele>
        <time>2020-02-04T11:34:17.809Z</time>
      </trkpt>
      <trkpt lat="42.5189" lon="2.87994">
        <ele>156</ele>
        <time>2020-02-04T11:34:30.009Z</time>
      </trkpt>
      <trkpt lat="42.5184" lon="2.88008">
        <ele>158</ele>
        <time>2020-02-04T11:34:42.217Z</time>
      </trkpt>
      <trkpt lat="42.51786" lon="2.88023">
        <ele>166</ele>
        <time>2020-02-04T11:34:54.434Z</time>
      </trkpt>
      <trkpt lat="42.51733" lon="2.88046">
        <ele>171</ele>
        <time>2020-02-04T11:35:06.660Z</time>
      </trkpt>
      <trkpt lat="42.51711" lon="2.88058">
        <ele>173</ele>
        <time>2020-02-04T11:35:18.890Z</time>
      </trkpt>
      <trkpt lat="42.51699" lon="2.88077">
        <ele>174</ele>
        <time>2020-02-04T11:35:31.122Z</time>
      </trkpt>
      <trkpt lat="42.5167" lon="2.88106">
        <ele>177</ele>
        <time>2020-02-04T11:35:43.360Z</time>
      </trkpt>
      <trkpt lat="42.51671" lon="2.88148">
        <ele>181</ele>
        <time>2020-02-04T11:35:55.603Z</time>
      </trkpt>
      <trkpt lat="42.51672" lon="2.88152">
        <ele>181</ele>
        <time>2020-02-04T11:36:07.847Z</time>
      </trkpt>
      <trkpt lat="42.51674" lon="2.88162">
        <ele>182</ele>
        <time>2020-02-04T11:36:20.092Z</time>
      </trkpt>
      <trkpt lat="42.51696" lon="2.8817">
        <ele>182</ele>
        <time>2020-02-04T11:36:32.341Z</time>
      </trkpt>
      <trkpt lat="42.51703" lon="2.88189">
        <ele>182</ele>
        <time>2020-02-04T11:36:44.592Z</time>
      </trkpt>
      <trkpt lat="42.51704" lon="2.88193">
        <ele>182</ele>
        <time>2020-02-04T11:36:56.844Z</time>
      </trkpt>
      <trkpt lat="42.51704" lon="2.88193">
        <ele>182</ele>
        <time>2020-02-04T11:37:09.096Z</time>
      </trkpt>
      <trkpt lat="42.51709" lon="2.8821">
        <ele>181</ele>
        <time>2020-02-04T11:37:21.350Z</time>
      </trkpt>
      <trkpt lat="42.51711" lon="2.88222">
        <ele>181</ele>
        <time>2020-02-04T11:37:33.605Z</time>
      </trkpt>
      <trkpt lat="42.51713" lon="2.88246">
        <ele>181</ele>
        <time>2020-02-04T11:37:45.863Z</time>
      </trkpt>
      <trkpt lat="42.51694" lon="2.88256">
        <ele>181</ele>
        <time>2020-02-04T11:37:58.125Z</time>
      </trkpt>
      <trkpt lat="42.51649" lon="2.88264">
        <ele>179</ele>
        <time>2020-02-04T11:38:10.394Z</time>
      </trkpt>
      <trkpt lat="42.51563" lon="2.88246">
        <ele>180</ele>
        <time>2020-02-04T11:38:22.677Z</time>
      </trkpt>
      <trkpt lat="42.51563" lon="2.88246">
        <ele>180</ele>
        <time>2020-02-04T11:38:34.960Z</time>
      </trkpt>
      <trkpt lat="42.51563" lon="2.88246">
        <ele>180</ele>
        <time>2020-02-04T11:38:47.243Z</time>
      </trkpt>
      <trkpt lat="42.51563" lon="2.88246">
        <ele>180</ele>
        <time>2020-02-04T11:38:59.526Z</time>
      </trkpt>
      <trkpt lat="42.51563" lon="2.88246">
        <ele>180</ele>
        <time>2020-02-04T11:39:11.809Z</time>
      </trkpt>
      <trkpt lat="42.51545" lon="2.88243">
        <ele>182</ele>
        <time>2020-02-04T11:39:24.095Z</time>
      </trkpt>
      <trkpt lat="42.5152" lon="2.88249">
        <ele>184</ele>
        <time>2020-02-04T11:39:36.385Z</time>
      </trkpt>
      <trkpt lat="42.51519" lon="2.88278">
        <ele>183</ele>
        <time>2020-02-04T11:39:48.678Z</time>
      </trkpt>
      <trkpt lat="42.51567" lon="2.88333">
        <ele>176</ele>
        <time>2020-02-04T11:40:00.981Z</time>
      </trkpt>
      <trkpt lat="42.51563" lon="2.88377">
        <ele>180</ele>
        <time>2020-02-04T11:40:13.290Z</time>
      </trkpt>
      <trkpt lat="42.51613" lon="2.88413">
        <ele>170</ele>
        <time>2020-02-04T11:40:25.608Z</time>
      </trkpt>
      <trkpt lat="42.51634" lon="2.88479">
        <ele>170</ele>
        <time>2020-02-04T11:40:37.934Z</time>
      </trkpt>
      <trkpt lat="42.51659" lon="2.88505">
        <ele>167</ele>
        <time>2020-02-04T11:40:50.265Z</time>
      </trkpt>
      <trkpt lat="42.51663" lon="2.88519">
        <ele>166</ele>
        <time>2020-02-04T11:41:02.598Z</time>
      </trkpt>
      <trkpt lat="42.51662" lon="2.88553">
        <ele>165</ele>
        <time>2020-02-04T11:41:14.935Z</time>
      </trkpt>
      <trkpt lat="42.51631" lon="2.88599">
        <ele>172</ele>
        <time>2020-02-04T11:41:27.280Z</time>
      </trkpt>
      <trkpt lat="42.51633" lon="2.8864">
        <ele>171</ele>
        <time>2020-02-04T11:41:39.629Z</time>
      </trkpt>
      <trkpt lat="42.51642" lon="2.88661">
        <ele>169</ele>
        <time>2020-02-04T11:41:51.981Z</time>
      </trkpt>
      <trkpt lat="42.51642" lon="2.88673">
        <ele>168</ele>
        <time>2020-02-04T11:42:04.335Z</time>
      </trkpt>
      <trkpt lat="42.51634" lon="2.88684">
        <ele>168</ele>
        <time>2020-02-04T11:42:16.690Z</time>
      </trkpt>
      <trkpt lat="42.51561" lon="2.88701">
        <ele>178</ele>
        <time>2020-02-04T11:42:29.057Z</time>
      </trkpt>
      <trkpt lat="42.51543" lon="2.88712">
        <ele>181</ele>
        <time>2020-02-04T11:42:41.427Z</time>
      </trkpt>
      <trkpt lat="42.51526" lon="2.88748">
        <ele>180</ele>
        <time>2020-02-04T11:42:53.802Z</time>
      </trkpt>
      <trkpt lat="42.51526" lon="2.88764">
        <ele>179</ele>
        <time>2020-02-04T11:43:06.179Z</time>
      </trkpt>
      <trkpt lat="42.51536" lon="2.88779">
        <ele>177</ele>
        <time>2020-02-04T11:43:18.559Z</time>
      </trkpt>
      <trkpt lat="42.51593" lon="2.88821">
        <ele>168</ele>
        <time>2020-02-04T11:43:30.949Z</time>
      </trkpt>
      <trkpt lat="42.51623" lon="2.88909">
        <ele>166</ele>
        <time>2020-02-04T11:43:43.351Z</time>
      </trkpt>
      <trkpt lat="42.51644" lon="2.88935">
        <ele>164</ele>
        <time>2020-02-04T11:43:55.757Z</time>
      </trkpt>
      <trkpt lat="42.5165" lon="2.88951">
        <ele>163</ele>
        <time>2020-02-04T11:44:08.165Z</time>
      </trkpt>
      <trkpt lat="42.51644" lon="2.88979">
        <ele>165</ele>
        <time>2020-02-04T11:44:20.577Z</time>
      </trkpt>
      <trkpt lat="42.51645" lon="2.89036">
        <ele>167</ele>
        <time>2020-02-04T11:44:32.996Z</time>
      </trkpt>
      <trkpt lat="42.51651" lon="2.89069">
        <ele>167</ele>
        <time>2020-02-04T11:44:45.418Z</time>
      </trkpt>
      <trkpt lat="42.51673" lon="2.89108">
        <ele>167</ele>
        <time>2020-02-04T11:44:57.846Z</time>
      </trkpt>
      <trkpt lat="42.51712" lon="2.89111">
        <ele>166</ele>
        <time>2020-02-04T11:45:10.281Z</time>
      </trkpt>
      <trkpt lat="42.51741" lon="2.89087">
        <ele>163</ele>
        <time>2020-02-04T11:45:22.721Z</time>
      </trkpt>
      <trkpt lat="42.51771" lon="2.89083">
        <ele>162</ele>
        <time>2020-02-04T11:45:35.166Z</time>
      </trkpt>
      <trkpt lat="42.51843" lon="2.89108">
        <ele>160</ele>
        <time>2020-02-04T11:45:47.623Z</time>
      </trkpt>
      <trkpt lat="42.51866" lon="2.89145">
        <ele>157</ele>
        <time>2020-02-04T11:46:00.086Z</time>
      </trkpt>
      <trkpt lat="42.51883" lon="2.8916">
        <ele>155</ele>
        <time>2020-02-04T11:46:12.552Z</time>
      </trkpt>
      <trkpt lat="42.51888" lon="2.89236">
        <ele>160</ele>
        <time>2020-02-04T11:46:25.027Z</time>
      </trkpt>
      <trkpt lat="42.51897" lon="2.89241">
        <ele>159</ele>
        <time>2020-02-04T11:46:37.503Z</time>
      </trkpt>
      <trkpt lat="42.51942" lon="2.89185">
        <ele>148</ele>
        <time>2020-02-04T11:46:49.989Z</time>
      </trkpt>
      <trkpt lat="42.51956" lon="2.89179">
        <ele>145</ele>
        <time>2020-02-04T11:47:02.478Z</time>
      </trkpt>
      <trkpt lat="42.51991" lon="2.89212">
        <ele>144</ele>
        <time>2020-02-04T11:47:14.973Z</time>
      </trkpt>
      <trkpt lat="42.52022" lon="2.89205">
        <ele>140</ele>
        <time>2020-02-04T11:47:27.474Z</time>
      </trkpt>
      <trkpt lat="42.52048" lon="2.89225">
        <ele>141</ele>
        <time>2020-02-04T11:47:39.979Z</time>
      </trkpt>
      <trkpt lat="42.52099" lon="2.89197">
        <ele>132</ele>
        <time>2020-02-04T11:47:52.493Z</time>
      </trkpt>
      <trkpt lat="42.52177" lon="2.89213">
        <ele>127</ele>
        <time>2020-02-04T11:48:05.020Z</time>
      </trkpt>
      <trkpt lat="42.52221" lon="2.89269">
        <ele>128</ele>
        <time>2020-02-04T11:48:17.556Z</time>
      </trkpt>
      <trkpt lat="42.52227" lon="2.8929">
        <ele>128</ele>
        <time>2020-02-04T11:48:30.095Z</time>
      </trkpt>
      <trkpt lat="42.52227" lon="2.8929">
        <ele>128</ele>
        <time>2020-02-04T11:48:42.634Z</time>
      </trkpt>
      <trkpt lat="42.5223" lon="2.89329">
        <ele>129</ele>
        <time>2020-02-04T11:48:55.178Z</time>
      </trkpt>
      <trkpt lat="42.52237" lon="2.89342">
        <ele>129</ele>
        <time>2020-02-04T11:49:07.724Z</time>
      </trkpt>
      <trkpt lat="42.52265" lon="2.89364">
        <ele>126</ele>
        <time>2020-02-04T11:49:20.275Z</time>
      </trkpt>
      <trkpt lat="42.52315" lon="2.89454">
        <ele>122</ele>
        <time>2020-02-04T11:49:32.839Z</time>
      </trkpt>
      <trkpt lat="42.52332" lon="2.89472">
        <ele>120</ele>
        <time>2020-02-04T11:49:45.407Z</time>
      </trkpt>
      <trkpt lat="42.52466" lon="2.89484">
        <ele>116</ele>
        <time>2020-02-04T11:49:57.996Z</time>
      </trkpt>
      <trkpt lat="42.52508" lon="2.89506">
        <ele>114</ele>
        <time>2020-02-04T11:50:10.592Z</time>
      </trkpt>
      <trkpt lat="42.52529" lon="2.89525">
        <ele>113</ele>
        <time>2020-02-04T11:50:23.192Z</time>
      </trkpt>
      <trkpt lat="42.52553" lon="2.89568">
        <ele>111</ele>
        <time>2020-02-04T11:50:35.799Z</time>
      </trkpt>
      <trkpt lat="42.52587" lon="2.89606">
        <ele>109</ele>
        <time>2020-02-04T11:50:48.413Z</time>
      </trkpt>
      <trkpt lat="42.52667" lon="2.89674">
        <ele>101</ele>
        <time>2020-02-04T11:51:01.042Z</time>
      </trkpt>
      <trkpt lat="42.52676" lon="2.89702">
        <ele>100</ele>
        <time>2020-02-04T11:51:13.674Z</time>
      </trkpt>
      <trkpt lat="42.52672" lon="2.89886">
        <ele>101</ele>
        <time>2020-02-04T11:51:26.328Z</time>
      </trkpt>
      <trkpt lat="42.52668" lon="2.89939">
        <ele>102</ele>
        <time>2020-02-04T11:51:38.988Z</time>
      </trkpt>
      <trkpt lat="42.52652" lon="2.89974">
        <ele>104</ele>
        <time>2020-02-04T11:51:51.653Z</time>
      </trkpt>
      <trkpt lat="42.52647" lon="2.89984">
        <ele>105</ele>
        <time>2020-02-04T11:52:04.320Z</time>
      </trkpt>
      <trkpt lat="42.52633" lon="2.90008">
        <ele>107</ele>
        <time>2020-02-04T11:52:16.990Z</time>
      </trkpt>
      <trkpt lat="42.52601" lon="2.9004">
        <ele>112</ele>
        <time>2020-02-04T11:52:29.667Z</time>
      </trkpt>
      <trkpt lat="42.52601" lon="2.90078">
        <ele>111</ele>
        <time>2020-02-04T11:52:42.348Z</time>
      </trkpt>
      <trkpt lat="42.52589" lon="2.90106">
        <ele>112</ele>
        <time>2020-02-04T11:52:55.033Z</time>
      </trkpt>
      <trkpt lat="42.5254" lon="2.90197">
        <ele>114</ele>
        <time>2020-02-04T11:53:07.731Z</time>
      </trkpt>
      <trkpt lat="42.52523" lon="2.90214">
        <ele>115</ele>
        <time>2020-02-04T11:53:20.433Z</time>
      </trkpt>
      <trkpt lat="42.52512" lon="2.90224">
        <ele>116</ele>
        <time>2020-02-04T11:53:33.137Z</time>
      </trkpt>
      <trkpt lat="42.52537" lon="2.90299">
        <ele>117</ele>
        <time>2020-02-04T11:53:45.851Z</time>
      </trkpt>
      <trkpt lat="42.5254" lon="2.90315">
        <ele>117</ele>
        <time>2020-02-04T11:53:58.567Z</time>
      </trkpt>
      <trkpt lat="42.52546" lon="2.90338">
        <ele>118</ele>
        <time>2020-02-04T11:54:11.285Z</time>
      </trkpt>
      <trkpt lat="42.52545" lon="2.90375">
        <ele>120</ele>
        <time>2020-02-04T11:54:24.008Z</time>
      </trkpt>
      <trkpt lat="42.52546" lon="2.90444">
        <ele>122</ele>
        <time>2020-02-04T11:54:36.739Z</time>
      </trkpt>
      <trkpt lat="42.52528" lon="2.90451">
        <ele>122</ele>
        <time>2020-02-04T11:54:49.473Z</time>
      </trkpt>
      <trkpt lat="42.52513" lon="2.90576">
        <ele>123</ele>
        <time>2020-02-04T11:55:02.222Z</time>
      </trkpt>
      <trkpt lat="42.52514" lon="2.90643">
        <ele>121</ele>
        <time>2020-02-04T11:55:14.979Z</time>
      </trkpt>
      <trkpt lat="42.52492" lon="2.90757">
        <ele>117</ele>
        <time>2020-02-04T11:55:27.750Z</time>
      </trkpt>
      <trkpt lat="42.52492" lon="2.90757">
        <ele>117</ele>
        <time>2020-02-04T11:55:40.521Z</time>
      </trkpt>
      <trkpt lat="42.52486" lon="2.90827">
        <ele>115</ele>
        <time>2020-02-04T11:55:53.300Z</time>
      </trkpt>
      <trkpt lat="42.52508" lon="2.90874">
        <ele>112</ele>
        <time>2020-02-04T11:56:06.086Z</time>
      </trkpt>
      <trkpt lat="42.52525" lon="2.90953">
        <ele>108</ele>
        <time>2020-02-04T11:56:18.882Z</time>
      </trkpt>
      <trkpt lat="42.52525" lon="2.90953">
        <ele>108</ele>
        <time>2020-02-04T11:56:31.678Z</time>
      </trkpt>
      <trkpt lat="42.52528" lon="2.90992">
        <ele>106</ele>
        <time>2020-02-04T11:56:44.478Z</time>
      </trkpt>
      <trkpt lat="42.52522" lon="2.91048">
        <ele>103</ele>
        <time>2020-02-04T11:56:57.285Z</time>
      </trkpt>
      <trkpt lat="42.52534" lon="2.91117">
        <ele>100</ele>
        <time>2020-02-04T11:57:10.100Z</time>
      </trkpt>
      <trkpt lat="42.52533" lon="2.91117">
        <ele>100</ele>
        <time>2020-02-04T11:57:22.915Z</time>
      </trkpt>
      <trkpt lat="42.52543" lon="2.91151">
        <ele>99</ele>
        <time>2020-02-04T11:57:35.735Z</time>
      </trkpt>
      <trkpt lat="42.52575" lon="2.91199">
        <ele>96</ele>
        <time>2020-02-04T11:57:48.562Z</time>
      </trkpt>
      <trkpt lat="42.52575" lon="2.91199">
        <ele>96</ele>
        <time>2020-02-04T11:58:01.389Z</time>
      </trkpt>
      <trkpt lat="42.52601" lon="2.91241">
        <ele>94</ele>
        <time>2020-02-04T11:58:14.223Z</time>
      </trkpt>
      <trkpt lat="42.52597" lon="2.91273">
        <ele>91</ele>
        <time>2020-02-04T11:58:27.061Z</time>
      </trkpt>
      <trkpt lat="42.52576" lon="2.91292">
        <ele>92</ele>
        <time>2020-02-04T11:58:39.903Z</time>
      </trkpt>
      <trkpt lat="42.52573" lon="2.91352">
        <ele>92</ele>
        <time>2020-02-04T11:58:52.752Z</time>
      </trkpt>
      <trkpt lat="42.52575" lon="2.914">
        <ele>93</ele>
        <time>2020-02-04T11:59:05.606Z</time>
      </trkpt>
      <trkpt lat="42.52575" lon="2.914">
        <ele>93</ele>
        <time>2020-02-04T11:59:18.460Z</time>
      </trkpt>
      <trkpt lat="42.52576" lon="2.91422">
        <ele>94</ele>
        <time>2020-02-04T11:59:31.317Z</time>
      </trkpt>
      <trkpt lat="42.52575" lon="2.91462">
        <ele>93</ele>
        <time>2020-02-04T11:59:44.179Z</time>
      </trkpt>
      <trkpt lat="42.52508" lon="2.91619">
        <ele>94</ele>
        <time>2020-02-04T11:59:57.062Z</time>
      </trkpt>
      <trkpt lat="42.52508" lon="2.91619">
        <ele>94</ele>
        <time>2020-02-04T12:00:09.945Z</time>
      </trkpt>
      <trkpt lat="42.525" lon="2.9165">
        <ele>94</ele>
        <time>2020-02-04T12:00:22.832Z</time>
      </trkpt>
      <trkpt lat="42.52481" lon="2.91726">
        <ele>97</ele>
        <time>2020-02-04T12:00:35.729Z</time>
      </trkpt>
      <trkpt lat="42.52471" lon="2.91763">
        <ele>98</ele>
        <time>2020-02-04T12:00:48.630Z</time>
      </trkpt>
      <trkpt lat="42.52466" lon="2.91786">
        <ele>98</ele>
        <time>2020-02-04T12:01:01.534Z</time>
      </trkpt>
      <trkpt lat="42.52456" lon="2.91842">
        <ele>99</ele>
        <time>2020-02-04T12:01:14.445Z</time>
      </trkpt>
      <trkpt lat="42.52462" lon="2.91918">
        <ele>100</ele>
        <time>2020-02-04T12:01:27.365Z</time>
      </trkpt>
      <trkpt lat="42.52467" lon="2.91951">
        <ele>100</ele>
        <time>2020-02-04T12:01:40.289Z</time>
      </trkpt>
      <trkpt lat="42.52473" lon="2.91995">
        <ele>100</ele>
        <time>2020-02-04T12:01:53.218Z</time>
      </trkpt>
      <trkpt lat="42.52478" lon="2.92032">
        <ele>100</ele>
        <time>2020-02-04T12:02:06.152Z</time>
      </trkpt>
      <trkpt lat="42.52489" lon="2.9214">
        <ele>100</ele>
        <time>2020-02-04T12:02:19.099Z</time>
      </trkpt>
      <trkpt lat="42.52489" lon="2.92187">
        <ele>101</ele>
        <time>2020-02-04T12:02:32.051Z</time>
      </trkpt>
      <trkpt lat="42.52488" lon="2.92245">
        <ele>102</ele>
        <time>2020-02-04T12:02:45.010Z</time>
      </trkpt>
      <trkpt lat="42.52463" lon="2.92343">
        <ele>104</ele>
        <time>2020-02-04T12:02:57.981Z</time>
      </trkpt>
      <trkpt lat="42.52465" lon="2.92378">
        <ele>105</ele>
        <time>2020-02-04T12:03:10.956Z</time>
      </trkpt>
      <trkpt lat="42.52471" lon="2.92425">
        <ele>105</ele>
        <time>2020-02-04T12:03:23.937Z</time>
      </trkpt>
      <trkpt lat="42.52476" lon="2.92474">
        <ele>105</ele>
        <time>2020-02-04T12:03:36.924Z</time>
      </trkpt>
      <trkpt lat="42.5248" lon="2.92539">
        <ele>106</ele>
        <time>2020-02-04T12:03:49.919Z</time>
      </trkpt>
      <trkpt lat="42.52481" lon="2.92545">
        <ele>106</ele>
        <time>2020-02-04T12:04:02.914Z</time>
      </trkpt>
      <trkpt lat="42.52482" lon="2.92561">
        <ele>106</ele>
        <time>2020-02-04T12:04:15.911Z</time>
      </trkpt>
      <trkpt lat="42.52483" lon="2.92585">
        <ele>106</ele>
        <time>2020-02-04T12:04:28.911Z</time>
      </trkpt>
      <trkpt lat="42.52483" lon="2.92585">
        <ele>106</ele>
        <time>2020-02-04T12:04:41.911Z</time>
      </trkpt>
      <trkpt lat="42.52484" lon="2.92617">
        <ele>106</ele>
        <time>2020-02-04T12:04:54.915Z</time>
      </trkpt>
      <trkpt lat="42.52488" lon="2.92727">
        <ele>105</ele>
        <time>2020-02-04T12:05:07.932Z</time>
      </trkpt>
      <trkpt lat="42.52501" lon="2.92759">
        <ele>104</ele>
        <time>2020-02-04T12:05:20.953Z</time>
      </trkpt>
      <trkpt lat="42.52517" lon="2.92799">
        <ele>104</ele>
        <time>2020-02-04T12:05:33.980Z</time>
      </trkpt>
      <trkpt lat="42.52519" lon="2.92934">
        <ele>104</ele>
        <time>2020-02-04T12:05:47.022Z</time>
      </trkpt>
      <trkpt lat="42.52469" lon="2.93138">
        <ele>104</ele>
        <time>2020-02-04T12:06:00.090Z</time>
      </trkpt>
      <trkpt lat="42.52462" lon="2.93308">
        <ele>99</ele>
        <time>2020-02-04T12:06:13.178Z</time>
      </trkpt>
      <trkpt lat="42.52458" lon="2.93309">
        <ele>98</ele>
        <time>2020-02-04T12:06:26.267Z</time>
      </trkpt>
      <trkpt lat="42.52435" lon="2.93307">
        <ele>98</ele>
        <time>2020-02-04T12:06:39.359Z</time>
      </trkpt>
      <trkpt lat="42.52405" lon="2.9331">
        <ele>98</ele>
        <time>2020-02-04T12:06:52.456Z</time>
      </trkpt>
      <trkpt lat="42.52371" lon="2.93325">
        <ele>97</ele>
        <time>2020-02-04T12:07:05.559Z</time>
      </trkpt>
      <trkpt lat="42.52297" lon="2.9338">
        <ele>98</ele>
        <time>2020-02-04T12:07:18.675Z</time>
      </trkpt>
      <trkpt lat="42.52301" lon="2.93435">
        <ele>101</ele>
        <time>2020-02-04T12:07:31.798Z</time>
      </trkpt>
      <trkpt lat="42.52301" lon="2.93435">
        <ele>101</ele>
        <time>2020-02-04T12:07:44.921Z</time>
      </trkpt>
      <trkpt lat="42.52298" lon="2.93463">
        <ele>101</ele>
        <time>2020-02-04T12:07:58.047Z</time>
      </trkpt>
      <trkpt lat="42.52293" lon="2.93509">
        <ele>101</ele>
        <time>2020-02-04T12:08:11.179Z</time>
      </trkpt>
      <trkpt lat="42.52292" lon="2.9353">
        <ele>102</ele>
        <time>2020-02-04T12:08:24.313Z</time>
      </trkpt>
      <trkpt lat="42.52285" lon="2.93599">
        <ele>102</ele>
        <time>2020-02-04T12:08:37.455Z</time>
      </trkpt>
      <trkpt lat="42.52355" lon="2.9368">
        <ele>100</ele>
        <time>2020-02-04T12:08:50.612Z</time>
      </trkpt>
      <trkpt lat="42.52373" lon="2.93715">
        <ele>100</ele>
        <time>2020-02-04T12:09:03.774Z</time>
      </trkpt>
      <trkpt lat="42.52388" lon="2.93772">
        <ele>101</ele>
        <time>2020-02-04T12:09:16.943Z</time>
      </trkpt>
      <trkpt lat="42.52391" lon="2.93787">
        <ele>102</ele>
        <time>2020-02-04T12:09:30.114Z</time>
      </trkpt>
      <trkpt lat="42.5242" lon="2.93904">
        <ele>101</ele>
        <time>2020-02-04T12:09:43.300Z</time>
      </trkpt>
      <trkpt lat="42.52445" lon="2.93951">
        <ele>99</ele>
        <time>2020-02-04T12:09:56.493Z</time>
      </trkpt>
      <trkpt lat="42.52445" lon="2.93951">
        <ele>99</ele>
        <time>2020-02-04T12:10:09.686Z</time>
      </trkpt>
      <trkpt lat="42.52503" lon="2.94054">
        <ele>93</ele>
        <time>2020-02-04T12:10:22.894Z</time>
      </trkpt>
      <trkpt lat="42.52499" lon="2.94072">
        <ele>93</ele>
        <time>2020-02-04T12:10:36.104Z</time>
      </trkpt>
      <trkpt lat="42.52507" lon="2.94082">
        <ele>92</ele>
        <time>2020-02-04T12:10:49.316Z</time>
      </trkpt>
      <trkpt lat="42.52517" lon="2.94079">
        <ele>92</ele>
        <time>2020-02-04T12:11:02.530Z</time>
      </trkpt>
      <trkpt lat="42.52602" lon="2.94229">
        <ele>86</ele>
        <time>2020-02-04T12:11:15.766Z</time>
      </trkpt>
      <trkpt lat="42.52602" lon="2.94229">
        <ele>86</ele>
        <time>2020-02-04T12:11:29.002Z</time>
      </trkpt>
      <trkpt lat="42.52618" lon="2.94258">
        <ele>84</ele>
        <time>2020-02-04T12:11:42.242Z</time>
      </trkpt>
      <trkpt lat="42.52618" lon="2.94258">
        <ele>84</ele>
        <time>2020-02-04T12:11:55.482Z</time>
      </trkpt>
      <trkpt lat="42.52839" lon="2.94654">
        <ele>86</ele>
        <time>2020-02-04T12:12:08.781Z</time>
      </trkpt>
      <trkpt lat="42.52839" lon="2.94654">
        <ele>86</ele>
        <time>2020-02-04T12:12:22.080Z</time>
      </trkpt>
      <trkpt lat="42.52839" lon="2.94655">
        <ele>86</ele>
        <time>2020-02-04T12:12:35.379Z</time>
      </trkpt>
      <trkpt lat="42.52839" lon="2.94654">
        <ele>86</ele>
        <time>2020-02-04T12:12:48.678Z</time>
      </trkpt>
      <trkpt lat="42.52839" lon="2.94654">
        <ele>86</ele>
        <time>2020-02-04T12:13:01.977Z</time>
      </trkpt>
      <trkpt lat="42.52909" lon="2.9478">
        <ele>84</ele>
        <time>2020-02-04T12:13:15.295Z</time>
      </trkpt>
      <trkpt lat="42.52918" lon="2.9481">
        <ele>84</ele>
        <time>2020-02-04T12:13:28.616Z</time>
      </trkpt>
      <trkpt lat="42.52948" lon="2.94849">
        <ele>85</ele>
        <time>2020-02-04T12:13:41.944Z</time>
      </trkpt>
      <trkpt lat="42.53043" lon="2.95017">
        <ele>84</ele>
        <time>2020-02-04T12:13:55.297Z</time>
      </trkpt>
      <trkpt lat="42.53059" lon="2.95054">
        <ele>84</ele>
        <time>2020-02-04T12:14:08.655Z</time>
      </trkpt>
      <trkpt lat="42.53064" lon="2.95084">
        <ele>84</ele>
        <time>2020-02-04T12:14:22.017Z</time>
      </trkpt>
      <trkpt lat="42.53071" lon="2.9508">
        <ele>84</ele>
        <time>2020-02-04T12:14:35.380Z</time>
      </trkpt>
      <trkpt lat="42.53125" lon="2.95071">
        <ele>83</ele>
        <time>2020-02-04T12:14:48.752Z</time>
      </trkpt>
      <trkpt lat="42.53176" lon="2.95048">
        <ele>81</ele>
        <time>2020-02-04T12:15:02.132Z</time>
      </trkpt>
      <trkpt lat="42.53261" lon="2.95239">
        <ele>80</ele>
        <time>2020-02-04T12:15:15.539Z</time>
      </trkpt>
      <trkpt lat="42.53254" lon="2.95245">
        <ele>80</ele>
        <time>2020-02-04T12:15:28.947Z</time>
      </trkpt>
      <trkpt lat="42.53263" lon="2.95265">
        <ele>79</ele>
        <time>2020-02-04T12:15:42.358Z</time>
      </trkpt>
      <trkpt lat="42.53263" lon="2.95265">
        <ele>79</ele>
        <time>2020-02-04T12:15:55.769Z</time>
      </trkpt>
      <trkpt lat="42.53254" lon="2.95457">
        <ele>79</ele>
        <time>2020-02-04T12:16:09.202Z</time>
      </trkpt>
      <trkpt lat="42.53256" lon="2.95479">
        <ele>79</ele>
        <time>2020-02-04T12:16:22.638Z</time>
      </trkpt>
      <trkpt lat="42.53265" lon="2.95492">
        <ele>78</ele>
        <time>2020-02-04T12:16:36.076Z</time>
      </trkpt>
      <trkpt lat="42.53264" lon="2.95507">
        <ele>79</ele>
        <time>2020-02-04T12:16:49.516Z</time>
      </trkpt>
      <trkpt lat="42.53256" lon="2.95511">
        <ele>79</ele>
        <time>2020-02-04T12:17:02.957Z</time>
      </trkpt>
      <trkpt lat="42.53258" lon="2.95521">
        <ele>78</ele>
        <time>2020-02-04T12:17:16.400Z</time>
      </trkpt>
      <trkpt lat="42.53241" lon="2.95535">
        <ele>76</ele>
        <time>2020-02-04T12:17:29.846Z</time>
      </trkpt>
      <trkpt lat="42.53206" lon="2.95541">
        <ele>75</ele>
        <time>2020-02-04T12:17:43.297Z</time>
      </trkpt>
      <trkpt lat="42.53185" lon="2.9555">
        <ele>74</ele>
        <time>2020-02-04T12:17:56.752Z</time>
      </trkpt>
      <trkpt lat="42.53156" lon="2.95562">
        <ele>73</ele>
        <time>2020-02-04T12:18:10.212Z</time>
      </trkpt>
      <trkpt lat="42.53147" lon="2.95564">
        <ele>72</ele>
        <time>2020-02-04T12:18:23.673Z</time>
      </trkpt>
      <trkpt lat="42.5306" lon="2.95576">
        <ele>75</ele>
        <time>2020-02-04T12:18:37.148Z</time>
      </trkpt>
      <trkpt lat="42.53036" lon="2.956">
        <ele>76</ele>
        <time>2020-02-04T12:18:50.628Z</time>
      </trkpt>
      <trkpt lat="42.53048" lon="2.95655">
        <ele>76</ele>
        <time>2020-02-04T12:19:04.115Z</time>
      </trkpt>
      <trkpt lat="42.53051" lon="2.95666">
        <ele>76</ele>
        <time>2020-02-04T12:19:17.603Z</time>
      </trkpt>
      <trkpt lat="42.53052" lon="2.95689">
        <ele>77</ele>
        <time>2020-02-04T12:19:31.094Z</time>
      </trkpt>
      <trkpt lat="42.53048" lon="2.95728">
        <ele>79</ele>
        <time>2020-02-04T12:19:44.590Z</time>
      </trkpt>
      <trkpt lat="42.53042" lon="2.95826">
        <ele>81</ele>
        <time>2020-02-04T12:19:58.097Z</time>
      </trkpt>
      <trkpt lat="42.53047" lon="2.95875">
        <ele>80</ele>
        <time>2020-02-04T12:20:11.610Z</time>
      </trkpt>
      <trkpt lat="42.53101" lon="2.96008">
        <ele>77</ele>
        <time>2020-02-04T12:20:25.141Z</time>
      </trkpt>
      <trkpt lat="42.5312" lon="2.96057">
        <ele>77</ele>
        <time>2020-02-04T12:20:38.679Z</time>
      </trkpt>
      <trkpt lat="42.53138" lon="2.96104">
        <ele>76</ele>
        <time>2020-02-04T12:20:52.223Z</time>
      </trkpt>
      <trkpt lat="42.53138" lon="2.96135">
        <ele>77</ele>
        <time>2020-02-04T12:21:05.770Z</time>
      </trkpt>
      <trkpt lat="42.53093" lon="2.96251">
        <ele>77</ele>
        <time>2020-02-04T12:21:19.333Z</time>
      </trkpt>
      <trkpt lat="42.53073" lon="2.96289">
        <ele>77</ele>
        <time>2020-02-04T12:21:32.901Z</time>
      </trkpt>
      <trkpt lat="42.53058" lon="2.96317">
        <ele>77</ele>
        <time>2020-02-04T12:21:46.474Z</time>
      </trkpt>
      <trkpt lat="42.53048" lon="2.96351">
        <ele>77</ele>
        <time>2020-02-04T12:22:00.051Z</time>
      </trkpt>
      <trkpt lat="42.5304" lon="2.96512">
        <ele>74</ele>
        <time>2020-02-04T12:22:13.647Z</time>
      </trkpt>
      <trkpt lat="42.53064" lon="2.96573">
        <ele>72</ele>
        <time>2020-02-04T12:22:27.251Z</time>
      </trkpt>
      <trkpt lat="42.53127" lon="2.96672">
        <ele>68</ele>
        <time>2020-02-04T12:22:40.871Z</time>
      </trkpt>
      <trkpt lat="42.53135" lon="2.96697">
        <ele>67</ele>
        <time>2020-02-04T12:22:54.494Z</time>
      </trkpt>
      <trkpt lat="42.53147" lon="2.96836">
        <ele>66</ele>
        <time>2020-02-04T12:23:08.134Z</time>
      </trkpt>
      <trkpt lat="42.53123" lon="2.96968">
        <ele>70</ele>
        <time>2020-02-04T12:23:21.790Z</time>
      </trkpt>
      <trkpt lat="42.53104" lon="2.97034">
        <ele>74</ele>
        <time>2020-02-04T12:23:35.454Z</time>
      </trkpt>
      <trkpt lat="42.53086" lon="2.97102">
        <ele>74</ele>
        <time>2020-02-04T12:23:49.126Z</time>
      </trkpt>
      <trkpt lat="42.53136" lon="2.97269">
        <ele>74</ele>
        <time>2020-02-04T12:24:02.820Z</time>
      </trkpt>
      <trkpt lat="42.53134" lon="2.97339">
        <ele>74</ele>
        <time>2020-02-04T12:24:16.522Z</time>
      </trkpt>
      <trkpt lat="42.53134" lon="2.97339">
        <ele>74</ele>
        <time>2020-02-04T12:24:30.224Z</time>
      </trkpt>
      <trkpt lat="42.53117" lon="2.97604">
        <ele>73</ele>
        <time>2020-02-04T12:24:43.958Z</time>
      </trkpt>
      <trkpt lat="42.53117" lon="2.97741">
        <ele>73</ele>
        <time>2020-02-04T12:24:57.708Z</time>
      </trkpt>
      <trkpt lat="42.53127" lon="2.97847">
        <ele>74</ele>
        <time>2020-02-04T12:25:11.470Z</time>
      </trkpt>
      <trkpt lat="42.53142" lon="2.97897">
        <ele>74</ele>
        <time>2020-02-04T12:25:25.239Z</time>
      </trkpt>
      <trkpt lat="42.53155" lon="2.97938">
        <ele>73</ele>
        <time>2020-02-04T12:25:39.013Z</time>
      </trkpt>
      <trkpt lat="42.53155" lon="2.97938">
        <ele>73</ele>
        <time>2020-02-04T12:25:52.787Z</time>
      </trkpt>
      <trkpt lat="42.53174" lon="2.98069">
        <ele>73</ele>
        <time>2020-02-04T12:26:06.577Z</time>
      </trkpt>
      <trkpt lat="42.53162" lon="2.98254">
        <ele>77</ele>
        <time>2020-02-04T12:26:20.389Z</time>
      </trkpt>
      <trkpt lat="42.53162" lon="2.98254">
        <ele>77</ele>
        <time>2020-02-04T12:26:34.201Z</time>
      </trkpt>
      <trkpt lat="42.53156" lon="2.98352">
        <ele>77</ele>
        <time>2020-02-04T12:26:48.024Z</time>
      </trkpt>
      <trkpt lat="42.53155" lon="2.98405">
        <ele>78</ele>
        <time>2020-02-04T12:27:01.854Z</time>
      </trkpt>
      <trkpt lat="42.53169" lon="2.9847">
        <ele>77</ele>
        <time>2020-02-04T12:27:15.692Z</time>
      </trkpt>
      <trkpt lat="42.53211" lon="2.9856">
        <ele>76</ele>
        <time>2020-02-04T12:27:29.542Z</time>
      </trkpt>
      <trkpt lat="42.53211" lon="2.9856">
        <ele>76</ele>
        <time>2020-02-04T12:27:43.392Z</time>
      </trkpt>
      <trkpt lat="42.53229" lon="2.98614">
        <ele>75</ele>
        <time>2020-02-04T12:27:57.249Z</time>
      </trkpt>
      <trkpt lat="42.53238" lon="2.98668">
        <ele>73</ele>
        <time>2020-02-04T12:28:11.113Z</time>
      </trkpt>
      <trkpt lat="42.53241" lon="2.98685">
        <ele>73</ele>
        <time>2020-02-04T12:28:24.979Z</time>
      </trkpt>
      <trkpt lat="42.53243" lon="2.98778">
        <ele>70</ele>
        <time>2020-02-04T12:28:38.856Z</time>
      </trkpt>
      <trkpt lat="42.53245" lon="2.98828">
        <ele>69</ele>
        <time>2020-02-04T12:28:52.739Z</time>
      </trkpt>
      <trkpt lat="42.53279" lon="2.98891">
        <ele>67</ele>
        <time>2020-02-04T12:29:06.631Z</time>
      </trkpt>
      <trkpt lat="42.53361" lon="2.98995">
        <ele>64</ele>
        <time>2020-02-04T12:29:20.541Z</time>
      </trkpt>
      <trkpt lat="42.53377" lon="2.99023">
        <ele>63</ele>
        <time>2020-02-04T12:29:34.455Z</time>
      </trkpt>
      <trkpt lat="42.53401" lon="2.99079">
        <ele>62</ele>
        <time>2020-02-04T12:29:48.377Z</time>
      </trkpt>
      <trkpt lat="42.53413" lon="2.9915">
        <ele>60</ele>
        <time>2020-02-04T12:30:02.308Z</time>
      </trkpt>
      <trkpt lat="42.53413" lon="2.9915">
        <ele>60</ele>
        <time>2020-02-04T12:30:16.239Z</time>
      </trkpt>
      <trkpt lat="42.53419" lon="2.99196">
        <ele>60</ele>
        <time>2020-02-04T12:30:30.175Z</time>
      </trkpt>
      <trkpt lat="42.53464" lon="2.99341">
        <ele>60</ele>
        <time>2020-02-04T12:30:44.130Z</time>
      </trkpt>
      <trkpt lat="42.53481" lon="2.99377">
        <ele>59</ele>
        <time>2020-02-04T12:30:58.090Z</time>
      </trkpt>
      <trkpt lat="42.53516" lon="2.99418">
        <ele>58</ele>
        <time>2020-02-04T12:31:12.057Z</time>
      </trkpt>
      <trkpt lat="42.53516" lon="2.99418">
        <ele>58</ele>
        <time>2020-02-04T12:31:26.024Z</time>
      </trkpt>
      <trkpt lat="42.53704" lon="2.99583">
        <ele>50</ele>
        <time>2020-02-04T12:31:40.027Z</time>
      </trkpt>
      <trkpt lat="42.53716" lon="2.99589">
        <ele>50</ele>
        <time>2020-02-04T12:31:54.032Z</time>
      </trkpt>
      <trkpt lat="42.53747" lon="2.99609">
        <ele>49</ele>
        <time>2020-02-04T12:32:08.043Z</time>
      </trkpt>
      <trkpt lat="42.53757" lon="2.99623">
        <ele>48</ele>
        <time>2020-02-04T12:32:22.056Z</time>
      </trkpt>
      <trkpt lat="42.53804" lon="2.99727">
        <ele>46</ele>
        <time>2020-02-04T12:32:36.083Z</time>
      </trkpt>
      <trkpt lat="42.53812" lon="2.99753">
        <ele>45</ele>
        <time>2020-02-04T12:32:50.114Z</time>
      </trkpt>
      <trkpt lat="42.53812" lon="2.99753">
        <ele>45</ele>
        <time>2020-02-04T12:33:04.145Z</time>
      </trkpt>
      <trkpt lat="42.5384" lon="2.99851">
        <ele>46</ele>
        <time>2020-02-04T12:33:18.188Z</time>
      </trkpt>
      <trkpt lat="42.53883" lon="2.99897">
        <ele>46</ele>
        <time>2020-02-04T12:33:32.240Z</time>
      </trkpt>
      <trkpt lat="42.53963" lon="2.99958">
        <ele>44</ele>
        <time>2020-02-04T12:33:46.307Z</time>
      </trkpt>
      <trkpt lat="42.5407" lon="3.00104">
        <ele>40</ele>
        <time>2020-02-04T12:34:00.398Z</time>
      </trkpt>
      <trkpt lat="42.54121" lon="3.00181">
        <ele>39</ele>
        <time>2020-02-04T12:34:14.501Z</time>
      </trkpt>
      <trkpt lat="42.54139" lon="3.00241">
        <ele>37</ele>
        <time>2020-02-04T12:34:28.612Z</time>
      </trkpt>
      <trkpt lat="42.54194" lon="3.00332">
        <ele>36</ele>
        <time>2020-02-04T12:34:42.737Z</time>
      </trkpt>
      <trkpt lat="42.54288" lon="3.00416">
        <ele>34</ele>
        <time>2020-02-04T12:34:56.880Z</time>
      </trkpt>
      <trkpt lat="42.5429" lon="3.00418">
        <ele>34</ele>
        <time>2020-02-04T12:35:11.023Z</time>
      </trkpt>
      <trkpt lat="42.54331" lon="3.00439">
        <ele>34</ele>
        <time>2020-02-04T12:35:25.173Z</time>
      </trkpt>
      <trkpt lat="42.54345" lon="3.00461">
        <ele>33</ele>
        <time>2020-02-04T12:35:39.326Z</time>
      </trkpt>
      <trkpt lat="42.54353" lon="3.00567">
        <ele>29</ele>
        <time>2020-02-04T12:35:53.492Z</time>
      </trkpt>
      <trkpt lat="42.54353" lon="3.00567">
        <ele>29</ele>
        <time>2020-02-04T12:36:07.658Z</time>
      </trkpt>
      <trkpt lat="42.54391" lon="3.00704">
        <ele>26</ele>
        <time>2020-02-04T12:36:21.841Z</time>
      </trkpt>
      <trkpt lat="42.54377" lon="3.008">
        <ele>24</ele>
        <time>2020-02-04T12:36:36.036Z</time>
      </trkpt>
      <trkpt lat="42.54381" lon="3.00818">
        <ele>24</ele>
        <time>2020-02-04T12:36:50.233Z</time>
      </trkpt>
      <trkpt lat="42.54381" lon="3.00818">
        <ele>24</ele>
        <time>2020-02-04T12:37:04.430Z</time>
      </trkpt>
      <trkpt lat="42.54381" lon="3.00818">
        <ele>24</ele>
        <time>2020-02-04T12:37:18.627Z</time>
      </trkpt>
      <trkpt lat="42.54381" lon="3.00818">
        <ele>24</ele>
        <time>2020-02-04T12:37:32.824Z</time>
      </trkpt>
      <trkpt lat="42.54381" lon="3.00818">
        <ele>24</ele>
        <time>2020-02-04T12:37:47.021Z</time>
      </trkpt>
      <trkpt lat="42.54387" lon="3.00845">
        <ele>24</ele>
        <time>2020-02-04T12:38:01.222Z</time>
      </trkpt>
      <trkpt lat="42.54395" lon="3.00877">
        <ele>23</ele>
        <time>2020-02-04T12:38:15.427Z</time>
      </trkpt>
      <trkpt lat="42.54405" lon="3.00907">
        <ele>22</ele>
        <time>2020-02-04T12:38:29.635Z</time>
      </trkpt>
      <trkpt lat="42.54405" lon="3.00918">
        <ele>22</ele>
        <time>2020-02-04T12:38:43.845Z</time>
      </trkpt>
      <trkpt lat="42.54408" lon="3.00944">
        <ele>22</ele>
        <time>2020-02-04T12:38:58.058Z</time>
      </trkpt>
      <trkpt lat="42.54445" lon="3.01064">
        <ele>22</ele>
        <time>2020-02-04T12:39:12.286Z</time>
      </trkpt>
      <trkpt lat="42.54471" lon="3.01121">
        <ele>23</ele>
        <time>2020-02-04T12:39:26.522Z</time>
      </trkpt>
      <trkpt lat="42.54482" lon="3.01154">
        <ele>23</ele>
        <time>2020-02-04T12:39:40.762Z</time>
      </trkpt>
      <trkpt lat="42.54487" lon="3.01219">
        <ele>23</ele>
        <time>2020-02-04T12:39:55.010Z</time>
      </trkpt>
      <trkpt lat="42.54492" lon="3.01318">
        <ele>22</ele>
        <time>2020-02-04T12:40:09.270Z</time>
      </trkpt>
      <trkpt lat="42.54502" lon="3.0137">
        <ele>21</ele>
        <time>2020-02-04T12:40:23.536Z</time>
      </trkpt>
      <trkpt lat="42.54502" lon="3.0137">
        <ele>21</ele>
        <time>2020-02-04T12:40:37.802Z</time>
      </trkpt>
      <trkpt lat="42.54506" lon="3.01389">
        <ele>20</ele>
        <time>2020-02-04T12:40:52.071Z</time>
      </trkpt>
      <trkpt lat="42.54526" lon="3.01493">
        <ele>16</ele>
        <time>2020-02-04T12:41:06.352Z</time>
      </trkpt>
      <trkpt lat="42.54517" lon="3.01539">
        <ele>14</ele>
        <time>2020-02-04T12:41:20.639Z</time>
      </trkpt>
      <trkpt lat="42.54491" lon="3.01582">
        <ele>14</ele>
        <time>2020-02-04T12:41:34.932Z</time>
      </trkpt>
      <trkpt lat="42.54483" lon="3.01617">
        <ele>14</ele>
        <time>2020-02-04T12:41:49.230Z</time>
      </trkpt>
      <trkpt lat="42.54485" lon="3.01686">
        <ele>14</ele>
        <time>2020-02-04T12:42:03.536Z</time>
      </trkpt>
      <trkpt lat="42.54486" lon="3.0174">
        <ele>15</ele>
        <time>2020-02-04T12:42:17.848Z</time>
      </trkpt>
      <trkpt lat="42.54486" lon="3.01747">
        <ele>15</ele>
        <time>2020-02-04T12:42:32.161Z</time>
      </trkpt>
      <trkpt lat="42.5449" lon="3.01815">
        <ele>14</ele>
        <time>2020-02-04T12:42:46.482Z</time>
      </trkpt>
      <trkpt lat="42.54516" lon="3.0192">
        <ele>13</ele>
        <time>2020-02-04T12:43:00.816Z</time>
      </trkpt>
      <trkpt lat="42.54441" lon="3.02042">
        <ele>13</ele>
        <time>2020-02-04T12:43:15.169Z</time>
      </trkpt>
      <trkpt lat="42.54434" lon="3.02063">
        <ele>12</ele>
        <time>2020-02-04T12:43:29.525Z</time>
      </trkpt>
      <trkpt lat="42.54485" lon="3.02117">
        <ele>14</ele>
        <time>2020-02-04T12:43:43.891Z</time>
      </trkpt>
      <trkpt lat="42.54485" lon="3.02117">
        <ele>14</ele>
        <time>2020-02-04T12:43:58.257Z</time>
      </trkpt>
      <trkpt lat="42.54486" lon="3.0212">
        <ele>14</ele>
        <time>2020-02-04T12:44:12.624Z</time>
      </trkpt>
      <trkpt lat="42.54505" lon="3.0215">
        <ele>15</ele>
        <time>2020-02-04T12:44:26.995Z</time>
      </trkpt>
      <trkpt lat="42.54511" lon="3.02158">
        <ele>15</ele>
        <time>2020-02-04T12:44:41.368Z</time>
      </trkpt>
      <trkpt lat="42.54512" lon="3.02166">
        <ele>15</ele>
        <time>2020-02-04T12:44:55.742Z</time>
      </trkpt>
      <trkpt lat="42.54512" lon="3.02171">
        <ele>16</ele>
        <time>2020-02-04T12:45:10.116Z</time>
      </trkpt>
      <trkpt lat="42.5449" lon="3.02194">
        <ele>16</ele>
        <time>2020-02-04T12:45:24.495Z</time>
      </trkpt>
      <trkpt lat="42.5449" lon="3.02194">
        <ele>16</ele>
        <time>2020-02-04T12:45:38.874Z</time>
      </trkpt>
      <trkpt lat="42.5448" lon="3.02202">
        <ele>16</ele>
        <time>2020-02-04T12:45:53.255Z</time>
      </trkpt>
      <trkpt lat="42.54437" lon="3.02195">
        <ele>15</ele>
        <time>2020-02-04T12:46:07.642Z</time>
      </trkpt>
      <trkpt lat="42.5443" lon="3.02204">
        <ele>15</ele>
        <time>2020-02-04T12:46:22.031Z</time>
      </trkpt>
      <trkpt lat="42.54397" lon="3.02266">
        <ele>13</ele>
        <time>2020-02-04T12:46:36.429Z</time>
      </trkpt>
      <trkpt lat="42.54391" lon="3.02274">
        <ele>13</ele>
        <time>2020-02-04T12:46:50.828Z</time>
      </trkpt>
      <trkpt lat="42.54372" lon="3.02298">
        <ele>11</ele>
        <time>2020-02-04T12:47:05.231Z</time>
      </trkpt>
      <trkpt lat="42.5437" lon="3.02325">
        <ele>11</ele>
        <time>2020-02-04T12:47:19.638Z</time>
      </trkpt>
      <trkpt lat="42.54382" lon="3.0234">
        <ele>11</ele>
        <time>2020-02-04T12:47:34.047Z</time>
      </trkpt>
      <trkpt lat="42.54433" lon="3.02449">
        <ele>11</ele>
        <time>2020-02-04T12:47:48.472Z</time>
      </trkpt>
      <trkpt lat="42.54422" lon="3.02466">
        <ele>11</ele>
        <time>2020-02-04T12:48:02.899Z</time>
      </trkpt>
      <trkpt lat="42.54422" lon="3.02466">
        <ele>11</ele>
        <time>2020-02-04T12:48:17.326Z</time>
      </trkpt>
      <trkpt lat="42.54398" lon="3.0251">
        <ele>11</ele>
        <time>2020-02-04T12:48:31.760Z</time>
      </trkpt>
      <trkpt lat="42.54395" lon="3.02535">
        <ele>12</ele>
        <time>2020-02-04T12:48:46.197Z</time>
      </trkpt>
      <trkpt lat="42.54385" lon="3.02543">
        <ele>12</ele>
        <time>2020-02-04T12:49:00.636Z</time>
      </trkpt>
      <trkpt lat="42.54389" lon="3.02559">
        <ele>12</ele>
        <time>2020-02-04T12:49:15.076Z</time>
      </trkpt>
      <trkpt lat="42.54403" lon="3.02554">
        <ele>12</ele>
        <time>2020-02-04T12:49:29.519Z</time>
      </trkpt>
      <trkpt lat="42.54427" lon="3.02577">
        <ele>12</ele>
        <time>2020-02-04T12:49:43.967Z</time>
      </trkpt>
      <trkpt lat="42.54565" lon="3.02963">
        <ele>7</ele>
        <time>2020-02-04T12:49:58.465Z</time>
      </trkpt>
      <trkpt lat="42.54555" lon="3.02975">
        <ele>8</ele>
        <time>2020-02-04T12:50:12.965Z</time>
      </trkpt>
      <trkpt lat="42.54555" lon="3.02975">
        <ele>8</ele>
        <time>2020-02-04T12:50:27.465Z</time>
      </trkpt>
      <trkpt lat="42.54564" lon="3.0299">
        <ele>8</ele>
        <time>2020-02-04T12:50:41.968Z</time>
      </trkpt>
      <trkpt lat="42.54575" lon="3.02983">
        <ele>8</ele>
        <time>2020-02-04T12:50:56.473Z</time>
      </trkpt>
      <trkpt lat="42.5458" lon="3.02998">
        <ele>8</ele>
        <time>2020-02-04T12:51:10.980Z</time>
      </trkpt>
      <trkpt lat="42.5458" lon="3.02998">
        <ele>8</ele>
        <time>2020-02-04T12:51:25.487Z</time>
      </trkpt>
      <trkpt lat="42.54624" lon="3.03126">
        <ele>8</ele>
        <time>2020-02-04T12:51:40.010Z</time>
      </trkpt>
      <trkpt lat="42.54624" lon="3.03126">
        <ele>8</ele>
        <time>2020-02-04T12:51:54.533Z</time>
      </trkpt>
      <trkpt lat="42.54709" lon="3.03371">
        <ele>7</ele>
        <time>2020-02-04T12:52:09.088Z</time>
      </trkpt>
      <trkpt lat="42.54703" lon="3.03376">
        <ele>7</ele>
        <time>2020-02-04T12:52:23.644Z</time>
      </trkpt>
      <trkpt lat="42.54702" lon="3.03389">
        <ele>6</ele>
        <time>2020-02-04T12:52:38.202Z</time>
      </trkpt>
      <trkpt lat="42.54718" lon="3.03395">
        <ele>6</ele>
        <time>2020-02-04T12:52:52.762Z</time>
      </trkpt>
      <trkpt lat="42.5473" lon="3.03429">
        <ele>6</ele>
        <time>2020-02-04T12:53:07.327Z</time>
      </trkpt>
      <trkpt lat="42.54769" lon="3.03549">
        <ele>6</ele>
        <time>2020-02-04T12:53:21.907Z</time>
      </trkpt>
      <trkpt lat="42.54769" lon="3.03549">
        <ele>6</ele>
        <time>2020-02-04T12:53:36.487Z</time>
      </trkpt>
      <trkpt lat="42.5487" lon="3.03838">
        <ele>3</ele>
        <time>2020-02-04T12:53:51.105Z</time>
      </trkpt>
      <trkpt lat="42.54893" lon="3.03904">
        <ele>4</ele>
        <time>2020-02-04T12:54:05.732Z</time>
      </trkpt>
      <trkpt lat="42.54893" lon="3.03904">
        <ele>4</ele>
        <time>2020-02-04T12:54:20.359Z</time>
      </trkpt>
      <trkpt lat="42.54893" lon="3.03946">
        <ele>4</ele>
        <time>2020-02-04T12:54:34.991Z</time>
      </trkpt>
      <trkpt lat="42.54915" lon="3.03963">
        <ele>4</ele>
        <time>2020-02-04T12:54:49.627Z</time>
      </trkpt>
      <trkpt lat="42.54915" lon="3.03963">
        <ele>4</ele>
        <time>2020-02-04T12:55:04.263Z</time>
      </trkpt>
      <trkpt lat="42.5493" lon="3.03999">
        <ele>3</ele>
        <time>2020-02-04T12:55:18.904Z</time>
      </trkpt>
      <trkpt lat="42.54939" lon="3.04017">
        <ele>3</ele>
        <time>2020-02-04T12:55:33.547Z</time>
      </trkpt>
      <trkpt lat="42.54967" lon="3.04095">
        <ele>3</ele>
        <time>2020-02-04T12:55:48.201Z</time>
      </trkpt>
      <trkpt lat="42.54984" lon="3.04121">
        <ele>3</ele>
        <time>2020-02-04T12:56:02.859Z</time>
      </trkpt>
      <trkpt lat="42.54987" lon="3.04151">
        <ele>2</ele>
        <time>2020-02-04T12:56:17.520Z</time>
      </trkpt>
      <trkpt lat="42.54996" lon="3.042">
        <ele>2</ele>
        <time>2020-02-04T12:56:32.187Z</time>
      </trkpt>
      <trkpt lat="42.55015" lon="3.04291">
        <ele>2</ele>
        <time>2020-02-04T12:56:46.865Z</time>
      </trkpt>
      <trkpt lat="42.55015" lon="3.04291">
        <ele>2</ele>
        <time>2020-02-04T12:57:01.543Z</time>
      </trkpt>
      <trkpt lat="42.55021" lon="3.04324">
        <ele>3</ele>
        <time>2020-02-04T12:57:16.225Z</time>
      </trkpt>
      <trkpt lat="42.55041" lon="3.04421">
        <ele>3</ele>
        <time>2020-02-04T12:57:30.919Z</time>
      </trkpt>
      <trkpt lat="42.55043" lon="3.0443">
        <ele>4</ele>
        <time>2020-02-04T12:57:45.614Z</time>
      </trkpt>
      <trkpt lat="42.55045" lon="3.0444">
        <ele>4</ele>
        <time>2020-02-04T12:58:00.311Z</time>
      </trkpt>
      <trkpt lat="42.55053" lon="3.04476">
        <ele>5</ele>
        <time>2020-02-04T12:58:15.012Z</time>
      </trkpt>
      <trkpt lat="42.55053" lon="3.04476">
        <ele>5</ele>
        <time>2020-02-04T12:58:29.713Z</time>
      </trkpt>
      <trkpt lat="42.55054" lon="3.04482">
        <ele>5</ele>
        <time>2020-02-04T12:58:44.415Z</time>
      </trkpt>
      <trkpt lat="42.55083" lon="3.04623">
        <ele>4</ele>
        <time>2020-02-04T12:58:59.134Z</time>
      </trkpt>
      <trkpt lat="42.55084" lon="3.04629">
        <ele>4</ele>
        <time>2020-02-04T12:59:13.854Z</time>
      </trkpt>
      <trkpt lat="42.55084" lon="3.04629">
        <ele>4</ele>
        <time>2020-02-04T12:59:28.574Z</time>
      </trkpt>
      <trkpt lat="42.55085" lon="3.04629">
        <ele>4</ele>
        <time>2020-02-04T12:59:43.294Z</time>
      </trkpt>
      <trkpt lat="42.55085" lon="3.0463">
        <ele>4</ele>
        <time>2020-02-04T12:59:58.014Z</time>
      </trkpt>
      <trkpt lat="42.55085" lon="3.0463">
        <ele>4</ele>
        <time>2020-02-04T13:00:12.734Z</time>
      </trkpt>
      <trkpt lat="42.5509" lon="3.04654">
        <ele>5</ele>
        <time>2020-02-04T13:00:27.457Z</time>
      </trkpt>
      <trkpt lat="42.55082" lon="3.0467">
        <ele>5</ele>
        <time>2020-02-04T13:00:42.182Z</time>
      </trkpt>
      <trkpt lat="42.55031" lon="3.04692">
        <ele>4</ele>
        <time>2020-02-04T13:00:56.916Z</time>
      </trkpt>
      <trkpt lat="42.54985" lon="3.047">
        <ele>4</ele>
        <time>2020-02-04T13:01:11.657Z</time>
      </trkpt>
      <trkpt lat="42.54985" lon="3.047">
        <ele>4</ele>
        <time>2020-02-04T13:01:26.398Z</time>
      </trkpt>
      <trkpt lat="42.54944" lon="3.04712">
        <ele>4</ele>
        <time>2020-02-04T13:01:41.146Z</time>
      </trkpt>
      <trkpt lat="42.5493" lon="3.04715">
        <ele>4</ele>
        <time>2020-02-04T13:01:55.896Z</time>
      </trkpt>
      <trkpt lat="42.54877" lon="3.04726">
        <ele>5</ele>
        <time>2020-02-04T13:02:10.655Z</time>
      </trkpt>
      <trkpt lat="42.54823" lon="3.04739">
        <ele>4</ele>
        <time>2020-02-04T13:02:25.423Z</time>
      </trkpt>
      <trkpt lat="42.54769" lon="3.0475">
        <ele>3</ele>
        <time>2020-02-04T13:02:40.199Z</time>
      </trkpt>
      <trkpt lat="42.54763" lon="3.04738">
        <ele>3</ele>
        <time>2020-02-04T13:02:54.977Z</time>
      </trkpt>
      <trkpt lat="42.54755" lon="3.04737">
        <ele>3</ele>
        <time>2020-02-04T13:03:09.756Z</time>
      </trkpt>
      <trkpt lat="42.54748" lon="3.04744">
        <ele>3</ele>
        <time>2020-02-04T13:03:24.537Z</time>
      </trkpt>
      <trkpt lat="42.54747" lon="3.04755">
        <ele>3</ele>
        <time>2020-02-04T13:03:39.319Z</time>
      </trkpt>
      <trkpt lat="42.54696" lon="3.04768">
        <ele>3</ele>
        <time>2020-02-04T13:03:54.109Z</time>
      </trkpt>
      <trkpt lat="42.54645" lon="3.0479">
        <ele>4</ele>
        <time>2020-02-04T13:04:08.908Z</time>
      </trkpt>
      <trkpt lat="42.54641" lon="3.04792">
        <ele>4</ele>
        <time>2020-02-04T13:04:23.707Z</time>
      </trkpt>
      <trkpt lat="42.54641" lon="3.04792">
        <ele>4</ele>
        <time>2020-02-04T13:04:38.507Z</time>
      </trkpt>
      <trkpt lat="42.54556" lon="3.04852">
        <ele>3</ele>
        <time>2020-02-04T13:04:53.322Z</time>
      </trkpt>
      <trkpt lat="42.54524" lon="3.04875">
        <ele>2</ele>
        <time>2020-02-04T13:05:08.143Z</time>
      </trkpt>
      <trkpt lat="42.54503" lon="3.04908">
        <ele>3</ele>
        <time>2020-02-04T13:05:22.969Z</time>
      </trkpt>
      <trkpt lat="42.54476" lon="3.04936">
        <ele>2</ele>
        <time>2020-02-04T13:05:37.800Z</time>
      </trkpt>
      <trkpt lat="42.54426" lon="3.04958">
        <ele>2</ele>
        <time>2020-02-04T13:05:52.640Z</time>
      </trkpt>
      <trkpt lat="42.54367" lon="3.04956">
        <ele>2</ele>
        <time>2020-02-04T13:06:07.489Z</time>
      </trkpt>
      <trkpt lat="42.54353" lon="3.04944">
        <ele>2</ele>
        <time>2020-02-04T13:06:22.341Z</time>
      </trkpt>
      <trkpt lat="42.5435" lon="3.04921">
        <ele>2</ele>
        <time>2020-02-04T13:06:37.195Z</time>
      </trkpt>
      <trkpt lat="42.54339" lon="3.04918">
        <ele>2</ele>
        <time>2020-02-04T13:06:52.051Z</time>
      </trkpt>
      <trkpt lat="42.54332" lon="3.04924">
        <ele>2</ele>
        <time>2020-02-04T13:07:06.909Z</time>
      </trkpt>
      <trkpt lat="42.54315" lon="3.04896">
        <ele>3</ele>
        <time>2020-02-04T13:07:21.771Z</time>
      </trkpt>
      <trkpt lat="42.54288" lon="3.04816">
        <ele>4</ele>
        <time>2020-02-04T13:07:36.643Z</time>
      </trkpt>
      <trkpt lat="42.54288" lon="3.04816">
        <ele>4</ele>
        <time>2020-02-04T13:07:51.515Z</time>
      </trkpt>
      <trkpt lat="42.54247" lon="3.04696">
        <ele>3</ele>
        <time>2020-02-04T13:08:06.403Z</time>
      </trkpt>
      <trkpt lat="42.54242" lon="3.04692">
        <ele>2</ele>
        <time>2020-02-04T13:08:21.292Z</time>
      </trkpt>
      <trkpt lat="42.54171" lon="3.04655">
        <ele>2</ele>
        <time>2020-02-04T13:08:36.193Z</time>
      </trkpt>
      <trkpt lat="42.54134" lon="3.04634">
        <ele>3</ele>
        <time>2020-02-04T13:08:51.100Z</time>
      </trkpt>
      <trkpt lat="42.54127" lon="3.04614">
        <ele>2</ele>
        <time>2020-02-04T13:09:06.010Z</time>
      </trkpt>
      <trkpt lat="42.54121" lon="3.04612">
        <ele>3</ele>
        <time>2020-02-04T13:09:20.921Z</time>
      </trkpt>
      <trkpt lat="42.5411" lon="3.04622">
        <ele>3</ele>
        <time>2020-02-04T13:09:35.834Z</time>
      </trkpt>
      <trkpt lat="42.54109" lon="3.04633">
        <ele>3</ele>
        <time>2020-02-04T13:09:50.749Z</time>
      </trkpt>
      <trkpt lat="42.54019" lon="3.04689">
        <ele>4</ele>
        <time>2020-02-04T13:10:05.679Z</time>
      </trkpt>
      <trkpt lat="42.53992" lon="3.04706">
        <ele>4</ele>
        <time>2020-02-04T13:10:20.614Z</time>
      </trkpt>
      <trkpt lat="42.53933" lon="3.04742">
        <ele>3</ele>
        <time>2020-02-04T13:10:35.560Z</time>
      </trkpt>
      <trkpt lat="42.53923" lon="3.04746">
        <ele>3</ele>
        <time>2020-02-04T13:10:50.507Z</time>
      </trkpt>
      <trkpt lat="42.53838" lon="3.04696">
        <ele>3</ele>
        <time>2020-02-04T13:11:05.469Z</time>
      </trkpt>
      <trkpt lat="42.53831" lon="3.04703">
        <ele>3</ele>
        <time>2020-02-04T13:11:20.432Z</time>
      </trkpt>
      <trkpt lat="42.53815" lon="3.04762">
        <ele>4</ele>
        <time>2020-02-04T13:11:35.403Z</time>
      </trkpt>
      <trkpt lat="42.53815" lon="3.04762">
        <ele>4</ele>
        <time>2020-02-04T13:11:50.374Z</time>
      </trkpt>
      <trkpt lat="42.53753" lon="3.04974">
        <ele>6</ele>
        <time>2020-02-04T13:12:05.372Z</time>
      </trkpt>
      <trkpt lat="42.53742" lon="3.04981">
        <ele>6</ele>
        <time>2020-02-04T13:12:20.372Z</time>
      </trkpt>
      <trkpt lat="42.53673" lon="3.04895">
        <ele>5</ele>
        <time>2020-02-04T13:12:35.387Z</time>
      </trkpt>
      <trkpt lat="42.53646" lon="3.04871">
        <ele>6</ele>
        <time>2020-02-04T13:12:50.407Z</time>
      </trkpt>
      <trkpt lat="42.53567" lon="3.04786">
        <ele>10</ele>
        <time>2020-02-04T13:13:05.443Z</time>
      </trkpt>
      <trkpt lat="42.5355" lon="3.04829">
        <ele>12</ele>
        <time>2020-02-04T13:13:20.485Z</time>
      </trkpt>
      <trkpt lat="42.53523" lon="3.0496">
        <ele>14</ele>
        <time>2020-02-04T13:13:35.543Z</time>
      </trkpt>
      <trkpt lat="42.53356" lon="3.0521">
        <ele>22</ele>
        <time>2020-02-04T13:13:50.641Z</time>
      </trkpt>
      <trkpt lat="42.53307" lon="3.0528">
        <ele>23</ele>
        <time>2020-02-04T13:14:05.750Z</time>
      </trkpt>
      <trkpt lat="42.53307" lon="3.0528">
        <ele>23</ele>
        <time>2020-02-04T13:14:20.859Z</time>
      </trkpt>
      <trkpt lat="42.53302" lon="3.05287">
        <ele>24</ele>
        <time>2020-02-04T13:14:35.969Z</time>
      </trkpt>
      <trkpt lat="42.53267" lon="3.05358">
        <ele>25</ele>
        <time>2020-02-04T13:14:51.089Z</time>
      </trkpt>
      <trkpt lat="42.53265" lon="3.05363">
        <ele>25</ele>
        <time>2020-02-04T13:15:06.210Z</time>
      </trkpt>
      <trkpt lat="42.53258" lon="3.05383">
        <ele>26</ele>
        <time>2020-02-04T13:15:21.334Z</time>
      </trkpt>
      <trkpt lat="42.5323" lon="3.05461">
        <ele>29</ele>
        <time>2020-02-04T13:15:36.468Z</time>
      </trkpt>
      <trkpt lat="42.53215" lon="3.05473">
        <ele>31</ele>
        <time>2020-02-04T13:15:51.605Z</time>
      </trkpt>
      <trkpt lat="42.5319" lon="3.05468">
        <ele>32</ele>
        <time>2020-02-04T13:16:06.746Z</time>
      </trkpt>
      <trkpt lat="42.53177" lon="3.05457">
        <ele>33</ele>
        <time>2020-02-04T13:16:21.889Z</time>
      </trkpt>
      <trkpt lat="42.53156" lon="3.05461">
        <ele>34</ele>
        <time>2020-02-04T13:16:37.036Z</time>
      </trkpt>
      <trkpt lat="42.53144" lon="3.05483">
        <ele>35</ele>
        <time>2020-02-04T13:16:52.186Z</time>
      </trkpt>
      <trkpt lat="42.53143" lon="3.05498">
        <ele>35</ele>
        <time>2020-02-04T13:17:07.338Z</time>
      </trkpt>
      <trkpt lat="42.53156" lon="3.05523">
        <ele>35</ele>
        <time>2020-02-04T13:17:22.493Z</time>
      </trkpt>
      <trkpt lat="42.53166" lon="3.05528">
        <ele>35</ele>
        <time>2020-02-04T13:17:37.650Z</time>
      </trkpt>
      <trkpt lat="42.53173" lon="3.05542">
        <ele>35</ele>
        <time>2020-02-04T13:17:52.809Z</time>
      </trkpt>
      <trkpt lat="42.5318" lon="3.05591">
        <ele>37</ele>
        <time>2020-02-04T13:18:07.974Z</time>
      </trkpt>
      <trkpt lat="42.53193" lon="3.05646">
        <ele>40</ele>
        <time>2020-02-04T13:18:23.146Z</time>
      </trkpt>
      <trkpt lat="42.53231" lon="3.05722">
        <ele>41</ele>
        <time>2020-02-04T13:18:38.329Z</time>
      </trkpt>
      <trkpt lat="42.53304" lon="3.05844">
        <ele>35</ele>
        <time>2020-02-04T13:18:53.530Z</time>
      </trkpt>
      <trkpt lat="42.53304" lon="3.05844">
        <ele>35</ele>
        <time>2020-02-04T13:19:08.731Z</time>
      </trkpt>
      <trkpt lat="42.53343" lon="3.05929">
        <ele>32</ele>
        <time>2020-02-04T13:19:23.944Z</time>
      </trkpt>
      <trkpt lat="42.53356" lon="3.05967">
        <ele>29</ele>
        <time>2020-02-04T13:19:39.162Z</time>
      </trkpt>
      <trkpt lat="42.53356" lon="3.05967">
        <ele>29</ele>
        <time>2020-02-04T13:19:54.380Z</time>
      </trkpt>
      <trkpt lat="42.53414" lon="3.06168">
        <ele>26</ele>
        <time>2020-02-04T13:20:09.623Z</time>
      </trkpt>
      <trkpt lat="42.53426" lon="3.06226">
        <ele>25</ele>
        <time>2020-02-04T13:20:24.873Z</time>
      </trkpt>
      <trkpt lat="42.53441" lon="3.06272">
        <ele>22</ele>
        <time>2020-02-04T13:20:40.129Z</time>
      </trkpt>
      <trkpt lat="42.53445" lon="3.06327">
        <ele>19</ele>
        <time>2020-02-04T13:20:55.392Z</time>
      </trkpt>
      <trkpt lat="42.53428" lon="3.0645">
        <ele>15</ele>
        <time>2020-02-04T13:21:10.670Z</time>
      </trkpt>
      <trkpt lat="42.53393" lon="3.06583">
        <ele>13</ele>
        <time>2020-02-04T13:21:25.965Z</time>
      </trkpt>
      <trkpt lat="42.53388" lon="3.066">
        <ele>12</ele>
        <time>2020-02-04T13:21:41.262Z</time>
      </trkpt>
      <trkpt lat="42.53344" lon="3.06699">
        <ele>10</ele>
        <time>2020-02-04T13:21:56.572Z</time>
      </trkpt>
      <trkpt lat="42.53327" lon="3.06713">
        <ele>11</ele>
        <time>2020-02-04T13:22:11.885Z</time>
      </trkpt>
      <trkpt lat="42.53327" lon="3.06713">
        <ele>11</ele>
        <time>2020-02-04T13:22:27.198Z</time>
      </trkpt>
      <trkpt lat="42.53295" lon="3.06721">
        <ele>15</ele>
        <time>2020-02-04T13:22:42.517Z</time>
      </trkpt>
      <trkpt lat="42.53256" lon="3.06726">
        <ele>16</ele>
        <time>2020-02-04T13:22:57.842Z</time>
      </trkpt>
      <trkpt lat="42.53198" lon="3.06711">
        <ele>17</ele>
        <time>2020-02-04T13:23:13.176Z</time>
      </trkpt>
      <trkpt lat="42.53173" lon="3.06734">
        <ele>19</ele>
        <time>2020-02-04T13:23:28.515Z</time>
      </trkpt>
      <trkpt lat="42.53169" lon="3.06764">
        <ele>20</ele>
        <time>2020-02-04T13:23:43.858Z</time>
      </trkpt>
      <trkpt lat="42.53202" lon="3.06846">
        <ele>21</ele>
        <time>2020-02-04T13:23:59.212Z</time>
      </trkpt>
      <trkpt lat="42.53205" lon="3.06875">
        <ele>20</ele>
        <time>2020-02-04T13:24:14.569Z</time>
      </trkpt>
      <trkpt lat="42.53198" lon="3.06904">
        <ele>20</ele>
        <time>2020-02-04T13:24:29.930Z</time>
      </trkpt>
      <trkpt lat="42.53169" lon="3.06941">
        <ele>22</ele>
        <time>2020-02-04T13:24:45.297Z</time>
      </trkpt>
      <trkpt lat="42.53128" lon="3.06943">
        <ele>25</ele>
        <time>2020-02-04T13:25:00.671Z</time>
      </trkpt>
      <trkpt lat="42.53077" lon="3.06919">
        <ele>31</ele>
        <time>2020-02-04T13:25:16.054Z</time>
      </trkpt>
      <trkpt lat="42.53031" lon="3.06893">
        <ele>37</ele>
        <time>2020-02-04T13:25:31.445Z</time>
      </trkpt>
      <trkpt lat="42.52995" lon="3.06888">
        <ele>39</ele>
        <time>2020-02-04T13:25:46.841Z</time>
      </trkpt>
      <trkpt lat="42.52985" lon="3.06897">
        <ele>39</ele>
        <time>2020-02-04T13:26:02.239Z</time>
      </trkpt>
      <trkpt lat="42.52978" lon="3.06919">
        <ele>38</ele>
        <time>2020-02-04T13:26:17.640Z</time>
      </trkpt>
      <trkpt lat="42.52981" lon="3.06991">
        <ele>32</ele>
        <time>2020-02-04T13:26:33.049Z</time>
      </trkpt>
      <trkpt lat="42.52981" lon="3.06991">
        <ele>32</ele>
        <time>2020-02-04T13:26:48.458Z</time>
      </trkpt>
      <trkpt lat="42.52965" lon="3.07038">
        <ele>36</ele>
        <time>2020-02-04T13:27:03.874Z</time>
      </trkpt>
      <trkpt lat="42.52905" lon="3.07089">
        <ele>41</ele>
        <time>2020-02-04T13:27:19.301Z</time>
      </trkpt>
      <trkpt lat="42.52895" lon="3.07127">
        <ele>44</ele>
        <time>2020-02-04T13:27:34.733Z</time>
      </trkpt>
      <trkpt lat="42.52901" lon="3.07168">
        <ele>43</ele>
        <time>2020-02-04T13:27:50.170Z</time>
      </trkpt>
      <trkpt lat="42.52917" lon="3.07189">
        <ele>40</ele>
        <time>2020-02-04T13:28:05.610Z</time>
      </trkpt>
      <trkpt lat="42.52929" lon="3.07192">
        <ele>41</ele>
        <time>2020-02-04T13:28:21.052Z</time>
      </trkpt>
      <trkpt lat="42.53011" lon="3.07165">
        <ele>35</ele>
        <time>2020-02-04T13:28:36.508Z</time>
      </trkpt>
      <trkpt lat="42.53035" lon="3.07175">
        <ele>33</ele>
        <time>2020-02-04T13:28:51.968Z</time>
      </trkpt>
      <trkpt lat="42.53035" lon="3.07175">
        <ele>33</ele>
        <time>2020-02-04T13:29:07.428Z</time>
      </trkpt>
      <trkpt lat="42.53056" lon="3.07216">
        <ele>33</ele>
        <time>2020-02-04T13:29:22.894Z</time>
      </trkpt>
      <trkpt lat="42.53065" lon="3.07249">
        <ele>35</ele>
        <time>2020-02-04T13:29:38.364Z</time>
      </trkpt>
      <trkpt lat="42.53064" lon="3.07277">
        <ele>37</ele>
        <time>2020-02-04T13:29:53.837Z</time>
      </trkpt>
      <trkpt lat="42.53" lon="3.07372">
        <ele>49</ele>
        <time>2020-02-04T13:30:09.325Z</time>
      </trkpt>
      <trkpt lat="42.52988" lon="3.07396">
        <ele>48</ele>
        <time>2020-02-04T13:30:24.817Z</time>
      </trkpt>
      <trkpt lat="42.5298" lon="3.07442">
        <ele>51</ele>
        <time>2020-02-04T13:30:40.314Z</time>
      </trkpt>
      <trkpt lat="42.52975" lon="3.075">
        <ele>54</ele>
        <time>2020-02-04T13:30:55.818Z</time>
      </trkpt>
      <trkpt lat="42.52959" lon="3.07651">
        <ele>56</ele>
        <time>2020-02-04T13:31:11.340Z</time>
      </trkpt>
      <trkpt lat="42.52959" lon="3.07651">
        <ele>56</ele>
        <time>2020-02-04T13:31:26.862Z</time>
      </trkpt>
      <trkpt lat="42.52959" lon="3.07652">
        <ele>56</ele>
        <time>2020-02-04T13:31:42.384Z</time>
      </trkpt>
      <trkpt lat="42.52959" lon="3.07652">
        <ele>56</ele>
        <time>2020-02-04T13:31:57.906Z</time>
      </trkpt>
      <trkpt lat="42.52959" lon="3.07652">
        <ele>56</ele>
        <time>2020-02-04T13:32:13.428Z</time>
      </trkpt>
      <trkpt lat="42.52957" lon="3.0767">
        <ele>54</ele>
        <time>2020-02-04T13:32:28.953Z</time>
      </trkpt>
      <trkpt lat="42.52945" lon="3.0767">
        <ele>53</ele>
        <time>2020-02-04T13:32:44.479Z</time>
      </trkpt>
      <trkpt lat="42.529" lon="3.07646">
        <ele>52</ele>
        <time>2020-02-04T13:33:00.013Z</time>
      </trkpt>
      <trkpt lat="42.52882" lon="3.07592">
        <ele>56</ele>
        <time>2020-02-04T13:33:15.554Z</time>
      </trkpt>
      <trkpt lat="42.52866" lon="3.07573">
        <ele>57</ele>
        <time>2020-02-04T13:33:31.099Z</time>
      </trkpt>
      <trkpt lat="42.5284" lon="3.07544">
        <ele>58</ele>
        <time>2020-02-04T13:33:46.649Z</time>
      </trkpt>
      <trkpt lat="42.5284" lon="3.07544">
        <ele>58</ele>
        <time>2020-02-04T13:34:02.199Z</time>
      </trkpt>
      <trkpt lat="42.52806" lon="3.07506">
        <ele>60</ele>
        <time>2020-02-04T13:34:17.756Z</time>
      </trkpt>
      <trkpt lat="42.52806" lon="3.07506">
        <ele>60</ele>
        <time>2020-02-04T13:34:33.313Z</time>
      </trkpt>
      <trkpt lat="42.52767" lon="3.07473">
        <ele>61</ele>
        <time>2020-02-04T13:34:48.877Z</time>
      </trkpt>
      <trkpt lat="42.52742" lon="3.07413">
        <ele>67</ele>
        <time>2020-02-04T13:35:04.449Z</time>
      </trkpt>
      <trkpt lat="42.52723" lon="3.07405">
        <ele>69</ele>
        <time>2020-02-04T13:35:20.025Z</time>
      </trkpt>
      <trkpt lat="42.52723" lon="3.07405">
        <ele>69</ele>
        <time>2020-02-04T13:35:35.601Z</time>
      </trkpt>
      <trkpt lat="42.52684" lon="3.07421">
        <ele>69</ele>
        <time>2020-02-04T13:35:51.183Z</time>
      </trkpt>
      <trkpt lat="42.52665" lon="3.07417">
        <ele>70</ele>
        <time>2020-02-04T13:36:06.768Z</time>
      </trkpt>
      <trkpt lat="42.52646" lon="3.07407">
        <ele>72</ele>
        <time>2020-02-04T13:36:22.357Z</time>
      </trkpt>
      <trkpt lat="42.52628" lon="3.0741">
        <ele>73</ele>
        <time>2020-02-04T13:36:37.948Z</time>
      </trkpt>
      <trkpt lat="42.52582" lon="3.07454">
        <ele>75</ele>
        <time>2020-02-04T13:36:53.548Z</time>
      </trkpt>
      <trkpt lat="42.52534" lon="3.0747">
        <ele>76</ele>
        <time>2020-02-04T13:37:09.156Z</time>
      </trkpt>
      <trkpt lat="42.52534" lon="3.0747">
        <ele>76</ele>
        <time>2020-02-04T13:37:24.764Z</time>
      </trkpt>
      <trkpt lat="42.52511" lon="3.07476">
        <ele>78</ele>
        <time>2020-02-04T13:37:40.376Z</time>
      </trkpt>
      <trkpt lat="42.52499" lon="3.07471">
        <ele>79</ele>
        <time>2020-02-04T13:37:55.990Z</time>
      </trkpt>
      <trkpt lat="42.52499" lon="3.07471">
        <ele>79</ele>
        <time>2020-02-04T13:38:11.604Z</time>
      </trkpt>
      <trkpt lat="42.52455" lon="3.07439">
        <ele>74</ele>
        <time>2020-02-04T13:38:27.226Z</time>
      </trkpt>
      <trkpt lat="42.52449" lon="3.07425">
        <ele>73</ele>
        <time>2020-02-04T13:38:42.850Z</time>
      </trkpt>
      <trkpt lat="42.52449" lon="3.07394">
        <ele>70</ele>
        <time>2020-02-04T13:38:58.478Z</time>
      </trkpt>
      <trkpt lat="42.52463" lon="3.07374">
        <ele>70</ele>
        <time>2020-02-04T13:39:14.109Z</time>
      </trkpt>
      <trkpt lat="42.5252" lon="3.07355">
        <ele>77</ele>
        <time>2020-02-04T13:39:29.749Z</time>
      </trkpt>
      <trkpt lat="42.52542" lon="3.07325">
        <ele>77</ele>
        <time>2020-02-04T13:39:45.394Z</time>
      </trkpt>
      <trkpt lat="42.52569" lon="3.07209">
        <ele>77</ele>
        <time>2020-02-04T13:40:01.054Z</time>
      </trkpt>
      <trkpt lat="42.52588" lon="3.07111">
        <ele>79</ele>
        <time>2020-02-04T13:40:16.726Z</time>
      </trkpt>
      <trkpt lat="42.5259" lon="3.07054">
        <ele>81</ele>
        <time>2020-02-04T13:40:32.404Z</time>
      </trkpt>
      <trkpt lat="42.52579" lon="3.07011">
        <ele>80</ele>
        <time>2020-02-04T13:40:48.088Z</time>
      </trkpt>
      <trkpt lat="42.5255" lon="3.06968">
        <ele>78</ele>
        <time>2020-02-04T13:41:03.779Z</time>
      </trkpt>
      <trkpt lat="42.52544" lon="3.06949">
        <ele>78</ele>
        <time>2020-02-04T13:41:19.472Z</time>
      </trkpt>
      <trkpt lat="42.5254" lon="3.06863">
        <ele>81</ele>
        <time>2020-02-04T13:41:35.175Z</time>
      </trkpt>
      <trkpt lat="42.52524" lon="3.0683">
        <ele>82</ele>
        <time>2020-02-04T13:41:50.883Z</time>
      </trkpt>
      <trkpt lat="42.52503" lon="3.06812">
        <ele>83</ele>
        <time>2020-02-04T13:42:06.595Z</time>
      </trkpt>
      <trkpt lat="42.52493" lon="3.06811">
        <ele>84</ele>
        <time>2020-02-04T13:42:22.309Z</time>
      </trkpt>
      <trkpt lat="42.52478" lon="3.06817">
        <ele>84</ele>
        <time>2020-02-04T13:42:38.025Z</time>
      </trkpt>
      <trkpt lat="42.52451" lon="3.06848">
        <ele>84</ele>
        <time>2020-02-04T13:42:53.747Z</time>
      </trkpt>
      <trkpt lat="42.5242" lon="3.06867">
        <ele>83</ele>
        <time>2020-02-04T13:43:09.474Z</time>
      </trkpt>
      <trkpt lat="42.5242" lon="3.06867">
        <ele>83</ele>
        <time>2020-02-04T13:43:25.201Z</time>
      </trkpt>
      <trkpt lat="42.52377" lon="3.06858">
        <ele>86</ele>
        <time>2020-02-04T13:43:40.935Z</time>
      </trkpt>
      <trkpt lat="42.52361" lon="3.06834">
        <ele>90</ele>
        <time>2020-02-04T13:43:56.673Z</time>
      </trkpt>
      <trkpt lat="42.52347" lon="3.06795">
        <ele>93</ele>
        <time>2020-02-04T13:44:12.416Z</time>
      </trkpt>
      <trkpt lat="42.52363" lon="3.06765">
        <ele>95</ele>
        <time>2020-02-04T13:44:28.164Z</time>
      </trkpt>
      <trkpt lat="42.52351" lon="3.06741">
        <ele>96</ele>
        <time>2020-02-04T13:44:43.915Z</time>
      </trkpt>
      <trkpt lat="42.52337" lon="3.06739">
        <ele>96</ele>
        <time>2020-02-04T13:44:59.668Z</time>
      </trkpt>
      <trkpt lat="42.52325" lon="3.0675">
        <ele>97</ele>
        <time>2020-02-04T13:45:15.424Z</time>
      </trkpt>
      <trkpt lat="42.52323" lon="3.06778">
        <ele>95</ele>
        <time>2020-02-04T13:45:31.183Z</time>
      </trkpt>
      <trkpt lat="42.52299" lon="3.06786">
        <ele>95</ele>
        <time>2020-02-04T13:45:46.946Z</time>
      </trkpt>
      <trkpt lat="42.5225" lon="3.06769">
        <ele>98</ele>
        <time>2020-02-04T13:46:02.717Z</time>
      </trkpt>
      <trkpt lat="42.52214" lon="3.0675">
        <ele>100</ele>
        <time>2020-02-04T13:46:18.494Z</time>
      </trkpt>
      <trkpt lat="42.52169" lon="3.06732">
        <ele>103</ele>
        <time>2020-02-04T13:46:34.279Z</time>
      </trkpt>
      <trkpt lat="42.52107" lon="3.06681">
        <ele>117</ele>
        <time>2020-02-04T13:46:50.075Z</time>
      </trkpt>
      <trkpt lat="42.5205" lon="3.06698">
        <ele>123</ele>
        <time>2020-02-04T13:47:05.881Z</time>
      </trkpt>
      <trkpt lat="42.52042" lon="3.06707">
        <ele>123</ele>
        <time>2020-02-04T13:47:21.688Z</time>
      </trkpt>
      <trkpt lat="42.52021" lon="3.06712">
        <ele>125</ele>
        <time>2020-02-04T13:47:37.499Z</time>
      </trkpt>
      <trkpt lat="42.52012" lon="3.06722">
        <ele>124</ele>
        <time>2020-02-04T13:47:53.312Z</time>
      </trkpt>
      <trkpt lat="42.51999" lon="3.06752">
        <ele>118</ele>
        <time>2020-02-04T13:48:09.129Z</time>
      </trkpt>
      <trkpt lat="42.51979" lon="3.06778">
        <ele>118</ele>
        <time>2020-02-04T13:48:24.950Z</time>
      </trkpt>
      <trkpt lat="42.51933" lon="3.06804">
        <ele>124</ele>
        <time>2020-02-04T13:48:40.779Z</time>
      </trkpt>
      <trkpt lat="42.51904" lon="3.06866">
        <ele>122</ele>
        <time>2020-02-04T13:48:56.617Z</time>
      </trkpt>
      <trkpt lat="42.51854" lon="3.06939">
        <ele>126</ele>
        <time>2020-02-04T13:49:12.466Z</time>
      </trkpt>
      <trkpt lat="42.51842" lon="3.06954">
        <ele>126</ele>
        <time>2020-02-04T13:49:28.318Z</time>
      </trkpt>
      <trkpt lat="42.51796" lon="3.06982">
        <ele>123</ele>
        <time>2020-02-04T13:49:44.178Z</time>
      </trkpt>
      <trkpt lat="42.51766" lon="3.06977">
        <ele>126</ele>
        <time>2020-02-04T13:50:00.043Z</time>
      </trkpt>
      <trkpt lat="42.51723" lon="3.06931">
        <ele>138</ele>
        <time>2020-02-04T13:50:15.917Z</time>
      </trkpt>
      <trkpt lat="42.51682" lon="3.06916">
        <ele>143</ele>
        <time>2020-02-04T13:50:31.798Z</time>
      </trkpt>
      <trkpt lat="42.51661" lon="3.06926">
        <ele>140</ele>
        <time>2020-02-04T13:50:47.682Z</time>
      </trkpt>
      <trkpt lat="42.51628" lon="3.06963">
        <ele>137</ele>
        <time>2020-02-04T13:51:03.573Z</time>
      </trkpt>
      <trkpt lat="42.51568" lon="3.06993">
        <ele>136</ele>
        <time>2020-02-04T13:51:19.474Z</time>
      </trkpt>
      <trkpt lat="42.5154" lon="3.0702">
        <ele>135</ele>
        <time>2020-02-04T13:51:35.381Z</time>
      </trkpt>
      <trkpt lat="42.51493" lon="3.07028">
        <ele>133</ele>
        <time>2020-02-04T13:51:51.295Z</time>
      </trkpt>
      <trkpt lat="42.51483" lon="3.07022">
        <ele>131</ele>
        <time>2020-02-04T13:52:07.211Z</time>
      </trkpt>
      <trkpt lat="42.51475" lon="3.07">
        <ele>131</ele>
        <time>2020-02-04T13:52:23.130Z</time>
      </trkpt>
      <trkpt lat="42.5149" lon="3.06955">
        <ele>137</ele>
        <time>2020-02-04T13:52:39.055Z</time>
      </trkpt>
      <trkpt lat="42.51517" lon="3.06906">
        <ele>147</ele>
        <time>2020-02-04T13:52:54.987Z</time>
      </trkpt>
      <trkpt lat="42.51516" lon="3.06853">
        <ele>158</ele>
        <time>2020-02-04T13:53:10.925Z</time>
      </trkpt>
      <trkpt lat="42.51504" lon="3.0683">
        <ele>161</ele>
        <time>2020-02-04T13:53:26.867Z</time>
      </trkpt>
      <trkpt lat="42.51453" lon="3.06794">
        <ele>150</ele>
        <time>2020-02-04T13:53:42.818Z</time>
      </trkpt>
      <trkpt lat="42.51435" lon="3.06762">
        <ele>151</ele>
        <time>2020-02-04T13:53:58.774Z</time>
      </trkpt>
      <trkpt lat="42.51436" lon="3.06735">
        <ele>150</ele>
        <time>2020-02-04T13:54:14.733Z</time>
      </trkpt>
      <trkpt lat="42.51457" lon="3.06678">
        <ele>160</ele>
        <time>2020-02-04T13:54:30.699Z</time>
      </trkpt>
      <trkpt lat="42.51461" lon="3.06643">
        <ele>160</ele>
        <time>2020-02-04T13:54:46.670Z</time>
      </trkpt>
      <trkpt lat="42.51467" lon="3.06535">
        <ele>165</ele>
        <time>2020-02-04T13:55:02.653Z</time>
      </trkpt>
      <trkpt lat="42.51454" lon="3.06432">
        <ele>166</ele>
        <time>2020-02-04T13:55:18.649Z</time>
      </trkpt>
      <trkpt lat="42.51454" lon="3.06432">
        <ele>166</ele>
        <time>2020-02-04T13:55:34.645Z</time>
      </trkpt>
      <trkpt lat="42.51436" lon="3.0642">
        <ele>165</ele>
        <time>2020-02-04T13:55:50.644Z</time>
      </trkpt>
      <trkpt lat="42.51346" lon="3.06419">
        <ele>179</ele>
        <time>2020-02-04T13:56:06.657Z</time>
      </trkpt>
      <trkpt lat="42.51306" lon="3.06437">
        <ele>182</ele>
        <time>2020-02-04T13:56:22.677Z</time>
      </trkpt>
      <trkpt lat="42.51305" lon="3.06438">
        <ele>182</ele>
        <time>2020-02-04T13:56:38.697Z</time>
      </trkpt>
      <trkpt lat="42.51305" lon="3.06438">
        <ele>182</ele>
        <time>2020-02-04T13:56:54.717Z</time>
      </trkpt>
      <trkpt lat="42.51305" lon="3.06438">
        <ele>182</ele>
        <time>2020-02-04T13:57:10.737Z</time>
      </trkpt>
      <trkpt lat="42.51305" lon="3.06438">
        <ele>182</ele>
        <time>2020-02-04T13:57:26.757Z</time>
      </trkpt>
      <trkpt lat="42.51305" lon="3.06438">
        <ele>182</ele>
        <time>2020-02-04T13:57:42.777Z</time>
      </trkpt>
      <trkpt lat="42.5128" lon="3.06471">
        <ele>177</ele>
        <time>2020-02-04T13:57:58.803Z</time>
      </trkpt>
      <trkpt lat="42.51253" lon="3.0649">
        <ele>179</ele>
        <time>2020-02-04T13:58:14.834Z</time>
      </trkpt>
      <trkpt lat="42.51198" lon="3.06493">
        <ele>179</ele>
        <time>2020-02-04T13:58:30.873Z</time>
      </trkpt>
      <trkpt lat="42.51184" lon="3.06481">
        <ele>182</ele>
        <time>2020-02-04T13:58:46.915Z</time>
      </trkpt>
      <trkpt lat="42.51161" lon="3.06422">
        <ele>199</ele>
        <time>2020-02-04T13:59:02.965Z</time>
      </trkpt>
      <trkpt lat="42.5113" lon="3.06417">
        <ele>203</ele>
        <time>2020-02-04T13:59:19.020Z</time>
      </trkpt>
      <trkpt lat="42.51085" lon="3.06425">
        <ele>203</ele>
        <time>2020-02-04T13:59:35.082Z</time>
      </trkpt>
      <trkpt lat="42.51057" lon="3.06413">
        <ele>208</ele>
        <time>2020-02-04T13:59:51.149Z</time>
      </trkpt>
      <trkpt lat="42.5102" lon="3.06417">
        <ele>208</ele>
        <time>2020-02-04T14:00:07.222Z</time>
      </trkpt>
      <trkpt lat="42.51015" lon="3.06402">
        <ele>214</ele>
        <time>2020-02-04T14:00:23.297Z</time>
      </trkpt>
      <trkpt lat="42.51092" lon="3.06388">
        <ele>217</ele>
        <time>2020-02-04T14:00:39.384Z</time>
      </trkpt>
      <trkpt lat="42.51155" lon="3.0634">
        <ele>222</ele>
        <time>2020-02-04T14:00:55.483Z</time>
      </trkpt>
      <trkpt lat="42.5119" lon="3.06333">
        <ele>219</ele>
        <time>2020-02-04T14:01:11.588Z</time>
      </trkpt>
      <trkpt lat="42.51192" lon="3.06324">
        <ele>220</ele>
        <time>2020-02-04T14:01:27.694Z</time>
      </trkpt>
      <trkpt lat="42.51186" lon="3.06318">
        <ele>220</ele>
        <time>2020-02-04T14:01:43.801Z</time>
      </trkpt>
      <trkpt lat="42.51138" lon="3.06328">
        <ele>227</ele>
        <time>2020-02-04T14:01:59.916Z</time>
      </trkpt>
      <trkpt lat="42.51087" lon="3.06353">
        <ele>230</ele>
        <time>2020-02-04T14:02:16.039Z</time>
      </trkpt>
      <trkpt lat="42.51" lon="3.06338">
        <ele>238</ele>
        <time>2020-02-04T14:02:32.176Z</time>
      </trkpt>
      <trkpt lat="42.5095" lon="3.06316">
        <ele>247</ele>
        <time>2020-02-04T14:02:48.322Z</time>
      </trkpt>
      <trkpt lat="42.50919" lon="3.06314">
        <ele>250</ele>
        <time>2020-02-04T14:03:04.473Z</time>
      </trkpt>
      <trkpt lat="42.5089" lon="3.0633">
        <ele>251</ele>
        <time>2020-02-04T14:03:20.629Z</time>
      </trkpt>
      <trkpt lat="42.50866" lon="3.06366">
        <ele>251</ele>
        <time>2020-02-04T14:03:36.791Z</time>
      </trkpt>
      <trkpt lat="42.5086" lon="3.06359">
        <ele>254</ele>
        <time>2020-02-04T14:03:52.954Z</time>
      </trkpt>
      <trkpt lat="42.50893" lon="3.06297">
        <ele>256</ele>
        <time>2020-02-04T14:04:09.126Z</time>
      </trkpt>
      <trkpt lat="42.50961" lon="3.06269">
        <ele>257</ele>
        <time>2020-02-04T14:04:25.309Z</time>
      </trkpt>
      <trkpt lat="42.5099" lon="3.06268">
        <ele>256</ele>
        <time>2020-02-04T14:04:41.497Z</time>
      </trkpt>
      <trkpt lat="42.5099" lon="3.06268">
        <ele>256</ele>
        <time>2020-02-04T14:04:57.685Z</time>
      </trkpt>
      <trkpt lat="42.51006" lon="3.0627">
        <ele>254</ele>
        <time>2020-02-04T14:05:13.875Z</time>
      </trkpt>
      <trkpt lat="42.51011" lon="3.06257">
        <ele>256</ele>
        <time>2020-02-04T14:05:30.067Z</time>
      </trkpt>
      <trkpt lat="42.50989" lon="3.06252">
        <ele>257</ele>
        <time>2020-02-04T14:05:46.263Z</time>
      </trkpt>
      <trkpt lat="42.50989" lon="3.06252">
        <ele>257</ele>
        <time>2020-02-04T14:06:02.459Z</time>
      </trkpt>
      <trkpt lat="42.50975" lon="3.06257">
        <ele>258</ele>
        <time>2020-02-04T14:06:18.657Z</time>
      </trkpt>
      <trkpt lat="42.50881" lon="3.06247">
        <ele>263</ele>
        <time>2020-02-04T14:06:34.870Z</time>
      </trkpt>
      <trkpt lat="42.50881" lon="3.06247">
        <ele>263</ele>
        <time>2020-02-04T14:06:51.083Z</time>
      </trkpt>
      <trkpt lat="42.50865" lon="3.06252">
        <ele>265</ele>
        <time>2020-02-04T14:07:07.299Z</time>
      </trkpt>
      <trkpt lat="42.50797" lon="3.06343">
        <ele>273</ele>
        <time>2020-02-04T14:07:23.530Z</time>
      </trkpt>
      <trkpt lat="42.50674" lon="3.06378">
        <ele>292</ele>
        <time>2020-02-04T14:07:39.781Z</time>
      </trkpt>
      <trkpt lat="42.50616" lon="3.06418">
        <ele>299</ele>
        <time>2020-02-04T14:07:56.042Z</time>
      </trkpt>
      <trkpt lat="42.50585" lon="3.06456">
        <ele>301</ele>
        <time>2020-02-04T14:08:12.310Z</time>
      </trkpt>
      <trkpt lat="42.50578" lon="3.06447">
        <ele>306</ele>
        <time>2020-02-04T14:08:28.580Z</time>
      </trkpt>
      <trkpt lat="42.50586" lon="3.06429">
        <ele>307</ele>
        <time>2020-02-04T14:08:44.852Z</time>
      </trkpt>
      <trkpt lat="42.50625" lon="3.06392">
        <ele>301</ele>
        <time>2020-02-04T14:09:01.132Z</time>
      </trkpt>
      <trkpt lat="42.50677" lon="3.06305">
        <ele>306</ele>
        <time>2020-02-04T14:09:17.425Z</time>
      </trkpt>
      <trkpt lat="42.50702" lon="3.06276">
        <ele>303</ele>
        <time>2020-02-04T14:09:33.723Z</time>
      </trkpt>
      <trkpt lat="42.50705" lon="3.06265">
        <ele>303</ele>
        <time>2020-02-04T14:09:50.023Z</time>
      </trkpt>
      <trkpt lat="42.50701" lon="3.06261">
        <ele>305</ele>
        <time>2020-02-04T14:10:06.323Z</time>
      </trkpt>
      <trkpt lat="42.50687" lon="3.06279">
        <ele>307</ele>
        <time>2020-02-04T14:10:22.627Z</time>
      </trkpt>
      <trkpt lat="42.5056" lon="3.06368">
        <ele>328</ele>
        <time>2020-02-04T14:10:38.953Z</time>
      </trkpt>
      <trkpt lat="42.5049" lon="3.0649">
        <ele>330</ele>
        <time>2020-02-04T14:10:55.298Z</time>
      </trkpt>
      <trkpt lat="42.50468" lon="3.0656">
        <ele>316</ele>
        <time>2020-02-04T14:11:11.652Z</time>
      </trkpt>
      <trkpt lat="42.504" lon="3.06593">
        <ele>332</ele>
        <time>2020-02-04T14:11:28.017Z</time>
      </trkpt>
      <trkpt lat="42.5038" lon="3.06626">
        <ele>327</ele>
        <time>2020-02-04T14:11:44.387Z</time>
      </trkpt>
      <trkpt lat="42.5036" lon="3.06679">
        <ele>335</ele>
        <time>2020-02-04T14:12:00.764Z</time>
      </trkpt>
      <trkpt lat="42.50365" lon="3.06708">
        <ele>333</ele>
        <time>2020-02-04T14:12:17.145Z</time>
      </trkpt>
      <trkpt lat="42.50397" lon="3.06777">
        <ele>319</ele>
        <time>2020-02-04T14:12:33.536Z</time>
      </trkpt>
      <trkpt lat="42.50439" lon="3.068">
        <ele>299</ele>
        <time>2020-02-04T14:12:49.934Z</time>
      </trkpt>
      <trkpt lat="42.50456" lon="3.06818">
        <ele>293</ele>
        <time>2020-02-04T14:13:06.335Z</time>
      </trkpt>
      <trkpt lat="42.5047" lon="3.06885">
        <ele>299</ele>
        <time>2020-02-04T14:13:22.745Z</time>
      </trkpt>
      <trkpt lat="42.50489" lon="3.06921">
        <ele>292</ele>
        <time>2020-02-04T14:13:39.160Z</time>
      </trkpt>
      <trkpt lat="42.50492" lon="3.0695">
        <ele>287</ele>
        <time>2020-02-04T14:13:55.578Z</time>
      </trkpt>
      <trkpt lat="42.50461" lon="3.07006">
        <ele>293</ele>
        <time>2020-02-04T14:14:12.004Z</time>
      </trkpt>
      <trkpt lat="42.50424" lon="3.0705">
        <ele>294</ele>
        <time>2020-02-04T14:14:28.438Z</time>
      </trkpt>
      <trkpt lat="42.5041" lon="3.07081">
        <ele>287</ele>
        <time>2020-02-04T14:14:44.877Z</time>
      </trkpt>
      <trkpt lat="42.50357" lon="3.07097">
        <ele>301</ele>
        <time>2020-02-04T14:15:01.324Z</time>
      </trkpt>
      <trkpt lat="42.50355" lon="3.07105">
        <ele>300</ele>
        <time>2020-02-04T14:15:17.772Z</time>
      </trkpt>
      <trkpt lat="42.50379" lon="3.07221">
        <ele>277</ele>
        <time>2020-02-04T14:15:34.235Z</time>
      </trkpt>
      <trkpt lat="42.50375" lon="3.07237">
        <ele>277</ele>
        <time>2020-02-04T14:15:50.700Z</time>
      </trkpt>
      <trkpt lat="42.50354" lon="3.07258">
        <ele>284</ele>
        <time>2020-02-04T14:16:07.169Z</time>
      </trkpt>
      <trkpt lat="42.50338" lon="3.0736">
        <ele>274</ele>
        <time>2020-02-04T14:16:23.650Z</time>
      </trkpt>
      <trkpt lat="42.50349" lon="3.0741">
        <ele>262</ele>
        <time>2020-02-04T14:16:40.137Z</time>
      </trkpt>
      <trkpt lat="42.50361" lon="3.07532">
        <ele>251</ele>
        <time>2020-02-04T14:16:56.639Z</time>
      </trkpt>
      <trkpt lat="42.50342" lon="3.07623">
        <ele>249</ele>
        <time>2020-02-04T14:17:13.152Z</time>
      </trkpt>
      <trkpt lat="42.50317" lon="3.07669">
        <ele>244</ele>
        <time>2020-02-04T14:17:29.672Z</time>
      </trkpt>
      <trkpt lat="42.5031" lon="3.07695">
        <ele>240</ele>
        <time>2020-02-04T14:17:46.195Z</time>
      </trkpt>
      <trkpt lat="42.50317" lon="3.07808">
        <ele>227</ele>
        <time>2020-02-04T14:18:02.731Z</time>
      </trkpt>
      <trkpt lat="42.5031" lon="3.07839">
        <ele>228</ele>
        <time>2020-02-04T14:18:19.271Z</time>
      </trkpt>
      <trkpt lat="42.50295" lon="3.07904">
        <ele>227</ele>
        <time>2020-02-04T14:18:35.819Z</time>
      </trkpt>
      <trkpt lat="42.50248" lon="3.07895">
        <ele>229</ele>
        <time>2020-02-04T14:18:52.375Z</time>
      </trkpt>
      <trkpt lat="42.50226" lon="3.07871">
        <ele>227</ele>
        <time>2020-02-04T14:19:08.935Z</time>
      </trkpt>
      <trkpt lat="42.50221" lon="3.07836">
        <ele>232</ele>
        <time>2020-02-04T14:19:25.500Z</time>
      </trkpt>
      <trkpt lat="42.50246" lon="3.07763">
        <ele>242</ele>
        <time>2020-02-04T14:19:42.074Z</time>
      </trkpt>
      <trkpt lat="42.5025" lon="3.07699">
        <ele>251</ele>
        <time>2020-02-04T14:19:58.656Z</time>
      </trkpt>
      <trkpt lat="42.50205" lon="3.07555">
        <ele>274</ele>
        <time>2020-02-04T14:20:15.256Z</time>
      </trkpt>
      <trkpt lat="42.50198" lon="3.07545">
        <ele>276</ele>
        <time>2020-02-04T14:20:31.858Z</time>
      </trkpt>
      <trkpt lat="42.50163" lon="3.0753">
        <ele>270</ele>
        <time>2020-02-04T14:20:48.466Z</time>
      </trkpt>
      <trkpt lat="42.50135" lon="3.07484">
        <ele>275</ele>
        <time>2020-02-04T14:21:05.081Z</time>
      </trkpt>
      <trkpt lat="42.50124" lon="3.07457">
        <ele>278</ele>
        <time>2020-02-04T14:21:21.699Z</time>
      </trkpt>
      <trkpt lat="42.50115" lon="3.07361">
        <ele>301</ele>
        <time>2020-02-04T14:21:38.329Z</time>
      </trkpt>
      <trkpt lat="42.50102" lon="3.07354">
        <ele>300</ele>
        <time>2020-02-04T14:21:54.961Z</time>
      </trkpt>
      <trkpt lat="42.50012" lon="3.07384">
        <ele>292</ele>
        <time>2020-02-04T14:22:11.608Z</time>
      </trkpt>
      <trkpt lat="42.50012" lon="3.07384">
        <ele>292</ele>
        <time>2020-02-04T14:22:28.255Z</time>
      </trkpt>
      <trkpt lat="42.49996" lon="3.07384">
        <ele>293</ele>
        <time>2020-02-04T14:22:44.904Z</time>
      </trkpt>
      <trkpt lat="42.4998" lon="3.07373">
        <ele>294</ele>
        <time>2020-02-04T14:23:01.556Z</time>
      </trkpt>
      <trkpt lat="42.49935" lon="3.07273">
        <ele>317</ele>
        <time>2020-02-04T14:23:18.222Z</time>
      </trkpt>
      <trkpt lat="42.49921" lon="3.07272">
        <ele>315</ele>
        <time>2020-02-04T14:23:34.890Z</time>
      </trkpt>
      <trkpt lat="42.49903" lon="3.07296">
        <ele>307</ele>
        <time>2020-02-04T14:23:51.563Z</time>
      </trkpt>
      <trkpt lat="42.49882" lon="3.073">
        <ele>304</ele>
        <time>2020-02-04T14:24:08.239Z</time>
      </trkpt>
      <trkpt lat="42.49876" lon="3.07287">
        <ele>307</ele>
        <time>2020-02-04T14:24:24.917Z</time>
      </trkpt>
      <trkpt lat="42.49876" lon="3.07233">
        <ele>323</ele>
        <time>2020-02-04T14:24:41.601Z</time>
      </trkpt>
      <trkpt lat="42.49868" lon="3.07207">
        <ele>331</ele>
        <time>2020-02-04T14:24:58.288Z</time>
      </trkpt>
      <trkpt lat="42.49855" lon="3.07193">
        <ele>334</ele>
        <time>2020-02-04T14:25:14.978Z</time>
      </trkpt>
      <trkpt lat="42.49838" lon="3.07192">
        <ele>333</ele>
        <time>2020-02-04T14:25:31.671Z</time>
      </trkpt>
      <trkpt lat="42.49823" lon="3.07197">
        <ele>335</ele>
        <time>2020-02-04T14:25:48.366Z</time>
      </trkpt>
      <trkpt lat="42.49786" lon="3.07249">
        <ele>331</ele>
        <time>2020-02-04T14:26:05.070Z</time>
      </trkpt>
      <trkpt lat="42.49767" lon="3.07255">
        <ele>336</ele>
        <time>2020-02-04T14:26:21.777Z</time>
      </trkpt>
      <trkpt lat="42.49738" lon="3.07282">
        <ele>343</ele>
        <time>2020-02-04T14:26:38.490Z</time>
      </trkpt>
      <trkpt lat="42.49704" lon="3.07397">
        <ele>342</ele>
        <time>2020-02-04T14:26:55.217Z</time>
      </trkpt>
      <trkpt lat="42.4968" lon="3.07439">
        <ele>352</ele>
        <time>2020-02-04T14:27:11.951Z</time>
      </trkpt>
      <trkpt lat="42.49664" lon="3.07506">
        <ele>347</ele>
        <time>2020-02-04T14:27:28.693Z</time>
      </trkpt>
      <trkpt lat="42.49621" lon="3.07529">
        <ele>362</ele>
        <time>2020-02-04T14:27:45.442Z</time>
      </trkpt>
      <trkpt lat="42.49598" lon="3.07616">
        <ele>365</ele>
        <time>2020-02-04T14:28:02.202Z</time>
      </trkpt>
      <trkpt lat="42.49601" lon="3.07668">
        <ele>366</ele>
        <time>2020-02-04T14:28:18.968Z</time>
      </trkpt>
      <trkpt lat="42.49647" lon="3.07742">
        <ele>356</ele>
        <time>2020-02-04T14:28:35.746Z</time>
      </trkpt>
      <trkpt lat="42.49649" lon="3.07782">
        <ele>356</ele>
        <time>2020-02-04T14:28:52.529Z</time>
      </trkpt>
      <trkpt lat="42.49644" lon="3.07796">
        <ele>357</ele>
        <time>2020-02-04T14:29:09.313Z</time>
      </trkpt>
      <trkpt lat="42.49633" lon="3.07816">
        <ele>360</ele>
        <time>2020-02-04T14:29:26.100Z</time>
      </trkpt>
      <trkpt lat="42.49561" lon="3.07885">
        <ele>375</ele>
        <time>2020-02-04T14:29:42.902Z</time>
      </trkpt>
      <trkpt lat="42.49462" lon="3.07958">
        <ele>384</ele>
        <time>2020-02-04T14:29:59.722Z</time>
      </trkpt>
      <trkpt lat="42.49443" lon="3.07995">
        <ele>377</ele>
        <time>2020-02-04T14:30:16.547Z</time>
      </trkpt>
      <trkpt lat="42.49432" lon="3.07993">
        <ele>380</ele>
        <time>2020-02-04T14:30:33.374Z</time>
      </trkpt>
      <trkpt lat="42.49405" lon="3.07972">
        <ele>387</ele>
        <time>2020-02-04T14:30:50.206Z</time>
      </trkpt>
      <trkpt lat="42.49361" lon="3.07958">
        <ele>384</ele>
        <time>2020-02-04T14:31:07.045Z</time>
      </trkpt>
      <trkpt lat="42.49351" lon="3.07949">
        <ele>385</ele>
        <time>2020-02-04T14:31:23.886Z</time>
      </trkpt>
      <trkpt lat="42.4931" lon="3.07852">
        <ele>415</ele>
        <time>2020-02-04T14:31:40.740Z</time>
      </trkpt>
      <trkpt lat="42.49292" lon="3.07829">
        <ele>423</ele>
        <time>2020-02-04T14:31:57.598Z</time>
      </trkpt>
      <trkpt lat="42.49264" lon="3.07853">
        <ele>410</ele>
        <time>2020-02-04T14:32:14.461Z</time>
      </trkpt>
      <trkpt lat="42.49253" lon="3.07853">
        <ele>408</ele>
        <time>2020-02-04T14:32:31.326Z</time>
      </trkpt>
      <trkpt lat="42.49231" lon="3.07827">
        <ele>424</ele>
        <time>2020-02-04T14:32:48.196Z</time>
      </trkpt>
      <trkpt lat="42.49174" lon="3.07838">
        <ele>428</ele>
        <time>2020-02-04T14:33:05.075Z</time>
      </trkpt>
      <trkpt lat="42.49158" lon="3.07848">
        <ele>430</ele>
        <time>2020-02-04T14:33:21.957Z</time>
      </trkpt>
      <trkpt lat="42.49142" lon="3.07896">
        <ele>423</ele>
        <time>2020-02-04T14:33:38.845Z</time>
      </trkpt>
      <trkpt lat="42.49102" lon="3.07915">
        <ele>438</ele>
        <time>2020-02-04T14:33:55.740Z</time>
      </trkpt>
      <trkpt lat="42.49062" lon="3.07979">
        <ele>445</ele>
        <time>2020-02-04T14:34:12.645Z</time>
      </trkpt>
      <trkpt lat="42.49046" lon="3.08014">
        <ele>446</ele>
        <time>2020-02-04T14:34:29.555Z</time>
      </trkpt>
      <trkpt lat="42.49029" lon="3.08085">
        <ele>443</ele>
        <time>2020-02-04T14:34:46.473Z</time>
      </trkpt>
      <trkpt lat="42.48966" lon="3.08168">
        <ele>462</ele>
        <time>2020-02-04T14:35:03.405Z</time>
      </trkpt>
      <trkpt lat="42.48962" lon="3.08186">
        <ele>459</ele>
        <time>2020-02-04T14:35:20.340Z</time>
      </trkpt>
      <trkpt lat="42.48962" lon="3.08186">
        <ele>459</ele>
        <time>2020-02-04T14:35:37.275Z</time>
      </trkpt>
      <trkpt lat="42.48941" lon="3.08288">
        <ele>451</ele>
        <time>2020-02-04T14:35:54.222Z</time>
      </trkpt>
      <trkpt lat="42.48921" lon="3.08351">
        <ele>450</ele>
        <time>2020-02-04T14:36:11.177Z</time>
      </trkpt>
      <trkpt lat="42.48922" lon="3.08468">
        <ele>434</ele>
        <time>2020-02-04T14:36:28.146Z</time>
      </trkpt>
      <trkpt lat="42.48953" lon="3.08535">
        <ele>417</ele>
        <time>2020-02-04T14:36:45.125Z</time>
      </trkpt>
      <trkpt lat="42.48954" lon="3.08604">
        <ele>413</ele>
        <time>2020-02-04T14:37:02.112Z</time>
      </trkpt>
      <trkpt lat="42.48959" lon="3.08625">
        <ele>411</ele>
        <time>2020-02-04T14:37:19.101Z</time>
      </trkpt>
      <trkpt lat="42.48965" lon="3.08625">
        <ele>410</ele>
        <time>2020-02-04T14:37:36.091Z</time>
      </trkpt>
      <trkpt lat="42.48962" lon="3.08593">
        <ele>411</ele>
        <time>2020-02-04T14:37:53.085Z</time>
      </trkpt>
      <trkpt lat="42.48971" lon="3.08546">
        <ele>409</ele>
        <time>2020-02-04T14:38:10.085Z</time>
      </trkpt>
      <trkpt lat="42.48959" lon="3.08491">
        <ele>413</ele>
        <time>2020-02-04T14:38:27.092Z</time>
      </trkpt>
      <trkpt lat="42.48953" lon="3.08414">
        <ele>422</ele>
        <time>2020-02-04T14:38:44.108Z</time>
      </trkpt>
      <trkpt lat="42.48958" lon="3.084">
        <ele>421</ele>
        <time>2020-02-04T14:39:01.126Z</time>
      </trkpt>
      <trkpt lat="42.48963" lon="3.08401">
        <ele>418</ele>
        <time>2020-02-04T14:39:18.144Z</time>
      </trkpt>
      <trkpt lat="42.48973" lon="3.08459">
        <ele>407</ele>
        <time>2020-02-04T14:39:35.170Z</time>
      </trkpt>
      <trkpt lat="42.49029" lon="3.08618">
        <ele>387</ele>
        <time>2020-02-04T14:39:52.216Z</time>
      </trkpt>
      <trkpt lat="42.49046" lon="3.08699">
        <ele>381</ele>
        <time>2020-02-04T14:40:09.272Z</time>
      </trkpt>
      <trkpt lat="42.49046" lon="3.08735">
        <ele>379</ele>
        <time>2020-02-04T14:40:26.333Z</time>
      </trkpt>
      <trkpt lat="42.4904" lon="3.08751">
        <ele>377</ele>
        <time>2020-02-04T14:40:43.396Z</time>
      </trkpt>
      <trkpt lat="42.4904" lon="3.08751">
        <ele>377</ele>
        <time>2020-02-04T14:41:00.459Z</time>
      </trkpt>
      <trkpt lat="42.49026" lon="3.08764">
        <ele>377</ele>
        <time>2020-02-04T14:41:17.525Z</time>
      </trkpt>
      <trkpt lat="42.49016" lon="3.08764">
        <ele>379</ele>
        <time>2020-02-04T14:41:34.592Z</time>
      </trkpt>
      <trkpt lat="42.48901" lon="3.08731">
        <ele>385</ele>
        <time>2020-02-04T14:41:51.678Z</time>
      </trkpt>
      <trkpt lat="42.48886" lon="3.08722">
        <ele>384</ele>
        <time>2020-02-04T14:42:08.766Z</time>
      </trkpt>
      <trkpt lat="42.48845" lon="3.08663">
        <ele>389</ele>
        <time>2020-02-04T14:42:25.864Z</time>
      </trkpt>
      <trkpt lat="42.48818" lon="3.08634">
        <ele>393</ele>
        <time>2020-02-04T14:42:42.968Z</time>
      </trkpt>
      <trkpt lat="42.48793" lon="3.08616">
        <ele>396</ele>
        <time>2020-02-04T14:43:00.076Z</time>
      </trkpt>
      <trkpt lat="42.48753" lon="3.08601">
        <ele>398</ele>
        <time>2020-02-04T14:43:17.191Z</time>
      </trkpt>
      <trkpt lat="42.48711" lon="3.08618">
        <ele>399</ele>
        <time>2020-02-04T14:43:34.313Z</time>
      </trkpt>
      <trkpt lat="42.48673" lon="3.08681">
        <ele>382</ele>
        <time>2020-02-04T14:43:51.444Z</time>
      </trkpt>
      <trkpt lat="42.4865" lon="3.08691">
        <ele>378</ele>
        <time>2020-02-04T14:44:08.579Z</time>
      </trkpt>
      <trkpt lat="42.48605" lon="3.08644">
        <ele>392</ele>
        <time>2020-02-04T14:44:25.723Z</time>
      </trkpt>
      <trkpt lat="42.48571" lon="3.08624">
        <ele>395</ele>
        <time>2020-02-04T14:44:42.873Z</time>
      </trkpt>
      <trkpt lat="42.48516" lon="3.0861">
        <ele>384</ele>
        <time>2020-02-04T14:45:00.032Z</time>
      </trkpt>
      <trkpt lat="42.48458" lon="3.08544">
        <ele>392</ele>
        <time>2020-02-04T14:45:17.203Z</time>
      </trkpt>
      <trkpt lat="42.48429" lon="3.08524">
        <ele>390</ele>
        <time>2020-02-04T14:45:34.380Z</time>
      </trkpt>
      <trkpt lat="42.4839" lon="3.08509">
        <ele>386</ele>
        <time>2020-02-04T14:45:51.563Z</time>
      </trkpt>
      <trkpt lat="42.48373" lon="3.08513">
        <ele>382</ele>
        <time>2020-02-04T14:46:08.749Z</time>
      </trkpt>
      <trkpt lat="42.48365" lon="3.08523">
        <ele>378</ele>
        <time>2020-02-04T14:46:25.937Z</time>
      </trkpt>
      <trkpt lat="42.48351" lon="3.08591">
        <ele>376</ele>
        <time>2020-02-04T14:46:43.133Z</time>
      </trkpt>
      <trkpt lat="42.48252" lon="3.08806">
        <ele>365</ele>
        <time>2020-02-04T14:47:00.359Z</time>
      </trkpt>
      <trkpt lat="42.48239" lon="3.08875">
        <ele>355</ele>
        <time>2020-02-04T14:47:17.593Z</time>
      </trkpt>
      <trkpt lat="42.48226" lon="3.0891">
        <ele>349</ele>
        <time>2020-02-04T14:47:34.832Z</time>
      </trkpt>
      <trkpt lat="42.48226" lon="3.0891">
        <ele>349</ele>
        <time>2020-02-04T14:47:52.071Z</time>
      </trkpt>
      <trkpt lat="42.48163" lon="3.09006">
        <ele>350</ele>
        <time>2020-02-04T14:48:09.325Z</time>
      </trkpt>
      <trkpt lat="42.48114" lon="3.09067">
        <ele>342</ele>
        <time>2020-02-04T14:48:26.590Z</time>
      </trkpt>
      <trkpt lat="42.48121" lon="3.0907">
        <ele>341</ele>
        <time>2020-02-04T14:48:43.856Z</time>
      </trkpt>
      <trkpt lat="42.48155" lon="3.09044">
        <ele>344</ele>
        <time>2020-02-04T14:49:01.128Z</time>
      </trkpt>
      <trkpt lat="42.48275" lon="3.08917">
        <ele>343</ele>
        <time>2020-02-04T14:49:18.425Z</time>
      </trkpt>
      <trkpt lat="42.48311" lon="3.08816">
        <ele>343</ele>
        <time>2020-02-04T14:49:35.735Z</time>
      </trkpt>
      <trkpt lat="42.48377" lon="3.08703">
        <ele>345</ele>
        <time>2020-02-04T14:49:53.062Z</time>
      </trkpt>
      <trkpt lat="42.48377" lon="3.08703">
        <ele>345</ele>
        <time>2020-02-04T14:50:10.389Z</time>
      </trkpt>
      <trkpt lat="42.4841" lon="3.08661">
        <ele>346</ele>
        <time>2020-02-04T14:50:27.723Z</time>
      </trkpt>
      <trkpt lat="42.48424" lon="3.08658">
        <ele>347</ele>
        <time>2020-02-04T14:50:45.059Z</time>
      </trkpt>
      <trkpt lat="42.48472" lon="3.08731">
        <ele>330</ele>
        <time>2020-02-04T14:51:02.407Z</time>
      </trkpt>
      <trkpt lat="42.48532" lon="3.08776">
        <ele>324</ele>
        <time>2020-02-04T14:51:19.766Z</time>
      </trkpt>
      <trkpt lat="42.48547" lon="3.08801">
        <ele>317</ele>
        <time>2020-02-04T14:51:37.129Z</time>
      </trkpt>
      <trkpt lat="42.48542" lon="3.08808">
        <ele>314</ele>
        <time>2020-02-04T14:51:54.493Z</time>
      </trkpt>
      <trkpt lat="42.48506" lon="3.08774">
        <ele>321</ele>
        <time>2020-02-04T14:52:11.864Z</time>
      </trkpt>
      <trkpt lat="42.48462" lon="3.08754">
        <ele>323</ele>
        <time>2020-02-04T14:52:29.242Z</time>
      </trkpt>
      <trkpt lat="42.48426" lon="3.08708">
        <ele>332</ele>
        <time>2020-02-04T14:52:46.628Z</time>
      </trkpt>
      <trkpt lat="42.48409" lon="3.08717">
        <ele>331</ele>
        <time>2020-02-04T14:53:04.017Z</time>
      </trkpt>
      <trkpt lat="42.48389" lon="3.08775">
        <ele>322</ele>
        <time>2020-02-04T14:53:21.414Z</time>
      </trkpt>
      <trkpt lat="42.48389" lon="3.08775">
        <ele>322</ele>
        <time>2020-02-04T14:53:38.811Z</time>
      </trkpt>
      <trkpt lat="42.48372" lon="3.0882">
        <ele>317</ele>
        <time>2020-02-04T14:53:56.214Z</time>
      </trkpt>
      <trkpt lat="42.48368" lon="3.08884">
        <ele>309</ele>
        <time>2020-02-04T14:54:13.624Z</time>
      </trkpt>
      <trkpt lat="42.48402" lon="3.0901">
        <ele>287</ele>
        <time>2020-02-04T14:54:31.050Z</time>
      </trkpt>
      <trkpt lat="42.48406" lon="3.09045">
        <ele>284</ele>
        <time>2020-02-04T14:54:48.480Z</time>
      </trkpt>
      <trkpt lat="42.48406" lon="3.09077">
        <ele>282</ele>
        <time>2020-02-04T14:55:05.914Z</time>
      </trkpt>
      <trkpt lat="42.48395" lon="3.09138">
        <ele>278</ele>
        <time>2020-02-04T14:55:23.356Z</time>
      </trkpt>
      <trkpt lat="42.48383" lon="3.09176">
        <ele>273</ele>
        <time>2020-02-04T14:55:40.803Z</time>
      </trkpt>
      <trkpt lat="42.48373" lon="3.09186">
        <ele>274</ele>
        <time>2020-02-04T14:55:58.252Z</time>
      </trkpt>
      <trkpt lat="42.48349" lon="3.09187">
        <ele>277</ele>
        <time>2020-02-04T14:56:15.704Z</time>
      </trkpt>
      <trkpt lat="42.48349" lon="3.09187">
        <ele>277</ele>
        <time>2020-02-04T14:56:33.156Z</time>
      </trkpt>
      <trkpt lat="42.48313" lon="3.09193">
        <ele>281</ele>
        <time>2020-02-04T14:56:50.614Z</time>
      </trkpt>
      <trkpt lat="42.48297" lon="3.09207">
        <ele>281</ele>
        <time>2020-02-04T14:57:08.075Z</time>
      </trkpt>
      <trkpt lat="42.48283" lon="3.09303">
        <ele>268</ele>
        <time>2020-02-04T14:57:25.548Z</time>
      </trkpt>
      <trkpt lat="42.48253" lon="3.09396">
        <ele>256</ele>
        <time>2020-02-04T14:57:43.033Z</time>
      </trkpt>
      <trkpt lat="42.48263" lon="3.0943">
        <ele>249</ele>
        <time>2020-02-04T14:58:00.522Z</time>
      </trkpt>
      <trkpt lat="42.48288" lon="3.09513">
        <ele>239</ele>
        <time>2020-02-04T14:58:18.022Z</time>
      </trkpt>
      <trkpt lat="42.48286" lon="3.09523">
        <ele>240</ele>
        <time>2020-02-04T14:58:35.523Z</time>
      </trkpt>
      <trkpt lat="42.48277" lon="3.09525">
        <ele>240</ele>
        <time>2020-02-04T14:58:53.026Z</time>
      </trkpt>
      <trkpt lat="42.48244" lon="3.09457">
        <ele>244</ele>
        <time>2020-02-04T14:59:10.538Z</time>
      </trkpt>
      <trkpt lat="42.48208" lon="3.09424">
        <ele>247</ele>
        <time>2020-02-04T14:59:28.057Z</time>
      </trkpt>
      <trkpt lat="42.48127" lon="3.09392">
        <ele>258</ele>
        <time>2020-02-04T14:59:45.590Z</time>
      </trkpt>
      <trkpt lat="42.48105" lon="3.0947">
        <ele>238</ele>
        <time>2020-02-04T15:00:03.132Z</time>
      </trkpt>
      <trkpt lat="42.48084" lon="3.09501">
        <ele>232</ele>
        <time>2020-02-04T15:00:20.679Z</time>
      </trkpt>
      <trkpt lat="42.48065" lon="3.09515">
        <ele>234</ele>
        <time>2020-02-04T15:00:38.230Z</time>
      </trkpt>
      <trkpt lat="42.48025" lon="3.09599">
        <ele>221</ele>
        <time>2020-02-04T15:00:55.793Z</time>
      </trkpt>
      <trkpt lat="42.47988" lon="3.09642">
        <ele>216</ele>
        <time>2020-02-04T15:01:13.363Z</time>
      </trkpt>
      <trkpt lat="42.47949" lon="3.09644">
        <ele>221</ele>
        <time>2020-02-04T15:01:30.940Z</time>
      </trkpt>
      <trkpt lat="42.47928" lon="3.09663">
        <ele>217</ele>
        <time>2020-02-04T15:01:48.521Z</time>
      </trkpt>
      <trkpt lat="42.47899" lon="3.09673">
        <ele>219</ele>
        <time>2020-02-04T15:02:06.106Z</time>
      </trkpt>
      <trkpt lat="42.47884" lon="3.09696">
        <ele>217</ele>
        <time>2020-02-04T15:02:23.695Z</time>
      </trkpt>
      <trkpt lat="42.47864" lon="3.09746">
        <ele>206</ele>
        <time>2020-02-04T15:02:41.291Z</time>
      </trkpt>
      <trkpt lat="42.47824" lon="3.09788">
        <ele>206</ele>
        <time>2020-02-04T15:02:58.895Z</time>
      </trkpt>
      <trkpt lat="42.47819" lon="3.09885">
        <ele>191</ele>
        <time>2020-02-04T15:03:16.510Z</time>
      </trkpt>
      <trkpt lat="42.478" lon="3.09963">
        <ele>197</ele>
        <time>2020-02-04T15:03:34.135Z</time>
      </trkpt>
      <trkpt lat="42.47822" lon="3.10012">
        <ele>187</ele>
        <time>2020-02-04T15:03:51.767Z</time>
      </trkpt>
      <trkpt lat="42.47834" lon="3.10141">
        <ele>177</ele>
        <time>2020-02-04T15:04:09.414Z</time>
      </trkpt>
      <trkpt lat="42.47834" lon="3.10141">
        <ele>177</ele>
        <time>2020-02-04T15:04:27.061Z</time>
      </trkpt>
      <trkpt lat="42.47808" lon="3.1022">
        <ele>177</ele>
        <time>2020-02-04T15:04:44.719Z</time>
      </trkpt>
      <trkpt lat="42.47803" lon="3.10259">
        <ele>172</ele>
        <time>2020-02-04T15:05:02.381Z</time>
      </trkpt>
      <trkpt lat="42.47786" lon="3.10319">
        <ele>170</ele>
        <time>2020-02-04T15:05:20.051Z</time>
      </trkpt>
      <trkpt lat="42.47788" lon="3.10438">
        <ele>153</ele>
        <time>2020-02-04T15:05:37.735Z</time>
      </trkpt>
      <trkpt lat="42.4778" lon="3.10467">
        <ele>151</ele>
        <time>2020-02-04T15:05:55.423Z</time>
      </trkpt>
      <trkpt lat="42.47767" lon="3.10476">
        <ele>152</ele>
        <time>2020-02-04T15:06:13.113Z</time>
      </trkpt>
      <trkpt lat="42.47767" lon="3.10476">
        <ele>152</ele>
        <time>2020-02-04T15:06:30.803Z</time>
      </trkpt>
      <trkpt lat="42.47717" lon="3.10429">
        <ele>167</ele>
        <time>2020-02-04T15:06:48.503Z</time>
      </trkpt>
      <trkpt lat="42.47693" lon="3.10422">
        <ele>169</ele>
        <time>2020-02-04T15:07:06.207Z</time>
      </trkpt>
      <trkpt lat="42.47695" lon="3.10616">
        <ele>142</ele>
        <time>2020-02-04T15:07:23.934Z</time>
      </trkpt>
      <trkpt lat="42.47669" lon="3.10657">
        <ele>138</ele>
        <time>2020-02-04T15:07:41.667Z</time>
      </trkpt>
      <trkpt lat="42.476" lon="3.10671">
        <ele>147</ele>
        <time>2020-02-04T15:07:59.411Z</time>
      </trkpt>
      <trkpt lat="42.47574" lon="3.10726">
        <ele>143</ele>
        <time>2020-02-04T15:08:17.163Z</time>
      </trkpt>
      <trkpt lat="42.47575" lon="3.10737">
        <ele>142</ele>
        <time>2020-02-04T15:08:34.916Z</time>
      </trkpt>
      <trkpt lat="42.47608" lon="3.10787">
        <ele>132</ele>
        <time>2020-02-04T15:08:52.677Z</time>
      </trkpt>
      <trkpt lat="42.47672" lon="3.1083">
        <ele>118</ele>
        <time>2020-02-04T15:09:10.450Z</time>
      </trkpt>
      <trkpt lat="42.47709" lon="3.10932">
        <ele>113</ele>
        <time>2020-02-04T15:09:28.236Z</time>
      </trkpt>
      <trkpt lat="42.47721" lon="3.11093">
        <ele>105</ele>
        <time>2020-02-04T15:09:46.041Z</time>
      </trkpt>
      <trkpt lat="42.47715" lon="3.1113">
        <ele>104</ele>
        <time>2020-02-04T15:10:03.851Z</time>
      </trkpt>
      <trkpt lat="42.4768" lon="3.11229">
        <ele>101</ele>
        <time>2020-02-04T15:10:21.674Z</time>
      </trkpt>
      <trkpt lat="42.4768" lon="3.11229">
        <ele>101</ele>
        <time>2020-02-04T15:10:39.497Z</time>
      </trkpt>
      <trkpt lat="42.47677" lon="3.11238">
        <ele>101</ele>
        <time>2020-02-04T15:10:57.321Z</time>
      </trkpt>
      <trkpt lat="42.47576" lon="3.1141">
        <ele>88</ele>
        <time>2020-02-04T15:11:15.171Z</time>
      </trkpt>
      <trkpt lat="42.4755" lon="3.11433">
        <ele>89</ele>
        <time>2020-02-04T15:11:33.026Z</time>
      </trkpt>
      <trkpt lat="42.47555" lon="3.11521">
        <ele>82</ele>
        <time>2020-02-04T15:11:50.891Z</time>
      </trkpt>
      <trkpt lat="42.47538" lon="3.11585">
        <ele>78</ele>
        <time>2020-02-04T15:12:08.764Z</time>
      </trkpt>
      <trkpt lat="42.47538" lon="3.11585">
        <ele>78</ele>
        <time>2020-02-04T15:12:26.637Z</time>
      </trkpt>
      <trkpt lat="42.47507" lon="3.11611">
        <ele>79</ele>
        <time>2020-02-04T15:12:44.516Z</time>
      </trkpt>
      <trkpt lat="42.47497" lon="3.1163">
        <ele>80</ele>
        <time>2020-02-04T15:13:02.398Z</time>
      </trkpt>
      <trkpt lat="42.47496" lon="3.11652">
        <ele>79</ele>
        <time>2020-02-04T15:13:20.283Z</time>
      </trkpt>
      <trkpt lat="42.47507" lon="3.11665">
        <ele>77</ele>
        <time>2020-02-04T15:13:38.170Z</time>
      </trkpt>
      <trkpt lat="42.47511" lon="3.11665">
        <ele>76</ele>
        <time>2020-02-04T15:13:56.058Z</time>
      </trkpt>
      <trkpt lat="42.47511" lon="3.11665">
        <ele>76</ele>
        <time>2020-02-04T15:14:13.946Z</time>
      </trkpt>
      <trkpt lat="42.47525" lon="3.11653">
        <ele>73</ele>
        <time>2020-02-04T15:14:31.836Z</time>
      </trkpt>
      <trkpt lat="42.47566" lon="3.11587">
        <ele>74</ele>
        <time>2020-02-04T15:14:49.736Z</time>
      </trkpt>
      <trkpt lat="42.47604" lon="3.11548">
        <ele>69</ele>
        <time>2020-02-04T15:15:07.644Z</time>
      </trkpt>
      <trkpt lat="42.47632" lon="3.11495">
        <ele>67</ele>
        <time>2020-02-04T15:15:25.560Z</time>
      </trkpt>
      <trkpt lat="42.47707" lon="3.11417">
        <ele>58</ele>
        <time>2020-02-04T15:15:43.491Z</time>
      </trkpt>
      <trkpt lat="42.47734" lon="3.11351">
        <ele>59</ele>
        <time>2020-02-04T15:16:01.431Z</time>
      </trkpt>
      <trkpt lat="42.47752" lon="3.11354">
        <ele>53</ele>
        <time>2020-02-04T15:16:19.374Z</time>
      </trkpt>
      <trkpt lat="42.47756" lon="3.1137">
        <ele>50</ele>
        <time>2020-02-04T15:16:37.319Z</time>
      </trkpt>
      <trkpt lat="42.47742" lon="3.11417">
        <ele>47</ele>
        <time>2020-02-04T15:16:55.270Z</time>
      </trkpt>
      <trkpt lat="42.47731" lon="3.11536">
        <ele>42</ele>
        <time>2020-02-04T15:17:13.235Z</time>
      </trkpt>
      <trkpt lat="42.47731" lon="3.11536">
        <ele>42</ele>
        <time>2020-02-04T15:17:31.200Z</time>
      </trkpt>
      <trkpt lat="42.47723" lon="3.11636">
        <ele>37</ele>
        <time>2020-02-04T15:17:49.177Z</time>
      </trkpt>
      <trkpt lat="42.47691" lon="3.11727">
        <ele>29</ele>
        <time>2020-02-04T15:18:07.166Z</time>
      </trkpt>
      <trkpt lat="42.47685" lon="3.11781">
        <ele>24</ele>
        <time>2020-02-04T15:18:25.161Z</time>
      </trkpt>
      <trkpt lat="42.47667" lon="3.11876">
        <ele>15</ele>
        <time>2020-02-04T15:18:43.168Z</time>
      </trkpt>
      <trkpt lat="42.47669" lon="3.11926">
        <ele>13</ele>
        <time>2020-02-04T15:19:01.181Z</time>
      </trkpt>
      <trkpt lat="42.47685" lon="3.12016">
        <ele>12</ele>
        <time>2020-02-04T15:19:19.205Z</time>
      </trkpt>
      <trkpt lat="42.47676" lon="3.12057">
        <ele>12</ele>
        <time>2020-02-04T15:19:37.234Z</time>
      </trkpt>
      <trkpt lat="42.47666" lon="3.12073">
        <ele>11</ele>
        <time>2020-02-04T15:19:55.265Z</time>
      </trkpt>
      <trkpt lat="42.4766" lon="3.12069">
        <ele>12</ele>
        <time>2020-02-04T15:20:13.297Z</time>
      </trkpt>
      <trkpt lat="42.4765" lon="3.12076">
        <ele>13</ele>
        <time>2020-02-04T15:20:31.331Z</time>
      </trkpt>
      <trkpt lat="42.47647" lon="3.12088">
        <ele>14</ele>
        <time>2020-02-04T15:20:49.367Z</time>
      </trkpt>
      <trkpt lat="42.47656" lon="3.12101">
        <ele>12</ele>
        <time>2020-02-04T15:21:07.405Z</time>
      </trkpt>
      <trkpt lat="42.4759" lon="3.12251">
        <ele>12</ele>
        <time>2020-02-04T15:21:25.464Z</time>
      </trkpt>
      <trkpt lat="42.4751" lon="3.12397">
        <ele>10</ele>
        <time>2020-02-04T15:21:43.544Z</time>
      </trkpt>
      <trkpt lat="42.47508" lon="3.12404">
        <ele>9</ele>
        <time>2020-02-04T15:22:01.625Z</time>
      </trkpt>
      <trkpt lat="42.47502" lon="3.12419">
        <ele>8</ele>
        <time>2020-02-04T15:22:19.708Z</time>
      </trkpt>
      <trkpt lat="42.47503" lon="3.1244">
        <ele>8</ele>
        <time>2020-02-04T15:22:37.794Z</time>
      </trkpt>
      <trkpt lat="42.47528" lon="3.12526">
        <ele>7</ele>
        <time>2020-02-04T15:22:55.890Z</time>
      </trkpt>
      <trkpt lat="42.47531" lon="3.12533">
        <ele>7</ele>
        <time>2020-02-04T15:23:13.987Z</time>
      </trkpt>
      <trkpt lat="42.47539" lon="3.12555">
        <ele>8</ele>
        <time>2020-02-04T15:23:32.087Z</time>
      </trkpt>
      <trkpt lat="42.47539" lon="3.12555">
        <ele>8</ele>
        <time>2020-02-04T15:23:50.187Z</time>
      </trkpt>
      <trkpt lat="42.47608" lon="3.12678">
        <ele>4</ele>
        <time>2020-02-04T15:24:08.306Z</time>
      </trkpt>
      <trkpt lat="42.47608" lon="3.12678">
        <ele>4</ele>
        <time>2020-02-04T15:24:26.425Z</time>
      </trkpt>
      <trkpt lat="42.47649" lon="3.12734">
        <ele>3</ele>
        <time>2020-02-04T15:24:44.553Z</time>
      </trkpt>
      <trkpt lat="42.47649" lon="3.12734">
        <ele>3</ele>
        <time>2020-02-04T15:25:02.681Z</time>
      </trkpt>
      <trkpt lat="42.47667" lon="3.12757">
        <ele>3</ele>
        <time>2020-02-04T15:25:20.813Z</time>
      </trkpt>
      <trkpt lat="42.47667" lon="3.12757">
        <ele>3</ele>
        <time>2020-02-04T15:25:38.945Z</time>
      </trkpt>
      <trkpt lat="42.47667" lon="3.12757">
        <ele>3</ele>
        <time>2020-02-04T15:25:57.077Z</time>
      </trkpt>
      <trkpt lat="42.47667" lon="3.12758">
        <ele>3</ele>
        <time>2020-02-04T15:26:15.209Z</time>
      </trkpt>
      <trkpt lat="42.47667" lon="3.12758">
        <ele>3</ele>
        <time>2020-02-04T15:26:33.341Z</time>
      </trkpt>
      <trkpt lat="42.47701" lon="3.12801">
        <ele>3</ele>
        <time>2020-02-04T15:26:51.480Z</time>
      </trkpt>
      <trkpt lat="42.47701" lon="3.12801">
        <ele>3</ele>
        <time>2020-02-04T15:27:09.619Z</time>
      </trkpt>
      <trkpt lat="42.47735" lon="3.12844">
        <ele>4</ele>
        <time>2020-02-04T15:27:27.766Z</time>
      </trkpt>
      <trkpt lat="42.47746" lon="3.12857">
        <ele>4</ele>
        <time>2020-02-04T15:27:45.915Z</time>
      </trkpt>
      <trkpt lat="42.47746" lon="3.12857">
        <ele>4</ele>
        <time>2020-02-04T15:28:04.064Z</time>
      </trkpt>
      <trkpt lat="42.47808" lon="3.12932">
        <ele>5</ele>
        <time>2020-02-04T15:28:22.226Z</time>
      </trkpt>
      <trkpt lat="42.47836" lon="3.1294">
        <ele>6</ele>
        <time>2020-02-04T15:28:40.393Z</time>
      </trkpt>
      <trkpt lat="42.47935" lon="3.12918">
        <ele>5</ele>
        <time>2020-02-04T15:28:58.576Z</time>
      </trkpt>
      <trkpt lat="42.47935" lon="3.12918">
        <ele>5</ele>
        <time>2020-02-04T15:29:16.759Z</time>
      </trkpt>
      <trkpt lat="42.47952" lon="3.12914">
        <ele>5</ele>
        <time>2020-02-04T15:29:34.945Z</time>
      </trkpt>
      <trkpt lat="42.47952" lon="3.12914">
        <ele>5</ele>
        <time>2020-02-04T15:29:53.131Z</time>
      </trkpt>
      <trkpt lat="42.47991" lon="3.12903">
        <ele>6</ele>
        <time>2020-02-04T15:30:11.323Z</time>
      </trkpt>
      <trkpt lat="42.48055" lon="3.12903">
        <ele>5</ele>
        <time>2020-02-04T15:30:29.525Z</time>
      </trkpt>
      <trkpt lat="42.48055" lon="3.12903">
        <ele>5</ele>
        <time>2020-02-04T15:30:47.727Z</time>
      </trkpt>
      <trkpt lat="42.48076" lon="3.12904">
        <ele>5</ele>
        <time>2020-02-04T15:31:05.933Z</time>
      </trkpt>
      <trkpt lat="42.48116" lon="3.12916">
        <ele>6</ele>
        <time>2020-02-04T15:31:24.145Z</time>
      </trkpt>
      <trkpt lat="42.48116" lon="3.12916">
        <ele>6</ele>
        <time>2020-02-04T15:31:42.357Z</time>
      </trkpt>
      <trkpt lat="42.48122" lon="3.12921">
        <ele>6</ele>
        <time>2020-02-04T15:32:00.570Z</time>
      </trkpt>
      <trkpt lat="42.48122" lon="3.12921">
        <ele>6</ele>
        <time>2020-02-04T15:32:18.783Z</time>
      </trkpt>
      <trkpt lat="42.48134" lon="3.12932">
        <ele>6</ele>
        <time>2020-02-04T15:32:36.999Z</time>
      </trkpt>
      <trkpt lat="42.48135" lon="3.12963">
        <ele>5</ele>
        <time>2020-02-04T15:32:55.218Z</time>
      </trkpt>
      <trkpt lat="42.48116" lon="3.12987">
        <ele>5</ele>
        <time>2020-02-04T15:33:13.442Z</time>
      </trkpt>
      <trkpt lat="42.48116" lon="3.12987">
        <ele>5</ele>
        <time>2020-02-04T15:33:31.666Z</time>
      </trkpt>
      <trkpt lat="42.48104" lon="3.13006">
        <ele>4</ele>
        <time>2020-02-04T15:33:49.893Z</time>
      </trkpt>
      <trkpt lat="42.4808" lon="3.13058">
        <ele>3</ele>
        <time>2020-02-04T15:34:08.127Z</time>
      </trkpt>
      <trkpt lat="42.48069" lon="3.13095">
        <ele>3</ele>
        <time>2020-02-04T15:34:26.365Z</time>
      </trkpt>
      <trkpt lat="42.4806" lon="3.1313">
        <ele>5</ele>
        <time>2020-02-04T15:34:44.608Z</time>
      </trkpt>
      <trkpt lat="42.48057" lon="3.13147">
        <ele>5</ele>
        <time>2020-02-04T15:35:02.853Z</time>
      </trkpt>
      <trkpt lat="42.4805" lon="3.13172">
        <ele>8</ele>
        <time>2020-02-04T15:35:21.101Z</time>
      </trkpt>
      <trkpt lat="42.4805" lon="3.13172">
        <ele>8</ele>
        <time>2020-02-04T15:35:39.349Z</time>
      </trkpt>
      <trkpt lat="42.48034" lon="3.13291">
        <ele>7</ele>
        <time>2020-02-04T15:35:57.611Z</time>
      </trkpt>
      <trkpt lat="42.47994" lon="3.13433">
        <ele>6</ele>
        <time>2020-02-04T15:36:15.891Z</time>
      </trkpt>
      <trkpt lat="42.47992" lon="3.13535">
        <ele>6</ele>
        <time>2020-02-04T15:36:34.183Z</time>
      </trkpt>
      <trkpt lat="42.48009" lon="3.13601">
        <ele>8</ele>
        <time>2020-02-04T15:36:52.484Z</time>
      </trkpt>
      <trkpt lat="42.4801" lon="3.13625">
        <ele>8</ele>
        <time>2020-02-04T15:37:10.788Z</time>
      </trkpt>
      <trkpt lat="42.48003" lon="3.13651">
        <ele>9</ele>
        <time>2020-02-04T15:37:29.095Z</time>
      </trkpt>
      <trkpt lat="42.4795" lon="3.1371">
        <ele>20</ele>
        <time>2020-02-04T15:37:47.413Z</time>
      </trkpt>
      <trkpt lat="42.47947" lon="3.13737">
        <ele>20</ele>
        <time>2020-02-04T15:38:05.734Z</time>
      </trkpt>
      <trkpt lat="42.47967" lon="3.13747">
        <ele>18</ele>
        <time>2020-02-04T15:38:24.059Z</time>
      </trkpt>
      <trkpt lat="42.48009" lon="3.13705">
        <ele>11</ele>
        <time>2020-02-04T15:38:42.392Z</time>
      </trkpt>
      <trkpt lat="42.48026" lon="3.13707">
        <ele>9</ele>
        <time>2020-02-04T15:39:00.728Z</time>
      </trkpt>
      <trkpt lat="42.48041" lon="3.13721">
        <ele>8</ele>
        <time>2020-02-04T15:39:19.066Z</time>
      </trkpt>
      <trkpt lat="42.48047" lon="3.13749">
        <ele>9</ele>
        <time>2020-02-04T15:39:37.408Z</time>
      </trkpt>
      <trkpt lat="42.48045" lon="3.13795">
        <ele>9</ele>
        <time>2020-02-04T15:39:55.755Z</time>
      </trkpt>
      <trkpt lat="42.48046" lon="3.13805">
        <ele>9</ele>
        <time>2020-02-04T15:40:14.103Z</time>
      </trkpt>
      <trkpt lat="42.48039" lon="3.13867">
        <ele>19</ele>
        <time>2020-02-04T15:40:32.459Z</time>
      </trkpt>
      <trkpt lat="42.48017" lon="3.13893">
        <ele>24</ele>
        <time>2020-02-04T15:40:50.820Z</time>
      </trkpt>
      <trkpt lat="42.47996" lon="3.13927">
        <ele>26</ele>
        <time>2020-02-04T15:41:09.186Z</time>
      </trkpt>
      <trkpt lat="42.48001" lon="3.13943">
        <ele>26</ele>
        <time>2020-02-04T15:41:27.554Z</time>
      </trkpt>
      <trkpt lat="42.48006" lon="3.13979">
        <ele>26</ele>
        <time>2020-02-04T15:41:45.926Z</time>
      </trkpt>
      <trkpt lat="42.48002" lon="3.13986">
        <ele>26</ele>
        <time>2020-02-04T15:42:04.299Z</time>
      </trkpt>
      <trkpt lat="42.47982" lon="3.13987">
        <ele>29</ele>
        <time>2020-02-04T15:42:22.676Z</time>
      </trkpt>
      <trkpt lat="42.47947" lon="3.13974">
        <ele>33</ele>
        <time>2020-02-04T15:42:41.058Z</time>
      </trkpt>
      <trkpt lat="42.47916" lon="3.13974">
        <ele>37</ele>
        <time>2020-02-04T15:42:59.445Z</time>
      </trkpt>
      <trkpt lat="42.47907" lon="3.13986">
        <ele>38</ele>
        <time>2020-02-04T15:43:17.834Z</time>
      </trkpt>
      <trkpt lat="42.47909" lon="3.14004">
        <ele>38</ele>
        <time>2020-02-04T15:43:36.225Z</time>
      </trkpt>
      <trkpt lat="42.47925" lon="3.14036">
        <ele>36</ele>
        <time>2020-02-04T15:43:54.621Z</time>
      </trkpt>
      <trkpt lat="42.47924" lon="3.1405">
        <ele>37</ele>
        <time>2020-02-04T15:44:13.019Z</time>
      </trkpt>
      <trkpt lat="42.47924" lon="3.14078">
        <ele>39</ele>
        <time>2020-02-04T15:44:31.420Z</time>
      </trkpt>
      <trkpt lat="42.47925" lon="3.14128">
        <ele>39</ele>
        <time>2020-02-04T15:44:49.827Z</time>
      </trkpt>
      <trkpt lat="42.47926" lon="3.14173">
        <ele>40</ele>
        <time>2020-02-04T15:45:08.239Z</time>
      </trkpt>
      <trkpt lat="42.47912" lon="3.142">
        <ele>38</ele>
        <time>2020-02-04T15:45:26.655Z</time>
      </trkpt>
      <trkpt lat="42.479" lon="3.14208">
        <ele>38</ele>
        <time>2020-02-04T15:45:45.073Z</time>
      </trkpt>
      <trkpt lat="42.47865" lon="3.14217">
        <ele>42</ele>
        <time>2020-02-04T15:46:03.497Z</time>
      </trkpt>
      <trkpt lat="42.47815" lon="3.14274">
        <ele>43</ele>
        <time>2020-02-04T15:46:21.931Z</time>
      </trkpt>
      <trkpt lat="42.478" lon="3.14273">
        <ele>45</ele>
        <time>2020-02-04T15:46:40.368Z</time>
      </trkpt>
      <trkpt lat="42.47773" lon="3.14216">
        <ele>55</ele>
        <time>2020-02-04T15:46:58.813Z</time>
      </trkpt>
      <trkpt lat="42.47748" lon="3.14204">
        <ele>58</ele>
        <time>2020-02-04T15:47:17.262Z</time>
      </trkpt>
      <trkpt lat="42.47748" lon="3.14204">
        <ele>58</ele>
        <time>2020-02-04T15:47:35.711Z</time>
      </trkpt>
      <trkpt lat="42.47719" lon="3.14215">
        <ele>60</ele>
        <time>2020-02-04T15:47:54.165Z</time>
      </trkpt>
      <trkpt lat="42.47716" lon="3.14227">
        <ele>60</ele>
        <time>2020-02-04T15:48:12.620Z</time>
      </trkpt>
      <trkpt lat="42.47708" lon="3.14265">
        <ele>57</ele>
        <time>2020-02-04T15:48:31.080Z</time>
      </trkpt>
      <trkpt lat="42.47692" lon="3.14294">
        <ele>54</ele>
        <time>2020-02-04T15:48:49.544Z</time>
      </trkpt>
      <trkpt lat="42.4766" lon="3.1431">
        <ele>55</ele>
        <time>2020-02-04T15:49:08.014Z</time>
      </trkpt>
      <trkpt lat="42.47634" lon="3.14306">
        <ele>54</ele>
        <time>2020-02-04T15:49:26.488Z</time>
      </trkpt>
      <trkpt lat="42.47623" lon="3.14296">
        <ele>55</ele>
        <time>2020-02-04T15:49:44.964Z</time>
      </trkpt>
      <trkpt lat="42.47607" lon="3.14201">
        <ele>69</ele>
        <time>2020-02-04T15:50:03.452Z</time>
      </trkpt>
      <trkpt lat="42.476" lon="3.14184">
        <ele>71</ele>
        <time>2020-02-04T15:50:21.942Z</time>
      </trkpt>
      <trkpt lat="42.47591" lon="3.14178">
        <ele>71</ele>
        <time>2020-02-04T15:50:40.434Z</time>
      </trkpt>
      <trkpt lat="42.47546" lon="3.14216">
        <ele>68</ele>
        <time>2020-02-04T15:50:58.934Z</time>
      </trkpt>
      <trkpt lat="42.47525" lon="3.14212">
        <ele>70</ele>
        <time>2020-02-04T15:51:17.437Z</time>
      </trkpt>
      <trkpt lat="42.47509" lon="3.14197">
        <ele>73</ele>
        <time>2020-02-04T15:51:35.944Z</time>
      </trkpt>
      <trkpt lat="42.47494" lon="3.14193">
        <ele>75</ele>
        <time>2020-02-04T15:51:54.453Z</time>
      </trkpt>
      <trkpt lat="42.47464" lon="3.14228">
        <ele>73</ele>
        <time>2020-02-04T15:52:12.968Z</time>
      </trkpt>
      <trkpt lat="42.47404" lon="3.14248">
        <ele>77</ele>
        <time>2020-02-04T15:52:31.493Z</time>
      </trkpt>
      <trkpt lat="42.47363" lon="3.14327">
        <ele>78</ele>
        <time>2020-02-04T15:52:50.030Z</time>
      </trkpt>
      <trkpt lat="42.47348" lon="3.14395">
        <ele>80</ele>
        <time>2020-02-04T15:53:08.575Z</time>
      </trkpt>
      <trkpt lat="42.47354" lon="3.1442">
        <ele>79</ele>
        <time>2020-02-04T15:53:27.123Z</time>
      </trkpt>
      <trkpt lat="42.47386" lon="3.14456">
        <ele>77</ele>
        <time>2020-02-04T15:53:45.678Z</time>
      </trkpt>
      <trkpt lat="42.47399" lon="3.1449">
        <ele>78</ele>
        <time>2020-02-04T15:54:04.237Z</time>
      </trkpt>
      <trkpt lat="42.474" lon="3.14519">
        <ele>80</ele>
        <time>2020-02-04T15:54:22.800Z</time>
      </trkpt>
      <trkpt lat="42.47394" lon="3.14533">
        <ele>81</ele>
        <time>2020-02-04T15:54:41.365Z</time>
      </trkpt>
      <trkpt lat="42.47376" lon="3.14557">
        <ele>85</ele>
        <time>2020-02-04T15:54:59.934Z</time>
      </trkpt>
      <trkpt lat="42.47376" lon="3.14557">
        <ele>85</ele>
        <time>2020-02-04T15:55:18.503Z</time>
      </trkpt>
      <trkpt lat="42.4737" lon="3.14577">
        <ele>86</ele>
        <time>2020-02-04T15:55:37.074Z</time>
      </trkpt>
      <trkpt lat="42.47371" lon="3.14594">
        <ele>86</ele>
        <time>2020-02-04T15:55:55.647Z</time>
      </trkpt>
      <trkpt lat="42.47382" lon="3.14637">
        <ele>83</ele>
        <time>2020-02-04T15:56:14.226Z</time>
      </trkpt>
      <trkpt lat="42.4737" lon="3.14663">
        <ele>84</ele>
        <time>2020-02-04T15:56:32.808Z</time>
      </trkpt>
      <trkpt lat="42.47325" lon="3.14713">
        <ele>88</ele>
        <time>2020-02-04T15:56:51.400Z</time>
      </trkpt>
      <trkpt lat="42.47293" lon="3.14721">
        <ele>93</ele>
        <time>2020-02-04T15:57:09.997Z</time>
      </trkpt>
      <trkpt lat="42.47272" lon="3.14771">
        <ele>91</ele>
        <time>2020-02-04T15:57:28.601Z</time>
      </trkpt>
      <trkpt lat="42.47263" lon="3.14778">
        <ele>92</ele>
        <time>2020-02-04T15:57:47.206Z</time>
      </trkpt>
      <trkpt lat="42.47232" lon="3.1477">
        <ele>100</ele>
        <time>2020-02-04T15:58:05.816Z</time>
      </trkpt>
      <trkpt lat="42.47221" lon="3.14776">
        <ele>101</ele>
        <time>2020-02-04T15:58:24.428Z</time>
      </trkpt>
      <trkpt lat="42.47155" lon="3.14873">
        <ele>100</ele>
        <time>2020-02-04T15:58:43.056Z</time>
      </trkpt>
      <trkpt lat="42.47155" lon="3.14873">
        <ele>100</ele>
        <time>2020-02-04T15:59:01.684Z</time>
      </trkpt>
      <trkpt lat="42.47139" lon="3.14873">
        <ele>101</ele>
        <time>2020-02-04T15:59:20.314Z</time>
      </trkpt>
      <trkpt lat="42.47111" lon="3.14847">
        <ele>105</ele>
        <time>2020-02-04T15:59:38.950Z</time>
      </trkpt>
      <trkpt lat="42.47081" lon="3.14847">
        <ele>107</ele>
        <time>2020-02-04T15:59:57.591Z</time>
      </trkpt>
      <trkpt lat="42.47045" lon="3.14825">
        <ele>117</ele>
        <time>2020-02-04T16:00:16.238Z</time>
      </trkpt>
      <trkpt lat="42.47011" lon="3.14835">
        <ele>119</ele>
        <time>2020-02-04T16:00:34.890Z</time>
      </trkpt>
      <trkpt lat="42.47005" lon="3.14847">
        <ele>117</ele>
        <time>2020-02-04T16:00:53.544Z</time>
      </trkpt>
      <trkpt lat="42.47003" lon="3.14901">
        <ele>110</ele>
        <time>2020-02-04T16:01:12.204Z</time>
      </trkpt>
      <trkpt lat="42.46985" lon="3.14942">
        <ele>110</ele>
        <time>2020-02-04T16:01:30.870Z</time>
      </trkpt>
      <trkpt lat="42.46933" lon="3.14973">
        <ele>119</ele>
        <time>2020-02-04T16:01:49.545Z</time>
      </trkpt>
      <trkpt lat="42.46913" lon="3.14998">
        <ele>117</ele>
        <time>2020-02-04T16:02:08.225Z</time>
      </trkpt>
      <trkpt lat="42.46883" lon="3.15003">
        <ele>126</ele>
        <time>2020-02-04T16:02:26.909Z</time>
      </trkpt>
      <trkpt lat="42.46853" lon="3.1505">
        <ele>128</ele>
        <time>2020-02-04T16:02:45.601Z</time>
      </trkpt>
      <trkpt lat="42.4685" lon="3.15074">
        <ele>125</ele>
        <time>2020-02-04T16:03:04.296Z</time>
      </trkpt>
      <trkpt lat="42.46861" lon="3.15118">
        <ele>118</ele>
        <time>2020-02-04T16:03:22.996Z</time>
      </trkpt>
      <trkpt lat="42.46859" lon="3.15136">
        <ele>118</ele>
        <time>2020-02-04T16:03:41.698Z</time>
      </trkpt>
      <trkpt lat="42.46825" lon="3.15177">
        <ele>128</ele>
        <time>2020-02-04T16:04:00.408Z</time>
      </trkpt>
      <trkpt lat="42.46819" lon="3.15193">
        <ele>131</ele>
        <time>2020-02-04T16:04:19.120Z</time>
      </trkpt>
      <trkpt lat="42.46837" lon="3.15249">
        <ele>122</ele>
        <time>2020-02-04T16:04:37.839Z</time>
      </trkpt>
      <trkpt lat="42.46862" lon="3.15293">
        <ele>115</ele>
        <time>2020-02-04T16:04:56.565Z</time>
      </trkpt>
      <trkpt lat="42.46862" lon="3.15313">
        <ele>115</ele>
        <time>2020-02-04T16:05:15.293Z</time>
      </trkpt>
      <trkpt lat="42.46862" lon="3.15313">
        <ele>115</ele>
        <time>2020-02-04T16:05:34.021Z</time>
      </trkpt>
      <trkpt lat="42.46824" lon="3.15331">
        <ele>125</ele>
        <time>2020-02-04T16:05:52.755Z</time>
      </trkpt>
      <trkpt lat="42.46792" lon="3.15367">
        <ele>130</ele>
        <time>2020-02-04T16:06:11.496Z</time>
      </trkpt>
      <trkpt lat="42.46779" lon="3.15412">
        <ele>126</ele>
        <time>2020-02-04T16:06:30.243Z</time>
      </trkpt>
      <trkpt lat="42.46779" lon="3.15569">
        <ele>107</ele>
        <time>2020-02-04T16:06:49.008Z</time>
      </trkpt>
      <trkpt lat="42.46766" lon="3.15589">
        <ele>108</ele>
        <time>2020-02-04T16:07:07.776Z</time>
      </trkpt>
      <trkpt lat="42.46747" lon="3.15586">
        <ele>113</ele>
        <time>2020-02-04T16:07:26.548Z</time>
      </trkpt>
      <trkpt lat="42.4668" lon="3.15509">
        <ele>121</ele>
        <time>2020-02-04T16:07:45.334Z</time>
      </trkpt>
      <trkpt lat="42.46651" lon="3.15511">
        <ele>120</ele>
        <time>2020-02-04T16:08:04.124Z</time>
      </trkpt>
      <trkpt lat="42.46609" lon="3.1555">
        <ele>111</ele>
        <time>2020-02-04T16:08:22.922Z</time>
      </trkpt>
      <trkpt lat="42.46588" lon="3.15559">
        <ele>108</ele>
        <time>2020-02-04T16:08:41.724Z</time>
      </trkpt>
      <trkpt lat="42.46563" lon="3.15546">
        <ele>106</ele>
        <time>2020-02-04T16:09:00.530Z</time>
      </trkpt>
      <trkpt lat="42.46525" lon="3.15503">
        <ele>104</ele>
        <time>2020-02-04T16:09:19.344Z</time>
      </trkpt>
      <trkpt lat="42.4651" lon="3.15467">
        <ele>104</ele>
        <time>2020-02-04T16:09:38.163Z</time>
      </trkpt>
      <trkpt lat="42.46481" lon="3.15316">
        <ele>96</ele>
        <time>2020-02-04T16:09:57.000Z</time>
      </trkpt>
      <trkpt lat="42.46492" lon="3.15276">
        <ele>93</ele>
        <time>2020-02-04T16:10:15.842Z</time>
      </trkpt>
      <trkpt lat="42.46522" lon="3.15237">
        <ele>100</ele>
        <time>2020-02-04T16:10:34.691Z</time>
      </trkpt>
      <trkpt lat="42.46538" lon="3.15193">
        <ele>102</ele>
        <time>2020-02-04T16:10:53.546Z</time>
      </trkpt>
      <trkpt lat="42.46538" lon="3.15193">
        <ele>102</ele>
        <time>2020-02-04T16:11:12.401Z</time>
      </trkpt>
      <trkpt lat="42.4655" lon="3.15144">
        <ele>114</ele>
        <time>2020-02-04T16:11:31.262Z</time>
      </trkpt>
      <trkpt lat="42.46533" lon="3.15116">
        <ele>113</ele>
        <time>2020-02-04T16:11:50.127Z</time>
      </trkpt>
      <trkpt lat="42.46521" lon="3.15117">
        <ele>112</ele>
        <time>2020-02-04T16:12:08.994Z</time>
      </trkpt>
      <trkpt lat="42.46485" lon="3.15144">
        <ele>96</ele>
        <time>2020-02-04T16:12:27.868Z</time>
      </trkpt>
      <trkpt lat="42.46452" lon="3.15146">
        <ele>95</ele>
        <time>2020-02-04T16:12:46.747Z</time>
      </trkpt>
      <trkpt lat="42.46363" lon="3.15131">
        <ele>86</ele>
        <time>2020-02-04T16:13:05.641Z</time>
      </trkpt>
      <trkpt lat="42.46309" lon="3.15092">
        <ele>83</ele>
        <time>2020-02-04T16:13:24.544Z</time>
      </trkpt>
      <trkpt lat="42.46259" lon="3.14988">
        <ele>81</ele>
        <time>2020-02-04T16:13:43.462Z</time>
      </trkpt>
      <trkpt lat="42.46213" lon="3.14963">
        <ele>73</ele>
        <time>2020-02-04T16:14:02.388Z</time>
      </trkpt>
      <trkpt lat="42.46191" lon="3.14937">
        <ele>74</ele>
        <time>2020-02-04T16:14:21.319Z</time>
      </trkpt>
      <trkpt lat="42.4619" lon="3.14907">
        <ele>80</ele>
        <time>2020-02-04T16:14:40.253Z</time>
      </trkpt>
      <trkpt lat="42.46209" lon="3.14849">
        <ele>89</ele>
        <time>2020-02-04T16:14:59.195Z</time>
      </trkpt>
      <trkpt lat="42.462" lon="3.14833">
        <ele>92</ele>
        <time>2020-02-04T16:15:18.139Z</time>
      </trkpt>
      <trkpt lat="42.46189" lon="3.14833">
        <ele>92</ele>
        <time>2020-02-04T16:15:37.085Z</time>
      </trkpt>
      <trkpt lat="42.46171" lon="3.14849">
        <ele>88</ele>
        <time>2020-02-04T16:15:56.034Z</time>
      </trkpt>
      <trkpt lat="42.46119" lon="3.14908">
        <ele>77</ele>
        <time>2020-02-04T16:16:14.994Z</time>
      </trkpt>
      <trkpt lat="42.46104" lon="3.14948">
        <ele>72</ele>
        <time>2020-02-04T16:16:33.960Z</time>
      </trkpt>
      <trkpt lat="42.4611" lon="3.15">
        <ele>64</ele>
        <time>2020-02-04T16:16:52.932Z</time>
      </trkpt>
      <trkpt lat="42.46098" lon="3.15032">
        <ele>61</ele>
        <time>2020-02-04T16:17:11.908Z</time>
      </trkpt>
      <trkpt lat="42.46083" lon="3.15036">
        <ele>63</ele>
        <time>2020-02-04T16:17:30.887Z</time>
      </trkpt>
      <trkpt lat="42.46046" lon="3.15013">
        <ele>58</ele>
        <time>2020-02-04T16:17:49.872Z</time>
      </trkpt>
      <trkpt lat="42.46026" lon="3.1499">
        <ele>55</ele>
        <time>2020-02-04T16:18:08.861Z</time>
      </trkpt>
      <trkpt lat="42.46018" lon="3.14962">
        <ele>56</ele>
        <time>2020-02-04T16:18:27.854Z</time>
      </trkpt>
      <trkpt lat="42.46021" lon="3.14851">
        <ele>66</ele>
        <time>2020-02-04T16:18:46.860Z</time>
      </trkpt>
      <trkpt lat="42.46003" lon="3.14801">
        <ele>64</ele>
        <time>2020-02-04T16:19:05.873Z</time>
      </trkpt>
      <trkpt lat="42.46006" lon="3.1477">
        <ele>67</ele>
        <time>2020-02-04T16:19:24.889Z</time>
      </trkpt>
      <trkpt lat="42.46018" lon="3.14736">
        <ele>74</ele>
        <time>2020-02-04T16:19:43.910Z</time>
      </trkpt>
      <trkpt lat="42.46016" lon="3.14713">
        <ele>76</ele>
        <time>2020-02-04T16:20:02.933Z</time>
      </trkpt>
      <trkpt lat="42.46001" lon="3.14708">
        <ele>72</ele>
        <time>2020-02-04T16:20:21.959Z</time>
      </trkpt>
      <trkpt lat="42.45973" lon="3.14742">
        <ele>76</ele>
        <time>2020-02-04T16:20:40.991Z</time>
      </trkpt>
      <trkpt lat="42.4594" lon="3.14817">
        <ele>69</ele>
        <time>2020-02-04T16:21:00.033Z</time>
      </trkpt>
      <trkpt lat="42.45937" lon="3.14845">
        <ele>63</ele>
        <time>2020-02-04T16:21:19.079Z</time>
      </trkpt>
      <trkpt lat="42.45945" lon="3.14876">
        <ele>60</ele>
        <time>2020-02-04T16:21:38.129Z</time>
      </trkpt>
      <trkpt lat="42.45938" lon="3.14899">
        <ele>55</ele>
        <time>2020-02-04T16:21:57.182Z</time>
      </trkpt>
      <trkpt lat="42.45914" lon="3.14899">
        <ele>53</ele>
        <time>2020-02-04T16:22:16.238Z</time>
      </trkpt>
      <trkpt lat="42.45832" lon="3.14837">
        <ele>65</ele>
        <time>2020-02-04T16:22:35.309Z</time>
      </trkpt>
      <trkpt lat="42.45824" lon="3.14843">
        <ele>65</ele>
        <time>2020-02-04T16:22:54.382Z</time>
      </trkpt>
      <trkpt lat="42.45824" lon="3.14843">
        <ele>65</ele>
        <time>2020-02-04T16:23:13.455Z</time>
      </trkpt>
      <trkpt lat="42.45816" lon="3.14855">
        <ele>65</ele>
        <time>2020-02-04T16:23:32.530Z</time>
      </trkpt>
      <trkpt lat="42.45824" lon="3.14905">
        <ele>58</ele>
        <time>2020-02-04T16:23:51.611Z</time>
      </trkpt>
      <trkpt lat="42.45824" lon="3.14905">
        <ele>58</ele>
        <time>2020-02-04T16:24:10.692Z</time>
      </trkpt>
      <trkpt lat="42.45832" lon="3.1495">
        <ele>54</ele>
        <time>2020-02-04T16:24:29.778Z</time>
      </trkpt>
      <trkpt lat="42.45822" lon="3.14983">
        <ele>56</ele>
        <time>2020-02-04T16:24:48.869Z</time>
      </trkpt>
      <trkpt lat="42.45822" lon="3.15008">
        <ele>57</ele>
        <time>2020-02-04T16:25:07.962Z</time>
      </trkpt>
      <trkpt lat="42.45832" lon="3.15034">
        <ele>57</ele>
        <time>2020-02-04T16:25:27.059Z</time>
      </trkpt>
      <trkpt lat="42.45862" lon="3.15066">
        <ele>51</ele>
        <time>2020-02-04T16:25:46.162Z</time>
      </trkpt>
      <trkpt lat="42.45876" lon="3.15091">
        <ele>50</ele>
        <time>2020-02-04T16:26:05.269Z</time>
      </trkpt>
      <trkpt lat="42.45901" lon="3.15178">
        <ele>49</ele>
        <time>2020-02-04T16:26:24.387Z</time>
      </trkpt>
      <trkpt lat="42.45899" lon="3.15275">
        <ele>53</ele>
        <time>2020-02-04T16:26:43.516Z</time>
      </trkpt>
      <trkpt lat="42.45912" lon="3.15353">
        <ele>46</ele>
        <time>2020-02-04T16:27:02.655Z</time>
      </trkpt>
      <trkpt lat="42.45907" lon="3.15375">
        <ele>45</ele>
        <time>2020-02-04T16:27:21.796Z</time>
      </trkpt>
      <trkpt lat="42.45898" lon="3.15386">
        <ele>46</ele>
        <time>2020-02-04T16:27:40.939Z</time>
      </trkpt>
      <trkpt lat="42.45874" lon="3.15393">
        <ele>49</ele>
        <time>2020-02-04T16:28:00.086Z</time>
      </trkpt>
      <trkpt lat="42.45806" lon="3.15362">
        <ele>61</ele>
        <time>2020-02-04T16:28:19.245Z</time>
      </trkpt>
      <trkpt lat="42.45786" lon="3.15365">
        <ele>63</ele>
        <time>2020-02-04T16:28:38.407Z</time>
      </trkpt>
      <trkpt lat="42.4566" lon="3.15499">
        <ele>52</ele>
        <time>2020-02-04T16:28:57.595Z</time>
      </trkpt>
      <trkpt lat="42.45652" lon="3.15518">
        <ele>53</ele>
        <time>2020-02-04T16:29:16.785Z</time>
      </trkpt>
      <trkpt lat="42.45654" lon="3.15533">
        <ele>52</ele>
        <time>2020-02-04T16:29:35.977Z</time>
      </trkpt>
      <trkpt lat="42.45665" lon="3.15569">
        <ele>51</ele>
        <time>2020-02-04T16:29:55.174Z</time>
      </trkpt>
      <trkpt lat="42.45665" lon="3.15569">
        <ele>51</ele>
        <time>2020-02-04T16:30:14.371Z</time>
      </trkpt>
      <trkpt lat="42.45694" lon="3.15624">
        <ele>49</ele>
        <time>2020-02-04T16:30:33.576Z</time>
      </trkpt>
      <trkpt lat="42.45697" lon="3.15648">
        <ele>50</ele>
        <time>2020-02-04T16:30:52.784Z</time>
      </trkpt>
      <trkpt lat="42.45623" lon="3.15796">
        <ele>56</ele>
        <time>2020-02-04T16:31:12.013Z</time>
      </trkpt>
      <trkpt lat="42.45579" lon="3.15847">
        <ele>56</ele>
        <time>2020-02-04T16:31:31.251Z</time>
      </trkpt>
      <trkpt lat="42.45555" lon="3.15868">
        <ele>54</ele>
        <time>2020-02-04T16:31:50.494Z</time>
      </trkpt>
      <trkpt lat="42.45521" lon="3.1586">
        <ele>57</ele>
        <time>2020-02-04T16:32:09.742Z</time>
      </trkpt>
      <trkpt lat="42.45505" lon="3.15832">
        <ele>64</ele>
        <time>2020-02-04T16:32:28.994Z</time>
      </trkpt>
      <trkpt lat="42.45474" lon="3.15831">
        <ele>69</ele>
        <time>2020-02-04T16:32:48.251Z</time>
      </trkpt>
      <trkpt lat="42.45392" lon="3.15883">
        <ele>59</ele>
        <time>2020-02-04T16:33:07.523Z</time>
      </trkpt>
      <trkpt lat="42.45344" lon="3.15884">
        <ele>56</ele>
        <time>2020-02-04T16:33:26.802Z</time>
      </trkpt>
      <trkpt lat="42.45317" lon="3.15864">
        <ele>59</ele>
        <time>2020-02-04T16:33:46.086Z</time>
      </trkpt>
      <trkpt lat="42.45237" lon="3.15755">
        <ele>73</ele>
        <time>2020-02-04T16:34:05.389Z</time>
      </trkpt>
      <trkpt lat="42.45222" lon="3.15753">
        <ele>72</ele>
        <time>2020-02-04T16:34:24.694Z</time>
      </trkpt>
      <trkpt lat="42.45139" lon="3.15788">
        <ele>58</ele>
        <time>2020-02-04T16:34:44.013Z</time>
      </trkpt>
      <trkpt lat="42.45119" lon="3.15788">
        <ele>57</ele>
        <time>2020-02-04T16:35:03.335Z</time>
      </trkpt>
      <trkpt lat="42.45098" lon="3.15756">
        <ele>60</ele>
        <time>2020-02-04T16:35:22.662Z</time>
      </trkpt>
      <trkpt lat="42.45103" lon="3.15693">
        <ele>67</ele>
        <time>2020-02-04T16:35:41.997Z</time>
      </trkpt>
      <trkpt lat="42.45097" lon="3.15661">
        <ele>72</ele>
        <time>2020-02-04T16:36:01.335Z</time>
      </trkpt>
      <trkpt lat="42.45091" lon="3.15655">
        <ele>72</ele>
        <time>2020-02-04T16:36:20.675Z</time>
      </trkpt>
      <trkpt lat="42.45076" lon="3.15662">
        <ele>70</ele>
        <time>2020-02-04T16:36:40.017Z</time>
      </trkpt>
      <trkpt lat="42.45057" lon="3.15704">
        <ele>68</ele>
        <time>2020-02-04T16:36:59.365Z</time>
      </trkpt>
      <trkpt lat="42.44991" lon="3.15761">
        <ele>64</ele>
        <time>2020-02-04T16:37:18.726Z</time>
      </trkpt>
      <trkpt lat="42.44971" lon="3.15791">
        <ele>66</ele>
        <time>2020-02-04T16:37:38.091Z</time>
      </trkpt>
      <trkpt lat="42.44957" lon="3.15987">
        <ele>57</ele>
        <time>2020-02-04T16:37:57.480Z</time>
      </trkpt>
      <trkpt lat="42.44942" lon="3.16003">
        <ele>57</ele>
        <time>2020-02-04T16:38:16.872Z</time>
      </trkpt>
      <trkpt lat="42.44888" lon="3.1601">
        <ele>65</ele>
        <time>2020-02-04T16:38:36.272Z</time>
      </trkpt>
      <trkpt lat="42.44867" lon="3.16027">
        <ele>66</ele>
        <time>2020-02-04T16:38:55.676Z</time>
      </trkpt>
      <trkpt lat="42.44863" lon="3.16065">
        <ele>64</ele>
        <time>2020-02-04T16:39:15.085Z</time>
      </trkpt>
      <trkpt lat="42.44897" lon="3.16205">
        <ele>55</ele>
        <time>2020-02-04T16:39:34.511Z</time>
      </trkpt>
      <trkpt lat="42.44879" lon="3.16272">
        <ele>57</ele>
        <time>2020-02-04T16:39:53.946Z</time>
      </trkpt>
      <trkpt lat="42.44874" lon="3.1632">
        <ele>53</ele>
        <time>2020-02-04T16:40:13.387Z</time>
      </trkpt>
      <trkpt lat="42.44862" lon="3.16347">
        <ele>52</ele>
        <time>2020-02-04T16:40:32.831Z</time>
      </trkpt>
      <trkpt lat="42.44853" lon="3.16356">
        <ele>53</ele>
        <time>2020-02-04T16:40:52.277Z</time>
      </trkpt>
      <trkpt lat="42.44807" lon="3.16368">
        <ele>64</ele>
        <time>2020-02-04T16:41:11.731Z</time>
      </trkpt>
      <trkpt lat="42.44799" lon="3.16378">
        <ele>65</ele>
        <time>2020-02-04T16:41:31.186Z</time>
      </trkpt>
      <trkpt lat="42.44793" lon="3.16402">
        <ele>65</ele>
        <time>2020-02-04T16:41:50.644Z</time>
      </trkpt>
      <trkpt lat="42.44804" lon="3.16485">
        <ele>56</ele>
        <time>2020-02-04T16:42:10.112Z</time>
      </trkpt>
      <trkpt lat="42.44801" lon="3.16529">
        <ele>53</ele>
        <time>2020-02-04T16:42:29.586Z</time>
      </trkpt>
      <trkpt lat="42.44788" lon="3.16566">
        <ele>53</ele>
        <time>2020-02-04T16:42:49.064Z</time>
      </trkpt>
      <trkpt lat="42.44756" lon="3.16608">
        <ele>56</ele>
        <time>2020-02-04T16:43:08.550Z</time>
      </trkpt>
      <trkpt lat="42.44714" lon="3.16654">
        <ele>54</ele>
        <time>2020-02-04T16:43:28.044Z</time>
      </trkpt>
      <trkpt lat="42.44714" lon="3.16654">
        <ele>54</ele>
        <time>2020-02-04T16:43:47.538Z</time>
      </trkpt>
      <trkpt lat="42.44634" lon="3.1674">
        <ele>46</ele>
        <time>2020-02-04T16:44:07.049Z</time>
      </trkpt>
      <trkpt lat="42.44634" lon="3.1674">
        <ele>46</ele>
        <time>2020-02-04T16:44:26.560Z</time>
      </trkpt>
      <trkpt lat="42.44612" lon="3.1676">
        <ele>45</ele>
        <time>2020-02-04T16:44:46.075Z</time>
      </trkpt>
      <trkpt lat="42.44585" lon="3.16765">
        <ele>47</ele>
        <time>2020-02-04T16:45:05.594Z</time>
      </trkpt>
      <trkpt lat="42.44524" lon="3.16742">
        <ele>46</ele>
        <time>2020-02-04T16:45:25.123Z</time>
      </trkpt>
      <trkpt lat="42.44497" lon="3.16736">
        <ele>43</ele>
        <time>2020-02-04T16:45:44.657Z</time>
      </trkpt>
      <trkpt lat="42.44476" lon="3.16741">
        <ele>39</ele>
        <time>2020-02-04T16:46:04.194Z</time>
      </trkpt>
      <trkpt lat="42.44471" lon="3.16745">
        <ele>38</ele>
        <time>2020-02-04T16:46:23.732Z</time>
      </trkpt>
      <trkpt lat="42.44444" lon="3.1679">
        <ele>27</ele>
        <time>2020-02-04T16:46:43.277Z</time>
      </trkpt>
      <trkpt lat="42.44424" lon="3.1681">
        <ele>23</ele>
        <time>2020-02-04T16:47:02.826Z</time>
      </trkpt>
      <trkpt lat="42.44391" lon="3.16812">
        <ele>20</ele>
        <time>2020-02-04T16:47:22.380Z</time>
      </trkpt>
      <trkpt lat="42.44314" lon="3.16773">
        <ele>19</ele>
        <time>2020-02-04T16:47:41.947Z</time>
      </trkpt>
      <trkpt lat="42.44261" lon="3.16762">
        <ele>13</ele>
        <time>2020-02-04T16:48:01.523Z</time>
      </trkpt>
      <trkpt lat="42.44247" lon="3.1675">
        <ele>13</ele>
        <time>2020-02-04T16:48:21.102Z</time>
      </trkpt>
      <trkpt lat="42.44234" lon="3.16731">
        <ele>13</ele>
        <time>2020-02-04T16:48:40.684Z</time>
      </trkpt>
      <trkpt lat="42.44228" lon="3.16708">
        <ele>14</ele>
        <time>2020-02-04T16:49:00.269Z</time>
      </trkpt>
      <trkpt lat="42.44233" lon="3.1665">
        <ele>15</ele>
        <time>2020-02-04T16:49:19.860Z</time>
      </trkpt>
      <trkpt lat="42.44233" lon="3.1665">
        <ele>15</ele>
        <time>2020-02-04T16:49:39.451Z</time>
      </trkpt>
      <trkpt lat="42.44248" lon="3.16617">
        <ele>15</ele>
        <time>2020-02-04T16:49:59.047Z</time>
      </trkpt>
      <trkpt lat="42.44241" lon="3.1659">
        <ele>14</ele>
        <time>2020-02-04T16:50:18.646Z</time>
      </trkpt>
      <trkpt lat="42.44241" lon="3.1659">
        <ele>14</ele>
        <time>2020-02-04T16:50:38.245Z</time>
      </trkpt>
      <trkpt lat="42.44234" lon="3.16582">
        <ele>13</ele>
        <time>2020-02-04T16:50:57.846Z</time>
      </trkpt>
      <trkpt lat="42.44232" lon="3.1658">
        <ele>13</ele>
        <time>2020-02-04T16:51:17.447Z</time>
      </trkpt>
      <trkpt lat="42.44224" lon="3.16574">
        <ele>13</ele>
        <time>2020-02-04T16:51:37.050Z</time>
      </trkpt>
      <trkpt lat="42.44214" lon="3.16568">
        <ele>12</ele>
        <time>2020-02-04T16:51:56.654Z</time>
      </trkpt>
      <trkpt lat="42.44179" lon="3.16543">
        <ele>11</ele>
        <time>2020-02-04T16:52:16.265Z</time>
      </trkpt>
      <trkpt lat="42.44144" lon="3.16532">
        <ele>12</ele>
        <time>2020-02-04T16:52:35.882Z</time>
      </trkpt>
      <trkpt lat="42.44108" lon="3.16558">
        <ele>13</ele>
        <time>2020-02-04T16:52:55.505Z</time>
      </trkpt>
      <trkpt lat="42.44082" lon="3.16585">
        <ele>11</ele>
        <time>2020-02-04T16:53:15.133Z</time>
      </trkpt>
      <trkpt lat="42.44075" lon="3.16594">
        <ele>12</ele>
        <time>2020-02-04T16:53:34.763Z</time>
      </trkpt>
      <trkpt lat="42.44075" lon="3.16594">
        <ele>12</ele>
        <time>2020-02-04T16:53:54.393Z</time>
      </trkpt>
      <trkpt lat="42.44058" lon="3.16612">
        <ele>18</ele>
        <time>2020-02-04T16:54:14.026Z</time>
      </trkpt>
      <trkpt lat="42.44031" lon="3.16617">
        <ele>25</ele>
        <time>2020-02-04T16:54:33.664Z</time>
      </trkpt>
      <trkpt lat="42.44014" lon="3.1664">
        <ele>24</ele>
        <time>2020-02-04T16:54:53.306Z</time>
      </trkpt>
      <trkpt lat="42.44" lon="3.16687">
        <ele>18</ele>
        <time>2020-02-04T16:55:12.954Z</time>
      </trkpt>
      <trkpt lat="42.44007" lon="3.16723">
        <ele>18</ele>
        <time>2020-02-04T16:55:32.606Z</time>
      </trkpt>
      <trkpt lat="42.44007" lon="3.16723">
        <ele>18</ele>
        <time>2020-02-04T16:55:52.258Z</time>
      </trkpt>
      <trkpt lat="42.44037" lon="3.16761">
        <ele>21</ele>
        <time>2020-02-04T16:56:11.917Z</time>
      </trkpt>
      <trkpt lat="42.4401" lon="3.16862">
        <ele>26</ele>
        <time>2020-02-04T16:56:31.588Z</time>
      </trkpt>
      <trkpt lat="42.43988" lon="3.1689">
        <ele>27</ele>
        <time>2020-02-04T16:56:51.264Z</time>
      </trkpt>
      <trkpt lat="42.43911" lon="3.16926">
        <ele>38</ele>
        <time>2020-02-04T16:57:10.953Z</time>
      </trkpt>
      <trkpt lat="42.43903" lon="3.16946">
        <ele>41</ele>
        <time>2020-02-04T16:57:30.645Z</time>
      </trkpt>
      <trkpt lat="42.43909" lon="3.16958">
        <ele>40</ele>
        <time>2020-02-04T16:57:50.338Z</time>
      </trkpt>
      <trkpt lat="42.43993" lon="3.16997">
        <ele>28</ele>
        <time>2020-02-04T16:58:10.046Z</time>
      </trkpt>
      <trkpt lat="42.44002" lon="3.17008">
        <ele>28</ele>
        <time>2020-02-04T16:58:29.756Z</time>
      </trkpt>
      <trkpt lat="42.43995" lon="3.17037">
        <ele>29</ele>
        <time>2020-02-04T16:58:49.469Z</time>
      </trkpt>
      <trkpt lat="42.43971" lon="3.17071">
        <ele>34</ele>
        <time>2020-02-04T16:59:09.188Z</time>
      </trkpt>
      <trkpt lat="42.43956" lon="3.17094">
        <ele>40</ele>
        <time>2020-02-04T16:59:28.911Z</time>
      </trkpt>
      <trkpt lat="42.43956" lon="3.17094">
        <ele>40</ele>
        <time>2020-02-04T16:59:48.634Z</time>
      </trkpt>
      <trkpt lat="42.43933" lon="3.17133">
        <ele>44</ele>
        <time>2020-02-04T17:00:08.362Z</time>
      </trkpt>
      <trkpt lat="42.43912" lon="3.17172">
        <ele>47</ele>
        <time>2020-02-04T17:00:28.096Z</time>
      </trkpt>
      <trkpt lat="42.43912" lon="3.17193">
        <ele>48</ele>
        <time>2020-02-04T17:00:47.833Z</time>
      </trkpt>
      <trkpt lat="42.43918" lon="3.17202">
        <ele>47</ele>
        <time>2020-02-04T17:01:07.571Z</time>
      </trkpt>
      <trkpt lat="42.44007" lon="3.17224">
        <ele>32</ele>
        <time>2020-02-04T17:01:27.324Z</time>
      </trkpt>
      <trkpt lat="42.44013" lon="3.17229">
        <ele>32</ele>
        <time>2020-02-04T17:01:47.078Z</time>
      </trkpt>
      <trkpt lat="42.4402" lon="3.1724">
        <ele>32</ele>
        <time>2020-02-04T17:02:06.833Z</time>
      </trkpt>
      <trkpt lat="42.44026" lon="3.1727">
        <ele>35</ele>
        <time>2020-02-04T17:02:26.592Z</time>
      </trkpt>
      <trkpt lat="42.44026" lon="3.1727">
        <ele>35</ele>
        <time>2020-02-04T17:02:46.351Z</time>
      </trkpt>
      <trkpt lat="42.44038" lon="3.17421">
        <ele>41</ele>
        <time>2020-02-04T17:03:06.128Z</time>
      </trkpt>
      <trkpt lat="42.44033" lon="3.17499">
        <ele>39</ele>
        <time>2020-02-04T17:03:25.914Z</time>
      </trkpt>
    </trkseg>
  </trk>
</gpx>